<?xml version="1.0" encoding="UTF-8" standalone="no" ?>
<gpx xmlns="http://www.topografix.com/GPX/1/1" xmlns:xsi="http://www.w3.org/2001/XMLSchema-instance" xsi:schemaLocation="http://www.topografix.com/GPX/1/1 http://www.topografix.com/GPX/1/1/gpx.xsd" version="1.1" creator="VisuGPX - https://www.visugpx.com">
  <metadata>
    <name>Jougne, La Jougnenaz</name>
  </metadata>
  <trk>
    <name><![CDATA[T2022-11-08-15-24]]></name>
    <extensions>
      <line xmlns="http://www.topografix.com/GPX/gpx_style/0/2">
        <color>0000FF</color>
        <width>4</width>
      </line>
    </extensions>
    <trkseg>
      <trkpt lat="46.75715" lon="6.39152">
        <ele>869.9</ele>
        <time>2022-11-08T08:03:09Z</time>
      </trkpt>
      <trkpt lat="46.75721" lon="6.39143">
        <ele>870.9</ele>
        <time>2022-11-08T08:03:12Z</time>
      </trkpt>
      <trkpt lat="46.75724" lon="6.39137">
        <ele>871.7</ele>
        <time>2022-11-08T08:03:15Z</time>
      </trkpt>
      <trkpt lat="46.75727" lon="6.39133">
        <ele>874.6</ele>
        <time>2022-11-08T08:03:58Z</time>
      </trkpt>
      <trkpt lat="46.75724" lon="6.39129">
        <ele>874.5</ele>
        <time>2022-11-08T08:04:16Z</time>
      </trkpt>
      <trkpt lat="46.75722" lon="6.39122">
        <ele>871.9</ele>
        <time>2022-11-08T08:04:50Z</time>
      </trkpt>
      <trkpt lat="46.75719" lon="6.39116">
        <ele>873.4</ele>
        <time>2022-11-08T08:04:56Z</time>
      </trkpt>
      <trkpt lat="46.75715" lon="6.39112">
        <ele>874.5</ele>
        <time>2022-11-08T08:05:01Z</time>
      </trkpt>
      <trkpt lat="46.75713" lon="6.39105">
        <ele>875.6</ele>
        <time>2022-11-08T08:05:07Z</time>
      </trkpt>
      <trkpt lat="46.75711" lon="6.39098">
        <ele>876.3</ele>
        <time>2022-11-08T08:05:16Z</time>
      </trkpt>
      <trkpt lat="46.75708" lon="6.39092">
        <ele>875.1</ele>
        <time>2022-11-08T08:05:24Z</time>
      </trkpt>
      <trkpt lat="46.75706" lon="6.39086">
        <ele>874.5</ele>
        <time>2022-11-08T08:05:30Z</time>
      </trkpt>
      <trkpt lat="46.75704" lon="6.3908">
        <ele>874.8</ele>
        <time>2022-11-08T08:05:36Z</time>
      </trkpt>
      <trkpt lat="46.75702" lon="6.39072">
        <ele>875.5</ele>
        <time>2022-11-08T08:05:41Z</time>
      </trkpt>
      <trkpt lat="46.75699" lon="6.39066">
        <ele>876.1</ele>
        <time>2022-11-08T08:05:45Z</time>
      </trkpt>
      <trkpt lat="46.75698" lon="6.39059">
        <ele>876.9</ele>
        <time>2022-11-08T08:05:50Z</time>
      </trkpt>
      <trkpt lat="46.75698" lon="6.39052">
        <ele>877.4</ele>
        <time>2022-11-08T08:05:55Z</time>
      </trkpt>
      <trkpt lat="46.75696" lon="6.39045">
        <ele>877.1</ele>
        <time>2022-11-08T08:06:00Z</time>
      </trkpt>
      <trkpt lat="46.75694" lon="6.39039">
        <ele>877.1</ele>
        <time>2022-11-08T08:06:05Z</time>
      </trkpt>
      <trkpt lat="46.75692" lon="6.39032">
        <ele>877.3</ele>
        <time>2022-11-08T08:06:10Z</time>
      </trkpt>
      <trkpt lat="46.7569" lon="6.39026">
        <ele>877.2</ele>
        <time>2022-11-08T08:06:16Z</time>
      </trkpt>
      <trkpt lat="46.7569" lon="6.39019">
        <ele>877.3</ele>
        <time>2022-11-08T08:06:21Z</time>
      </trkpt>
      <trkpt lat="46.75689" lon="6.39011">
        <ele>877.4</ele>
        <time>2022-11-08T08:06:26Z</time>
      </trkpt>
      <trkpt lat="46.75687" lon="6.39004">
        <ele>876.9</ele>
        <time>2022-11-08T08:06:31Z</time>
      </trkpt>
      <trkpt lat="46.75686" lon="6.38997">
        <ele>876.8</ele>
        <time>2022-11-08T08:06:36Z</time>
      </trkpt>
      <trkpt lat="46.75684" lon="6.38991">
        <ele>876.8</ele>
        <time>2022-11-08T08:06:40Z</time>
      </trkpt>
      <trkpt lat="46.75682" lon="6.38984">
        <ele>876.4</ele>
        <time>2022-11-08T08:06:45Z</time>
      </trkpt>
      <trkpt lat="46.75681" lon="6.38978">
        <ele>875.8</ele>
        <time>2022-11-08T08:06:50Z</time>
      </trkpt>
      <trkpt lat="46.75679" lon="6.38971">
        <ele>874.9</ele>
        <time>2022-11-08T08:06:55Z</time>
      </trkpt>
      <trkpt lat="46.75675" lon="6.38965">
        <ele>873.5</ele>
        <time>2022-11-08T08:07:00Z</time>
      </trkpt>
      <trkpt lat="46.75671" lon="6.38962">
        <ele>872.6</ele>
        <time>2022-11-08T08:07:04Z</time>
      </trkpt>
      <trkpt lat="46.75667" lon="6.38958">
        <ele>871.8</ele>
        <time>2022-11-08T08:07:09Z</time>
      </trkpt>
      <trkpt lat="46.75665" lon="6.38951">
        <ele>871.2</ele>
        <time>2022-11-08T08:07:14Z</time>
      </trkpt>
      <trkpt lat="46.75662" lon="6.38945">
        <ele>871.9</ele>
        <time>2022-11-08T08:07:19Z</time>
      </trkpt>
      <trkpt lat="46.75659" lon="6.38939">
        <ele>871.7</ele>
        <time>2022-11-08T08:07:24Z</time>
      </trkpt>
      <trkpt lat="46.75656" lon="6.38934">
        <ele>871.1</ele>
        <time>2022-11-08T08:07:28Z</time>
      </trkpt>
      <trkpt lat="46.75652" lon="6.38928">
        <ele>870</ele>
        <time>2022-11-08T08:07:33Z</time>
      </trkpt>
      <trkpt lat="46.75648" lon="6.38925">
        <ele>869.3</ele>
        <time>2022-11-08T08:07:38Z</time>
      </trkpt>
      <trkpt lat="46.75644" lon="6.3892">
        <ele>868.5</ele>
        <time>2022-11-08T08:07:42Z</time>
      </trkpt>
      <trkpt lat="46.7564" lon="6.38915">
        <ele>867.5</ele>
        <time>2022-11-08T08:07:47Z</time>
      </trkpt>
      <trkpt lat="46.75637" lon="6.3891">
        <ele>867.1</ele>
        <time>2022-11-08T08:07:52Z</time>
      </trkpt>
      <trkpt lat="46.75633" lon="6.38907">
        <ele>867.7</ele>
        <time>2022-11-08T08:07:56Z</time>
      </trkpt>
      <trkpt lat="46.75629" lon="6.38904">
        <ele>868.8</ele>
        <time>2022-11-08T08:08:01Z</time>
      </trkpt>
      <trkpt lat="46.75625" lon="6.389">
        <ele>868.9</ele>
        <time>2022-11-08T08:08:06Z</time>
      </trkpt>
      <trkpt lat="46.7562" lon="6.38896">
        <ele>869</ele>
        <time>2022-11-08T08:08:11Z</time>
      </trkpt>
      <trkpt lat="46.75615" lon="6.38892">
        <ele>869.3</ele>
        <time>2022-11-08T08:08:15Z</time>
      </trkpt>
      <trkpt lat="46.75611" lon="6.38888">
        <ele>870.1</ele>
        <time>2022-11-08T08:08:19Z</time>
      </trkpt>
      <trkpt lat="46.75608" lon="6.38884">
        <ele>870.7</ele>
        <time>2022-11-08T08:08:23Z</time>
      </trkpt>
      <trkpt lat="46.75603" lon="6.3888">
        <ele>871.4</ele>
        <time>2022-11-08T08:08:27Z</time>
      </trkpt>
      <trkpt lat="46.75599" lon="6.38877">
        <ele>871.9</ele>
        <time>2022-11-08T08:08:31Z</time>
      </trkpt>
      <trkpt lat="46.75595" lon="6.38873">
        <ele>872.1</ele>
        <time>2022-11-08T08:08:37Z</time>
      </trkpt>
      <trkpt lat="46.7559" lon="6.38868">
        <ele>871.8</ele>
        <time>2022-11-08T08:08:42Z</time>
      </trkpt>
      <trkpt lat="46.75587" lon="6.38864">
        <ele>871.2</ele>
        <time>2022-11-08T08:08:46Z</time>
      </trkpt>
      <trkpt lat="46.75583" lon="6.3886">
        <ele>870.5</ele>
        <time>2022-11-08T08:08:50Z</time>
      </trkpt>
      <trkpt lat="46.75579" lon="6.38855">
        <ele>869.8</ele>
        <time>2022-11-08T08:08:54Z</time>
      </trkpt>
      <trkpt lat="46.75576" lon="6.38851">
        <ele>869.3</ele>
        <time>2022-11-08T08:08:58Z</time>
      </trkpt>
      <trkpt lat="46.75573" lon="6.38845">
        <ele>868.9</ele>
        <time>2022-11-08T08:09:02Z</time>
      </trkpt>
      <trkpt lat="46.75569" lon="6.3884">
        <ele>868.5</ele>
        <time>2022-11-08T08:09:06Z</time>
      </trkpt>
      <trkpt lat="46.75564" lon="6.38836">
        <ele>868.4</ele>
        <time>2022-11-08T08:09:10Z</time>
      </trkpt>
      <trkpt lat="46.7556" lon="6.38832">
        <ele>868.5</ele>
        <time>2022-11-08T08:09:15Z</time>
      </trkpt>
      <trkpt lat="46.75556" lon="6.38826">
        <ele>868.6</ele>
        <time>2022-11-08T08:09:20Z</time>
      </trkpt>
      <trkpt lat="46.75552" lon="6.38822">
        <ele>868.7</ele>
        <time>2022-11-08T08:09:24Z</time>
      </trkpt>
      <trkpt lat="46.75549" lon="6.38817">
        <ele>868.6</ele>
        <time>2022-11-08T08:09:28Z</time>
      </trkpt>
      <trkpt lat="46.75544" lon="6.38813">
        <ele>868.3</ele>
        <time>2022-11-08T08:09:33Z</time>
      </trkpt>
      <trkpt lat="46.7554" lon="6.38808">
        <ele>868.5</ele>
        <time>2022-11-08T08:09:37Z</time>
      </trkpt>
      <trkpt lat="46.75537" lon="6.38804">
        <ele>869.1</ele>
        <time>2022-11-08T08:09:40Z</time>
      </trkpt>
      <trkpt lat="46.75533" lon="6.38799">
        <ele>870</ele>
        <time>2022-11-08T08:09:45Z</time>
      </trkpt>
      <trkpt lat="46.75529" lon="6.38795">
        <ele>870.2</ele>
        <time>2022-11-08T08:09:50Z</time>
      </trkpt>
      <trkpt lat="46.75526" lon="6.3879">
        <ele>870.2</ele>
        <time>2022-11-08T08:09:55Z</time>
      </trkpt>
      <trkpt lat="46.75522" lon="6.38787">
        <ele>870.1</ele>
        <time>2022-11-08T08:09:59Z</time>
      </trkpt>
      <trkpt lat="46.75517" lon="6.38783">
        <ele>869.9</ele>
        <time>2022-11-08T08:10:03Z</time>
      </trkpt>
      <trkpt lat="46.75513" lon="6.38777">
        <ele>869.3</ele>
        <time>2022-11-08T08:10:09Z</time>
      </trkpt>
      <trkpt lat="46.75509" lon="6.38773">
        <ele>869</ele>
        <time>2022-11-08T08:10:14Z</time>
      </trkpt>
      <trkpt lat="46.75506" lon="6.38768">
        <ele>868.8</ele>
        <time>2022-11-08T08:10:18Z</time>
      </trkpt>
      <trkpt lat="46.75503" lon="6.38762">
        <ele>868.9</ele>
        <time>2022-11-08T08:10:22Z</time>
      </trkpt>
      <trkpt lat="46.75499" lon="6.38758">
        <ele>868.4</ele>
        <time>2022-11-08T08:10:27Z</time>
      </trkpt>
      <trkpt lat="46.75495" lon="6.38754">
        <ele>867.1</ele>
        <time>2022-11-08T08:10:32Z</time>
      </trkpt>
      <trkpt lat="46.75491" lon="6.38749">
        <ele>865.9</ele>
        <time>2022-11-08T08:10:36Z</time>
      </trkpt>
      <trkpt lat="46.75488" lon="6.38743">
        <ele>864.7</ele>
        <time>2022-11-08T08:10:40Z</time>
      </trkpt>
      <trkpt lat="46.75485" lon="6.38735">
        <ele>864.3</ele>
        <time>2022-11-08T08:10:44Z</time>
      </trkpt>
      <trkpt lat="46.75482" lon="6.38731">
        <ele>864.3</ele>
        <time>2022-11-08T08:10:48Z</time>
      </trkpt>
      <trkpt lat="46.75478" lon="6.38727">
        <ele>864.3</ele>
        <time>2022-11-08T08:10:52Z</time>
      </trkpt>
      <trkpt lat="46.75475" lon="6.38722">
        <ele>864.1</ele>
        <time>2022-11-08T08:10:56Z</time>
      </trkpt>
      <trkpt lat="46.75472" lon="6.38717">
        <ele>863.5</ele>
        <time>2022-11-08T08:11:00Z</time>
      </trkpt>
      <trkpt lat="46.75469" lon="6.3871">
        <ele>862.6</ele>
        <time>2022-11-08T08:11:05Z</time>
      </trkpt>
      <trkpt lat="46.75466" lon="6.38703">
        <ele>861.7</ele>
        <time>2022-11-08T08:11:09Z</time>
      </trkpt>
      <trkpt lat="46.75463" lon="6.38698">
        <ele>861.1</ele>
        <time>2022-11-08T08:11:13Z</time>
      </trkpt>
      <trkpt lat="46.7546" lon="6.38693">
        <ele>860.9</ele>
        <time>2022-11-08T08:11:17Z</time>
      </trkpt>
      <trkpt lat="46.75458" lon="6.38687">
        <ele>861</ele>
        <time>2022-11-08T08:11:21Z</time>
      </trkpt>
      <trkpt lat="46.75455" lon="6.38681">
        <ele>861.3</ele>
        <time>2022-11-08T08:11:25Z</time>
      </trkpt>
      <trkpt lat="46.75451" lon="6.38676">
        <ele>861.8</ele>
        <time>2022-11-08T08:11:29Z</time>
      </trkpt>
      <trkpt lat="46.75451" lon="6.38669">
        <ele>861.7</ele>
        <time>2022-11-08T08:11:35Z</time>
      </trkpt>
      <trkpt lat="46.7545" lon="6.38662">
        <ele>861.1</ele>
        <time>2022-11-08T08:11:41Z</time>
      </trkpt>
      <trkpt lat="46.75449" lon="6.38655">
        <ele>860.4</ele>
        <time>2022-11-08T08:11:46Z</time>
      </trkpt>
      <trkpt lat="46.75448" lon="6.38648">
        <ele>860</ele>
        <time>2022-11-08T08:11:50Z</time>
      </trkpt>
      <trkpt lat="46.75448" lon="6.3864">
        <ele>859.9</ele>
        <time>2022-11-08T08:11:54Z</time>
      </trkpt>
      <trkpt lat="46.75448" lon="6.38633">
        <ele>860</ele>
        <time>2022-11-08T08:11:58Z</time>
      </trkpt>
      <trkpt lat="46.75449" lon="6.38625">
        <ele>860.4</ele>
        <time>2022-11-08T08:12:02Z</time>
      </trkpt>
      <trkpt lat="46.75449" lon="6.38618">
        <ele>860.9</ele>
        <time>2022-11-08T08:12:07Z</time>
      </trkpt>
      <trkpt lat="46.7545" lon="6.38611">
        <ele>861.2</ele>
        <time>2022-11-08T08:12:12Z</time>
      </trkpt>
      <trkpt lat="46.75449" lon="6.38603">
        <ele>861</ele>
        <time>2022-11-08T08:12:17Z</time>
      </trkpt>
      <trkpt lat="46.75449" lon="6.38596">
        <ele>861.1</ele>
        <time>2022-11-08T08:12:21Z</time>
      </trkpt>
      <trkpt lat="46.75448" lon="6.38588">
        <ele>861.3</ele>
        <time>2022-11-08T08:12:25Z</time>
      </trkpt>
      <trkpt lat="46.75447" lon="6.38581">
        <ele>860.9</ele>
        <time>2022-11-08T08:12:31Z</time>
      </trkpt>
      <trkpt lat="46.75446" lon="6.38573">
        <ele>860.2</ele>
        <time>2022-11-08T08:12:36Z</time>
      </trkpt>
      <trkpt lat="46.75443" lon="6.38568">
        <ele>860</ele>
        <time>2022-11-08T08:12:40Z</time>
      </trkpt>
      <trkpt lat="46.7544" lon="6.38561">
        <ele>860.5</ele>
        <time>2022-11-08T08:12:45Z</time>
      </trkpt>
      <trkpt lat="46.75438" lon="6.38555">
        <ele>861.2</ele>
        <time>2022-11-08T08:12:49Z</time>
      </trkpt>
      <trkpt lat="46.75434" lon="6.3855">
        <ele>862</ele>
        <time>2022-11-08T08:12:54Z</time>
      </trkpt>
      <trkpt lat="46.7543" lon="6.38546">
        <ele>862.4</ele>
        <time>2022-11-08T08:12:58Z</time>
      </trkpt>
      <trkpt lat="46.75426" lon="6.38541">
        <ele>862.4</ele>
        <time>2022-11-08T08:13:03Z</time>
      </trkpt>
      <trkpt lat="46.75421" lon="6.38536">
        <ele>862.5</ele>
        <time>2022-11-08T08:13:07Z</time>
      </trkpt>
      <trkpt lat="46.75417" lon="6.38532">
        <ele>862.6</ele>
        <time>2022-11-08T08:13:11Z</time>
      </trkpt>
      <trkpt lat="46.75413" lon="6.38528">
        <ele>862.9</ele>
        <time>2022-11-08T08:13:15Z</time>
      </trkpt>
      <trkpt lat="46.75409" lon="6.38525">
        <ele>862.7</ele>
        <time>2022-11-08T08:13:20Z</time>
      </trkpt>
      <trkpt lat="46.75405" lon="6.38521">
        <ele>862.4</ele>
        <time>2022-11-08T08:13:24Z</time>
      </trkpt>
      <trkpt lat="46.754" lon="6.38517">
        <ele>862.4</ele>
        <time>2022-11-08T08:13:28Z</time>
      </trkpt>
      <trkpt lat="46.75395" lon="6.38514">
        <ele>862.7</ele>
        <time>2022-11-08T08:13:32Z</time>
      </trkpt>
      <trkpt lat="46.7539" lon="6.3851">
        <ele>862.8</ele>
        <time>2022-11-08T08:13:36Z</time>
      </trkpt>
      <trkpt lat="46.75385" lon="6.38506">
        <ele>862.9</ele>
        <time>2022-11-08T08:13:40Z</time>
      </trkpt>
      <trkpt lat="46.7538" lon="6.38505">
        <ele>863.2</ele>
        <time>2022-11-08T08:13:44Z</time>
      </trkpt>
      <trkpt lat="46.75375" lon="6.38501">
        <ele>863.4</ele>
        <time>2022-11-08T08:13:50Z</time>
      </trkpt>
      <trkpt lat="46.7537" lon="6.38498">
        <ele>863.4</ele>
        <time>2022-11-08T08:13:55Z</time>
      </trkpt>
      <trkpt lat="46.75365" lon="6.38496">
        <ele>862.8</ele>
        <time>2022-11-08T08:14:00Z</time>
      </trkpt>
      <trkpt lat="46.7536" lon="6.38494">
        <ele>862.5</ele>
        <time>2022-11-08T08:14:05Z</time>
      </trkpt>
      <trkpt lat="46.75355" lon="6.38493">
        <ele>861.9</ele>
        <time>2022-11-08T08:14:09Z</time>
      </trkpt>
      <trkpt lat="46.7535" lon="6.38492">
        <ele>861</ele>
        <time>2022-11-08T08:14:14Z</time>
      </trkpt>
      <trkpt lat="46.75345" lon="6.3849">
        <ele>860.3</ele>
        <time>2022-11-08T08:14:19Z</time>
      </trkpt>
      <trkpt lat="46.75341" lon="6.38488">
        <ele>859.5</ele>
        <time>2022-11-08T08:14:24Z</time>
      </trkpt>
      <trkpt lat="46.75335" lon="6.38485">
        <ele>858.6</ele>
        <time>2022-11-08T08:14:29Z</time>
      </trkpt>
      <trkpt lat="46.75331" lon="6.38481">
        <ele>857.9</ele>
        <time>2022-11-08T08:14:34Z</time>
      </trkpt>
      <trkpt lat="46.75326" lon="6.38476">
        <ele>857.6</ele>
        <time>2022-11-08T08:14:39Z</time>
      </trkpt>
      <trkpt lat="46.75321" lon="6.38473">
        <ele>857.7</ele>
        <time>2022-11-08T08:14:44Z</time>
      </trkpt>
      <trkpt lat="46.75316" lon="6.38471">
        <ele>858.2</ele>
        <time>2022-11-08T08:14:49Z</time>
      </trkpt>
      <trkpt lat="46.75312" lon="6.38468">
        <ele>858.8</ele>
        <time>2022-11-08T08:14:53Z</time>
      </trkpt>
      <trkpt lat="46.75307" lon="6.38463">
        <ele>858.9</ele>
        <time>2022-11-08T08:14:58Z</time>
      </trkpt>
      <trkpt lat="46.75303" lon="6.3846">
        <ele>858.8</ele>
        <time>2022-11-08T08:15:02Z</time>
      </trkpt>
      <trkpt lat="46.75299" lon="6.38455">
        <ele>858.3</ele>
        <time>2022-11-08T08:15:07Z</time>
      </trkpt>
      <trkpt lat="46.75294" lon="6.38453">
        <ele>858.3</ele>
        <time>2022-11-08T08:15:14Z</time>
      </trkpt>
      <trkpt lat="46.7529" lon="6.38449">
        <ele>858.1</ele>
        <time>2022-11-08T08:15:18Z</time>
      </trkpt>
      <trkpt lat="46.75286" lon="6.38445">
        <ele>857.5</ele>
        <time>2022-11-08T08:15:22Z</time>
      </trkpt>
      <trkpt lat="46.75281" lon="6.38441">
        <ele>856.8</ele>
        <time>2022-11-08T08:15:27Z</time>
      </trkpt>
      <trkpt lat="46.75277" lon="6.3844">
        <ele>856.9</ele>
        <time>2022-11-08T08:15:31Z</time>
      </trkpt>
      <trkpt lat="46.75272" lon="6.38438">
        <ele>857.3</ele>
        <time>2022-11-08T08:15:36Z</time>
      </trkpt>
      <trkpt lat="46.75267" lon="6.38437">
        <ele>857.2</ele>
        <time>2022-11-08T08:15:41Z</time>
      </trkpt>
      <trkpt lat="46.75261" lon="6.38436">
        <ele>857.3</ele>
        <time>2022-11-08T08:15:46Z</time>
      </trkpt>
      <trkpt lat="46.75256" lon="6.38436">
        <ele>857.4</ele>
        <time>2022-11-08T08:15:51Z</time>
      </trkpt>
      <trkpt lat="46.75251" lon="6.38438">
        <ele>856.9</ele>
        <time>2022-11-08T08:15:56Z</time>
      </trkpt>
      <trkpt lat="46.75246" lon="6.3844">
        <ele>856.6</ele>
        <time>2022-11-08T08:16:01Z</time>
      </trkpt>
      <trkpt lat="46.75241" lon="6.38442">
        <ele>856.8</ele>
        <time>2022-11-08T08:16:05Z</time>
      </trkpt>
      <trkpt lat="46.75236" lon="6.38446">
        <ele>857</ele>
        <time>2022-11-08T08:16:09Z</time>
      </trkpt>
      <trkpt lat="46.75233" lon="6.38451">
        <ele>856.5</ele>
        <time>2022-11-08T08:16:13Z</time>
      </trkpt>
      <trkpt lat="46.7523" lon="6.38456">
        <ele>855.8</ele>
        <time>2022-11-08T08:16:17Z</time>
      </trkpt>
      <trkpt lat="46.75226" lon="6.38462">
        <ele>855.3</ele>
        <time>2022-11-08T08:16:21Z</time>
      </trkpt>
      <trkpt lat="46.75222" lon="6.38467">
        <ele>855.2</ele>
        <time>2022-11-08T08:16:25Z</time>
      </trkpt>
      <trkpt lat="46.75218" lon="6.38472">
        <ele>855.5</ele>
        <time>2022-11-08T08:16:29Z</time>
      </trkpt>
      <trkpt lat="46.75214" lon="6.38475">
        <ele>855.9</ele>
        <time>2022-11-08T08:16:33Z</time>
      </trkpt>
      <trkpt lat="46.75209" lon="6.38474">
        <ele>856.2</ele>
        <time>2022-11-08T08:16:37Z</time>
      </trkpt>
      <trkpt lat="46.75203" lon="6.38475">
        <ele>855.9</ele>
        <time>2022-11-08T08:16:41Z</time>
      </trkpt>
      <trkpt lat="46.75198" lon="6.38477">
        <ele>855.6</ele>
        <time>2022-11-08T08:16:45Z</time>
      </trkpt>
      <trkpt lat="46.75194" lon="6.38472">
        <ele>854.9</ele>
        <time>2022-11-08T08:16:52Z</time>
      </trkpt>
      <trkpt lat="46.7519" lon="6.38469">
        <ele>854.6</ele>
        <time>2022-11-08T08:16:57Z</time>
      </trkpt>
      <trkpt lat="46.75185" lon="6.38467">
        <ele>854.5</ele>
        <time>2022-11-08T08:17:01Z</time>
      </trkpt>
      <trkpt lat="46.75181" lon="6.38464">
        <ele>854.9</ele>
        <time>2022-11-08T08:17:05Z</time>
      </trkpt>
      <trkpt lat="46.75176" lon="6.38462">
        <ele>855.3</ele>
        <time>2022-11-08T08:17:10Z</time>
      </trkpt>
      <trkpt lat="46.75171" lon="6.38457">
        <ele>854.6</ele>
        <time>2022-11-08T08:17:16Z</time>
      </trkpt>
      <trkpt lat="46.75167" lon="6.38455">
        <ele>853.7</ele>
        <time>2022-11-08T08:17:20Z</time>
      </trkpt>
      <trkpt lat="46.75163" lon="6.38451">
        <ele>852.7</ele>
        <time>2022-11-08T08:17:24Z</time>
      </trkpt>
      <trkpt lat="46.75158" lon="6.38447">
        <ele>851.7</ele>
        <time>2022-11-08T08:17:29Z</time>
      </trkpt>
      <trkpt lat="46.75153" lon="6.38443">
        <ele>850.3</ele>
        <time>2022-11-08T08:17:34Z</time>
      </trkpt>
      <trkpt lat="46.7515" lon="6.38439">
        <ele>849.4</ele>
        <time>2022-11-08T08:17:38Z</time>
      </trkpt>
      <trkpt lat="46.75145" lon="6.38436">
        <ele>848.3</ele>
        <time>2022-11-08T08:17:43Z</time>
      </trkpt>
      <trkpt lat="46.7514" lon="6.38433">
        <ele>847</ele>
        <time>2022-11-08T08:17:47Z</time>
      </trkpt>
      <trkpt lat="46.75136" lon="6.38428">
        <ele>845.4</ele>
        <time>2022-11-08T08:17:53Z</time>
      </trkpt>
      <trkpt lat="46.75132" lon="6.38423">
        <ele>844.5</ele>
        <time>2022-11-08T08:17:58Z</time>
      </trkpt>
      <trkpt lat="46.75128" lon="6.3842">
        <ele>843.9</ele>
        <time>2022-11-08T08:18:03Z</time>
      </trkpt>
      <trkpt lat="46.75123" lon="6.38415">
        <ele>843.2</ele>
        <time>2022-11-08T08:18:09Z</time>
      </trkpt>
      <trkpt lat="46.75118" lon="6.38411">
        <ele>843.2</ele>
        <time>2022-11-08T08:18:14Z</time>
      </trkpt>
      <trkpt lat="46.75113" lon="6.38408">
        <ele>843.8</ele>
        <time>2022-11-08T08:18:17Z</time>
      </trkpt>
      <trkpt lat="46.75109" lon="6.38404">
        <ele>844.6</ele>
        <time>2022-11-08T08:18:20Z</time>
      </trkpt>
      <trkpt lat="46.75105" lon="6.38401">
        <ele>845.4</ele>
        <time>2022-11-08T08:18:23Z</time>
      </trkpt>
      <trkpt lat="46.75101" lon="6.38398">
        <ele>846.5</ele>
        <time>2022-11-08T08:18:27Z</time>
      </trkpt>
      <trkpt lat="46.75097" lon="6.38393">
        <ele>847.3</ele>
        <time>2022-11-08T08:18:32Z</time>
      </trkpt>
      <trkpt lat="46.75093" lon="6.38388">
        <ele>847.8</ele>
        <time>2022-11-08T08:18:37Z</time>
      </trkpt>
      <trkpt lat="46.7509" lon="6.38383">
        <ele>848.1</ele>
        <time>2022-11-08T08:18:41Z</time>
      </trkpt>
      <trkpt lat="46.75085" lon="6.3838">
        <ele>848.1</ele>
        <time>2022-11-08T08:18:46Z</time>
      </trkpt>
      <trkpt lat="46.7508" lon="6.38376">
        <ele>847.8</ele>
        <time>2022-11-08T08:18:51Z</time>
      </trkpt>
      <trkpt lat="46.75076" lon="6.38373">
        <ele>847.3</ele>
        <time>2022-11-08T08:18:56Z</time>
      </trkpt>
      <trkpt lat="46.75071" lon="6.38369">
        <ele>847.3</ele>
        <time>2022-11-08T08:19:00Z</time>
      </trkpt>
      <trkpt lat="46.75066" lon="6.38366">
        <ele>847.3</ele>
        <time>2022-11-08T08:19:05Z</time>
      </trkpt>
      <trkpt lat="46.75061" lon="6.38365">
        <ele>846.8</ele>
        <time>2022-11-08T08:19:10Z</time>
      </trkpt>
      <trkpt lat="46.75057" lon="6.38361">
        <ele>846</ele>
        <time>2022-11-08T08:19:14Z</time>
      </trkpt>
      <trkpt lat="46.75053" lon="6.38357">
        <ele>845.1</ele>
        <time>2022-11-08T08:19:18Z</time>
      </trkpt>
      <trkpt lat="46.75049" lon="6.38354">
        <ele>844.6</ele>
        <time>2022-11-08T08:19:22Z</time>
      </trkpt>
      <trkpt lat="46.75045" lon="6.38349">
        <ele>844.6</ele>
        <time>2022-11-08T08:19:27Z</time>
      </trkpt>
      <trkpt lat="46.75041" lon="6.38347">
        <ele>844.5</ele>
        <time>2022-11-08T08:19:32Z</time>
      </trkpt>
      <trkpt lat="46.75036" lon="6.38343">
        <ele>844</ele>
        <time>2022-11-08T08:19:38Z</time>
      </trkpt>
      <trkpt lat="46.75032" lon="6.38338">
        <ele>843.7</ele>
        <time>2022-11-08T08:19:43Z</time>
      </trkpt>
      <trkpt lat="46.75028" lon="6.38332">
        <ele>843.4</ele>
        <time>2022-11-08T08:19:48Z</time>
      </trkpt>
      <trkpt lat="46.75023" lon="6.38329">
        <ele>843.1</ele>
        <time>2022-11-08T08:19:53Z</time>
      </trkpt>
      <trkpt lat="46.75018" lon="6.38327">
        <ele>843</ele>
        <time>2022-11-08T08:19:57Z</time>
      </trkpt>
      <trkpt lat="46.75014" lon="6.38324">
        <ele>842.8</ele>
        <time>2022-11-08T08:20:02Z</time>
      </trkpt>
      <trkpt lat="46.75008" lon="6.38321">
        <ele>842.6</ele>
        <time>2022-11-08T08:20:07Z</time>
      </trkpt>
      <trkpt lat="46.75004" lon="6.38316">
        <ele>842.7</ele>
        <time>2022-11-08T08:20:12Z</time>
      </trkpt>
      <trkpt lat="46.75" lon="6.38309">
        <ele>843.9</ele>
        <time>2022-11-08T08:20:16Z</time>
      </trkpt>
      <trkpt lat="46.74996" lon="6.38305">
        <ele>845.5</ele>
        <time>2022-11-08T08:20:19Z</time>
      </trkpt>
      <trkpt lat="46.74994" lon="6.38299">
        <ele>847.4</ele>
        <time>2022-11-08T08:20:24Z</time>
      </trkpt>
      <trkpt lat="46.7499" lon="6.38294">
        <ele>848.7</ele>
        <time>2022-11-08T08:20:28Z</time>
      </trkpt>
      <trkpt lat="46.74987" lon="6.3829">
        <ele>849.8</ele>
        <time>2022-11-08T08:20:32Z</time>
      </trkpt>
      <trkpt lat="46.74982" lon="6.3829">
        <ele>850.4</ele>
        <time>2022-11-08T08:20:35Z</time>
      </trkpt>
      <trkpt lat="46.74978" lon="6.38287">
        <ele>851.2</ele>
        <time>2022-11-08T08:20:39Z</time>
      </trkpt>
      <trkpt lat="46.74973" lon="6.38286">
        <ele>851.7</ele>
        <time>2022-11-08T08:20:43Z</time>
      </trkpt>
      <trkpt lat="46.74968" lon="6.38285">
        <ele>852.2</ele>
        <time>2022-11-08T08:20:47Z</time>
      </trkpt>
      <trkpt lat="46.74964" lon="6.3828">
        <ele>852.7</ele>
        <time>2022-11-08T08:20:51Z</time>
      </trkpt>
      <trkpt lat="46.74961" lon="6.38274">
        <ele>852.7</ele>
        <time>2022-11-08T08:20:55Z</time>
      </trkpt>
      <trkpt lat="46.74956" lon="6.38269">
        <ele>852.3</ele>
        <time>2022-11-08T08:21:00Z</time>
      </trkpt>
      <trkpt lat="46.74952" lon="6.38268">
        <ele>851.8</ele>
        <time>2022-11-08T08:21:04Z</time>
      </trkpt>
      <trkpt lat="46.74947" lon="6.38266">
        <ele>851.5</ele>
        <time>2022-11-08T08:21:09Z</time>
      </trkpt>
      <trkpt lat="46.74942" lon="6.38263">
        <ele>851.6</ele>
        <time>2022-11-08T08:21:14Z</time>
      </trkpt>
      <trkpt lat="46.74937" lon="6.38261">
        <ele>851.6</ele>
        <time>2022-11-08T08:21:19Z</time>
      </trkpt>
      <trkpt lat="46.74933" lon="6.38257">
        <ele>851.3</ele>
        <time>2022-11-08T08:21:26Z</time>
      </trkpt>
      <trkpt lat="46.74928" lon="6.38255">
        <ele>850.8</ele>
        <time>2022-11-08T08:21:30Z</time>
      </trkpt>
      <trkpt lat="46.74924" lon="6.38253">
        <ele>850</ele>
        <time>2022-11-08T08:21:34Z</time>
      </trkpt>
      <trkpt lat="46.74919" lon="6.38249">
        <ele>849</ele>
        <time>2022-11-08T08:21:39Z</time>
      </trkpt>
      <trkpt lat="46.74915" lon="6.38247">
        <ele>848.3</ele>
        <time>2022-11-08T08:21:43Z</time>
      </trkpt>
      <trkpt lat="46.74911" lon="6.38243">
        <ele>847.7</ele>
        <time>2022-11-08T08:21:47Z</time>
      </trkpt>
      <trkpt lat="46.74906" lon="6.38239">
        <ele>847.4</ele>
        <time>2022-11-08T08:21:52Z</time>
      </trkpt>
      <trkpt lat="46.74901" lon="6.38237">
        <ele>847.4</ele>
        <time>2022-11-08T08:21:57Z</time>
      </trkpt>
      <trkpt lat="46.74898" lon="6.38233">
        <ele>847.2</ele>
        <time>2022-11-08T08:22:02Z</time>
      </trkpt>
      <trkpt lat="46.74893" lon="6.38229">
        <ele>846.8</ele>
        <time>2022-11-08T08:22:07Z</time>
      </trkpt>
      <trkpt lat="46.74888" lon="6.38227">
        <ele>846.2</ele>
        <time>2022-11-08T08:22:12Z</time>
      </trkpt>
      <trkpt lat="46.74884" lon="6.38226">
        <ele>846</ele>
        <time>2022-11-08T08:22:16Z</time>
      </trkpt>
      <trkpt lat="46.74878" lon="6.38222">
        <ele>845.4</ele>
        <time>2022-11-08T08:22:21Z</time>
      </trkpt>
      <trkpt lat="46.74874" lon="6.38221">
        <ele>844.1</ele>
        <time>2022-11-08T08:22:26Z</time>
      </trkpt>
      <trkpt lat="46.74869" lon="6.38217">
        <ele>842.4</ele>
        <time>2022-11-08T08:22:31Z</time>
      </trkpt>
      <trkpt lat="46.74865" lon="6.38214">
        <ele>841.2</ele>
        <time>2022-11-08T08:22:35Z</time>
      </trkpt>
      <trkpt lat="46.7486" lon="6.3821">
        <ele>840.6</ele>
        <time>2022-11-08T08:22:39Z</time>
      </trkpt>
      <trkpt lat="46.74855" lon="6.38208">
        <ele>840.2</ele>
        <time>2022-11-08T08:22:43Z</time>
      </trkpt>
      <trkpt lat="46.7485" lon="6.38206">
        <ele>839.6</ele>
        <time>2022-11-08T08:22:47Z</time>
      </trkpt>
      <trkpt lat="46.74847" lon="6.38202">
        <ele>839.2</ele>
        <time>2022-11-08T08:22:52Z</time>
      </trkpt>
      <trkpt lat="46.74843" lon="6.38198">
        <ele>838.7</ele>
        <time>2022-11-08T08:22:56Z</time>
      </trkpt>
      <trkpt lat="46.7484" lon="6.38193">
        <ele>838.3</ele>
        <time>2022-11-08T08:23:00Z</time>
      </trkpt>
      <trkpt lat="46.74836" lon="6.38188">
        <ele>837.9</ele>
        <time>2022-11-08T08:23:04Z</time>
      </trkpt>
      <trkpt lat="46.7483" lon="6.38186">
        <ele>837.4</ele>
        <time>2022-11-08T08:23:09Z</time>
      </trkpt>
      <trkpt lat="46.74826" lon="6.38185">
        <ele>836.9</ele>
        <time>2022-11-08T08:23:13Z</time>
      </trkpt>
      <trkpt lat="46.74821" lon="6.38181">
        <ele>835.7</ele>
        <time>2022-11-08T08:23:18Z</time>
      </trkpt>
      <trkpt lat="46.74816" lon="6.38178">
        <ele>834.5</ele>
        <time>2022-11-08T08:23:23Z</time>
      </trkpt>
      <trkpt lat="46.74812" lon="6.38173">
        <ele>834.5</ele>
        <time>2022-11-08T08:23:29Z</time>
      </trkpt>
      <trkpt lat="46.74808" lon="6.3817">
        <ele>835.7</ele>
        <time>2022-11-08T08:23:35Z</time>
      </trkpt>
      <trkpt lat="46.74802" lon="6.38168">
        <ele>836.4</ele>
        <time>2022-11-08T08:23:40Z</time>
      </trkpt>
      <trkpt lat="46.74797" lon="6.38166">
        <ele>837</ele>
        <time>2022-11-08T08:23:45Z</time>
      </trkpt>
      <trkpt lat="46.74792" lon="6.38163">
        <ele>837.8</ele>
        <time>2022-11-08T08:23:49Z</time>
      </trkpt>
      <trkpt lat="46.74787" lon="6.38159">
        <ele>838.6</ele>
        <time>2022-11-08T08:23:52Z</time>
      </trkpt>
      <trkpt lat="46.74782" lon="6.38157">
        <ele>839.2</ele>
        <time>2022-11-08T08:23:56Z</time>
      </trkpt>
      <trkpt lat="46.74777" lon="6.38155">
        <ele>839.6</ele>
        <time>2022-11-08T08:24:00Z</time>
      </trkpt>
      <trkpt lat="46.74771" lon="6.38153">
        <ele>839.7</ele>
        <time>2022-11-08T08:24:04Z</time>
      </trkpt>
      <trkpt lat="46.74766" lon="6.3815">
        <ele>840.2</ele>
        <time>2022-11-08T08:24:09Z</time>
      </trkpt>
      <trkpt lat="46.74762" lon="6.38147">
        <ele>840</ele>
        <time>2022-11-08T08:24:16Z</time>
      </trkpt>
      <trkpt lat="46.74758" lon="6.38144">
        <ele>839.3</ele>
        <time>2022-11-08T08:24:21Z</time>
      </trkpt>
      <trkpt lat="46.74753" lon="6.3814">
        <ele>838.4</ele>
        <time>2022-11-08T08:24:26Z</time>
      </trkpt>
      <trkpt lat="46.74749" lon="6.38137">
        <ele>837.4</ele>
        <time>2022-11-08T08:24:31Z</time>
      </trkpt>
      <trkpt lat="46.74744" lon="6.38134">
        <ele>836.9</ele>
        <time>2022-11-08T08:24:35Z</time>
      </trkpt>
      <trkpt lat="46.74739" lon="6.38133">
        <ele>836.8</ele>
        <time>2022-11-08T08:24:40Z</time>
      </trkpt>
      <trkpt lat="46.74734" lon="6.38133">
        <ele>837.3</ele>
        <time>2022-11-08T08:24:46Z</time>
      </trkpt>
      <trkpt lat="46.74729" lon="6.38133">
        <ele>837.9</ele>
        <time>2022-11-08T08:24:51Z</time>
      </trkpt>
      <trkpt lat="46.74724" lon="6.38133">
        <ele>838.8</ele>
        <time>2022-11-08T08:24:57Z</time>
      </trkpt>
      <trkpt lat="46.7472" lon="6.3813">
        <ele>838.8</ele>
        <time>2022-11-08T08:25:02Z</time>
      </trkpt>
      <trkpt lat="46.74715" lon="6.38127">
        <ele>839.3</ele>
        <time>2022-11-08T08:25:07Z</time>
      </trkpt>
      <trkpt lat="46.7471" lon="6.38125">
        <ele>840.3</ele>
        <time>2022-11-08T08:25:10Z</time>
      </trkpt>
      <trkpt lat="46.74705" lon="6.38125">
        <ele>841.2</ele>
        <time>2022-11-08T08:25:13Z</time>
      </trkpt>
      <trkpt lat="46.74701" lon="6.38126">
        <ele>841.9</ele>
        <time>2022-11-08T08:25:16Z</time>
      </trkpt>
      <trkpt lat="46.74696" lon="6.38126">
        <ele>842.8</ele>
        <time>2022-11-08T08:25:21Z</time>
      </trkpt>
      <trkpt lat="46.74691" lon="6.38126">
        <ele>843.5</ele>
        <time>2022-11-08T08:25:26Z</time>
      </trkpt>
      <trkpt lat="46.74686" lon="6.38125">
        <ele>843.9</ele>
        <time>2022-11-08T08:25:30Z</time>
      </trkpt>
      <trkpt lat="46.7468" lon="6.38123">
        <ele>844</ele>
        <time>2022-11-08T08:25:34Z</time>
      </trkpt>
      <trkpt lat="46.74675" lon="6.38123">
        <ele>844.1</ele>
        <time>2022-11-08T08:25:37Z</time>
      </trkpt>
      <trkpt lat="46.7467" lon="6.38123">
        <ele>844.2</ele>
        <time>2022-11-08T08:25:41Z</time>
      </trkpt>
      <trkpt lat="46.74665" lon="6.38125">
        <ele>843.9</ele>
        <time>2022-11-08T08:25:45Z</time>
      </trkpt>
      <trkpt lat="46.7466" lon="6.38126">
        <ele>843.3</ele>
        <time>2022-11-08T08:25:50Z</time>
      </trkpt>
      <trkpt lat="46.74655" lon="6.38125">
        <ele>842.4</ele>
        <time>2022-11-08T08:25:55Z</time>
      </trkpt>
      <trkpt lat="46.74651" lon="6.38124">
        <ele>841.2</ele>
        <time>2022-11-08T08:26:00Z</time>
      </trkpt>
      <trkpt lat="46.74646" lon="6.38123">
        <ele>839.2</ele>
        <time>2022-11-08T08:26:06Z</time>
      </trkpt>
      <trkpt lat="46.7464" lon="6.38123">
        <ele>838</ele>
        <time>2022-11-08T08:26:11Z</time>
      </trkpt>
      <trkpt lat="46.74635" lon="6.38123">
        <ele>836.1</ele>
        <time>2022-11-08T08:26:17Z</time>
      </trkpt>
      <trkpt lat="46.7463" lon="6.38122">
        <ele>835.2</ele>
        <time>2022-11-08T08:26:21Z</time>
      </trkpt>
      <trkpt lat="46.74625" lon="6.38119">
        <ele>834.6</ele>
        <time>2022-11-08T08:26:25Z</time>
      </trkpt>
      <trkpt lat="46.7462" lon="6.38115">
        <ele>834.3</ele>
        <time>2022-11-08T08:26:30Z</time>
      </trkpt>
      <trkpt lat="46.74616" lon="6.38112">
        <ele>834.8</ele>
        <time>2022-11-08T08:26:34Z</time>
      </trkpt>
      <trkpt lat="46.74611" lon="6.3811">
        <ele>835.9</ele>
        <time>2022-11-08T08:26:38Z</time>
      </trkpt>
      <trkpt lat="46.74606" lon="6.38108">
        <ele>836.8</ele>
        <time>2022-11-08T08:26:43Z</time>
      </trkpt>
      <trkpt lat="46.74601" lon="6.38106">
        <ele>837.8</ele>
        <time>2022-11-08T08:26:48Z</time>
      </trkpt>
      <trkpt lat="46.74597" lon="6.38104">
        <ele>838.5</ele>
        <time>2022-11-08T08:26:52Z</time>
      </trkpt>
      <trkpt lat="46.74592" lon="6.38102">
        <ele>839.3</ele>
        <time>2022-11-08T08:26:56Z</time>
      </trkpt>
      <trkpt lat="46.74587" lon="6.38099">
        <ele>841.4</ele>
        <time>2022-11-08T08:27:03Z</time>
      </trkpt>
      <trkpt lat="46.74582" lon="6.38095">
        <ele>842.3</ele>
        <time>2022-11-08T08:27:07Z</time>
      </trkpt>
      <trkpt lat="46.74577" lon="6.38096">
        <ele>843</ele>
        <time>2022-11-08T08:27:12Z</time>
      </trkpt>
      <trkpt lat="46.74572" lon="6.38096">
        <ele>843.5</ele>
        <time>2022-11-08T08:27:18Z</time>
      </trkpt>
      <trkpt lat="46.74568" lon="6.38096">
        <ele>843.3</ele>
        <time>2022-11-08T08:27:23Z</time>
      </trkpt>
      <trkpt lat="46.74563" lon="6.38095">
        <ele>843</ele>
        <time>2022-11-08T08:27:27Z</time>
      </trkpt>
      <trkpt lat="46.74557" lon="6.38093">
        <ele>843</ele>
        <time>2022-11-08T08:27:32Z</time>
      </trkpt>
      <trkpt lat="46.74552" lon="6.38091">
        <ele>843.3</ele>
        <time>2022-11-08T08:27:37Z</time>
      </trkpt>
      <trkpt lat="46.74547" lon="6.38092">
        <ele>843.7</ele>
        <time>2022-11-08T08:27:41Z</time>
      </trkpt>
      <trkpt lat="46.74542" lon="6.38095">
        <ele>844</ele>
        <time>2022-11-08T08:27:45Z</time>
      </trkpt>
      <trkpt lat="46.74538" lon="6.38098">
        <ele>843.5</ele>
        <time>2022-11-08T08:27:50Z</time>
      </trkpt>
      <trkpt lat="46.74533" lon="6.381">
        <ele>842.7</ele>
        <time>2022-11-08T08:27:55Z</time>
      </trkpt>
      <trkpt lat="46.74529" lon="6.38101">
        <ele>842.4</ele>
        <time>2022-11-08T08:28:00Z</time>
      </trkpt>
      <trkpt lat="46.74524" lon="6.38101">
        <ele>842.2</ele>
        <time>2022-11-08T08:28:03Z</time>
      </trkpt>
      <trkpt lat="46.74518" lon="6.381">
        <ele>842.1</ele>
        <time>2022-11-08T08:28:07Z</time>
      </trkpt>
      <trkpt lat="46.74513" lon="6.381">
        <ele>842.2</ele>
        <time>2022-11-08T08:28:11Z</time>
      </trkpt>
      <trkpt lat="46.74508" lon="6.381">
        <ele>842.3</ele>
        <time>2022-11-08T08:28:15Z</time>
      </trkpt>
      <trkpt lat="46.74502" lon="6.38097">
        <ele>842.7</ele>
        <time>2022-11-08T08:28:19Z</time>
      </trkpt>
      <trkpt lat="46.74497" lon="6.38096">
        <ele>843.4</ele>
        <time>2022-11-08T08:28:23Z</time>
      </trkpt>
      <trkpt lat="46.74492" lon="6.38095">
        <ele>843.9</ele>
        <time>2022-11-08T08:28:27Z</time>
      </trkpt>
      <trkpt lat="46.74488" lon="6.38093">
        <ele>844.2</ele>
        <time>2022-11-08T08:28:33Z</time>
      </trkpt>
      <trkpt lat="46.74483" lon="6.3809">
        <ele>844</ele>
        <time>2022-11-08T08:28:39Z</time>
      </trkpt>
      <trkpt lat="46.74478" lon="6.38087">
        <ele>844.1</ele>
        <time>2022-11-08T08:28:43Z</time>
      </trkpt>
      <trkpt lat="46.74474" lon="6.38083">
        <ele>844.2</ele>
        <time>2022-11-08T08:28:47Z</time>
      </trkpt>
      <trkpt lat="46.7447" lon="6.3808">
        <ele>844.4</ele>
        <time>2022-11-08T08:28:51Z</time>
      </trkpt>
      <trkpt lat="46.74468" lon="6.38073">
        <ele>844.4</ele>
        <time>2022-11-08T08:29:07Z</time>
      </trkpt>
      <trkpt lat="46.74464" lon="6.38069">
        <ele>844.6</ele>
        <time>2022-11-08T08:29:12Z</time>
      </trkpt>
      <trkpt lat="46.74458" lon="6.38067">
        <ele>844.4</ele>
        <time>2022-11-08T08:29:15Z</time>
      </trkpt>
      <trkpt lat="46.74452" lon="6.38067">
        <ele>843.8</ele>
        <time>2022-11-08T08:29:18Z</time>
      </trkpt>
      <trkpt lat="46.74447" lon="6.38066">
        <ele>843</ele>
        <time>2022-11-08T08:29:21Z</time>
      </trkpt>
      <trkpt lat="46.74442" lon="6.38064">
        <ele>842.1</ele>
        <time>2022-11-08T08:29:25Z</time>
      </trkpt>
      <trkpt lat="46.74437" lon="6.38059">
        <ele>841.3</ele>
        <time>2022-11-08T08:29:30Z</time>
      </trkpt>
      <trkpt lat="46.74433" lon="6.38055">
        <ele>840.1</ele>
        <time>2022-11-08T08:29:35Z</time>
      </trkpt>
      <trkpt lat="46.74429" lon="6.38052">
        <ele>839.1</ele>
        <time>2022-11-08T08:29:39Z</time>
      </trkpt>
      <trkpt lat="46.74424" lon="6.38049">
        <ele>837.8</ele>
        <time>2022-11-08T08:29:44Z</time>
      </trkpt>
      <trkpt lat="46.7442" lon="6.38047">
        <ele>836.4</ele>
        <time>2022-11-08T08:29:48Z</time>
      </trkpt>
      <trkpt lat="46.74416" lon="6.38042">
        <ele>834.9</ele>
        <time>2022-11-08T08:29:53Z</time>
      </trkpt>
      <trkpt lat="46.74412" lon="6.38039">
        <ele>833.7</ele>
        <time>2022-11-08T08:29:57Z</time>
      </trkpt>
      <trkpt lat="46.74407" lon="6.38038">
        <ele>832.4</ele>
        <time>2022-11-08T08:30:01Z</time>
      </trkpt>
      <trkpt lat="46.74402" lon="6.38036">
        <ele>831.5</ele>
        <time>2022-11-08T08:30:05Z</time>
      </trkpt>
      <trkpt lat="46.74397" lon="6.38034">
        <ele>830.8</ele>
        <time>2022-11-08T08:30:09Z</time>
      </trkpt>
      <trkpt lat="46.74392" lon="6.38032">
        <ele>830.4</ele>
        <time>2022-11-08T08:30:13Z</time>
      </trkpt>
      <trkpt lat="46.74388" lon="6.38028">
        <ele>830.1</ele>
        <time>2022-11-08T08:30:17Z</time>
      </trkpt>
      <trkpt lat="46.74385" lon="6.38022">
        <ele>830.4</ele>
        <time>2022-11-08T08:30:21Z</time>
      </trkpt>
      <trkpt lat="46.74381" lon="6.38017">
        <ele>831.5</ele>
        <time>2022-11-08T08:30:25Z</time>
      </trkpt>
      <trkpt lat="46.74377" lon="6.38013">
        <ele>833.2</ele>
        <time>2022-11-08T08:30:29Z</time>
      </trkpt>
      <trkpt lat="46.74373" lon="6.38008">
        <ele>835.2</ele>
        <time>2022-11-08T08:30:32Z</time>
      </trkpt>
      <trkpt lat="46.74368" lon="6.38005">
        <ele>837.5</ele>
        <time>2022-11-08T08:30:37Z</time>
      </trkpt>
      <trkpt lat="46.74364" lon="6.38002">
        <ele>838</ele>
        <time>2022-11-08T08:30:42Z</time>
      </trkpt>
      <trkpt lat="46.74358" lon="6.37999">
        <ele>837.4</ele>
        <time>2022-11-08T08:30:46Z</time>
      </trkpt>
      <trkpt lat="46.74353" lon="6.37996">
        <ele>836.3</ele>
        <time>2022-11-08T08:30:51Z</time>
      </trkpt>
      <trkpt lat="46.7435" lon="6.37991">
        <ele>835</ele>
        <time>2022-11-08T08:30:56Z</time>
      </trkpt>
      <trkpt lat="46.74346" lon="6.37986">
        <ele>833.7</ele>
        <time>2022-11-08T08:31:02Z</time>
      </trkpt>
      <trkpt lat="46.74343" lon="6.37982">
        <ele>832.6</ele>
        <time>2022-11-08T08:31:07Z</time>
      </trkpt>
      <trkpt lat="46.74338" lon="6.37981">
        <ele>832.2</ele>
        <time>2022-11-08T08:31:11Z</time>
      </trkpt>
      <trkpt lat="46.74333" lon="6.37981">
        <ele>831.8</ele>
        <time>2022-11-08T08:31:15Z</time>
      </trkpt>
      <trkpt lat="46.74328" lon="6.37978">
        <ele>831.6</ele>
        <time>2022-11-08T08:31:20Z</time>
      </trkpt>
      <trkpt lat="46.74325" lon="6.37974">
        <ele>831.6</ele>
        <time>2022-11-08T08:31:24Z</time>
      </trkpt>
      <trkpt lat="46.7432" lon="6.37971">
        <ele>831.5</ele>
        <time>2022-11-08T08:31:28Z</time>
      </trkpt>
      <trkpt lat="46.74316" lon="6.37969">
        <ele>831.1</ele>
        <time>2022-11-08T08:31:32Z</time>
      </trkpt>
      <trkpt lat="46.74311" lon="6.37968">
        <ele>831.2</ele>
        <time>2022-11-08T08:31:36Z</time>
      </trkpt>
      <trkpt lat="46.74306" lon="6.37969">
        <ele>832.5</ele>
        <time>2022-11-08T08:31:43Z</time>
      </trkpt>
      <trkpt lat="46.74302" lon="6.37972">
        <ele>833</ele>
        <time>2022-11-08T08:31:49Z</time>
      </trkpt>
      <trkpt lat="46.74297" lon="6.37973">
        <ele>833</ele>
        <time>2022-11-08T08:31:56Z</time>
      </trkpt>
      <trkpt lat="46.74292" lon="6.37972">
        <ele>832.5</ele>
        <time>2022-11-08T08:32:01Z</time>
      </trkpt>
      <trkpt lat="46.74287" lon="6.3797">
        <ele>832.1</ele>
        <time>2022-11-08T08:32:06Z</time>
      </trkpt>
      <trkpt lat="46.74282" lon="6.37968">
        <ele>832</ele>
        <time>2022-11-08T08:32:09Z</time>
      </trkpt>
      <trkpt lat="46.74277" lon="6.37968">
        <ele>831.8</ele>
        <time>2022-11-08T08:32:13Z</time>
      </trkpt>
      <trkpt lat="46.74272" lon="6.37967">
        <ele>831.7</ele>
        <time>2022-11-08T08:32:17Z</time>
      </trkpt>
      <trkpt lat="46.74267" lon="6.37968">
        <ele>831.6</ele>
        <time>2022-11-08T08:32:21Z</time>
      </trkpt>
      <trkpt lat="46.74261" lon="6.37969">
        <ele>831.3</ele>
        <time>2022-11-08T08:32:25Z</time>
      </trkpt>
      <trkpt lat="46.74256" lon="6.37969">
        <ele>831.3</ele>
        <time>2022-11-08T08:32:29Z</time>
      </trkpt>
      <trkpt lat="46.74251" lon="6.37969">
        <ele>831.1</ele>
        <time>2022-11-08T08:32:33Z</time>
      </trkpt>
      <trkpt lat="46.74245" lon="6.37968">
        <ele>831</ele>
        <time>2022-11-08T08:32:38Z</time>
      </trkpt>
      <trkpt lat="46.7424" lon="6.37967">
        <ele>831.3</ele>
        <time>2022-11-08T08:32:43Z</time>
      </trkpt>
      <trkpt lat="46.74235" lon="6.37966">
        <ele>831.6</ele>
        <time>2022-11-08T08:32:46Z</time>
      </trkpt>
      <trkpt lat="46.7423" lon="6.37964">
        <ele>831.9</ele>
        <time>2022-11-08T08:32:50Z</time>
      </trkpt>
      <trkpt lat="46.74225" lon="6.37962">
        <ele>832.1</ele>
        <time>2022-11-08T08:32:55Z</time>
      </trkpt>
      <trkpt lat="46.74221" lon="6.37958">
        <ele>831.5</ele>
        <time>2022-11-08T08:33:01Z</time>
      </trkpt>
      <trkpt lat="46.74218" lon="6.37952">
        <ele>831</ele>
        <time>2022-11-08T08:33:07Z</time>
      </trkpt>
      <trkpt lat="46.74215" lon="6.37945">
        <ele>831.2</ele>
        <time>2022-11-08T08:33:12Z</time>
      </trkpt>
      <trkpt lat="46.74213" lon="6.37938">
        <ele>831.5</ele>
        <time>2022-11-08T08:33:17Z</time>
      </trkpt>
      <trkpt lat="46.74211" lon="6.37931">
        <ele>831.6</ele>
        <time>2022-11-08T08:33:24Z</time>
      </trkpt>
      <trkpt lat="46.74208" lon="6.37925">
        <ele>831.6</ele>
        <time>2022-11-08T08:33:28Z</time>
      </trkpt>
      <trkpt lat="46.74205" lon="6.37919">
        <ele>831.2</ele>
        <time>2022-11-08T08:33:33Z</time>
      </trkpt>
      <trkpt lat="46.74203" lon="6.37912">
        <ele>830.6</ele>
        <time>2022-11-08T08:33:38Z</time>
      </trkpt>
      <trkpt lat="46.742" lon="6.37906">
        <ele>830.1</ele>
        <time>2022-11-08T08:33:43Z</time>
      </trkpt>
      <trkpt lat="46.74197" lon="6.37901">
        <ele>829.9</ele>
        <time>2022-11-08T08:33:48Z</time>
      </trkpt>
      <trkpt lat="46.74193" lon="6.37896">
        <ele>829.5</ele>
        <time>2022-11-08T08:33:53Z</time>
      </trkpt>
      <trkpt lat="46.74191" lon="6.37891">
        <ele>828.5</ele>
        <time>2022-11-08T08:33:58Z</time>
      </trkpt>
      <trkpt lat="46.74187" lon="6.37885">
        <ele>827.2</ele>
        <time>2022-11-08T08:34:04Z</time>
      </trkpt>
      <trkpt lat="46.74185" lon="6.37878">
        <ele>827.1</ele>
        <time>2022-11-08T08:34:09Z</time>
      </trkpt>
      <trkpt lat="46.74183" lon="6.37871">
        <ele>826.9</ele>
        <time>2022-11-08T08:34:14Z</time>
      </trkpt>
      <trkpt lat="46.7418" lon="6.37866">
        <ele>826.7</ele>
        <time>2022-11-08T08:34:20Z</time>
      </trkpt>
      <trkpt lat="46.74183" lon="6.37871">
        <ele>826.8</ele>
        <time>2022-11-08T08:34:30Z</time>
      </trkpt>
      <trkpt lat="46.74186" lon="6.37877">
        <ele>827.8</ele>
        <time>2022-11-08T08:34:57Z</time>
      </trkpt>
      <trkpt lat="46.7419" lon="6.37884">
        <ele>827.4</ele>
        <time>2022-11-08T08:35:02Z</time>
      </trkpt>
      <trkpt lat="46.74194" lon="6.3789">
        <ele>827.1</ele>
        <time>2022-11-08T08:35:06Z</time>
      </trkpt>
      <trkpt lat="46.74196" lon="6.37896">
        <ele>827.2</ele>
        <time>2022-11-08T08:35:10Z</time>
      </trkpt>
      <trkpt lat="46.74198" lon="6.37902">
        <ele>827.3</ele>
        <time>2022-11-08T08:35:15Z</time>
      </trkpt>
      <trkpt lat="46.74194" lon="6.379">
        <ele>828.6</ele>
        <time>2022-11-08T08:35:27Z</time>
      </trkpt>
      <trkpt lat="46.74191" lon="6.37893">
        <ele>828.8</ele>
        <time>2022-11-08T08:35:33Z</time>
      </trkpt>
      <trkpt lat="46.74188" lon="6.37887">
        <ele>829</ele>
        <time>2022-11-08T08:35:38Z</time>
      </trkpt>
      <trkpt lat="46.74186" lon="6.37882">
        <ele>828.8</ele>
        <time>2022-11-08T08:35:43Z</time>
      </trkpt>
      <trkpt lat="46.74182" lon="6.37876">
        <ele>828.8</ele>
        <time>2022-11-08T08:35:47Z</time>
      </trkpt>
      <trkpt lat="46.74179" lon="6.37869">
        <ele>828.9</ele>
        <time>2022-11-08T08:35:51Z</time>
      </trkpt>
      <trkpt lat="46.74175" lon="6.37864">
        <ele>829.7</ele>
        <time>2022-11-08T08:35:56Z</time>
      </trkpt>
      <trkpt lat="46.7417" lon="6.37861">
        <ele>830.4</ele>
        <time>2022-11-08T08:36:00Z</time>
      </trkpt>
      <trkpt lat="46.74165" lon="6.37858">
        <ele>831</ele>
        <time>2022-11-08T08:36:04Z</time>
      </trkpt>
      <trkpt lat="46.74161" lon="6.37855">
        <ele>831.4</ele>
        <time>2022-11-08T08:36:08Z</time>
      </trkpt>
      <trkpt lat="46.74156" lon="6.37852">
        <ele>832</ele>
        <time>2022-11-08T08:36:12Z</time>
      </trkpt>
      <trkpt lat="46.74152" lon="6.37849">
        <ele>832.3</ele>
        <time>2022-11-08T08:36:16Z</time>
      </trkpt>
      <trkpt lat="46.74148" lon="6.37845">
        <ele>832.5</ele>
        <time>2022-11-08T08:36:20Z</time>
      </trkpt>
      <trkpt lat="46.74144" lon="6.37842">
        <ele>832.6</ele>
        <time>2022-11-08T08:36:25Z</time>
      </trkpt>
      <trkpt lat="46.74139" lon="6.37839">
        <ele>832.8</ele>
        <time>2022-11-08T08:36:29Z</time>
      </trkpt>
      <trkpt lat="46.74133" lon="6.37836">
        <ele>833.4</ele>
        <time>2022-11-08T08:36:33Z</time>
      </trkpt>
      <trkpt lat="46.74129" lon="6.37835">
        <ele>834.2</ele>
        <time>2022-11-08T08:36:38Z</time>
      </trkpt>
      <trkpt lat="46.74124" lon="6.37831">
        <ele>834.9</ele>
        <time>2022-11-08T08:36:43Z</time>
      </trkpt>
      <trkpt lat="46.74119" lon="6.37829">
        <ele>835.5</ele>
        <time>2022-11-08T08:36:48Z</time>
      </trkpt>
      <trkpt lat="46.74113" lon="6.37826">
        <ele>835.8</ele>
        <time>2022-11-08T08:36:53Z</time>
      </trkpt>
      <trkpt lat="46.74108" lon="6.37825">
        <ele>835.6</ele>
        <time>2022-11-08T08:36:57Z</time>
      </trkpt>
      <trkpt lat="46.74103" lon="6.37825">
        <ele>835.4</ele>
        <time>2022-11-08T08:37:00Z</time>
      </trkpt>
      <trkpt lat="46.74098" lon="6.37825">
        <ele>835.5</ele>
        <time>2022-11-08T08:37:03Z</time>
      </trkpt>
      <trkpt lat="46.74093" lon="6.37825">
        <ele>836.2</ele>
        <time>2022-11-08T08:37:07Z</time>
      </trkpt>
      <trkpt lat="46.74088" lon="6.37824">
        <ele>837</ele>
        <time>2022-11-08T08:37:11Z</time>
      </trkpt>
      <trkpt lat="46.74084" lon="6.37824">
        <ele>838.1</ele>
        <time>2022-11-08T08:37:15Z</time>
      </trkpt>
      <trkpt lat="46.74078" lon="6.37824">
        <ele>839.1</ele>
        <time>2022-11-08T08:37:20Z</time>
      </trkpt>
      <trkpt lat="46.74074" lon="6.37823">
        <ele>839</ele>
        <time>2022-11-08T08:37:25Z</time>
      </trkpt>
      <trkpt lat="46.74069" lon="6.37823">
        <ele>838.5</ele>
        <time>2022-11-08T08:37:29Z</time>
      </trkpt>
      <trkpt lat="46.74064" lon="6.37824">
        <ele>837.9</ele>
        <time>2022-11-08T08:37:34Z</time>
      </trkpt>
      <trkpt lat="46.74058" lon="6.37825">
        <ele>837.5</ele>
        <time>2022-11-08T08:37:39Z</time>
      </trkpt>
      <trkpt lat="46.74054" lon="6.37826">
        <ele>837.3</ele>
        <time>2022-11-08T08:37:43Z</time>
      </trkpt>
      <trkpt lat="46.74049" lon="6.37827">
        <ele>837.2</ele>
        <time>2022-11-08T08:37:48Z</time>
      </trkpt>
      <trkpt lat="46.74044" lon="6.37827">
        <ele>837.1</ele>
        <time>2022-11-08T08:37:52Z</time>
      </trkpt>
      <trkpt lat="46.74039" lon="6.37826">
        <ele>836.4</ele>
        <time>2022-11-08T08:37:57Z</time>
      </trkpt>
      <trkpt lat="46.74034" lon="6.37825">
        <ele>835.9</ele>
        <time>2022-11-08T08:38:01Z</time>
      </trkpt>
      <trkpt lat="46.74029" lon="6.37825">
        <ele>835.3</ele>
        <time>2022-11-08T08:38:05Z</time>
      </trkpt>
      <trkpt lat="46.74024" lon="6.37825">
        <ele>834.6</ele>
        <time>2022-11-08T08:38:10Z</time>
      </trkpt>
      <trkpt lat="46.74019" lon="6.37824">
        <ele>833.7</ele>
        <time>2022-11-08T08:38:17Z</time>
      </trkpt>
      <trkpt lat="46.74014" lon="6.37825">
        <ele>833.1</ele>
        <time>2022-11-08T08:38:21Z</time>
      </trkpt>
      <trkpt lat="46.74008" lon="6.37825">
        <ele>833</ele>
        <time>2022-11-08T08:38:25Z</time>
      </trkpt>
      <trkpt lat="46.74002" lon="6.37825">
        <ele>833.4</ele>
        <time>2022-11-08T08:38:29Z</time>
      </trkpt>
      <trkpt lat="46.73997" lon="6.37825">
        <ele>834.1</ele>
        <time>2022-11-08T08:38:33Z</time>
      </trkpt>
      <trkpt lat="46.73991" lon="6.37825">
        <ele>834.7</ele>
        <time>2022-11-08T08:38:37Z</time>
      </trkpt>
      <trkpt lat="46.73987" lon="6.37823">
        <ele>835.1</ele>
        <time>2022-11-08T08:38:41Z</time>
      </trkpt>
      <trkpt lat="46.73982" lon="6.3782">
        <ele>835.1</ele>
        <time>2022-11-08T08:38:46Z</time>
      </trkpt>
      <trkpt lat="46.73978" lon="6.37817">
        <ele>835.2</ele>
        <time>2022-11-08T08:38:51Z</time>
      </trkpt>
      <trkpt lat="46.73973" lon="6.37818">
        <ele>836.6</ele>
        <time>2022-11-08T08:39:16Z</time>
      </trkpt>
      <trkpt lat="46.73968" lon="6.37815">
        <ele>836.6</ele>
        <time>2022-11-08T08:39:20Z</time>
      </trkpt>
      <trkpt lat="46.73964" lon="6.37811">
        <ele>836.3</ele>
        <time>2022-11-08T08:39:24Z</time>
      </trkpt>
      <trkpt lat="46.7396" lon="6.37805">
        <ele>835.8</ele>
        <time>2022-11-08T08:39:29Z</time>
      </trkpt>
      <trkpt lat="46.73956" lon="6.37801">
        <ele>835.6</ele>
        <time>2022-11-08T08:39:33Z</time>
      </trkpt>
      <trkpt lat="46.73952" lon="6.37796">
        <ele>835.6</ele>
        <time>2022-11-08T08:39:37Z</time>
      </trkpt>
      <trkpt lat="46.73948" lon="6.37792">
        <ele>835.7</ele>
        <time>2022-11-08T08:39:41Z</time>
      </trkpt>
      <trkpt lat="46.73944" lon="6.37787">
        <ele>836.1</ele>
        <time>2022-11-08T08:39:46Z</time>
      </trkpt>
      <trkpt lat="46.73939" lon="6.37782">
        <ele>836.9</ele>
        <time>2022-11-08T08:39:51Z</time>
      </trkpt>
      <trkpt lat="46.73934" lon="6.37782">
        <ele>837.8</ele>
        <time>2022-11-08T08:39:56Z</time>
      </trkpt>
      <trkpt lat="46.7393" lon="6.37784">
        <ele>838.4</ele>
        <time>2022-11-08T08:40:01Z</time>
      </trkpt>
      <trkpt lat="46.7393" lon="6.3779">
        <ele>838.8</ele>
        <time>2022-11-08T08:40:07Z</time>
      </trkpt>
      <trkpt lat="46.73933" lon="6.37797">
        <ele>838.8</ele>
        <time>2022-11-08T08:40:11Z</time>
      </trkpt>
      <trkpt lat="46.73935" lon="6.37804">
        <ele>838.7</ele>
        <time>2022-11-08T08:40:15Z</time>
      </trkpt>
      <trkpt lat="46.73938" lon="6.3781">
        <ele>838.4</ele>
        <time>2022-11-08T08:40:19Z</time>
      </trkpt>
      <trkpt lat="46.73941" lon="6.37816">
        <ele>838</ele>
        <time>2022-11-08T08:40:23Z</time>
      </trkpt>
      <trkpt lat="46.73942" lon="6.37822">
        <ele>837.9</ele>
        <time>2022-11-08T08:40:28Z</time>
      </trkpt>
      <trkpt lat="46.7394" lon="6.37829">
        <ele>837.3</ele>
        <time>2022-11-08T08:40:32Z</time>
      </trkpt>
      <trkpt lat="46.73937" lon="6.37834">
        <ele>836.3</ele>
        <time>2022-11-08T08:40:36Z</time>
      </trkpt>
      <trkpt lat="46.73934" lon="6.3784">
        <ele>834.9</ele>
        <time>2022-11-08T08:40:40Z</time>
      </trkpt>
      <trkpt lat="46.73931" lon="6.37845">
        <ele>833.5</ele>
        <time>2022-11-08T08:40:44Z</time>
      </trkpt>
      <trkpt lat="46.73927" lon="6.37849">
        <ele>832.3</ele>
        <time>2022-11-08T08:40:48Z</time>
      </trkpt>
      <trkpt lat="46.73922" lon="6.37852">
        <ele>831.4</ele>
        <time>2022-11-08T08:40:52Z</time>
      </trkpt>
      <trkpt lat="46.73918" lon="6.37853">
        <ele>830.7</ele>
        <time>2022-11-08T08:40:56Z</time>
      </trkpt>
      <trkpt lat="46.73913" lon="6.37855">
        <ele>830.1</ele>
        <time>2022-11-08T08:41:01Z</time>
      </trkpt>
      <trkpt lat="46.73908" lon="6.37857">
        <ele>829.4</ele>
        <time>2022-11-08T08:41:06Z</time>
      </trkpt>
      <trkpt lat="46.73903" lon="6.37858">
        <ele>828.8</ele>
        <time>2022-11-08T08:41:11Z</time>
      </trkpt>
      <trkpt lat="46.73898" lon="6.3786">
        <ele>828.1</ele>
        <time>2022-11-08T08:41:16Z</time>
      </trkpt>
      <trkpt lat="46.73893" lon="6.3786">
        <ele>827.4</ele>
        <time>2022-11-08T08:41:21Z</time>
      </trkpt>
      <trkpt lat="46.73888" lon="6.3786">
        <ele>826.5</ele>
        <time>2022-11-08T08:41:26Z</time>
      </trkpt>
      <trkpt lat="46.73883" lon="6.37863">
        <ele>826</ele>
        <time>2022-11-08T08:41:32Z</time>
      </trkpt>
      <trkpt lat="46.73879" lon="6.37864">
        <ele>826.2</ele>
        <time>2022-11-08T08:41:36Z</time>
      </trkpt>
      <trkpt lat="46.73874" lon="6.37866">
        <ele>826.3</ele>
        <time>2022-11-08T08:41:40Z</time>
      </trkpt>
      <trkpt lat="46.73869" lon="6.37866">
        <ele>826.1</ele>
        <time>2022-11-08T08:41:44Z</time>
      </trkpt>
      <trkpt lat="46.73864" lon="6.37868">
        <ele>825.6</ele>
        <time>2022-11-08T08:41:49Z</time>
      </trkpt>
      <trkpt lat="46.73859" lon="6.37868">
        <ele>825.3</ele>
        <time>2022-11-08T08:41:54Z</time>
      </trkpt>
      <trkpt lat="46.73854" lon="6.37871">
        <ele>825.2</ele>
        <time>2022-11-08T08:41:59Z</time>
      </trkpt>
      <trkpt lat="46.73849" lon="6.37871">
        <ele>824.8</ele>
        <time>2022-11-08T08:42:04Z</time>
      </trkpt>
      <trkpt lat="46.73844" lon="6.3787">
        <ele>824.6</ele>
        <time>2022-11-08T08:42:08Z</time>
      </trkpt>
      <trkpt lat="46.7384" lon="6.37867">
        <ele>824.5</ele>
        <time>2022-11-08T08:42:12Z</time>
      </trkpt>
      <trkpt lat="46.73836" lon="6.37864">
        <ele>824.1</ele>
        <time>2022-11-08T08:42:16Z</time>
      </trkpt>
      <trkpt lat="46.73832" lon="6.37859">
        <ele>824.3</ele>
        <time>2022-11-08T08:42:21Z</time>
      </trkpt>
      <trkpt lat="46.73828" lon="6.37856">
        <ele>824.7</ele>
        <time>2022-11-08T08:42:26Z</time>
      </trkpt>
      <trkpt lat="46.73824" lon="6.37851">
        <ele>824.5</ele>
        <time>2022-11-08T08:42:31Z</time>
      </trkpt>
      <trkpt lat="46.7382" lon="6.37847">
        <ele>824.1</ele>
        <time>2022-11-08T08:42:35Z</time>
      </trkpt>
      <trkpt lat="46.73815" lon="6.37844">
        <ele>823.7</ele>
        <time>2022-11-08T08:42:39Z</time>
      </trkpt>
      <trkpt lat="46.73811" lon="6.3784">
        <ele>823.5</ele>
        <time>2022-11-08T08:42:43Z</time>
      </trkpt>
      <trkpt lat="46.73806" lon="6.37838">
        <ele>823</ele>
        <time>2022-11-08T08:42:47Z</time>
      </trkpt>
      <trkpt lat="46.73801" lon="6.37836">
        <ele>822.5</ele>
        <time>2022-11-08T08:42:52Z</time>
      </trkpt>
      <trkpt lat="46.73796" lon="6.37835">
        <ele>821.5</ele>
        <time>2022-11-08T08:42:58Z</time>
      </trkpt>
      <trkpt lat="46.73791" lon="6.37837">
        <ele>820.7</ele>
        <time>2022-11-08T08:43:03Z</time>
      </trkpt>
      <trkpt lat="46.73786" lon="6.37839">
        <ele>820.4</ele>
        <time>2022-11-08T08:43:08Z</time>
      </trkpt>
      <trkpt lat="46.7378" lon="6.37841">
        <ele>820.2</ele>
        <time>2022-11-08T08:43:13Z</time>
      </trkpt>
      <trkpt lat="46.73776" lon="6.37842">
        <ele>819.9</ele>
        <time>2022-11-08T08:43:17Z</time>
      </trkpt>
      <trkpt lat="46.73771" lon="6.37844">
        <ele>819.7</ele>
        <time>2022-11-08T08:43:22Z</time>
      </trkpt>
      <trkpt lat="46.73767" lon="6.37844">
        <ele>819.3</ele>
        <time>2022-11-08T08:43:27Z</time>
      </trkpt>
      <trkpt lat="46.73762" lon="6.37845">
        <ele>819</ele>
        <time>2022-11-08T08:43:31Z</time>
      </trkpt>
      <trkpt lat="46.73757" lon="6.37847">
        <ele>818.8</ele>
        <time>2022-11-08T08:43:35Z</time>
      </trkpt>
      <trkpt lat="46.73752" lon="6.37849">
        <ele>818.4</ele>
        <time>2022-11-08T08:43:40Z</time>
      </trkpt>
      <trkpt lat="46.73747" lon="6.3785">
        <ele>818</ele>
        <time>2022-11-08T08:43:45Z</time>
      </trkpt>
      <trkpt lat="46.73743" lon="6.37852">
        <ele>817.4</ele>
        <time>2022-11-08T08:43:50Z</time>
      </trkpt>
      <trkpt lat="46.73738" lon="6.37855">
        <ele>817.3</ele>
        <time>2022-11-08T08:43:55Z</time>
      </trkpt>
      <trkpt lat="46.73733" lon="6.37858">
        <ele>817.6</ele>
        <time>2022-11-08T08:44:00Z</time>
      </trkpt>
      <trkpt lat="46.73728" lon="6.3786">
        <ele>818</ele>
        <time>2022-11-08T08:44:06Z</time>
      </trkpt>
      <trkpt lat="46.73723" lon="6.37863">
        <ele>818.1</ele>
        <time>2022-11-08T08:44:10Z</time>
      </trkpt>
      <trkpt lat="46.73718" lon="6.37867">
        <ele>817.9</ele>
        <time>2022-11-08T08:44:14Z</time>
      </trkpt>
      <trkpt lat="46.73714" lon="6.3787">
        <ele>817.6</ele>
        <time>2022-11-08T08:44:17Z</time>
      </trkpt>
      <trkpt lat="46.73709" lon="6.37874">
        <ele>817.5</ele>
        <time>2022-11-08T08:44:21Z</time>
      </trkpt>
      <trkpt lat="46.73705" lon="6.37878">
        <ele>817.4</ele>
        <time>2022-11-08T08:44:26Z</time>
      </trkpt>
      <trkpt lat="46.73702" lon="6.37883">
        <ele>817.1</ele>
        <time>2022-11-08T08:44:31Z</time>
      </trkpt>
      <trkpt lat="46.73699" lon="6.37889">
        <ele>817</ele>
        <time>2022-11-08T08:44:36Z</time>
      </trkpt>
      <trkpt lat="46.73697" lon="6.37896">
        <ele>816.7</ele>
        <time>2022-11-08T08:44:41Z</time>
      </trkpt>
      <trkpt lat="46.73698" lon="6.37903">
        <ele>816.8</ele>
        <time>2022-11-08T08:44:47Z</time>
      </trkpt>
      <trkpt lat="46.737" lon="6.37911">
        <ele>816.9</ele>
        <time>2022-11-08T08:44:52Z</time>
      </trkpt>
      <trkpt lat="46.73701" lon="6.37918">
        <ele>817</ele>
        <time>2022-11-08T08:44:56Z</time>
      </trkpt>
      <trkpt lat="46.73702" lon="6.37925">
        <ele>817</ele>
        <time>2022-11-08T08:45:00Z</time>
      </trkpt>
      <trkpt lat="46.73703" lon="6.37931">
        <ele>817</ele>
        <time>2022-11-08T08:45:04Z</time>
      </trkpt>
      <trkpt lat="46.73706" lon="6.37938">
        <ele>817.5</ele>
        <time>2022-11-08T08:45:09Z</time>
      </trkpt>
      <trkpt lat="46.73706" lon="6.37945">
        <ele>818.3</ele>
        <time>2022-11-08T08:45:14Z</time>
      </trkpt>
      <trkpt lat="46.73703" lon="6.37951">
        <ele>819.1</ele>
        <time>2022-11-08T08:45:21Z</time>
      </trkpt>
      <trkpt lat="46.73699" lon="6.37956">
        <ele>820.1</ele>
        <time>2022-11-08T08:45:27Z</time>
      </trkpt>
      <trkpt lat="46.73699" lon="6.37963">
        <ele>821</ele>
        <time>2022-11-08T08:45:33Z</time>
      </trkpt>
      <trkpt lat="46.73698" lon="6.3797">
        <ele>821.2</ele>
        <time>2022-11-08T08:45:39Z</time>
      </trkpt>
      <trkpt lat="46.73697" lon="6.37977">
        <ele>821.3</ele>
        <time>2022-11-08T08:45:46Z</time>
      </trkpt>
      <trkpt lat="46.73693" lon="6.37981">
        <ele>821.8</ele>
        <time>2022-11-08T08:45:53Z</time>
      </trkpt>
      <trkpt lat="46.73692" lon="6.37988">
        <ele>822.9</ele>
        <time>2022-11-08T08:46:01Z</time>
      </trkpt>
      <trkpt lat="46.7369" lon="6.37994">
        <ele>824</ele>
        <time>2022-11-08T08:46:08Z</time>
      </trkpt>
      <trkpt lat="46.73686" lon="6.37999">
        <ele>825.8</ele>
        <time>2022-11-08T08:46:16Z</time>
      </trkpt>
      <trkpt lat="46.73682" lon="6.38001">
        <ele>827.7</ele>
        <time>2022-11-08T08:46:24Z</time>
      </trkpt>
      <trkpt lat="46.7368" lon="6.38007">
        <ele>830.7</ele>
        <time>2022-11-08T08:46:34Z</time>
      </trkpt>
      <trkpt lat="46.73681" lon="6.38014">
        <ele>833.2</ele>
        <time>2022-11-08T08:46:43Z</time>
      </trkpt>
      <trkpt lat="46.73686" lon="6.38013">
        <ele>835.3</ele>
        <time>2022-11-08T08:46:51Z</time>
      </trkpt>
      <trkpt lat="46.73692" lon="6.3801">
        <ele>837.6</ele>
        <time>2022-11-08T08:47:09Z</time>
      </trkpt>
      <trkpt lat="46.73697" lon="6.3801">
        <ele>838.2</ele>
        <time>2022-11-08T08:47:15Z</time>
      </trkpt>
      <trkpt lat="46.73702" lon="6.3801">
        <ele>838.7</ele>
        <time>2022-11-08T08:47:22Z</time>
      </trkpt>
      <trkpt lat="46.7371" lon="6.38014">
        <ele>840.3</ele>
        <time>2022-11-08T08:47:39Z</time>
      </trkpt>
      <trkpt lat="46.73714" lon="6.38018">
        <ele>841</ele>
        <time>2022-11-08T08:47:42Z</time>
      </trkpt>
      <trkpt lat="46.73716" lon="6.38024">
        <ele>842</ele>
        <time>2022-11-08T08:47:49Z</time>
      </trkpt>
      <trkpt lat="46.7372" lon="6.38028">
        <ele>841.9</ele>
        <time>2022-11-08T08:47:54Z</time>
      </trkpt>
      <trkpt lat="46.73725" lon="6.3803">
        <ele>841.8</ele>
        <time>2022-11-08T08:47:58Z</time>
      </trkpt>
      <trkpt lat="46.73729" lon="6.38031">
        <ele>842.2</ele>
        <time>2022-11-08T08:48:03Z</time>
      </trkpt>
      <trkpt lat="46.73734" lon="6.38031">
        <ele>842.9</ele>
        <time>2022-11-08T08:48:10Z</time>
      </trkpt>
      <trkpt lat="46.73738" lon="6.38028">
        <ele>843.5</ele>
        <time>2022-11-08T08:48:19Z</time>
      </trkpt>
      <trkpt lat="46.73743" lon="6.3803">
        <ele>843.6</ele>
        <time>2022-11-08T08:48:25Z</time>
      </trkpt>
      <trkpt lat="46.73748" lon="6.38032">
        <ele>843.6</ele>
        <time>2022-11-08T08:48:31Z</time>
      </trkpt>
      <trkpt lat="46.73753" lon="6.38033">
        <ele>844</ele>
        <time>2022-11-08T08:48:37Z</time>
      </trkpt>
      <trkpt lat="46.73757" lon="6.38036">
        <ele>844.1</ele>
        <time>2022-11-08T08:48:43Z</time>
      </trkpt>
      <trkpt lat="46.73762" lon="6.38039">
        <ele>843.9</ele>
        <time>2022-11-08T08:48:49Z</time>
      </trkpt>
      <trkpt lat="46.73766" lon="6.38039">
        <ele>844.5</ele>
        <time>2022-11-08T08:48:57Z</time>
      </trkpt>
      <trkpt lat="46.73771" lon="6.38042">
        <ele>845.8</ele>
        <time>2022-11-08T08:49:04Z</time>
      </trkpt>
      <trkpt lat="46.73774" lon="6.38047">
        <ele>847.5</ele>
        <time>2022-11-08T08:49:16Z</time>
      </trkpt>
      <trkpt lat="46.73778" lon="6.38052">
        <ele>848.1</ele>
        <time>2022-11-08T08:49:22Z</time>
      </trkpt>
      <trkpt lat="46.73783" lon="6.38057">
        <ele>848.7</ele>
        <time>2022-11-08T08:49:27Z</time>
      </trkpt>
      <trkpt lat="46.73786" lon="6.38062">
        <ele>850.5</ele>
        <time>2022-11-08T08:49:34Z</time>
      </trkpt>
      <trkpt lat="46.7379" lon="6.38065">
        <ele>852.4</ele>
        <time>2022-11-08T08:49:41Z</time>
      </trkpt>
      <trkpt lat="46.73791" lon="6.38072">
        <ele>854</ele>
        <time>2022-11-08T08:49:48Z</time>
      </trkpt>
      <trkpt lat="46.73795" lon="6.38078">
        <ele>856.8</ele>
        <time>2022-11-08T08:50:23Z</time>
      </trkpt>
      <trkpt lat="46.73796" lon="6.38085">
        <ele>858.4</ele>
        <time>2022-11-08T08:50:30Z</time>
      </trkpt>
      <trkpt lat="46.73797" lon="6.38092">
        <ele>858.7</ele>
        <time>2022-11-08T08:50:36Z</time>
      </trkpt>
      <trkpt lat="46.73801" lon="6.38095">
        <ele>858.5</ele>
        <time>2022-11-08T08:50:46Z</time>
      </trkpt>
      <trkpt lat="46.73805" lon="6.38099">
        <ele>857.1</ele>
        <time>2022-11-08T08:50:57Z</time>
      </trkpt>
      <trkpt lat="46.73803" lon="6.38106">
        <ele>856.2</ele>
        <time>2022-11-08T08:51:08Z</time>
      </trkpt>
      <trkpt lat="46.73801" lon="6.38112">
        <ele>855.8</ele>
        <time>2022-11-08T08:51:11Z</time>
      </trkpt>
      <trkpt lat="46.73798" lon="6.38118">
        <ele>854.9</ele>
        <time>2022-11-08T08:51:17Z</time>
      </trkpt>
      <trkpt lat="46.73795" lon="6.38124">
        <ele>854.3</ele>
        <time>2022-11-08T08:51:24Z</time>
      </trkpt>
      <trkpt lat="46.73794" lon="6.3813">
        <ele>854.3</ele>
        <time>2022-11-08T08:51:32Z</time>
      </trkpt>
      <trkpt lat="46.73793" lon="6.38137">
        <ele>855.3</ele>
        <time>2022-11-08T08:51:41Z</time>
      </trkpt>
      <trkpt lat="46.73792" lon="6.38144">
        <ele>855.9</ele>
        <time>2022-11-08T08:51:48Z</time>
      </trkpt>
      <trkpt lat="46.73792" lon="6.38151">
        <ele>857.2</ele>
        <time>2022-11-08T08:51:54Z</time>
      </trkpt>
      <trkpt lat="46.73791" lon="6.38158">
        <ele>858.5</ele>
        <time>2022-11-08T08:52:00Z</time>
      </trkpt>
      <trkpt lat="46.73789" lon="6.38165">
        <ele>859.4</ele>
        <time>2022-11-08T08:52:06Z</time>
      </trkpt>
      <trkpt lat="46.73788" lon="6.38172">
        <ele>860.3</ele>
        <time>2022-11-08T08:52:11Z</time>
      </trkpt>
      <trkpt lat="46.73787" lon="6.38178">
        <ele>861.3</ele>
        <time>2022-11-08T08:52:16Z</time>
      </trkpt>
      <trkpt lat="46.73786" lon="6.38185">
        <ele>862.6</ele>
        <time>2022-11-08T08:52:23Z</time>
      </trkpt>
      <trkpt lat="46.73785" lon="6.38192">
        <ele>863.2</ele>
        <time>2022-11-08T08:52:30Z</time>
      </trkpt>
      <trkpt lat="46.73785" lon="6.38199">
        <ele>863.7</ele>
        <time>2022-11-08T08:52:36Z</time>
      </trkpt>
      <trkpt lat="46.73787" lon="6.38205">
        <ele>863.9</ele>
        <time>2022-11-08T08:52:42Z</time>
      </trkpt>
      <trkpt lat="46.73789" lon="6.38212">
        <ele>864.5</ele>
        <time>2022-11-08T08:52:48Z</time>
      </trkpt>
      <trkpt lat="46.73789" lon="6.38219">
        <ele>867.2</ele>
        <time>2022-11-08T08:53:22Z</time>
      </trkpt>
      <trkpt lat="46.73789" lon="6.38226">
        <ele>868.2</ele>
        <time>2022-11-08T08:53:29Z</time>
      </trkpt>
      <trkpt lat="46.73792" lon="6.38232">
        <ele>869.2</ele>
        <time>2022-11-08T08:53:36Z</time>
      </trkpt>
      <trkpt lat="46.73794" lon="6.38237">
        <ele>869.5</ele>
        <time>2022-11-08T08:53:40Z</time>
      </trkpt>
      <trkpt lat="46.73798" lon="6.38242">
        <ele>869.8</ele>
        <time>2022-11-08T08:53:46Z</time>
      </trkpt>
      <trkpt lat="46.73801" lon="6.38247">
        <ele>870</ele>
        <time>2022-11-08T08:53:51Z</time>
      </trkpt>
      <trkpt lat="46.73805" lon="6.3825">
        <ele>870.4</ele>
        <time>2022-11-08T08:53:56Z</time>
      </trkpt>
      <trkpt lat="46.7381" lon="6.38254">
        <ele>871.2</ele>
        <time>2022-11-08T08:54:02Z</time>
      </trkpt>
      <trkpt lat="46.73813" lon="6.38259">
        <ele>872.3</ele>
        <time>2022-11-08T08:54:08Z</time>
      </trkpt>
      <trkpt lat="46.73818" lon="6.38263">
        <ele>872.9</ele>
        <time>2022-11-08T08:54:14Z</time>
      </trkpt>
      <trkpt lat="46.73822" lon="6.38267">
        <ele>873.5</ele>
        <time>2022-11-08T08:54:20Z</time>
      </trkpt>
      <trkpt lat="46.73827" lon="6.3827">
        <ele>873.6</ele>
        <time>2022-11-08T08:54:24Z</time>
      </trkpt>
      <trkpt lat="46.7383" lon="6.38275">
        <ele>873.4</ele>
        <time>2022-11-08T08:54:29Z</time>
      </trkpt>
      <trkpt lat="46.73832" lon="6.38282">
        <ele>873.6</ele>
        <time>2022-11-08T08:54:35Z</time>
      </trkpt>
      <trkpt lat="46.73835" lon="6.38289">
        <ele>873.9</ele>
        <time>2022-11-08T08:54:40Z</time>
      </trkpt>
      <trkpt lat="46.73837" lon="6.38295">
        <ele>874.5</ele>
        <time>2022-11-08T08:54:44Z</time>
      </trkpt>
      <trkpt lat="46.73839" lon="6.38302">
        <ele>875.5</ele>
        <time>2022-11-08T08:54:49Z</time>
      </trkpt>
      <trkpt lat="46.73841" lon="6.38309">
        <ele>876.3</ele>
        <time>2022-11-08T08:54:54Z</time>
      </trkpt>
      <trkpt lat="46.73844" lon="6.38314">
        <ele>877</ele>
        <time>2022-11-08T08:54:59Z</time>
      </trkpt>
      <trkpt lat="46.73847" lon="6.3832">
        <ele>878</ele>
        <time>2022-11-08T08:55:06Z</time>
      </trkpt>
      <trkpt lat="46.73844" lon="6.38315">
        <ele>877.1</ele>
        <time>2022-11-08T08:58:14Z</time>
      </trkpt>
      <trkpt lat="46.73846" lon="6.38323">
        <ele>872.4</ele>
        <time>2022-11-08T09:01:35Z</time>
      </trkpt>
      <trkpt lat="46.73847" lon="6.3833">
        <ele>872</ele>
        <time>2022-11-08T09:01:39Z</time>
      </trkpt>
      <trkpt lat="46.7385" lon="6.38335">
        <ele>871.4</ele>
        <time>2022-11-08T09:01:45Z</time>
      </trkpt>
      <trkpt lat="46.73853" lon="6.38341">
        <ele>871.5</ele>
        <time>2022-11-08T09:01:57Z</time>
      </trkpt>
      <trkpt lat="46.73853" lon="6.38349">
        <ele>872.6</ele>
        <time>2022-11-08T09:02:15Z</time>
      </trkpt>
      <trkpt lat="46.73854" lon="6.38355">
        <ele>873.2</ele>
        <time>2022-11-08T09:02:21Z</time>
      </trkpt>
      <trkpt lat="46.73856" lon="6.38361">
        <ele>873.8</ele>
        <time>2022-11-08T09:02:28Z</time>
      </trkpt>
      <trkpt lat="46.73856" lon="6.38368">
        <ele>874.5</ele>
        <time>2022-11-08T09:02:35Z</time>
      </trkpt>
      <trkpt lat="46.73856" lon="6.38375">
        <ele>874.5</ele>
        <time>2022-11-08T09:02:43Z</time>
      </trkpt>
      <trkpt lat="46.73857" lon="6.38383">
        <ele>874.9</ele>
        <time>2022-11-08T09:02:50Z</time>
      </trkpt>
      <trkpt lat="46.73859" lon="6.3839">
        <ele>874.7</ele>
        <time>2022-11-08T09:02:56Z</time>
      </trkpt>
      <trkpt lat="46.7386" lon="6.38398">
        <ele>874.6</ele>
        <time>2022-11-08T09:03:01Z</time>
      </trkpt>
      <trkpt lat="46.73861" lon="6.38404">
        <ele>874.5</ele>
        <time>2022-11-08T09:03:05Z</time>
      </trkpt>
      <trkpt lat="46.73862" lon="6.38411">
        <ele>874.7</ele>
        <time>2022-11-08T09:03:10Z</time>
      </trkpt>
      <trkpt lat="46.73864" lon="6.38418">
        <ele>874.6</ele>
        <time>2022-11-08T09:03:15Z</time>
      </trkpt>
      <trkpt lat="46.73865" lon="6.38425">
        <ele>873.9</ele>
        <time>2022-11-08T09:03:21Z</time>
      </trkpt>
      <trkpt lat="46.73867" lon="6.38432">
        <ele>873.1</ele>
        <time>2022-11-08T09:03:27Z</time>
      </trkpt>
      <trkpt lat="46.73868" lon="6.3844">
        <ele>872</ele>
        <time>2022-11-08T09:03:33Z</time>
      </trkpt>
      <trkpt lat="46.7387" lon="6.38446">
        <ele>870.5</ele>
        <time>2022-11-08T09:03:39Z</time>
      </trkpt>
      <trkpt lat="46.73872" lon="6.38454">
        <ele>869.8</ele>
        <time>2022-11-08T09:03:44Z</time>
      </trkpt>
      <trkpt lat="46.73874" lon="6.38461">
        <ele>869.4</ele>
        <time>2022-11-08T09:03:49Z</time>
      </trkpt>
      <trkpt lat="46.73874" lon="6.3847">
        <ele>869.2</ele>
        <time>2022-11-08T09:03:54Z</time>
      </trkpt>
      <trkpt lat="46.73875" lon="6.38477">
        <ele>868.9</ele>
        <time>2022-11-08T09:03:59Z</time>
      </trkpt>
      <trkpt lat="46.73877" lon="6.38484">
        <ele>869.4</ele>
        <time>2022-11-08T09:04:07Z</time>
      </trkpt>
      <trkpt lat="46.73878" lon="6.3849">
        <ele>870</ele>
        <time>2022-11-08T09:04:13Z</time>
      </trkpt>
      <trkpt lat="46.73879" lon="6.38497">
        <ele>870.7</ele>
        <time>2022-11-08T09:04:19Z</time>
      </trkpt>
      <trkpt lat="46.73879" lon="6.38504">
        <ele>871</ele>
        <time>2022-11-08T09:04:24Z</time>
      </trkpt>
      <trkpt lat="46.73877" lon="6.38511">
        <ele>871</ele>
        <time>2022-11-08T09:04:30Z</time>
      </trkpt>
      <trkpt lat="46.73874" lon="6.38516">
        <ele>871</ele>
        <time>2022-11-08T09:04:35Z</time>
      </trkpt>
      <trkpt lat="46.73871" lon="6.38521">
        <ele>871.2</ele>
        <time>2022-11-08T09:04:39Z</time>
      </trkpt>
      <trkpt lat="46.73867" lon="6.38525">
        <ele>871.4</ele>
        <time>2022-11-08T09:04:44Z</time>
      </trkpt>
      <trkpt lat="46.73863" lon="6.38529">
        <ele>871.5</ele>
        <time>2022-11-08T09:04:50Z</time>
      </trkpt>
      <trkpt lat="46.73859" lon="6.38534">
        <ele>871.6</ele>
        <time>2022-11-08T09:04:55Z</time>
      </trkpt>
      <trkpt lat="46.73855" lon="6.3854">
        <ele>871.8</ele>
        <time>2022-11-08T09:05:00Z</time>
      </trkpt>
      <trkpt lat="46.73851" lon="6.38545">
        <ele>872.1</ele>
        <time>2022-11-08T09:05:05Z</time>
      </trkpt>
      <trkpt lat="46.73847" lon="6.3855">
        <ele>872.3</ele>
        <time>2022-11-08T09:05:10Z</time>
      </trkpt>
      <trkpt lat="46.73844" lon="6.38554">
        <ele>872.5</ele>
        <time>2022-11-08T09:05:14Z</time>
      </trkpt>
      <trkpt lat="46.7384" lon="6.38558">
        <ele>872.7</ele>
        <time>2022-11-08T09:05:19Z</time>
      </trkpt>
      <trkpt lat="46.73836" lon="6.38562">
        <ele>872.8</ele>
        <time>2022-11-08T09:05:23Z</time>
      </trkpt>
      <trkpt lat="46.73831" lon="6.38564">
        <ele>873.1</ele>
        <time>2022-11-08T09:05:27Z</time>
      </trkpt>
      <trkpt lat="46.73827" lon="6.38567">
        <ele>873.3</ele>
        <time>2022-11-08T09:05:32Z</time>
      </trkpt>
      <trkpt lat="46.73823" lon="6.3857">
        <ele>873.6</ele>
        <time>2022-11-08T09:05:36Z</time>
      </trkpt>
      <trkpt lat="46.73819" lon="6.38574">
        <ele>874.1</ele>
        <time>2022-11-08T09:05:41Z</time>
      </trkpt>
      <trkpt lat="46.73815" lon="6.38578">
        <ele>874.6</ele>
        <time>2022-11-08T09:05:46Z</time>
      </trkpt>
      <trkpt lat="46.7381" lon="6.38581">
        <ele>874.8</ele>
        <time>2022-11-08T09:05:51Z</time>
      </trkpt>
      <trkpt lat="46.73806" lon="6.38585">
        <ele>875.1</ele>
        <time>2022-11-08T09:05:56Z</time>
      </trkpt>
      <trkpt lat="46.73801" lon="6.38587">
        <ele>875.2</ele>
        <time>2022-11-08T09:06:00Z</time>
      </trkpt>
      <trkpt lat="46.73797" lon="6.38591">
        <ele>875.3</ele>
        <time>2022-11-08T09:06:05Z</time>
      </trkpt>
      <trkpt lat="46.73792" lon="6.38596">
        <ele>875.4</ele>
        <time>2022-11-08T09:06:09Z</time>
      </trkpt>
      <trkpt lat="46.73788" lon="6.38599">
        <ele>875.6</ele>
        <time>2022-11-08T09:06:13Z</time>
      </trkpt>
      <trkpt lat="46.73783" lon="6.38602">
        <ele>875.9</ele>
        <time>2022-11-08T09:06:20Z</time>
      </trkpt>
      <trkpt lat="46.73778" lon="6.38605">
        <ele>875.4</ele>
        <time>2022-11-08T09:06:25Z</time>
      </trkpt>
      <trkpt lat="46.73773" lon="6.38609">
        <ele>874.9</ele>
        <time>2022-11-08T09:06:29Z</time>
      </trkpt>
      <trkpt lat="46.73769" lon="6.38614">
        <ele>874.4</ele>
        <time>2022-11-08T09:06:33Z</time>
      </trkpt>
      <trkpt lat="46.73764" lon="6.38617">
        <ele>874</ele>
        <time>2022-11-08T09:06:38Z</time>
      </trkpt>
      <trkpt lat="46.73759" lon="6.38618">
        <ele>873.3</ele>
        <time>2022-11-08T09:06:44Z</time>
      </trkpt>
      <trkpt lat="46.73755" lon="6.38622">
        <ele>872</ele>
        <time>2022-11-08T09:06:49Z</time>
      </trkpt>
      <trkpt lat="46.73752" lon="6.38627">
        <ele>870.4</ele>
        <time>2022-11-08T09:06:54Z</time>
      </trkpt>
      <trkpt lat="46.73747" lon="6.38631">
        <ele>869.4</ele>
        <time>2022-11-08T09:06:59Z</time>
      </trkpt>
      <trkpt lat="46.73744" lon="6.38636">
        <ele>868.5</ele>
        <time>2022-11-08T09:07:04Z</time>
      </trkpt>
      <trkpt lat="46.7374" lon="6.38639">
        <ele>868.1</ele>
        <time>2022-11-08T09:07:08Z</time>
      </trkpt>
      <trkpt lat="46.73735" lon="6.38642">
        <ele>867.6</ele>
        <time>2022-11-08T09:07:12Z</time>
      </trkpt>
      <trkpt lat="46.73731" lon="6.38645">
        <ele>866.4</ele>
        <time>2022-11-08T09:07:19Z</time>
      </trkpt>
      <trkpt lat="46.73726" lon="6.38647">
        <ele>865.7</ele>
        <time>2022-11-08T09:07:28Z</time>
      </trkpt>
      <trkpt lat="46.73722" lon="6.3865">
        <ele>865.9</ele>
        <time>2022-11-08T09:07:33Z</time>
      </trkpt>
      <trkpt lat="46.73718" lon="6.38655">
        <ele>865.9</ele>
        <time>2022-11-08T09:07:41Z</time>
      </trkpt>
      <trkpt lat="46.73714" lon="6.3866">
        <ele>866.2</ele>
        <time>2022-11-08T09:07:47Z</time>
      </trkpt>
      <trkpt lat="46.7371" lon="6.38666">
        <ele>866.7</ele>
        <time>2022-11-08T09:07:52Z</time>
      </trkpt>
      <trkpt lat="46.73706" lon="6.38671">
        <ele>866.9</ele>
        <time>2022-11-08T09:07:57Z</time>
      </trkpt>
      <trkpt lat="46.73702" lon="6.38676">
        <ele>867.3</ele>
        <time>2022-11-08T09:08:03Z</time>
      </trkpt>
      <trkpt lat="46.73698" lon="6.38681">
        <ele>868.6</ele>
        <time>2022-11-08T09:08:09Z</time>
      </trkpt>
      <trkpt lat="46.73694" lon="6.38685">
        <ele>869.9</ele>
        <time>2022-11-08T09:08:15Z</time>
      </trkpt>
      <trkpt lat="46.7369" lon="6.3869">
        <ele>871</ele>
        <time>2022-11-08T09:08:20Z</time>
      </trkpt>
      <trkpt lat="46.73686" lon="6.38695">
        <ele>872.1</ele>
        <time>2022-11-08T09:08:25Z</time>
      </trkpt>
      <trkpt lat="46.73683" lon="6.387">
        <ele>873</ele>
        <time>2022-11-08T09:08:29Z</time>
      </trkpt>
      <trkpt lat="46.73679" lon="6.38705">
        <ele>873.6</ele>
        <time>2022-11-08T09:08:33Z</time>
      </trkpt>
      <trkpt lat="46.73676" lon="6.3871">
        <ele>874.4</ele>
        <time>2022-11-08T09:08:38Z</time>
      </trkpt>
      <trkpt lat="46.73673" lon="6.38714">
        <ele>875.4</ele>
        <time>2022-11-08T09:08:43Z</time>
      </trkpt>
      <trkpt lat="46.73668" lon="6.38718">
        <ele>876.3</ele>
        <time>2022-11-08T09:08:48Z</time>
      </trkpt>
      <trkpt lat="46.73664" lon="6.38722">
        <ele>876.3</ele>
        <time>2022-11-08T09:08:53Z</time>
      </trkpt>
      <trkpt lat="46.7366" lon="6.38727">
        <ele>875.9</ele>
        <time>2022-11-08T09:08:59Z</time>
      </trkpt>
      <trkpt lat="46.73656" lon="6.38732">
        <ele>875.5</ele>
        <time>2022-11-08T09:09:05Z</time>
      </trkpt>
      <trkpt lat="46.73653" lon="6.38737">
        <ele>875.5</ele>
        <time>2022-11-08T09:09:10Z</time>
      </trkpt>
      <trkpt lat="46.73648" lon="6.38741">
        <ele>875.9</ele>
        <time>2022-11-08T09:09:15Z</time>
      </trkpt>
      <trkpt lat="46.73644" lon="6.38746">
        <ele>876</ele>
        <time>2022-11-08T09:09:21Z</time>
      </trkpt>
      <trkpt lat="46.73641" lon="6.3875">
        <ele>875.7</ele>
        <time>2022-11-08T09:09:26Z</time>
      </trkpt>
      <trkpt lat="46.73637" lon="6.38755">
        <ele>874.5</ele>
        <time>2022-11-08T09:09:33Z</time>
      </trkpt>
      <trkpt lat="46.73635" lon="6.38761">
        <ele>873.4</ele>
        <time>2022-11-08T09:09:41Z</time>
      </trkpt>
      <trkpt lat="46.73631" lon="6.38767">
        <ele>872.5</ele>
        <time>2022-11-08T09:09:48Z</time>
      </trkpt>
      <trkpt lat="46.73627" lon="6.38771">
        <ele>871.8</ele>
        <time>2022-11-08T09:09:54Z</time>
      </trkpt>
      <trkpt lat="46.73622" lon="6.38775">
        <ele>871.2</ele>
        <time>2022-11-08T09:09:59Z</time>
      </trkpt>
      <trkpt lat="46.73618" lon="6.3878">
        <ele>870.7</ele>
        <time>2022-11-08T09:10:04Z</time>
      </trkpt>
      <trkpt lat="46.73614" lon="6.38785">
        <ele>870.9</ele>
        <time>2022-11-08T09:10:09Z</time>
      </trkpt>
      <trkpt lat="46.73611" lon="6.38791">
        <ele>870.9</ele>
        <time>2022-11-08T09:10:15Z</time>
      </trkpt>
      <trkpt lat="46.73608" lon="6.38796">
        <ele>871</ele>
        <time>2022-11-08T09:10:20Z</time>
      </trkpt>
      <trkpt lat="46.73605" lon="6.38801">
        <ele>871.3</ele>
        <time>2022-11-08T09:10:25Z</time>
      </trkpt>
      <trkpt lat="46.73601" lon="6.38807">
        <ele>871.6</ele>
        <time>2022-11-08T09:10:30Z</time>
      </trkpt>
      <trkpt lat="46.73598" lon="6.38812">
        <ele>871.9</ele>
        <time>2022-11-08T09:10:35Z</time>
      </trkpt>
      <trkpt lat="46.73594" lon="6.38817">
        <ele>871.3</ele>
        <time>2022-11-08T09:10:40Z</time>
      </trkpt>
      <trkpt lat="46.73591" lon="6.38823">
        <ele>870.6</ele>
        <time>2022-11-08T09:10:46Z</time>
      </trkpt>
      <trkpt lat="46.73587" lon="6.38828">
        <ele>869.7</ele>
        <time>2022-11-08T09:10:52Z</time>
      </trkpt>
      <trkpt lat="46.73584" lon="6.38833">
        <ele>868.9</ele>
        <time>2022-11-08T09:10:57Z</time>
      </trkpt>
      <trkpt lat="46.7358" lon="6.38838">
        <ele>868.1</ele>
        <time>2022-11-08T09:11:02Z</time>
      </trkpt>
      <trkpt lat="46.73576" lon="6.38844">
        <ele>867.8</ele>
        <time>2022-11-08T09:11:07Z</time>
      </trkpt>
      <trkpt lat="46.73572" lon="6.38848">
        <ele>868</ele>
        <time>2022-11-08T09:11:12Z</time>
      </trkpt>
      <trkpt lat="46.73568" lon="6.38852">
        <ele>868.8</ele>
        <time>2022-11-08T09:11:18Z</time>
      </trkpt>
      <trkpt lat="46.73565" lon="6.38858">
        <ele>869.3</ele>
        <time>2022-11-08T09:11:24Z</time>
      </trkpt>
      <trkpt lat="46.73561" lon="6.38863">
        <ele>869.5</ele>
        <time>2022-11-08T09:11:30Z</time>
      </trkpt>
      <trkpt lat="46.73558" lon="6.3887">
        <ele>869.9</ele>
        <time>2022-11-08T09:11:36Z</time>
      </trkpt>
      <trkpt lat="46.73555" lon="6.38875">
        <ele>870.5</ele>
        <time>2022-11-08T09:11:42Z</time>
      </trkpt>
      <trkpt lat="46.73553" lon="6.3888">
        <ele>871.3</ele>
        <time>2022-11-08T09:11:48Z</time>
      </trkpt>
      <trkpt lat="46.73549" lon="6.38884">
        <ele>871.8</ele>
        <time>2022-11-08T09:11:54Z</time>
      </trkpt>
      <trkpt lat="46.73545" lon="6.3889">
        <ele>872.1</ele>
        <time>2022-11-08T09:11:58Z</time>
      </trkpt>
      <trkpt lat="46.73542" lon="6.38897">
        <ele>872.6</ele>
        <time>2022-11-08T09:12:02Z</time>
      </trkpt>
      <trkpt lat="46.73539" lon="6.38902">
        <ele>872.6</ele>
        <time>2022-11-08T09:12:05Z</time>
      </trkpt>
      <trkpt lat="46.73536" lon="6.38908">
        <ele>872.3</ele>
        <time>2022-11-08T09:12:09Z</time>
      </trkpt>
      <trkpt lat="46.73533" lon="6.38914">
        <ele>871.4</ele>
        <time>2022-11-08T09:12:15Z</time>
      </trkpt>
      <trkpt lat="46.7353" lon="6.38919">
        <ele>871</ele>
        <time>2022-11-08T09:12:21Z</time>
      </trkpt>
      <trkpt lat="46.73527" lon="6.38924">
        <ele>871.1</ele>
        <time>2022-11-08T09:12:26Z</time>
      </trkpt>
      <trkpt lat="46.73524" lon="6.3893">
        <ele>871.4</ele>
        <time>2022-11-08T09:12:31Z</time>
      </trkpt>
      <trkpt lat="46.7352" lon="6.38936">
        <ele>871.8</ele>
        <time>2022-11-08T09:12:36Z</time>
      </trkpt>
      <trkpt lat="46.73517" lon="6.38941">
        <ele>872.7</ele>
        <time>2022-11-08T09:12:40Z</time>
      </trkpt>
      <trkpt lat="46.73513" lon="6.38945">
        <ele>873.6</ele>
        <time>2022-11-08T09:12:45Z</time>
      </trkpt>
      <trkpt lat="46.7351" lon="6.3895">
        <ele>873.7</ele>
        <time>2022-11-08T09:12:55Z</time>
      </trkpt>
      <trkpt lat="46.73506" lon="6.38956">
        <ele>872.8</ele>
        <time>2022-11-08T09:13:01Z</time>
      </trkpt>
      <trkpt lat="46.73503" lon="6.38961">
        <ele>872.4</ele>
        <time>2022-11-08T09:13:05Z</time>
      </trkpt>
      <trkpt lat="46.73499" lon="6.38966">
        <ele>871.8</ele>
        <time>2022-11-08T09:13:10Z</time>
      </trkpt>
      <trkpt lat="46.73496" lon="6.3897">
        <ele>871.3</ele>
        <time>2022-11-08T09:13:14Z</time>
      </trkpt>
      <trkpt lat="46.73492" lon="6.38973">
        <ele>870.5</ele>
        <time>2022-11-08T09:13:19Z</time>
      </trkpt>
      <trkpt lat="46.73489" lon="6.3898">
        <ele>870.2</ele>
        <time>2022-11-08T09:13:24Z</time>
      </trkpt>
      <trkpt lat="46.73487" lon="6.38986">
        <ele>871.4</ele>
        <time>2022-11-08T09:13:30Z</time>
      </trkpt>
      <trkpt lat="46.73483" lon="6.38991">
        <ele>872</ele>
        <time>2022-11-08T09:13:35Z</time>
      </trkpt>
      <trkpt lat="46.7348" lon="6.38997">
        <ele>871.6</ele>
        <time>2022-11-08T09:13:40Z</time>
      </trkpt>
      <trkpt lat="46.73476" lon="6.39003">
        <ele>871</ele>
        <time>2022-11-08T09:13:45Z</time>
      </trkpt>
      <trkpt lat="46.73473" lon="6.39009">
        <ele>870.8</ele>
        <time>2022-11-08T09:13:50Z</time>
      </trkpt>
      <trkpt lat="46.73471" lon="6.39014">
        <ele>871.1</ele>
        <time>2022-11-08T09:13:54Z</time>
      </trkpt>
      <trkpt lat="46.73468" lon="6.39019">
        <ele>871.9</ele>
        <time>2022-11-08T09:13:58Z</time>
      </trkpt>
      <trkpt lat="46.73464" lon="6.39026">
        <ele>872.9</ele>
        <time>2022-11-08T09:14:03Z</time>
      </trkpt>
      <trkpt lat="46.73461" lon="6.39031">
        <ele>874.3</ele>
        <time>2022-11-08T09:14:08Z</time>
      </trkpt>
      <trkpt lat="46.73458" lon="6.39036">
        <ele>875.3</ele>
        <time>2022-11-08T09:14:13Z</time>
      </trkpt>
      <trkpt lat="46.73454" lon="6.39041">
        <ele>876.4</ele>
        <time>2022-11-08T09:14:18Z</time>
      </trkpt>
      <trkpt lat="46.73451" lon="6.39046">
        <ele>877.3</ele>
        <time>2022-11-08T09:14:23Z</time>
      </trkpt>
      <trkpt lat="46.73448" lon="6.39052">
        <ele>877.6</ele>
        <time>2022-11-08T09:14:28Z</time>
      </trkpt>
      <trkpt lat="46.73445" lon="6.39058">
        <ele>877.9</ele>
        <time>2022-11-08T09:14:33Z</time>
      </trkpt>
      <trkpt lat="46.73442" lon="6.39063">
        <ele>877.6</ele>
        <time>2022-11-08T09:14:38Z</time>
      </trkpt>
      <trkpt lat="46.73438" lon="6.39069">
        <ele>877.2</ele>
        <time>2022-11-08T09:14:43Z</time>
      </trkpt>
      <trkpt lat="46.73435" lon="6.39074">
        <ele>876.9</ele>
        <time>2022-11-08T09:14:48Z</time>
      </trkpt>
      <trkpt lat="46.73432" lon="6.3908">
        <ele>877</ele>
        <time>2022-11-08T09:14:53Z</time>
      </trkpt>
      <trkpt lat="46.73429" lon="6.39085">
        <ele>876.8</ele>
        <time>2022-11-08T09:14:58Z</time>
      </trkpt>
      <trkpt lat="46.73426" lon="6.39091">
        <ele>876.2</ele>
        <time>2022-11-08T09:15:03Z</time>
      </trkpt>
      <trkpt lat="46.73424" lon="6.39096">
        <ele>875.2</ele>
        <time>2022-11-08T09:15:08Z</time>
      </trkpt>
      <trkpt lat="46.73421" lon="6.39102">
        <ele>874.2</ele>
        <time>2022-11-08T09:15:12Z</time>
      </trkpt>
      <trkpt lat="46.73418" lon="6.39107">
        <ele>873.2</ele>
        <time>2022-11-08T09:15:17Z</time>
      </trkpt>
      <trkpt lat="46.73415" lon="6.39112">
        <ele>872.6</ele>
        <time>2022-11-08T09:15:21Z</time>
      </trkpt>
      <trkpt lat="46.73411" lon="6.39118">
        <ele>872.6</ele>
        <time>2022-11-08T09:15:26Z</time>
      </trkpt>
      <trkpt lat="46.73408" lon="6.39124">
        <ele>873.1</ele>
        <time>2022-11-08T09:15:31Z</time>
      </trkpt>
      <trkpt lat="46.73404" lon="6.3913">
        <ele>873.4</ele>
        <time>2022-11-08T09:15:36Z</time>
      </trkpt>
      <trkpt lat="46.734" lon="6.39134">
        <ele>873.2</ele>
        <time>2022-11-08T09:15:42Z</time>
      </trkpt>
      <trkpt lat="46.73395" lon="6.39138">
        <ele>873.2</ele>
        <time>2022-11-08T09:15:50Z</time>
      </trkpt>
      <trkpt lat="46.73391" lon="6.39142">
        <ele>873.4</ele>
        <time>2022-11-08T09:15:57Z</time>
      </trkpt>
      <trkpt lat="46.73387" lon="6.39147">
        <ele>873.6</ele>
        <time>2022-11-08T09:16:02Z</time>
      </trkpt>
      <trkpt lat="46.73383" lon="6.39151">
        <ele>874.7</ele>
        <time>2022-11-08T09:16:10Z</time>
      </trkpt>
      <trkpt lat="46.73379" lon="6.39155">
        <ele>875.6</ele>
        <time>2022-11-08T09:16:14Z</time>
      </trkpt>
      <trkpt lat="46.73375" lon="6.39156">
        <ele>876.7</ele>
        <time>2022-11-08T09:16:20Z</time>
      </trkpt>
      <trkpt lat="46.7337" lon="6.3916">
        <ele>877.4</ele>
        <time>2022-11-08T09:16:43Z</time>
      </trkpt>
      <trkpt lat="46.73366" lon="6.39162">
        <ele>877.6</ele>
        <time>2022-11-08T09:16:48Z</time>
      </trkpt>
      <trkpt lat="46.73361" lon="6.39162">
        <ele>877.9</ele>
        <time>2022-11-08T09:16:55Z</time>
      </trkpt>
      <trkpt lat="46.73356" lon="6.3916">
        <ele>879.3</ele>
        <time>2022-11-08T09:17:02Z</time>
      </trkpt>
      <trkpt lat="46.73351" lon="6.3916">
        <ele>880.7</ele>
        <time>2022-11-08T09:17:07Z</time>
      </trkpt>
      <trkpt lat="46.73346" lon="6.39158">
        <ele>882.1</ele>
        <time>2022-11-08T09:17:14Z</time>
      </trkpt>
      <trkpt lat="46.73342" lon="6.39155">
        <ele>882.8</ele>
        <time>2022-11-08T09:17:19Z</time>
      </trkpt>
      <trkpt lat="46.73337" lon="6.39153">
        <ele>883.9</ele>
        <time>2022-11-08T09:17:24Z</time>
      </trkpt>
      <trkpt lat="46.73332" lon="6.39154">
        <ele>884.7</ele>
        <time>2022-11-08T09:17:29Z</time>
      </trkpt>
      <trkpt lat="46.73327" lon="6.39154">
        <ele>886.4</ele>
        <time>2022-11-08T09:17:35Z</time>
      </trkpt>
      <trkpt lat="46.73322" lon="6.39157">
        <ele>887.4</ele>
        <time>2022-11-08T09:17:42Z</time>
      </trkpt>
      <trkpt lat="46.73317" lon="6.39158">
        <ele>887.8</ele>
        <time>2022-11-08T09:17:46Z</time>
      </trkpt>
      <trkpt lat="46.73312" lon="6.39158">
        <ele>887.2</ele>
        <time>2022-11-08T09:17:52Z</time>
      </trkpt>
      <trkpt lat="46.73307" lon="6.39159">
        <ele>886.8</ele>
        <time>2022-11-08T09:17:57Z</time>
      </trkpt>
      <trkpt lat="46.73302" lon="6.39161">
        <ele>886.2</ele>
        <time>2022-11-08T09:18:03Z</time>
      </trkpt>
      <trkpt lat="46.73298" lon="6.39162">
        <ele>885.9</ele>
        <time>2022-11-08T09:18:07Z</time>
      </trkpt>
      <trkpt lat="46.73293" lon="6.39162">
        <ele>885.5</ele>
        <time>2022-11-08T09:18:15Z</time>
      </trkpt>
      <trkpt lat="46.73289" lon="6.39167">
        <ele>886.2</ele>
        <time>2022-11-08T09:18:22Z</time>
      </trkpt>
      <trkpt lat="46.73286" lon="6.39172">
        <ele>887.1</ele>
        <time>2022-11-08T09:18:27Z</time>
      </trkpt>
      <trkpt lat="46.73283" lon="6.39178">
        <ele>887.8</ele>
        <time>2022-11-08T09:18:32Z</time>
      </trkpt>
      <trkpt lat="46.73279" lon="6.39183">
        <ele>888.4</ele>
        <time>2022-11-08T09:18:37Z</time>
      </trkpt>
      <trkpt lat="46.73275" lon="6.39188">
        <ele>888.8</ele>
        <time>2022-11-08T09:18:42Z</time>
      </trkpt>
      <trkpt lat="46.73272" lon="6.39193">
        <ele>888.9</ele>
        <time>2022-11-08T09:18:48Z</time>
      </trkpt>
      <trkpt lat="46.73269" lon="6.39198">
        <ele>888.9</ele>
        <time>2022-11-08T09:18:54Z</time>
      </trkpt>
      <trkpt lat="46.73267" lon="6.39205">
        <ele>889</ele>
        <time>2022-11-08T09:19:00Z</time>
      </trkpt>
      <trkpt lat="46.73266" lon="6.39211">
        <ele>889.4</ele>
        <time>2022-11-08T09:19:05Z</time>
      </trkpt>
      <trkpt lat="46.73264" lon="6.39218">
        <ele>890.2</ele>
        <time>2022-11-08T09:19:10Z</time>
      </trkpt>
      <trkpt lat="46.73261" lon="6.39223">
        <ele>890.6</ele>
        <time>2022-11-08T09:19:14Z</time>
      </trkpt>
      <trkpt lat="46.73259" lon="6.39229">
        <ele>890.9</ele>
        <time>2022-11-08T09:19:18Z</time>
      </trkpt>
      <trkpt lat="46.73256" lon="6.39235">
        <ele>890.9</ele>
        <time>2022-11-08T09:19:24Z</time>
      </trkpt>
      <trkpt lat="46.73254" lon="6.39242">
        <ele>890.3</ele>
        <time>2022-11-08T09:19:30Z</time>
      </trkpt>
      <trkpt lat="46.73252" lon="6.39249">
        <ele>889.8</ele>
        <time>2022-11-08T09:19:35Z</time>
      </trkpt>
      <trkpt lat="46.7325" lon="6.39254">
        <ele>889.4</ele>
        <time>2022-11-08T09:19:40Z</time>
      </trkpt>
      <trkpt lat="46.73247" lon="6.3926">
        <ele>889.6</ele>
        <time>2022-11-08T09:19:46Z</time>
      </trkpt>
      <trkpt lat="46.73243" lon="6.39264">
        <ele>890</ele>
        <time>2022-11-08T09:19:51Z</time>
      </trkpt>
      <trkpt lat="46.73239" lon="6.39269">
        <ele>890.5</ele>
        <time>2022-11-08T09:19:56Z</time>
      </trkpt>
      <trkpt lat="46.73236" lon="6.39274">
        <ele>891.2</ele>
        <time>2022-11-08T09:20:01Z</time>
      </trkpt>
      <trkpt lat="46.73233" lon="6.3928">
        <ele>892.1</ele>
        <time>2022-11-08T09:20:06Z</time>
      </trkpt>
      <trkpt lat="46.73229" lon="6.39285">
        <ele>892.9</ele>
        <time>2022-11-08T09:20:11Z</time>
      </trkpt>
      <trkpt lat="46.73226" lon="6.39291">
        <ele>893.6</ele>
        <time>2022-11-08T09:20:16Z</time>
      </trkpt>
      <trkpt lat="46.73224" lon="6.39297">
        <ele>894.3</ele>
        <time>2022-11-08T09:20:22Z</time>
      </trkpt>
      <trkpt lat="46.73222" lon="6.39304">
        <ele>894.6</ele>
        <time>2022-11-08T09:20:28Z</time>
      </trkpt>
      <trkpt lat="46.7322" lon="6.39311">
        <ele>894.8</ele>
        <time>2022-11-08T09:20:34Z</time>
      </trkpt>
      <trkpt lat="46.73218" lon="6.39318">
        <ele>895.3</ele>
        <time>2022-11-08T09:20:39Z</time>
      </trkpt>
      <trkpt lat="46.73215" lon="6.39324">
        <ele>895.8</ele>
        <time>2022-11-08T09:20:44Z</time>
      </trkpt>
      <trkpt lat="46.73213" lon="6.39331">
        <ele>896.3</ele>
        <time>2022-11-08T09:20:50Z</time>
      </trkpt>
      <trkpt lat="46.73211" lon="6.39337">
        <ele>896.4</ele>
        <time>2022-11-08T09:20:56Z</time>
      </trkpt>
      <trkpt lat="46.73208" lon="6.39343">
        <ele>896.6</ele>
        <time>2022-11-08T09:21:01Z</time>
      </trkpt>
      <trkpt lat="46.73204" lon="6.39347">
        <ele>896.6</ele>
        <time>2022-11-08T09:21:20Z</time>
      </trkpt>
      <trkpt lat="46.73201" lon="6.39352">
        <ele>896.9</ele>
        <time>2022-11-08T09:21:26Z</time>
      </trkpt>
      <trkpt lat="46.73199" lon="6.39359">
        <ele>897.2</ele>
        <time>2022-11-08T09:21:31Z</time>
      </trkpt>
      <trkpt lat="46.73196" lon="6.39365">
        <ele>897.4</ele>
        <time>2022-11-08T09:21:36Z</time>
      </trkpt>
      <trkpt lat="46.73193" lon="6.3937">
        <ele>897.6</ele>
        <time>2022-11-08T09:21:41Z</time>
      </trkpt>
      <trkpt lat="46.73192" lon="6.39377">
        <ele>897.6</ele>
        <time>2022-11-08T09:21:45Z</time>
      </trkpt>
      <trkpt lat="46.7319" lon="6.39384">
        <ele>897.7</ele>
        <time>2022-11-08T09:21:49Z</time>
      </trkpt>
      <trkpt lat="46.73188" lon="6.3939">
        <ele>898.3</ele>
        <time>2022-11-08T09:21:54Z</time>
      </trkpt>
      <trkpt lat="46.73185" lon="6.39396">
        <ele>899.4</ele>
        <time>2022-11-08T09:21:59Z</time>
      </trkpt>
      <trkpt lat="46.73181" lon="6.39402">
        <ele>900.5</ele>
        <time>2022-11-08T09:22:04Z</time>
      </trkpt>
      <trkpt lat="46.73179" lon="6.39409">
        <ele>901.1</ele>
        <time>2022-11-08T09:22:09Z</time>
      </trkpt>
      <trkpt lat="46.73176" lon="6.39415">
        <ele>901.7</ele>
        <time>2022-11-08T09:22:14Z</time>
      </trkpt>
      <trkpt lat="46.73174" lon="6.39422">
        <ele>901.9</ele>
        <time>2022-11-08T09:22:19Z</time>
      </trkpt>
      <trkpt lat="46.73171" lon="6.39428">
        <ele>902.4</ele>
        <time>2022-11-08T09:22:23Z</time>
      </trkpt>
      <trkpt lat="46.73168" lon="6.39433">
        <ele>903.2</ele>
        <time>2022-11-08T09:22:27Z</time>
      </trkpt>
      <trkpt lat="46.73164" lon="6.39438">
        <ele>904.1</ele>
        <time>2022-11-08T09:22:32Z</time>
      </trkpt>
      <trkpt lat="46.7316" lon="6.39442">
        <ele>905.4</ele>
        <time>2022-11-08T09:22:38Z</time>
      </trkpt>
      <trkpt lat="46.73158" lon="6.39449">
        <ele>906.5</ele>
        <time>2022-11-08T09:22:44Z</time>
      </trkpt>
      <trkpt lat="46.73155" lon="6.39455">
        <ele>907.1</ele>
        <time>2022-11-08T09:22:48Z</time>
      </trkpt>
      <trkpt lat="46.73152" lon="6.39462">
        <ele>907.4</ele>
        <time>2022-11-08T09:22:52Z</time>
      </trkpt>
      <trkpt lat="46.73149" lon="6.39467">
        <ele>907.4</ele>
        <time>2022-11-08T09:22:56Z</time>
      </trkpt>
      <trkpt lat="46.73146" lon="6.39473">
        <ele>907.2</ele>
        <time>2022-11-08T09:23:00Z</time>
      </trkpt>
      <trkpt lat="46.73142" lon="6.39478">
        <ele>907.1</ele>
        <time>2022-11-08T09:23:05Z</time>
      </trkpt>
      <trkpt lat="46.73139" lon="6.39483">
        <ele>906.9</ele>
        <time>2022-11-08T09:23:10Z</time>
      </trkpt>
      <trkpt lat="46.73137" lon="6.3949">
        <ele>907</ele>
        <time>2022-11-08T09:23:16Z</time>
      </trkpt>
      <trkpt lat="46.73135" lon="6.39496">
        <ele>906.8</ele>
        <time>2022-11-08T09:23:20Z</time>
      </trkpt>
      <trkpt lat="46.73133" lon="6.39502">
        <ele>906.6</ele>
        <time>2022-11-08T09:23:24Z</time>
      </trkpt>
      <trkpt lat="46.7313" lon="6.39508">
        <ele>906.3</ele>
        <time>2022-11-08T09:23:28Z</time>
      </trkpt>
      <trkpt lat="46.73127" lon="6.39514">
        <ele>906.1</ele>
        <time>2022-11-08T09:23:33Z</time>
      </trkpt>
      <trkpt lat="46.73126" lon="6.3952">
        <ele>906.5</ele>
        <time>2022-11-08T09:23:38Z</time>
      </trkpt>
      <trkpt lat="46.73123" lon="6.39526">
        <ele>907</ele>
        <time>2022-11-08T09:23:42Z</time>
      </trkpt>
      <trkpt lat="46.7312" lon="6.39532">
        <ele>907.3</ele>
        <time>2022-11-08T09:23:46Z</time>
      </trkpt>
      <trkpt lat="46.73118" lon="6.39539">
        <ele>908.1</ele>
        <time>2022-11-08T09:23:51Z</time>
      </trkpt>
      <trkpt lat="46.73116" lon="6.39546">
        <ele>909</ele>
        <time>2022-11-08T09:23:56Z</time>
      </trkpt>
      <trkpt lat="46.73114" lon="6.39552">
        <ele>909.7</ele>
        <time>2022-11-08T09:24:00Z</time>
      </trkpt>
      <trkpt lat="46.73112" lon="6.39559">
        <ele>910.3</ele>
        <time>2022-11-08T09:24:04Z</time>
      </trkpt>
      <trkpt lat="46.7311" lon="6.39566">
        <ele>911</ele>
        <time>2022-11-08T09:24:09Z</time>
      </trkpt>
      <trkpt lat="46.73108" lon="6.39573">
        <ele>911.6</ele>
        <time>2022-11-08T09:24:14Z</time>
      </trkpt>
      <trkpt lat="46.73107" lon="6.39579">
        <ele>911.7</ele>
        <time>2022-11-08T09:24:19Z</time>
      </trkpt>
      <trkpt lat="46.73104" lon="6.39586">
        <ele>911.6</ele>
        <time>2022-11-08T09:24:24Z</time>
      </trkpt>
      <trkpt lat="46.73102" lon="6.39591">
        <ele>911.5</ele>
        <time>2022-11-08T09:24:28Z</time>
      </trkpt>
      <trkpt lat="46.73099" lon="6.39597">
        <ele>911.3</ele>
        <time>2022-11-08T09:24:33Z</time>
      </trkpt>
      <trkpt lat="46.73097" lon="6.39603">
        <ele>910.9</ele>
        <time>2022-11-08T09:24:38Z</time>
      </trkpt>
      <trkpt lat="46.73095" lon="6.3961">
        <ele>909.9</ele>
        <time>2022-11-08T09:24:43Z</time>
      </trkpt>
      <trkpt lat="46.73093" lon="6.39616">
        <ele>908.9</ele>
        <time>2022-11-08T09:24:48Z</time>
      </trkpt>
      <trkpt lat="46.7309" lon="6.39621">
        <ele>907.9</ele>
        <time>2022-11-08T09:24:53Z</time>
      </trkpt>
      <trkpt lat="46.73087" lon="6.39626">
        <ele>907.6</ele>
        <time>2022-11-08T09:24:57Z</time>
      </trkpt>
      <trkpt lat="46.73084" lon="6.39632">
        <ele>907.3</ele>
        <time>2022-11-08T09:25:01Z</time>
      </trkpt>
      <trkpt lat="46.73081" lon="6.39637">
        <ele>906.9</ele>
        <time>2022-11-08T09:25:06Z</time>
      </trkpt>
      <trkpt lat="46.73078" lon="6.39642">
        <ele>906.4</ele>
        <time>2022-11-08T09:25:11Z</time>
      </trkpt>
      <trkpt lat="46.73075" lon="6.39648">
        <ele>905.7</ele>
        <time>2022-11-08T09:25:17Z</time>
      </trkpt>
      <trkpt lat="46.73072" lon="6.39654">
        <ele>905.6</ele>
        <time>2022-11-08T09:25:22Z</time>
      </trkpt>
      <trkpt lat="46.7307" lon="6.39661">
        <ele>905.2</ele>
        <time>2022-11-08T09:25:27Z</time>
      </trkpt>
      <trkpt lat="46.7307" lon="6.39668">
        <ele>904.7</ele>
        <time>2022-11-08T09:25:31Z</time>
      </trkpt>
      <trkpt lat="46.73068" lon="6.39675">
        <ele>903.9</ele>
        <time>2022-11-08T09:25:37Z</time>
      </trkpt>
      <trkpt lat="46.73065" lon="6.3968">
        <ele>903.1</ele>
        <time>2022-11-08T09:25:43Z</time>
      </trkpt>
      <trkpt lat="46.73062" lon="6.39685">
        <ele>903.3</ele>
        <time>2022-11-08T09:25:47Z</time>
      </trkpt>
      <trkpt lat="46.73059" lon="6.39691">
        <ele>903.4</ele>
        <time>2022-11-08T09:25:51Z</time>
      </trkpt>
      <trkpt lat="46.73056" lon="6.39697">
        <ele>902.9</ele>
        <time>2022-11-08T09:25:55Z</time>
      </trkpt>
      <trkpt lat="46.73053" lon="6.39703">
        <ele>902.3</ele>
        <time>2022-11-08T09:26:00Z</time>
      </trkpt>
      <trkpt lat="46.7305" lon="6.39708">
        <ele>901.8</ele>
        <time>2022-11-08T09:26:04Z</time>
      </trkpt>
      <trkpt lat="46.73046" lon="6.39714">
        <ele>901.2</ele>
        <time>2022-11-08T09:26:09Z</time>
      </trkpt>
      <trkpt lat="46.73043" lon="6.3972">
        <ele>900.6</ele>
        <time>2022-11-08T09:26:14Z</time>
      </trkpt>
      <trkpt lat="46.73041" lon="6.39727">
        <ele>900</ele>
        <time>2022-11-08T09:26:19Z</time>
      </trkpt>
      <trkpt lat="46.73038" lon="6.39733">
        <ele>899.9</ele>
        <time>2022-11-08T09:26:25Z</time>
      </trkpt>
      <trkpt lat="46.73035" lon="6.3974">
        <ele>900.4</ele>
        <time>2022-11-08T09:26:30Z</time>
      </trkpt>
      <trkpt lat="46.73033" lon="6.39747">
        <ele>901</ele>
        <time>2022-11-08T09:26:35Z</time>
      </trkpt>
      <trkpt lat="46.73031" lon="6.39754">
        <ele>901.2</ele>
        <time>2022-11-08T09:26:40Z</time>
      </trkpt>
      <trkpt lat="46.73029" lon="6.39761">
        <ele>901.4</ele>
        <time>2022-11-08T09:26:45Z</time>
      </trkpt>
      <trkpt lat="46.73026" lon="6.39768">
        <ele>902</ele>
        <time>2022-11-08T09:26:50Z</time>
      </trkpt>
      <trkpt lat="46.73024" lon="6.39775">
        <ele>902.5</ele>
        <time>2022-11-08T09:26:55Z</time>
      </trkpt>
      <trkpt lat="46.73023" lon="6.39782">
        <ele>902.8</ele>
        <time>2022-11-08T09:26:59Z</time>
      </trkpt>
      <trkpt lat="46.73023" lon="6.3979">
        <ele>903</ele>
        <time>2022-11-08T09:27:04Z</time>
      </trkpt>
      <trkpt lat="46.73022" lon="6.39798">
        <ele>903.4</ele>
        <time>2022-11-08T09:27:09Z</time>
      </trkpt>
      <trkpt lat="46.73021" lon="6.39805">
        <ele>903.8</ele>
        <time>2022-11-08T09:27:14Z</time>
      </trkpt>
      <trkpt lat="46.73021" lon="6.39813">
        <ele>904.3</ele>
        <time>2022-11-08T09:27:19Z</time>
      </trkpt>
      <trkpt lat="46.7302" lon="6.39821">
        <ele>904.7</ele>
        <time>2022-11-08T09:27:24Z</time>
      </trkpt>
      <trkpt lat="46.7302" lon="6.39828">
        <ele>905</ele>
        <time>2022-11-08T09:27:29Z</time>
      </trkpt>
      <trkpt lat="46.73021" lon="6.39836">
        <ele>905.6</ele>
        <time>2022-11-08T09:27:34Z</time>
      </trkpt>
      <trkpt lat="46.73021" lon="6.39844">
        <ele>905.8</ele>
        <time>2022-11-08T09:27:39Z</time>
      </trkpt>
      <trkpt lat="46.73022" lon="6.39851">
        <ele>905.5</ele>
        <time>2022-11-08T09:27:44Z</time>
      </trkpt>
      <trkpt lat="46.73023" lon="6.39858">
        <ele>905.2</ele>
        <time>2022-11-08T09:27:49Z</time>
      </trkpt>
      <trkpt lat="46.73023" lon="6.39866">
        <ele>904.8</ele>
        <time>2022-11-08T09:27:54Z</time>
      </trkpt>
      <trkpt lat="46.73022" lon="6.39872">
        <ele>904.4</ele>
        <time>2022-11-08T09:27:58Z</time>
      </trkpt>
      <trkpt lat="46.73021" lon="6.3988">
        <ele>903.4</ele>
        <time>2022-11-08T09:28:03Z</time>
      </trkpt>
      <trkpt lat="46.73019" lon="6.39886">
        <ele>902.2</ele>
        <time>2022-11-08T09:28:07Z</time>
      </trkpt>
      <trkpt lat="46.73018" lon="6.39893">
        <ele>901.1</ele>
        <time>2022-11-08T09:28:11Z</time>
      </trkpt>
      <trkpt lat="46.7302" lon="6.399">
        <ele>899.8</ele>
        <time>2022-11-08T09:28:15Z</time>
      </trkpt>
      <trkpt lat="46.73019" lon="6.39908">
        <ele>898.5</ele>
        <time>2022-11-08T09:28:20Z</time>
      </trkpt>
      <trkpt lat="46.73019" lon="6.39915">
        <ele>897.5</ele>
        <time>2022-11-08T09:28:24Z</time>
      </trkpt>
      <trkpt lat="46.73018" lon="6.39921">
        <ele>896.3</ele>
        <time>2022-11-08T09:28:28Z</time>
      </trkpt>
      <trkpt lat="46.73018" lon="6.39929">
        <ele>895.3</ele>
        <time>2022-11-08T09:28:32Z</time>
      </trkpt>
      <trkpt lat="46.73017" lon="6.39935">
        <ele>894.5</ele>
        <time>2022-11-08T09:28:36Z</time>
      </trkpt>
      <trkpt lat="46.73015" lon="6.39941">
        <ele>893.9</ele>
        <time>2022-11-08T09:28:40Z</time>
      </trkpt>
      <trkpt lat="46.73012" lon="6.39948">
        <ele>893</ele>
        <time>2022-11-08T09:28:45Z</time>
      </trkpt>
      <trkpt lat="46.73013" lon="6.39955">
        <ele>892.8</ele>
        <time>2022-11-08T09:28:50Z</time>
      </trkpt>
      <trkpt lat="46.73011" lon="6.39962">
        <ele>893.1</ele>
        <time>2022-11-08T09:28:55Z</time>
      </trkpt>
      <trkpt lat="46.7301" lon="6.39968">
        <ele>893.3</ele>
        <time>2022-11-08T09:28:59Z</time>
      </trkpt>
      <trkpt lat="46.73008" lon="6.39976">
        <ele>893.9</ele>
        <time>2022-11-08T09:29:04Z</time>
      </trkpt>
      <trkpt lat="46.73004" lon="6.39982">
        <ele>894.6</ele>
        <time>2022-11-08T09:29:09Z</time>
      </trkpt>
      <trkpt lat="46.73001" lon="6.39987">
        <ele>894.6</ele>
        <time>2022-11-08T09:29:13Z</time>
      </trkpt>
      <trkpt lat="46.72999" lon="6.39994">
        <ele>893.6</ele>
        <time>2022-11-08T09:29:20Z</time>
      </trkpt>
      <trkpt lat="46.72997" lon="6.40002">
        <ele>892.4</ele>
        <time>2022-11-08T09:29:25Z</time>
      </trkpt>
      <trkpt lat="46.72995" lon="6.40009">
        <ele>891.2</ele>
        <time>2022-11-08T09:29:30Z</time>
      </trkpt>
      <trkpt lat="46.72994" lon="6.40016">
        <ele>890.4</ele>
        <time>2022-11-08T09:29:36Z</time>
      </trkpt>
      <trkpt lat="46.72993" lon="6.40023">
        <ele>889.5</ele>
        <time>2022-11-08T09:29:41Z</time>
      </trkpt>
      <trkpt lat="46.72992" lon="6.40031">
        <ele>888.3</ele>
        <time>2022-11-08T09:29:46Z</time>
      </trkpt>
      <trkpt lat="46.72991" lon="6.40038">
        <ele>887.4</ele>
        <time>2022-11-08T09:29:50Z</time>
      </trkpt>
      <trkpt lat="46.72989" lon="6.40045">
        <ele>886.7</ele>
        <time>2022-11-08T09:29:54Z</time>
      </trkpt>
      <trkpt lat="46.72989" lon="6.40053">
        <ele>886.5</ele>
        <time>2022-11-08T09:29:58Z</time>
      </trkpt>
      <trkpt lat="46.72988" lon="6.40059">
        <ele>886.2</ele>
        <time>2022-11-08T09:30:03Z</time>
      </trkpt>
      <trkpt lat="46.72987" lon="6.40066">
        <ele>885.3</ele>
        <time>2022-11-08T09:30:08Z</time>
      </trkpt>
      <trkpt lat="46.72985" lon="6.40072">
        <ele>884</ele>
        <time>2022-11-08T09:30:14Z</time>
      </trkpt>
      <trkpt lat="46.72983" lon="6.40078">
        <ele>882.7</ele>
        <time>2022-11-08T09:30:19Z</time>
      </trkpt>
      <trkpt lat="46.72981" lon="6.40086">
        <ele>881.3</ele>
        <time>2022-11-08T09:30:24Z</time>
      </trkpt>
      <trkpt lat="46.72979" lon="6.40092">
        <ele>880</ele>
        <time>2022-11-08T09:30:29Z</time>
      </trkpt>
      <trkpt lat="46.72975" lon="6.40097">
        <ele>879.1</ele>
        <time>2022-11-08T09:30:34Z</time>
      </trkpt>
      <trkpt lat="46.72971" lon="6.401">
        <ele>878.4</ele>
        <time>2022-11-08T09:30:38Z</time>
      </trkpt>
      <trkpt lat="46.72967" lon="6.40106">
        <ele>877.9</ele>
        <time>2022-11-08T09:30:42Z</time>
      </trkpt>
      <trkpt lat="46.72964" lon="6.40111">
        <ele>877.4</ele>
        <time>2022-11-08T09:30:47Z</time>
      </trkpt>
      <trkpt lat="46.72961" lon="6.40118">
        <ele>877.2</ele>
        <time>2022-11-08T09:30:52Z</time>
      </trkpt>
      <trkpt lat="46.72959" lon="6.40124">
        <ele>877.2</ele>
        <time>2022-11-08T09:30:57Z</time>
      </trkpt>
      <trkpt lat="46.72958" lon="6.40131">
        <ele>877.1</ele>
        <time>2022-11-08T09:31:01Z</time>
      </trkpt>
      <trkpt lat="46.72956" lon="6.40139">
        <ele>877.2</ele>
        <time>2022-11-08T09:31:05Z</time>
      </trkpt>
      <trkpt lat="46.72955" lon="6.40147">
        <ele>877.3</ele>
        <time>2022-11-08T09:31:09Z</time>
      </trkpt>
      <trkpt lat="46.72952" lon="6.40153">
        <ele>877.5</ele>
        <time>2022-11-08T09:31:14Z</time>
      </trkpt>
      <trkpt lat="46.72948" lon="6.40158">
        <ele>877.6</ele>
        <time>2022-11-08T09:31:19Z</time>
      </trkpt>
      <trkpt lat="46.72944" lon="6.40163">
        <ele>877.9</ele>
        <time>2022-11-08T09:31:24Z</time>
      </trkpt>
      <trkpt lat="46.72941" lon="6.40168">
        <ele>878.4</ele>
        <time>2022-11-08T09:31:30Z</time>
      </trkpt>
      <trkpt lat="46.72938" lon="6.40174">
        <ele>878.6</ele>
        <time>2022-11-08T09:31:36Z</time>
      </trkpt>
      <trkpt lat="46.72937" lon="6.40182">
        <ele>878.9</ele>
        <time>2022-11-08T09:31:41Z</time>
      </trkpt>
      <trkpt lat="46.72938" lon="6.40175">
        <ele>881.1</ele>
        <time>2022-11-08T09:32:03Z</time>
      </trkpt>
      <trkpt lat="46.72939" lon="6.40183">
        <ele>885.3</ele>
        <time>2022-11-08T09:32:32Z</time>
      </trkpt>
      <trkpt lat="46.72936" lon="6.40188">
        <ele>884.6</ele>
        <time>2022-11-08T09:32:53Z</time>
      </trkpt>
      <trkpt lat="46.72934" lon="6.40194">
        <ele>886.5</ele>
        <time>2022-11-08T09:33:06Z</time>
      </trkpt>
      <trkpt lat="46.72931" lon="6.40202">
        <ele>889.2</ele>
        <time>2022-11-08T09:33:38Z</time>
      </trkpt>
      <trkpt lat="46.72928" lon="6.40208">
        <ele>890.1</ele>
        <time>2022-11-08T09:33:41Z</time>
      </trkpt>
      <trkpt lat="46.72927" lon="6.40216">
        <ele>891.2</ele>
        <time>2022-11-08T09:34:03Z</time>
      </trkpt>
      <trkpt lat="46.72926" lon="6.40222">
        <ele>890.4</ele>
        <time>2022-11-08T09:34:08Z</time>
      </trkpt>
      <trkpt lat="46.72923" lon="6.40229">
        <ele>888.5</ele>
        <time>2022-11-08T09:34:14Z</time>
      </trkpt>
      <trkpt lat="46.7292" lon="6.40234">
        <ele>886.6</ele>
        <time>2022-11-08T09:34:20Z</time>
      </trkpt>
      <trkpt lat="46.72917" lon="6.4024">
        <ele>885.4</ele>
        <time>2022-11-08T09:34:24Z</time>
      </trkpt>
      <trkpt lat="46.72914" lon="6.40246">
        <ele>884.4</ele>
        <time>2022-11-08T09:34:29Z</time>
      </trkpt>
      <trkpt lat="46.72912" lon="6.40254">
        <ele>883.7</ele>
        <time>2022-11-08T09:34:34Z</time>
      </trkpt>
      <trkpt lat="46.7291" lon="6.40261">
        <ele>883</ele>
        <time>2022-11-08T09:34:39Z</time>
      </trkpt>
      <trkpt lat="46.72911" lon="6.40268">
        <ele>882.5</ele>
        <time>2022-11-08T09:34:44Z</time>
      </trkpt>
      <trkpt lat="46.72911" lon="6.40275">
        <ele>882</ele>
        <time>2022-11-08T09:34:49Z</time>
      </trkpt>
      <trkpt lat="46.72909" lon="6.40282">
        <ele>881.5</ele>
        <time>2022-11-08T09:34:54Z</time>
      </trkpt>
      <trkpt lat="46.72906" lon="6.40288">
        <ele>881.1</ele>
        <time>2022-11-08T09:34:59Z</time>
      </trkpt>
      <trkpt lat="46.72904" lon="6.40295">
        <ele>881</ele>
        <time>2022-11-08T09:35:04Z</time>
      </trkpt>
      <trkpt lat="46.72903" lon="6.40302">
        <ele>880.8</ele>
        <time>2022-11-08T09:35:09Z</time>
      </trkpt>
      <trkpt lat="46.72901" lon="6.40309">
        <ele>880.3</ele>
        <time>2022-11-08T09:35:14Z</time>
      </trkpt>
      <trkpt lat="46.72898" lon="6.40315">
        <ele>879.7</ele>
        <time>2022-11-08T09:35:18Z</time>
      </trkpt>
      <trkpt lat="46.72895" lon="6.4032">
        <ele>879.2</ele>
        <time>2022-11-08T09:35:22Z</time>
      </trkpt>
      <trkpt lat="46.72892" lon="6.40326">
        <ele>879.1</ele>
        <time>2022-11-08T09:35:26Z</time>
      </trkpt>
      <trkpt lat="46.72888" lon="6.40332">
        <ele>879.3</ele>
        <time>2022-11-08T09:35:31Z</time>
      </trkpt>
      <trkpt lat="46.72885" lon="6.40337">
        <ele>879.5</ele>
        <time>2022-11-08T09:35:35Z</time>
      </trkpt>
      <trkpt lat="46.72883" lon="6.40344">
        <ele>879.6</ele>
        <time>2022-11-08T09:35:40Z</time>
      </trkpt>
      <trkpt lat="46.72882" lon="6.40351">
        <ele>879.3</ele>
        <time>2022-11-08T09:35:44Z</time>
      </trkpt>
      <trkpt lat="46.72879" lon="6.40358">
        <ele>878.8</ele>
        <time>2022-11-08T09:35:49Z</time>
      </trkpt>
      <trkpt lat="46.72876" lon="6.40364">
        <ele>877.8</ele>
        <time>2022-11-08T09:35:54Z</time>
      </trkpt>
      <trkpt lat="46.72873" lon="6.4037">
        <ele>876.9</ele>
        <time>2022-11-08T09:35:59Z</time>
      </trkpt>
      <trkpt lat="46.72871" lon="6.40376">
        <ele>876.8</ele>
        <time>2022-11-08T09:36:03Z</time>
      </trkpt>
      <trkpt lat="46.72868" lon="6.40381">
        <ele>876.8</ele>
        <time>2022-11-08T09:36:07Z</time>
      </trkpt>
      <trkpt lat="46.72865" lon="6.40386">
        <ele>876</ele>
        <time>2022-11-08T09:36:13Z</time>
      </trkpt>
      <trkpt lat="46.72863" lon="6.40393">
        <ele>875</ele>
        <time>2022-11-08T09:36:19Z</time>
      </trkpt>
      <trkpt lat="46.7286" lon="6.40399">
        <ele>874.9</ele>
        <time>2022-11-08T09:36:23Z</time>
      </trkpt>
      <trkpt lat="46.72859" lon="6.40405">
        <ele>874.7</ele>
        <time>2022-11-08T09:36:27Z</time>
      </trkpt>
      <trkpt lat="46.72858" lon="6.40412">
        <ele>874.3</ele>
        <time>2022-11-08T09:36:33Z</time>
      </trkpt>
      <trkpt lat="46.72856" lon="6.40418">
        <ele>873.6</ele>
        <time>2022-11-08T09:36:38Z</time>
      </trkpt>
      <trkpt lat="46.72853" lon="6.40424">
        <ele>873</ele>
        <time>2022-11-08T09:36:43Z</time>
      </trkpt>
      <trkpt lat="46.72851" lon="6.4043">
        <ele>872.6</ele>
        <time>2022-11-08T09:36:47Z</time>
      </trkpt>
      <trkpt lat="46.72848" lon="6.40436">
        <ele>872.2</ele>
        <time>2022-11-08T09:36:51Z</time>
      </trkpt>
      <trkpt lat="46.72846" lon="6.40442">
        <ele>871.6</ele>
        <time>2022-11-08T09:36:55Z</time>
      </trkpt>
      <trkpt lat="46.72846" lon="6.40449">
        <ele>872.8</ele>
        <time>2022-11-08T09:37:05Z</time>
      </trkpt>
      <trkpt lat="46.72849" lon="6.40455">
        <ele>874.8</ele>
        <time>2022-11-08T09:37:14Z</time>
      </trkpt>
      <trkpt lat="46.72852" lon="6.40461">
        <ele>875.8</ele>
        <time>2022-11-08T09:37:19Z</time>
      </trkpt>
      <trkpt lat="46.72856" lon="6.40467">
        <ele>876.4</ele>
        <time>2022-11-08T09:37:24Z</time>
      </trkpt>
      <trkpt lat="46.72859" lon="6.40473">
        <ele>876.6</ele>
        <time>2022-11-08T09:37:30Z</time>
      </trkpt>
      <trkpt lat="46.72861" lon="6.40479">
        <ele>877.2</ele>
        <time>2022-11-08T09:37:35Z</time>
      </trkpt>
      <trkpt lat="46.72861" lon="6.40486">
        <ele>877.6</ele>
        <time>2022-11-08T09:37:39Z</time>
      </trkpt>
      <trkpt lat="46.72863" lon="6.40493">
        <ele>878.1</ele>
        <time>2022-11-08T09:37:45Z</time>
      </trkpt>
      <trkpt lat="46.72865" lon="6.405">
        <ele>878.8</ele>
        <time>2022-11-08T09:37:50Z</time>
      </trkpt>
      <trkpt lat="46.72868" lon="6.40507">
        <ele>879.8</ele>
        <time>2022-11-08T09:37:55Z</time>
      </trkpt>
      <trkpt lat="46.7287" lon="6.40513">
        <ele>880.5</ele>
        <time>2022-11-08T09:37:59Z</time>
      </trkpt>
      <trkpt lat="46.72872" lon="6.40519">
        <ele>881.9</ele>
        <time>2022-11-08T09:38:04Z</time>
      </trkpt>
      <trkpt lat="46.72876" lon="6.40523">
        <ele>883.8</ele>
        <time>2022-11-08T09:38:17Z</time>
      </trkpt>
      <trkpt lat="46.7288" lon="6.40527">
        <ele>884</ele>
        <time>2022-11-08T09:38:22Z</time>
      </trkpt>
      <trkpt lat="46.72884" lon="6.40532">
        <ele>884.6</ele>
        <time>2022-11-08T09:38:28Z</time>
      </trkpt>
      <trkpt lat="46.72886" lon="6.40539">
        <ele>885.4</ele>
        <time>2022-11-08T09:38:33Z</time>
      </trkpt>
      <trkpt lat="46.72886" lon="6.40545">
        <ele>885.8</ele>
        <time>2022-11-08T09:38:39Z</time>
      </trkpt>
      <trkpt lat="46.72887" lon="6.40552">
        <ele>883.7</ele>
        <time>2022-11-08T09:38:50Z</time>
      </trkpt>
      <trkpt lat="46.7289" lon="6.40557">
        <ele>883.5</ele>
        <time>2022-11-08T09:38:55Z</time>
      </trkpt>
      <trkpt lat="46.72893" lon="6.40562">
        <ele>884.8</ele>
        <time>2022-11-08T09:39:01Z</time>
      </trkpt>
      <trkpt lat="46.72893" lon="6.40555">
        <ele>884.8</ele>
        <time>2022-11-08T09:39:21Z</time>
      </trkpt>
      <trkpt lat="46.72892" lon="6.40548">
        <ele>884.6</ele>
        <time>2022-11-08T09:39:26Z</time>
      </trkpt>
      <trkpt lat="46.72893" lon="6.40542">
        <ele>884.4</ele>
        <time>2022-11-08T09:39:32Z</time>
      </trkpt>
      <trkpt lat="46.72892" lon="6.40548">
        <ele>887.9</ele>
        <time>2022-11-08T09:39:52Z</time>
      </trkpt>
      <trkpt lat="46.72897" lon="6.4055">
        <ele>888.7</ele>
        <time>2022-11-08T09:39:57Z</time>
      </trkpt>
      <trkpt lat="46.72902" lon="6.40549">
        <ele>888.8</ele>
        <time>2022-11-08T09:40:07Z</time>
      </trkpt>
      <trkpt lat="46.72907" lon="6.40547">
        <ele>888.2</ele>
        <time>2022-11-08T09:40:12Z</time>
      </trkpt>
      <trkpt lat="46.72912" lon="6.40544">
        <ele>887.4</ele>
        <time>2022-11-08T09:40:16Z</time>
      </trkpt>
      <trkpt lat="46.72918" lon="6.40541">
        <ele>886.7</ele>
        <time>2022-11-08T09:40:20Z</time>
      </trkpt>
      <trkpt lat="46.72923" lon="6.40539">
        <ele>886.4</ele>
        <time>2022-11-08T09:40:24Z</time>
      </trkpt>
      <trkpt lat="46.72927" lon="6.40538">
        <ele>886.9</ele>
        <time>2022-11-08T09:40:30Z</time>
      </trkpt>
      <trkpt lat="46.72932" lon="6.40537">
        <ele>887.6</ele>
        <time>2022-11-08T09:40:36Z</time>
      </trkpt>
      <trkpt lat="46.72938" lon="6.40537">
        <ele>887.7</ele>
        <time>2022-11-08T09:40:40Z</time>
      </trkpt>
      <trkpt lat="46.72943" lon="6.40537">
        <ele>887.8</ele>
        <time>2022-11-08T09:40:43Z</time>
      </trkpt>
      <trkpt lat="46.72949" lon="6.40537">
        <ele>887.6</ele>
        <time>2022-11-08T09:40:47Z</time>
      </trkpt>
      <trkpt lat="46.72953" lon="6.40537">
        <ele>888.2</ele>
        <time>2022-11-08T09:40:51Z</time>
      </trkpt>
      <trkpt lat="46.72958" lon="6.40538">
        <ele>888.5</ele>
        <time>2022-11-08T09:40:55Z</time>
      </trkpt>
      <trkpt lat="46.72962" lon="6.40541">
        <ele>888.7</ele>
        <time>2022-11-08T09:41:00Z</time>
      </trkpt>
      <trkpt lat="46.72964" lon="6.40547">
        <ele>889</ele>
        <time>2022-11-08T09:41:05Z</time>
      </trkpt>
      <trkpt lat="46.72967" lon="6.40554">
        <ele>890.1</ele>
        <time>2022-11-08T09:41:10Z</time>
      </trkpt>
      <trkpt lat="46.72969" lon="6.4056">
        <ele>891.5</ele>
        <time>2022-11-08T09:41:15Z</time>
      </trkpt>
      <trkpt lat="46.72974" lon="6.40558">
        <ele>893.8</ele>
        <time>2022-11-08T09:41:36Z</time>
      </trkpt>
      <trkpt lat="46.72975" lon="6.40565">
        <ele>897.3</ele>
        <time>2022-11-08T09:41:52Z</time>
      </trkpt>
      <trkpt lat="46.72975" lon="6.40573">
        <ele>894.9</ele>
        <time>2022-11-08T09:45:49Z</time>
      </trkpt>
      <trkpt lat="46.72972" lon="6.40579">
        <ele>894.7</ele>
        <time>2022-11-08T09:45:53Z</time>
      </trkpt>
      <trkpt lat="46.72968" lon="6.40579">
        <ele>894.6</ele>
        <time>2022-11-08T09:46:01Z</time>
      </trkpt>
      <trkpt lat="46.72965" lon="6.40573">
        <ele>895.2</ele>
        <time>2022-11-08T09:46:10Z</time>
      </trkpt>
      <trkpt lat="46.72969" lon="6.4057">
        <ele>895.3</ele>
        <time>2022-11-08T09:46:17Z</time>
      </trkpt>
      <trkpt lat="46.72974" lon="6.40571">
        <ele>896.4</ele>
        <time>2022-11-08T09:46:25Z</time>
      </trkpt>
      <trkpt lat="46.72976" lon="6.40577">
        <ele>897.1</ele>
        <time>2022-11-08T09:46:31Z</time>
      </trkpt>
      <trkpt lat="46.72978" lon="6.40584">
        <ele>897.5</ele>
        <time>2022-11-08T09:46:36Z</time>
      </trkpt>
      <trkpt lat="46.7298" lon="6.4059">
        <ele>897.9</ele>
        <time>2022-11-08T09:46:40Z</time>
      </trkpt>
      <trkpt lat="46.72982" lon="6.40597">
        <ele>894.6</ele>
        <time>2022-11-08T09:47:47Z</time>
      </trkpt>
      <trkpt lat="46.72984" lon="6.40603">
        <ele>892.6</ele>
        <time>2022-11-08T09:48:25Z</time>
      </trkpt>
      <trkpt lat="46.72987" lon="6.40608">
        <ele>893</ele>
        <time>2022-11-08T09:48:30Z</time>
      </trkpt>
      <trkpt lat="46.72992" lon="6.40611">
        <ele>891.1</ele>
        <time>2022-11-08T09:48:49Z</time>
      </trkpt>
      <trkpt lat="46.72995" lon="6.40617">
        <ele>890.7</ele>
        <time>2022-11-08T09:48:53Z</time>
      </trkpt>
      <trkpt lat="46.72998" lon="6.40622">
        <ele>890</ele>
        <time>2022-11-08T09:48:58Z</time>
      </trkpt>
      <trkpt lat="46.73002" lon="6.40627">
        <ele>889.8</ele>
        <time>2022-11-08T09:49:03Z</time>
      </trkpt>
      <trkpt lat="46.73005" lon="6.40633">
        <ele>889.2</ele>
        <time>2022-11-08T09:49:07Z</time>
      </trkpt>
      <trkpt lat="46.73008" lon="6.40638">
        <ele>889.1</ele>
        <time>2022-11-08T09:49:10Z</time>
      </trkpt>
      <trkpt lat="46.73013" lon="6.40643">
        <ele>889.6</ele>
        <time>2022-11-08T09:49:14Z</time>
      </trkpt>
      <trkpt lat="46.73018" lon="6.40643">
        <ele>890.3</ele>
        <time>2022-11-08T09:49:20Z</time>
      </trkpt>
      <trkpt lat="46.73023" lon="6.4064">
        <ele>890.9</ele>
        <time>2022-11-08T09:49:34Z</time>
      </trkpt>
      <trkpt lat="46.73027" lon="6.40637">
        <ele>891.9</ele>
        <time>2022-11-08T09:49:41Z</time>
      </trkpt>
      <trkpt lat="46.73027" lon="6.40644">
        <ele>891.7</ele>
        <time>2022-11-08T09:49:56Z</time>
      </trkpt>
      <trkpt lat="46.73026" lon="6.40652">
        <ele>890.4</ele>
        <time>2022-11-08T09:50:00Z</time>
      </trkpt>
      <trkpt lat="46.73028" lon="6.40658">
        <ele>890.3</ele>
        <time>2022-11-08T09:50:04Z</time>
      </trkpt>
      <trkpt lat="46.7303" lon="6.40664">
        <ele>891.7</ele>
        <time>2022-11-08T09:50:39Z</time>
      </trkpt>
      <trkpt lat="46.73033" lon="6.40669">
        <ele>892.3</ele>
        <time>2022-11-08T09:50:45Z</time>
      </trkpt>
      <trkpt lat="46.73034" lon="6.40676">
        <ele>892</ele>
        <time>2022-11-08T09:50:49Z</time>
      </trkpt>
      <trkpt lat="46.73037" lon="6.40682">
        <ele>890.8</ele>
        <time>2022-11-08T09:50:54Z</time>
      </trkpt>
      <trkpt lat="46.73041" lon="6.40687">
        <ele>889.3</ele>
        <time>2022-11-08T09:50:59Z</time>
      </trkpt>
      <trkpt lat="46.73046" lon="6.40693">
        <ele>887.3</ele>
        <time>2022-11-08T09:51:04Z</time>
      </trkpt>
      <trkpt lat="46.7305" lon="6.40698">
        <ele>885.9</ele>
        <time>2022-11-08T09:51:08Z</time>
      </trkpt>
      <trkpt lat="46.73053" lon="6.40705">
        <ele>884.4</ele>
        <time>2022-11-08T09:51:12Z</time>
      </trkpt>
      <trkpt lat="46.73055" lon="6.40711">
        <ele>883.7</ele>
        <time>2022-11-08T09:51:16Z</time>
      </trkpt>
      <trkpt lat="46.73059" lon="6.40716">
        <ele>883.3</ele>
        <time>2022-11-08T09:51:19Z</time>
      </trkpt>
      <trkpt lat="46.73062" lon="6.4072">
        <ele>882.9</ele>
        <time>2022-11-08T09:51:22Z</time>
      </trkpt>
      <trkpt lat="46.73068" lon="6.40723">
        <ele>883</ele>
        <time>2022-11-08T09:51:26Z</time>
      </trkpt>
      <trkpt lat="46.73073" lon="6.40726">
        <ele>882.7</ele>
        <time>2022-11-08T09:51:30Z</time>
      </trkpt>
      <trkpt lat="46.73077" lon="6.40729">
        <ele>882.4</ele>
        <time>2022-11-08T09:51:34Z</time>
      </trkpt>
      <trkpt lat="46.73081" lon="6.40736">
        <ele>882.1</ele>
        <time>2022-11-08T09:51:38Z</time>
      </trkpt>
      <trkpt lat="46.73085" lon="6.4074">
        <ele>881.8</ele>
        <time>2022-11-08T09:51:42Z</time>
      </trkpt>
      <trkpt lat="46.7309" lon="6.40744">
        <ele>881.4</ele>
        <time>2022-11-08T09:51:46Z</time>
      </trkpt>
      <trkpt lat="46.73094" lon="6.40748">
        <ele>881.3</ele>
        <time>2022-11-08T09:51:50Z</time>
      </trkpt>
      <trkpt lat="46.731" lon="6.4075">
        <ele>881.4</ele>
        <time>2022-11-08T09:51:54Z</time>
      </trkpt>
      <trkpt lat="46.73105" lon="6.40752">
        <ele>881.1</ele>
        <time>2022-11-08T09:51:58Z</time>
      </trkpt>
      <trkpt lat="46.7311" lon="6.40755">
        <ele>880.7</ele>
        <time>2022-11-08T09:52:02Z</time>
      </trkpt>
      <trkpt lat="46.73114" lon="6.40758">
        <ele>880.4</ele>
        <time>2022-11-08T09:52:06Z</time>
      </trkpt>
      <trkpt lat="46.73119" lon="6.40762">
        <ele>880</ele>
        <time>2022-11-08T09:52:11Z</time>
      </trkpt>
      <trkpt lat="46.73124" lon="6.40765">
        <ele>879.9</ele>
        <time>2022-11-08T09:52:15Z</time>
      </trkpt>
      <trkpt lat="46.73129" lon="6.40767">
        <ele>879.7</ele>
        <time>2022-11-08T09:52:19Z</time>
      </trkpt>
      <trkpt lat="46.73134" lon="6.40769">
        <ele>879.6</ele>
        <time>2022-11-08T09:52:23Z</time>
      </trkpt>
      <trkpt lat="46.73138" lon="6.40772">
        <ele>879.3</ele>
        <time>2022-11-08T09:52:27Z</time>
      </trkpt>
      <trkpt lat="46.73142" lon="6.40776">
        <ele>878.4</ele>
        <time>2022-11-08T09:52:31Z</time>
      </trkpt>
      <trkpt lat="46.73146" lon="6.40781">
        <ele>877.2</ele>
        <time>2022-11-08T09:52:35Z</time>
      </trkpt>
      <trkpt lat="46.7315" lon="6.40785">
        <ele>876.2</ele>
        <time>2022-11-08T09:52:39Z</time>
      </trkpt>
      <trkpt lat="46.73154" lon="6.40788">
        <ele>875.3</ele>
        <time>2022-11-08T09:52:43Z</time>
      </trkpt>
      <trkpt lat="46.73157" lon="6.40794">
        <ele>875.2</ele>
        <time>2022-11-08T09:52:47Z</time>
      </trkpt>
      <trkpt lat="46.73159" lon="6.408">
        <ele>875.6</ele>
        <time>2022-11-08T09:52:50Z</time>
      </trkpt>
      <trkpt lat="46.73162" lon="6.40806">
        <ele>876.6</ele>
        <time>2022-11-08T09:52:55Z</time>
      </trkpt>
      <trkpt lat="46.73164" lon="6.40812">
        <ele>877.7</ele>
        <time>2022-11-08T09:53:03Z</time>
      </trkpt>
      <trkpt lat="46.73164" lon="6.40819">
        <ele>877.8</ele>
        <time>2022-11-08T09:53:08Z</time>
      </trkpt>
      <trkpt lat="46.73162" lon="6.40825">
        <ele>877</ele>
        <time>2022-11-08T09:53:14Z</time>
      </trkpt>
      <trkpt lat="46.7316" lon="6.40831">
        <ele>876.2</ele>
        <time>2022-11-08T09:53:19Z</time>
      </trkpt>
      <trkpt lat="46.73157" lon="6.40838">
        <ele>875.9</ele>
        <time>2022-11-08T09:53:24Z</time>
      </trkpt>
      <trkpt lat="46.73153" lon="6.40845">
        <ele>876.2</ele>
        <time>2022-11-08T09:53:29Z</time>
      </trkpt>
      <trkpt lat="46.73149" lon="6.4085">
        <ele>876.9</ele>
        <time>2022-11-08T09:53:34Z</time>
      </trkpt>
      <trkpt lat="46.73146" lon="6.40855">
        <ele>877.3</ele>
        <time>2022-11-08T09:53:39Z</time>
      </trkpt>
      <trkpt lat="46.73143" lon="6.40861">
        <ele>877.7</ele>
        <time>2022-11-08T09:53:44Z</time>
      </trkpt>
      <trkpt lat="46.7314" lon="6.40867">
        <ele>877.5</ele>
        <time>2022-11-08T09:53:49Z</time>
      </trkpt>
      <trkpt lat="46.73137" lon="6.40873">
        <ele>876.3</ele>
        <time>2022-11-08T09:53:54Z</time>
      </trkpt>
      <trkpt lat="46.73134" lon="6.40879">
        <ele>875.7</ele>
        <time>2022-11-08T09:53:58Z</time>
      </trkpt>
      <trkpt lat="46.7313" lon="6.40883">
        <ele>876</ele>
        <time>2022-11-08T09:54:01Z</time>
      </trkpt>
      <trkpt lat="46.73126" lon="6.40887">
        <ele>876.6</ele>
        <time>2022-11-08T09:54:06Z</time>
      </trkpt>
      <trkpt lat="46.73122" lon="6.40891">
        <ele>877.9</ele>
        <time>2022-11-08T09:54:10Z</time>
      </trkpt>
      <trkpt lat="46.73118" lon="6.40895">
        <ele>879.3</ele>
        <time>2022-11-08T09:54:14Z</time>
      </trkpt>
      <trkpt lat="46.73114" lon="6.409">
        <ele>879.8</ele>
        <time>2022-11-08T09:54:20Z</time>
      </trkpt>
      <trkpt lat="46.7311" lon="6.40904">
        <ele>879.8</ele>
        <time>2022-11-08T09:54:25Z</time>
      </trkpt>
      <trkpt lat="46.73105" lon="6.40908">
        <ele>879.4</ele>
        <time>2022-11-08T09:54:30Z</time>
      </trkpt>
      <trkpt lat="46.73102" lon="6.40911">
        <ele>878.6</ele>
        <time>2022-11-08T09:54:34Z</time>
      </trkpt>
      <trkpt lat="46.73098" lon="6.40916">
        <ele>878.1</ele>
        <time>2022-11-08T09:54:38Z</time>
      </trkpt>
      <trkpt lat="46.73094" lon="6.4092">
        <ele>877.8</ele>
        <time>2022-11-08T09:54:42Z</time>
      </trkpt>
      <trkpt lat="46.73091" lon="6.40925">
        <ele>877.9</ele>
        <time>2022-11-08T09:54:49Z</time>
      </trkpt>
      <trkpt lat="46.73086" lon="6.40927">
        <ele>878.4</ele>
        <time>2022-11-08T09:54:54Z</time>
      </trkpt>
      <trkpt lat="46.73082" lon="6.4093">
        <ele>878.4</ele>
        <time>2022-11-08T09:55:00Z</time>
      </trkpt>
      <trkpt lat="46.73078" lon="6.40934">
        <ele>878.5</ele>
        <time>2022-11-08T09:55:04Z</time>
      </trkpt>
      <trkpt lat="46.73073" lon="6.40938">
        <ele>878.7</ele>
        <time>2022-11-08T09:55:09Z</time>
      </trkpt>
      <trkpt lat="46.73068" lon="6.40941">
        <ele>878.1</ele>
        <time>2022-11-08T09:55:15Z</time>
      </trkpt>
      <trkpt lat="46.73063" lon="6.40943">
        <ele>877.8</ele>
        <time>2022-11-08T09:55:20Z</time>
      </trkpt>
      <trkpt lat="46.73059" lon="6.40947">
        <ele>877.8</ele>
        <time>2022-11-08T09:55:25Z</time>
      </trkpt>
      <trkpt lat="46.73054" lon="6.40948">
        <ele>877.1</ele>
        <time>2022-11-08T09:55:31Z</time>
      </trkpt>
      <trkpt lat="46.73049" lon="6.40948">
        <ele>876.4</ele>
        <time>2022-11-08T09:55:37Z</time>
      </trkpt>
      <trkpt lat="46.73044" lon="6.4095">
        <ele>875.6</ele>
        <time>2022-11-08T09:55:42Z</time>
      </trkpt>
      <trkpt lat="46.7304" lon="6.40952">
        <ele>874.6</ele>
        <time>2022-11-08T09:55:46Z</time>
      </trkpt>
      <trkpt lat="46.73036" lon="6.40956">
        <ele>873.6</ele>
        <time>2022-11-08T09:55:50Z</time>
      </trkpt>
      <trkpt lat="46.73031" lon="6.40959">
        <ele>872.7</ele>
        <time>2022-11-08T09:55:54Z</time>
      </trkpt>
      <trkpt lat="46.73027" lon="6.40963">
        <ele>872</ele>
        <time>2022-11-08T09:55:58Z</time>
      </trkpt>
      <trkpt lat="46.73023" lon="6.40965">
        <ele>872.6</ele>
        <time>2022-11-08T09:56:02Z</time>
      </trkpt>
      <trkpt lat="46.73018" lon="6.40968">
        <ele>874</ele>
        <time>2022-11-08T09:56:08Z</time>
      </trkpt>
      <trkpt lat="46.73013" lon="6.40967">
        <ele>874.2</ele>
        <time>2022-11-08T09:56:14Z</time>
      </trkpt>
      <trkpt lat="46.73008" lon="6.40969">
        <ele>875</ele>
        <time>2022-11-08T09:56:19Z</time>
      </trkpt>
      <trkpt lat="46.73004" lon="6.40972">
        <ele>875.2</ele>
        <time>2022-11-08T09:56:23Z</time>
      </trkpt>
      <trkpt lat="46.73" lon="6.40977">
        <ele>875.3</ele>
        <time>2022-11-08T09:56:28Z</time>
      </trkpt>
      <trkpt lat="46.72995" lon="6.40983">
        <ele>875.1</ele>
        <time>2022-11-08T09:56:32Z</time>
      </trkpt>
      <trkpt lat="46.72991" lon="6.40984">
        <ele>875.3</ele>
        <time>2022-11-08T09:56:37Z</time>
      </trkpt>
      <trkpt lat="46.72986" lon="6.40986">
        <ele>874.7</ele>
        <time>2022-11-08T09:56:45Z</time>
      </trkpt>
      <trkpt lat="46.72983" lon="6.40992">
        <ele>873.7</ele>
        <time>2022-11-08T09:56:52Z</time>
      </trkpt>
      <trkpt lat="46.72979" lon="6.40997">
        <ele>873.1</ele>
        <time>2022-11-08T09:56:56Z</time>
      </trkpt>
      <trkpt lat="46.72975" lon="6.41004">
        <ele>872.4</ele>
        <time>2022-11-08T09:57:00Z</time>
      </trkpt>
      <trkpt lat="46.72973" lon="6.4101">
        <ele>871.4</ele>
        <time>2022-11-08T09:57:03Z</time>
      </trkpt>
      <trkpt lat="46.7297" lon="6.41018">
        <ele>869.5</ele>
        <time>2022-11-08T09:57:08Z</time>
      </trkpt>
      <trkpt lat="46.72966" lon="6.41023">
        <ele>868.1</ele>
        <time>2022-11-08T09:57:13Z</time>
      </trkpt>
      <trkpt lat="46.72962" lon="6.41027">
        <ele>867.3</ele>
        <time>2022-11-08T09:57:18Z</time>
      </trkpt>
      <trkpt lat="46.72959" lon="6.41032">
        <ele>867.2</ele>
        <time>2022-11-08T09:57:23Z</time>
      </trkpt>
      <trkpt lat="46.72954" lon="6.41036">
        <ele>867.8</ele>
        <time>2022-11-08T09:57:29Z</time>
      </trkpt>
      <trkpt lat="46.7295" lon="6.41041">
        <ele>868.7</ele>
        <time>2022-11-08T09:57:34Z</time>
      </trkpt>
      <trkpt lat="46.72946" lon="6.41046">
        <ele>869.6</ele>
        <time>2022-11-08T09:57:46Z</time>
      </trkpt>
      <trkpt lat="46.72941" lon="6.41048">
        <ele>868.5</ele>
        <time>2022-11-08T09:57:52Z</time>
      </trkpt>
      <trkpt lat="46.72936" lon="6.41047">
        <ele>866.3</ele>
        <time>2022-11-08T09:57:58Z</time>
      </trkpt>
      <trkpt lat="46.72931" lon="6.41048">
        <ele>865.1</ele>
        <time>2022-11-08T09:58:02Z</time>
      </trkpt>
      <trkpt lat="46.72926" lon="6.41049">
        <ele>863.5</ele>
        <time>2022-11-08T09:58:07Z</time>
      </trkpt>
      <trkpt lat="46.72922" lon="6.4105">
        <ele>862.8</ele>
        <time>2022-11-08T09:58:12Z</time>
      </trkpt>
      <trkpt lat="46.72916" lon="6.41049">
        <ele>862.8</ele>
        <time>2022-11-08T09:58:17Z</time>
      </trkpt>
      <trkpt lat="46.72912" lon="6.41046">
        <ele>864.3</ele>
        <time>2022-11-08T09:58:24Z</time>
      </trkpt>
      <trkpt lat="46.72914" lon="6.4104">
        <ele>869.6</ele>
        <time>2022-11-08T09:58:54Z</time>
      </trkpt>
      <trkpt lat="46.72917" lon="6.41034">
        <ele>870.7</ele>
        <time>2022-11-08T09:59:03Z</time>
      </trkpt>
      <trkpt lat="46.72918" lon="6.41027">
        <ele>871.5</ele>
        <time>2022-11-08T09:59:10Z</time>
      </trkpt>
      <trkpt lat="46.7292" lon="6.41021">
        <ele>872.1</ele>
        <time>2022-11-08T09:59:16Z</time>
      </trkpt>
      <trkpt lat="46.72923" lon="6.41015">
        <ele>872.4</ele>
        <time>2022-11-08T09:59:21Z</time>
      </trkpt>
      <trkpt lat="46.72925" lon="6.41008">
        <ele>872.2</ele>
        <time>2022-11-08T09:59:27Z</time>
      </trkpt>
      <trkpt lat="46.72925" lon="6.41002">
        <ele>871.6</ele>
        <time>2022-11-08T09:59:33Z</time>
      </trkpt>
      <trkpt lat="46.72928" lon="6.40996">
        <ele>871</ele>
        <time>2022-11-08T09:59:37Z</time>
      </trkpt>
      <trkpt lat="46.72931" lon="6.4099">
        <ele>870.2</ele>
        <time>2022-11-08T09:59:42Z</time>
      </trkpt>
      <trkpt lat="46.72934" lon="6.40984">
        <ele>869.5</ele>
        <time>2022-11-08T09:59:48Z</time>
      </trkpt>
      <trkpt lat="46.72937" lon="6.40978">
        <ele>869.3</ele>
        <time>2022-11-08T09:59:54Z</time>
      </trkpt>
      <trkpt lat="46.7294" lon="6.40974">
        <ele>869.4</ele>
        <time>2022-11-08T09:59:58Z</time>
      </trkpt>
      <trkpt lat="46.72944" lon="6.40969">
        <ele>869.4</ele>
        <time>2022-11-08T10:00:01Z</time>
      </trkpt>
      <trkpt lat="46.72948" lon="6.40963">
        <ele>869.3</ele>
        <time>2022-11-08T10:00:05Z</time>
      </trkpt>
      <trkpt lat="46.72952" lon="6.40957">
        <ele>869.1</ele>
        <time>2022-11-08T10:00:09Z</time>
      </trkpt>
      <trkpt lat="46.72955" lon="6.40952">
        <ele>868.7</ele>
        <time>2022-11-08T10:00:14Z</time>
      </trkpt>
      <trkpt lat="46.72959" lon="6.40947">
        <ele>867.2</ele>
        <time>2022-11-08T10:00:19Z</time>
      </trkpt>
      <trkpt lat="46.72964" lon="6.40943">
        <ele>865.5</ele>
        <time>2022-11-08T10:00:23Z</time>
      </trkpt>
      <trkpt lat="46.72969" lon="6.4094">
        <ele>863.4</ele>
        <time>2022-11-08T10:00:28Z</time>
      </trkpt>
      <trkpt lat="46.72973" lon="6.40937">
        <ele>861.7</ele>
        <time>2022-11-08T10:00:32Z</time>
      </trkpt>
      <trkpt lat="46.72978" lon="6.40934">
        <ele>860.2</ele>
        <time>2022-11-08T10:00:36Z</time>
      </trkpt>
      <trkpt lat="46.72982" lon="6.4093">
        <ele>858.8</ele>
        <time>2022-11-08T10:00:41Z</time>
      </trkpt>
      <trkpt lat="46.72986" lon="6.40926">
        <ele>857.7</ele>
        <time>2022-11-08T10:00:46Z</time>
      </trkpt>
      <trkpt lat="46.7299" lon="6.40922">
        <ele>857</ele>
        <time>2022-11-08T10:00:51Z</time>
      </trkpt>
      <trkpt lat="46.72993" lon="6.40915">
        <ele>856.6</ele>
        <time>2022-11-08T10:00:56Z</time>
      </trkpt>
      <trkpt lat="46.72994" lon="6.40907">
        <ele>856.7</ele>
        <time>2022-11-08T10:01:00Z</time>
      </trkpt>
      <trkpt lat="46.72993" lon="6.40901">
        <ele>857.1</ele>
        <time>2022-11-08T10:01:04Z</time>
      </trkpt>
      <trkpt lat="46.72992" lon="6.40893">
        <ele>857.5</ele>
        <time>2022-11-08T10:01:09Z</time>
      </trkpt>
      <trkpt lat="46.72989" lon="6.40888">
        <ele>858.2</ele>
        <time>2022-11-08T10:01:15Z</time>
      </trkpt>
      <trkpt lat="46.72985" lon="6.40883">
        <ele>858.1</ele>
        <time>2022-11-08T10:01:22Z</time>
      </trkpt>
      <trkpt lat="46.72981" lon="6.40879">
        <ele>855.3</ele>
        <time>2022-11-08T10:01:31Z</time>
      </trkpt>
      <trkpt lat="46.72976" lon="6.40879">
        <ele>852.7</ele>
        <time>2022-11-08T10:01:38Z</time>
      </trkpt>
      <trkpt lat="46.72971" lon="6.4088">
        <ele>851.2</ele>
        <time>2022-11-08T10:01:42Z</time>
      </trkpt>
      <trkpt lat="46.72967" lon="6.40878">
        <ele>849.8</ele>
        <time>2022-11-08T10:01:47Z</time>
      </trkpt>
      <trkpt lat="46.72962" lon="6.40877">
        <ele>847.9</ele>
        <time>2022-11-08T10:01:52Z</time>
      </trkpt>
      <trkpt lat="46.72957" lon="6.40875">
        <ele>846.2</ele>
        <time>2022-11-08T10:01:58Z</time>
      </trkpt>
      <trkpt lat="46.72953" lon="6.40874">
        <ele>844.9</ele>
        <time>2022-11-08T10:02:03Z</time>
      </trkpt>
      <trkpt lat="46.72947" lon="6.40874">
        <ele>843.9</ele>
        <time>2022-11-08T10:02:08Z</time>
      </trkpt>
      <trkpt lat="46.72942" lon="6.40873">
        <ele>843.7</ele>
        <time>2022-11-08T10:02:13Z</time>
      </trkpt>
      <trkpt lat="46.72937" lon="6.40872">
        <ele>843.6</ele>
        <time>2022-11-08T10:02:17Z</time>
      </trkpt>
      <trkpt lat="46.72931" lon="6.40871">
        <ele>843.6</ele>
        <time>2022-11-08T10:02:22Z</time>
      </trkpt>
      <trkpt lat="46.72926" lon="6.4087">
        <ele>843.8</ele>
        <time>2022-11-08T10:02:27Z</time>
      </trkpt>
      <trkpt lat="46.72921" lon="6.40867">
        <ele>843.9</ele>
        <time>2022-11-08T10:02:32Z</time>
      </trkpt>
      <trkpt lat="46.72917" lon="6.40867">
        <ele>843.5</ele>
        <time>2022-11-08T10:02:37Z</time>
      </trkpt>
      <trkpt lat="46.72912" lon="6.40867">
        <ele>842.9</ele>
        <time>2022-11-08T10:02:42Z</time>
      </trkpt>
      <trkpt lat="46.72908" lon="6.40867">
        <ele>842.4</ele>
        <time>2022-11-08T10:02:47Z</time>
      </trkpt>
      <trkpt lat="46.72903" lon="6.40869">
        <ele>841.9</ele>
        <time>2022-11-08T10:02:52Z</time>
      </trkpt>
      <trkpt lat="46.72897" lon="6.40871">
        <ele>841.9</ele>
        <time>2022-11-08T10:02:57Z</time>
      </trkpt>
      <trkpt lat="46.72892" lon="6.40873">
        <ele>842.1</ele>
        <time>2022-11-08T10:03:01Z</time>
      </trkpt>
      <trkpt lat="46.72888" lon="6.40876">
        <ele>842.1</ele>
        <time>2022-11-08T10:03:04Z</time>
      </trkpt>
      <trkpt lat="46.72884" lon="6.4088">
        <ele>842.7</ele>
        <time>2022-11-08T10:03:09Z</time>
      </trkpt>
      <trkpt lat="46.72879" lon="6.40882">
        <ele>843.3</ele>
        <time>2022-11-08T10:03:14Z</time>
      </trkpt>
      <trkpt lat="46.72874" lon="6.40885">
        <ele>843.5</ele>
        <time>2022-11-08T10:03:19Z</time>
      </trkpt>
      <trkpt lat="46.7287" lon="6.40887">
        <ele>843.7</ele>
        <time>2022-11-08T10:03:23Z</time>
      </trkpt>
      <trkpt lat="46.72865" lon="6.4089">
        <ele>844.1</ele>
        <time>2022-11-08T10:03:27Z</time>
      </trkpt>
      <trkpt lat="46.7286" lon="6.40892">
        <ele>845.1</ele>
        <time>2022-11-08T10:03:33Z</time>
      </trkpt>
      <trkpt lat="46.72855" lon="6.40895">
        <ele>845.4</ele>
        <time>2022-11-08T10:03:38Z</time>
      </trkpt>
      <trkpt lat="46.72851" lon="6.40898">
        <ele>845.5</ele>
        <time>2022-11-08T10:03:42Z</time>
      </trkpt>
      <trkpt lat="46.72847" lon="6.40902">
        <ele>845.5</ele>
        <time>2022-11-08T10:03:46Z</time>
      </trkpt>
      <trkpt lat="46.72843" lon="6.40906">
        <ele>845.3</ele>
        <time>2022-11-08T10:03:51Z</time>
      </trkpt>
      <trkpt lat="46.72838" lon="6.40906">
        <ele>844.8</ele>
        <time>2022-11-08T10:03:58Z</time>
      </trkpt>
      <trkpt lat="46.72833" lon="6.40907">
        <ele>844.3</ele>
        <time>2022-11-08T10:04:03Z</time>
      </trkpt>
      <trkpt lat="46.7283" lon="6.40911">
        <ele>843.1</ele>
        <time>2022-11-08T10:04:09Z</time>
      </trkpt>
      <trkpt lat="46.72825" lon="6.40916">
        <ele>842</ele>
        <time>2022-11-08T10:04:15Z</time>
      </trkpt>
      <trkpt lat="46.72821" lon="6.4092">
        <ele>840.9</ele>
        <time>2022-11-08T10:04:19Z</time>
      </trkpt>
      <trkpt lat="46.72817" lon="6.40923">
        <ele>840.3</ele>
        <time>2022-11-08T10:04:23Z</time>
      </trkpt>
      <trkpt lat="46.72812" lon="6.40926">
        <ele>840.2</ele>
        <time>2022-11-08T10:04:27Z</time>
      </trkpt>
      <trkpt lat="46.72807" lon="6.40927">
        <ele>840.4</ele>
        <time>2022-11-08T10:04:32Z</time>
      </trkpt>
      <trkpt lat="46.72803" lon="6.40925">
        <ele>840.1</ele>
        <time>2022-11-08T10:04:37Z</time>
      </trkpt>
      <trkpt lat="46.72799" lon="6.4092">
        <ele>839.7</ele>
        <time>2022-11-08T10:04:42Z</time>
      </trkpt>
      <trkpt lat="46.72795" lon="6.40915">
        <ele>840</ele>
        <time>2022-11-08T10:04:47Z</time>
      </trkpt>
      <trkpt lat="46.72791" lon="6.4091">
        <ele>840.7</ele>
        <time>2022-11-08T10:04:52Z</time>
      </trkpt>
      <trkpt lat="46.72787" lon="6.40906">
        <ele>840.8</ele>
        <time>2022-11-08T10:04:57Z</time>
      </trkpt>
      <trkpt lat="46.72783" lon="6.40902">
        <ele>840.3</ele>
        <time>2022-11-08T10:05:02Z</time>
      </trkpt>
      <trkpt lat="46.72779" lon="6.40898">
        <ele>839.8</ele>
        <time>2022-11-08T10:05:06Z</time>
      </trkpt>
      <trkpt lat="46.72775" lon="6.40894">
        <ele>839</ele>
        <time>2022-11-08T10:05:11Z</time>
      </trkpt>
      <trkpt lat="46.72771" lon="6.4089">
        <ele>839</ele>
        <time>2022-11-08T10:05:15Z</time>
      </trkpt>
      <trkpt lat="46.72766" lon="6.40887">
        <ele>839.6</ele>
        <time>2022-11-08T10:05:19Z</time>
      </trkpt>
      <trkpt lat="46.72762" lon="6.40882">
        <ele>839.9</ele>
        <time>2022-11-08T10:05:24Z</time>
      </trkpt>
      <trkpt lat="46.72759" lon="6.40878">
        <ele>840.3</ele>
        <time>2022-11-08T10:05:28Z</time>
      </trkpt>
      <trkpt lat="46.72755" lon="6.40873">
        <ele>840.5</ele>
        <time>2022-11-08T10:05:33Z</time>
      </trkpt>
      <trkpt lat="46.72751" lon="6.40869">
        <ele>840.7</ele>
        <time>2022-11-08T10:05:39Z</time>
      </trkpt>
      <trkpt lat="46.72747" lon="6.40866">
        <ele>840.8</ele>
        <time>2022-11-08T10:05:45Z</time>
      </trkpt>
      <trkpt lat="46.72743" lon="6.4086">
        <ele>840.7</ele>
        <time>2022-11-08T10:05:50Z</time>
      </trkpt>
      <trkpt lat="46.7274" lon="6.40854">
        <ele>840.6</ele>
        <time>2022-11-08T10:05:55Z</time>
      </trkpt>
      <trkpt lat="46.72735" lon="6.40851">
        <ele>841</ele>
        <time>2022-11-08T10:06:02Z</time>
      </trkpt>
      <trkpt lat="46.72732" lon="6.40845">
        <ele>841.2</ele>
        <time>2022-11-08T10:06:08Z</time>
      </trkpt>
      <trkpt lat="46.72729" lon="6.4084">
        <ele>840.8</ele>
        <time>2022-11-08T10:06:13Z</time>
      </trkpt>
      <trkpt lat="46.72726" lon="6.40835">
        <ele>840.5</ele>
        <time>2022-11-08T10:06:18Z</time>
      </trkpt>
      <trkpt lat="46.72722" lon="6.40831">
        <ele>840.5</ele>
        <time>2022-11-08T10:06:22Z</time>
      </trkpt>
      <trkpt lat="46.72717" lon="6.40827">
        <ele>841.2</ele>
        <time>2022-11-08T10:06:26Z</time>
      </trkpt>
      <trkpt lat="46.72713" lon="6.40824">
        <ele>841.7</ele>
        <time>2022-11-08T10:06:30Z</time>
      </trkpt>
      <trkpt lat="46.72708" lon="6.40822">
        <ele>841.4</ele>
        <time>2022-11-08T10:06:35Z</time>
      </trkpt>
      <trkpt lat="46.72703" lon="6.40817">
        <ele>840.8</ele>
        <time>2022-11-08T10:06:40Z</time>
      </trkpt>
      <trkpt lat="46.72698" lon="6.40817">
        <ele>840.1</ele>
        <time>2022-11-08T10:06:46Z</time>
      </trkpt>
      <trkpt lat="46.72694" lon="6.40817">
        <ele>839.8</ele>
        <time>2022-11-08T10:06:50Z</time>
      </trkpt>
      <trkpt lat="46.72688" lon="6.40817">
        <ele>839.3</ele>
        <time>2022-11-08T10:06:56Z</time>
      </trkpt>
      <trkpt lat="46.72683" lon="6.40817">
        <ele>838.8</ele>
        <time>2022-11-08T10:07:02Z</time>
      </trkpt>
      <trkpt lat="46.72678" lon="6.40815">
        <ele>838.5</ele>
        <time>2022-11-08T10:07:06Z</time>
      </trkpt>
      <trkpt lat="46.72673" lon="6.40813">
        <ele>838.5</ele>
        <time>2022-11-08T10:07:11Z</time>
      </trkpt>
      <trkpt lat="46.72669" lon="6.40811">
        <ele>839.5</ele>
        <time>2022-11-08T10:07:16Z</time>
      </trkpt>
      <trkpt lat="46.72667" lon="6.40805">
        <ele>840.5</ele>
        <time>2022-11-08T10:07:21Z</time>
      </trkpt>
      <trkpt lat="46.72665" lon="6.40798">
        <ele>841.7</ele>
        <time>2022-11-08T10:07:32Z</time>
      </trkpt>
      <trkpt lat="46.7266" lon="6.40798">
        <ele>843.8</ele>
        <time>2022-11-08T10:07:44Z</time>
      </trkpt>
      <trkpt lat="46.72657" lon="6.40802">
        <ele>848.3</ele>
        <time>2022-11-08T10:07:59Z</time>
      </trkpt>
      <trkpt lat="46.72652" lon="6.40805">
        <ele>849.5</ele>
        <time>2022-11-08T10:08:08Z</time>
      </trkpt>
      <trkpt lat="46.72648" lon="6.40805">
        <ele>848.5</ele>
        <time>2022-11-08T10:08:12Z</time>
      </trkpt>
      <trkpt lat="46.72643" lon="6.40802">
        <ele>846.8</ele>
        <time>2022-11-08T10:08:18Z</time>
      </trkpt>
      <trkpt lat="46.72638" lon="6.40801">
        <ele>845.3</ele>
        <time>2022-11-08T10:08:23Z</time>
      </trkpt>
      <trkpt lat="46.72633" lon="6.40801">
        <ele>843.2</ele>
        <time>2022-11-08T10:08:28Z</time>
      </trkpt>
      <trkpt lat="46.72628" lon="6.40798">
        <ele>840.1</ele>
        <time>2022-11-08T10:08:34Z</time>
      </trkpt>
      <trkpt lat="46.72624" lon="6.40795">
        <ele>838.5</ele>
        <time>2022-11-08T10:08:40Z</time>
      </trkpt>
      <trkpt lat="46.72619" lon="6.40791">
        <ele>837</ele>
        <time>2022-11-08T10:08:45Z</time>
      </trkpt>
      <trkpt lat="46.72615" lon="6.40787">
        <ele>836.4</ele>
        <time>2022-11-08T10:08:49Z</time>
      </trkpt>
      <trkpt lat="46.72611" lon="6.40784">
        <ele>836.2</ele>
        <time>2022-11-08T10:08:53Z</time>
      </trkpt>
      <trkpt lat="46.72606" lon="6.4078">
        <ele>836.5</ele>
        <time>2022-11-08T10:08:57Z</time>
      </trkpt>
      <trkpt lat="46.72602" lon="6.40775">
        <ele>836.8</ele>
        <time>2022-11-08T10:09:01Z</time>
      </trkpt>
      <trkpt lat="46.72597" lon="6.40771">
        <ele>837.2</ele>
        <time>2022-11-08T10:09:05Z</time>
      </trkpt>
      <trkpt lat="46.72593" lon="6.40767">
        <ele>838.6</ele>
        <time>2022-11-08T10:09:10Z</time>
      </trkpt>
      <trkpt lat="46.7259" lon="6.40762">
        <ele>839</ele>
        <time>2022-11-08T10:09:16Z</time>
      </trkpt>
      <trkpt lat="46.72586" lon="6.40757">
        <ele>838.7</ele>
        <time>2022-11-08T10:09:20Z</time>
      </trkpt>
      <trkpt lat="46.72582" lon="6.40752">
        <ele>838.3</ele>
        <time>2022-11-08T10:09:25Z</time>
      </trkpt>
      <trkpt lat="46.72579" lon="6.40746">
        <ele>838</ele>
        <time>2022-11-08T10:09:30Z</time>
      </trkpt>
      <trkpt lat="46.72576" lon="6.40742">
        <ele>837.3</ele>
        <time>2022-11-08T10:09:34Z</time>
      </trkpt>
      <trkpt lat="46.72573" lon="6.40736">
        <ele>836.9</ele>
        <time>2022-11-08T10:09:38Z</time>
      </trkpt>
      <trkpt lat="46.7257" lon="6.40731">
        <ele>836.2</ele>
        <time>2022-11-08T10:09:42Z</time>
      </trkpt>
      <trkpt lat="46.72567" lon="6.40725">
        <ele>836</ele>
        <time>2022-11-08T10:09:46Z</time>
      </trkpt>
      <trkpt lat="46.72565" lon="6.40719">
        <ele>835.9</ele>
        <time>2022-11-08T10:09:50Z</time>
      </trkpt>
      <trkpt lat="46.72562" lon="6.40712">
        <ele>835.2</ele>
        <time>2022-11-08T10:09:55Z</time>
      </trkpt>
      <trkpt lat="46.72559" lon="6.40705">
        <ele>834.1</ele>
        <time>2022-11-08T10:10:00Z</time>
      </trkpt>
      <trkpt lat="46.72557" lon="6.40698">
        <ele>833.3</ele>
        <time>2022-11-08T10:10:05Z</time>
      </trkpt>
      <trkpt lat="46.72555" lon="6.40692">
        <ele>832.3</ele>
        <time>2022-11-08T10:10:10Z</time>
      </trkpt>
      <trkpt lat="46.72553" lon="6.40684">
        <ele>831.2</ele>
        <time>2022-11-08T10:10:15Z</time>
      </trkpt>
      <trkpt lat="46.72553" lon="6.40677">
        <ele>830.8</ele>
        <time>2022-11-08T10:10:19Z</time>
      </trkpt>
      <trkpt lat="46.72552" lon="6.4067">
        <ele>830.4</ele>
        <time>2022-11-08T10:10:23Z</time>
      </trkpt>
      <trkpt lat="46.7255" lon="6.40662">
        <ele>830</ele>
        <time>2022-11-08T10:10:28Z</time>
      </trkpt>
      <trkpt lat="46.72549" lon="6.40656">
        <ele>830</ele>
        <time>2022-11-08T10:10:32Z</time>
      </trkpt>
      <trkpt lat="46.72548" lon="6.40649">
        <ele>829.8</ele>
        <time>2022-11-08T10:10:38Z</time>
      </trkpt>
      <trkpt lat="46.72547" lon="6.40641">
        <ele>829.7</ele>
        <time>2022-11-08T10:10:43Z</time>
      </trkpt>
      <trkpt lat="46.72545" lon="6.40634">
        <ele>829.4</ele>
        <time>2022-11-08T10:10:47Z</time>
      </trkpt>
      <trkpt lat="46.72543" lon="6.40628">
        <ele>829.2</ele>
        <time>2022-11-08T10:10:51Z</time>
      </trkpt>
      <trkpt lat="46.7254" lon="6.40621">
        <ele>828.6</ele>
        <time>2022-11-08T10:10:56Z</time>
      </trkpt>
      <trkpt lat="46.72537" lon="6.40616">
        <ele>828</ele>
        <time>2022-11-08T10:11:00Z</time>
      </trkpt>
      <trkpt lat="46.72533" lon="6.40609">
        <ele>828.1</ele>
        <time>2022-11-08T10:11:04Z</time>
      </trkpt>
      <trkpt lat="46.7253" lon="6.40604">
        <ele>828.4</ele>
        <time>2022-11-08T10:11:08Z</time>
      </trkpt>
      <trkpt lat="46.72525" lon="6.40599">
        <ele>828.8</ele>
        <time>2022-11-08T10:11:13Z</time>
      </trkpt>
      <trkpt lat="46.72522" lon="6.40594">
        <ele>829.4</ele>
        <time>2022-11-08T10:11:18Z</time>
      </trkpt>
      <trkpt lat="46.72518" lon="6.40588">
        <ele>829.4</ele>
        <time>2022-11-08T10:11:23Z</time>
      </trkpt>
      <trkpt lat="46.72515" lon="6.40582">
        <ele>828.6</ele>
        <time>2022-11-08T10:11:28Z</time>
      </trkpt>
      <trkpt lat="46.72512" lon="6.40576">
        <ele>826.9</ele>
        <time>2022-11-08T10:11:33Z</time>
      </trkpt>
      <trkpt lat="46.72508" lon="6.4057">
        <ele>824.9</ele>
        <time>2022-11-08T10:11:38Z</time>
      </trkpt>
      <trkpt lat="46.72505" lon="6.40565">
        <ele>823.5</ele>
        <time>2022-11-08T10:11:43Z</time>
      </trkpt>
      <trkpt lat="46.72502" lon="6.40559">
        <ele>822.8</ele>
        <time>2022-11-08T10:11:48Z</time>
      </trkpt>
      <trkpt lat="46.72498" lon="6.40553">
        <ele>822.1</ele>
        <time>2022-11-08T10:11:53Z</time>
      </trkpt>
      <trkpt lat="46.72495" lon="6.40549">
        <ele>821.8</ele>
        <time>2022-11-08T10:12:00Z</time>
      </trkpt>
      <trkpt lat="46.72491" lon="6.40551">
        <ele>821.4</ele>
        <time>2022-11-08T10:12:07Z</time>
      </trkpt>
      <trkpt lat="46.72487" lon="6.40554">
        <ele>820.9</ele>
        <time>2022-11-08T10:12:12Z</time>
      </trkpt>
      <trkpt lat="46.72484" lon="6.4056">
        <ele>820.4</ele>
        <time>2022-11-08T10:12:17Z</time>
      </trkpt>
      <trkpt lat="46.72481" lon="6.40566">
        <ele>820.3</ele>
        <time>2022-11-08T10:12:21Z</time>
      </trkpt>
      <trkpt lat="46.72479" lon="6.40572">
        <ele>820.4</ele>
        <time>2022-11-08T10:12:25Z</time>
      </trkpt>
      <trkpt lat="46.72478" lon="6.4058">
        <ele>820.3</ele>
        <time>2022-11-08T10:12:31Z</time>
      </trkpt>
      <trkpt lat="46.72479" lon="6.40586">
        <ele>820.2</ele>
        <time>2022-11-08T10:12:36Z</time>
      </trkpt>
      <trkpt lat="46.7248" lon="6.40593">
        <ele>820.1</ele>
        <time>2022-11-08T10:12:41Z</time>
      </trkpt>
      <trkpt lat="46.72481" lon="6.406">
        <ele>819.2</ele>
        <time>2022-11-08T10:12:45Z</time>
      </trkpt>
      <trkpt lat="46.72481" lon="6.40607">
        <ele>818.1</ele>
        <time>2022-11-08T10:12:49Z</time>
      </trkpt>
      <trkpt lat="46.72482" lon="6.40614">
        <ele>817</ele>
        <time>2022-11-08T10:12:53Z</time>
      </trkpt>
      <trkpt lat="46.72482" lon="6.40621">
        <ele>816</ele>
        <time>2022-11-08T10:12:58Z</time>
      </trkpt>
      <trkpt lat="46.72483" lon="6.40629">
        <ele>815.3</ele>
        <time>2022-11-08T10:13:03Z</time>
      </trkpt>
      <trkpt lat="46.72483" lon="6.40637">
        <ele>815.9</ele>
        <time>2022-11-08T10:13:08Z</time>
      </trkpt>
      <trkpt lat="46.72483" lon="6.40644">
        <ele>816</ele>
        <time>2022-11-08T10:13:13Z</time>
      </trkpt>
      <trkpt lat="46.72483" lon="6.40651">
        <ele>815.7</ele>
        <time>2022-11-08T10:13:17Z</time>
      </trkpt>
      <trkpt lat="46.72484" lon="6.40657">
        <ele>815.3</ele>
        <time>2022-11-08T10:13:21Z</time>
      </trkpt>
      <trkpt lat="46.72483" lon="6.40666">
        <ele>814.9</ele>
        <time>2022-11-08T10:13:26Z</time>
      </trkpt>
      <trkpt lat="46.72483" lon="6.40674">
        <ele>814.9</ele>
        <time>2022-11-08T10:13:31Z</time>
      </trkpt>
      <trkpt lat="46.72482" lon="6.40681">
        <ele>814.7</ele>
        <time>2022-11-08T10:13:35Z</time>
      </trkpt>
      <trkpt lat="46.72482" lon="6.40688">
        <ele>813.8</ele>
        <time>2022-11-08T10:13:40Z</time>
      </trkpt>
      <trkpt lat="46.72481" lon="6.40695">
        <ele>812.7</ele>
        <time>2022-11-08T10:13:45Z</time>
      </trkpt>
      <trkpt lat="46.72479" lon="6.40701">
        <ele>811.5</ele>
        <time>2022-11-08T10:13:49Z</time>
      </trkpt>
      <trkpt lat="46.72477" lon="6.40709">
        <ele>810.3</ele>
        <time>2022-11-08T10:13:54Z</time>
      </trkpt>
      <trkpt lat="46.72475" lon="6.40715">
        <ele>809.1</ele>
        <time>2022-11-08T10:13:59Z</time>
      </trkpt>
      <trkpt lat="46.72472" lon="6.40722">
        <ele>808.3</ele>
        <time>2022-11-08T10:14:04Z</time>
      </trkpt>
      <trkpt lat="46.7247" lon="6.40728">
        <ele>807.7</ele>
        <time>2022-11-08T10:14:09Z</time>
      </trkpt>
      <trkpt lat="46.72467" lon="6.40734">
        <ele>807.4</ele>
        <time>2022-11-08T10:14:14Z</time>
      </trkpt>
      <trkpt lat="46.72466" lon="6.40741">
        <ele>807.4</ele>
        <time>2022-11-08T10:14:19Z</time>
      </trkpt>
      <trkpt lat="46.72464" lon="6.40748">
        <ele>806.9</ele>
        <time>2022-11-08T10:14:24Z</time>
      </trkpt>
      <trkpt lat="46.72463" lon="6.40755">
        <ele>806.4</ele>
        <time>2022-11-08T10:14:29Z</time>
      </trkpt>
      <trkpt lat="46.72462" lon="6.40761">
        <ele>806.9</ele>
        <time>2022-11-08T10:14:33Z</time>
      </trkpt>
      <trkpt lat="46.7246" lon="6.40768">
        <ele>807.3</ele>
        <time>2022-11-08T10:14:38Z</time>
      </trkpt>
      <trkpt lat="46.72456" lon="6.40771">
        <ele>806.3</ele>
        <time>2022-11-08T10:14:45Z</time>
      </trkpt>
      <trkpt lat="46.72451" lon="6.4077">
        <ele>805</ele>
        <time>2022-11-08T10:14:51Z</time>
      </trkpt>
      <trkpt lat="46.72446" lon="6.40767">
        <ele>803.9</ele>
        <time>2022-11-08T10:14:56Z</time>
      </trkpt>
      <trkpt lat="46.72443" lon="6.40762">
        <ele>802.5</ele>
        <time>2022-11-08T10:15:01Z</time>
      </trkpt>
      <trkpt lat="46.72441" lon="6.40756">
        <ele>801.5</ele>
        <time>2022-11-08T10:15:05Z</time>
      </trkpt>
      <trkpt lat="46.72438" lon="6.4075">
        <ele>800.3</ele>
        <time>2022-11-08T10:15:11Z</time>
      </trkpt>
      <trkpt lat="46.72435" lon="6.40745">
        <ele>797.6</ele>
        <time>2022-11-08T10:15:24Z</time>
      </trkpt>
      <trkpt lat="46.72432" lon="6.4074">
        <ele>796.4</ele>
        <time>2022-11-08T10:15:30Z</time>
      </trkpt>
      <trkpt lat="46.72428" lon="6.40733">
        <ele>795.7</ele>
        <time>2022-11-08T10:15:35Z</time>
      </trkpt>
      <trkpt lat="46.72425" lon="6.40728">
        <ele>795.1</ele>
        <time>2022-11-08T10:15:39Z</time>
      </trkpt>
      <trkpt lat="46.72422" lon="6.40724">
        <ele>794.9</ele>
        <time>2022-11-08T10:15:44Z</time>
      </trkpt>
      <trkpt lat="46.72418" lon="6.40721">
        <ele>794.3</ele>
        <time>2022-11-08T10:15:49Z</time>
      </trkpt>
      <trkpt lat="46.72413" lon="6.40723">
        <ele>793.5</ele>
        <time>2022-11-08T10:15:54Z</time>
      </trkpt>
      <trkpt lat="46.72409" lon="6.40726">
        <ele>792.9</ele>
        <time>2022-11-08T10:15:59Z</time>
      </trkpt>
      <trkpt lat="46.72405" lon="6.40729">
        <ele>792.1</ele>
        <time>2022-11-08T10:16:04Z</time>
      </trkpt>
      <trkpt lat="46.724" lon="6.40733">
        <ele>791.3</ele>
        <time>2022-11-08T10:16:09Z</time>
      </trkpt>
      <trkpt lat="46.72395" lon="6.40736">
        <ele>791.1</ele>
        <time>2022-11-08T10:16:14Z</time>
      </trkpt>
      <trkpt lat="46.7239" lon="6.40738">
        <ele>791.2</ele>
        <time>2022-11-08T10:16:18Z</time>
      </trkpt>
      <trkpt lat="46.72385" lon="6.4074">
        <ele>791.6</ele>
        <time>2022-11-08T10:16:23Z</time>
      </trkpt>
      <trkpt lat="46.72381" lon="6.40742">
        <ele>790.9</ele>
        <time>2022-11-08T10:16:29Z</time>
      </trkpt>
      <trkpt lat="46.72376" lon="6.40745">
        <ele>789.6</ele>
        <time>2022-11-08T10:16:35Z</time>
      </trkpt>
      <trkpt lat="46.72371" lon="6.40746">
        <ele>788.5</ele>
        <time>2022-11-08T10:16:40Z</time>
      </trkpt>
      <trkpt lat="46.72366" lon="6.40747">
        <ele>788.1</ele>
        <time>2022-11-08T10:16:45Z</time>
      </trkpt>
      <trkpt lat="46.72362" lon="6.40749">
        <ele>788</ele>
        <time>2022-11-08T10:16:50Z</time>
      </trkpt>
      <trkpt lat="46.72357" lon="6.40751">
        <ele>788</ele>
        <time>2022-11-08T10:16:54Z</time>
      </trkpt>
      <trkpt lat="46.72352" lon="6.40753">
        <ele>788.2</ele>
        <time>2022-11-08T10:16:58Z</time>
      </trkpt>
      <trkpt lat="46.72348" lon="6.40755">
        <ele>788.3</ele>
        <time>2022-11-08T10:17:03Z</time>
      </trkpt>
      <trkpt lat="46.72343" lon="6.40757">
        <ele>787.8</ele>
        <time>2022-11-08T10:17:08Z</time>
      </trkpt>
      <trkpt lat="46.72338" lon="6.40759">
        <ele>786.8</ele>
        <time>2022-11-08T10:17:13Z</time>
      </trkpt>
      <trkpt lat="46.72334" lon="6.40762">
        <ele>786.2</ele>
        <time>2022-11-08T10:17:18Z</time>
      </trkpt>
      <trkpt lat="46.7233" lon="6.40764">
        <ele>785.8</ele>
        <time>2022-11-08T10:17:23Z</time>
      </trkpt>
      <trkpt lat="46.72325" lon="6.40766">
        <ele>785.4</ele>
        <time>2022-11-08T10:17:28Z</time>
      </trkpt>
      <trkpt lat="46.7232" lon="6.40767">
        <ele>785</ele>
        <time>2022-11-08T10:17:32Z</time>
      </trkpt>
      <trkpt lat="46.72315" lon="6.40769">
        <ele>784.3</ele>
        <time>2022-11-08T10:17:37Z</time>
      </trkpt>
      <trkpt lat="46.7231" lon="6.40771">
        <ele>784.1</ele>
        <time>2022-11-08T10:17:42Z</time>
      </trkpt>
      <trkpt lat="46.72305" lon="6.40773">
        <ele>784.7</ele>
        <time>2022-11-08T10:17:47Z</time>
      </trkpt>
      <trkpt lat="46.72299" lon="6.40774">
        <ele>784.8</ele>
        <time>2022-11-08T10:17:53Z</time>
      </trkpt>
      <trkpt lat="46.72294" lon="6.40774">
        <ele>784.9</ele>
        <time>2022-11-08T10:17:58Z</time>
      </trkpt>
      <trkpt lat="46.72289" lon="6.40775">
        <ele>784.9</ele>
        <time>2022-11-08T10:18:04Z</time>
      </trkpt>
      <trkpt lat="46.72285" lon="6.40776">
        <ele>784.8</ele>
        <time>2022-11-08T10:18:08Z</time>
      </trkpt>
      <trkpt lat="46.7228" lon="6.40776">
        <ele>783.9</ele>
        <time>2022-11-08T10:18:14Z</time>
      </trkpt>
      <trkpt lat="46.72276" lon="6.40779">
        <ele>783.4</ele>
        <time>2022-11-08T10:18:21Z</time>
      </trkpt>
      <trkpt lat="46.7227" lon="6.40779">
        <ele>784</ele>
        <time>2022-11-08T10:18:26Z</time>
      </trkpt>
      <trkpt lat="46.72265" lon="6.40779">
        <ele>784.1</ele>
        <time>2022-11-08T10:18:32Z</time>
      </trkpt>
      <trkpt lat="46.7226" lon="6.40779">
        <ele>783.5</ele>
        <time>2022-11-08T10:18:38Z</time>
      </trkpt>
      <trkpt lat="46.72255" lon="6.40779">
        <ele>782.8</ele>
        <time>2022-11-08T10:18:43Z</time>
      </trkpt>
      <trkpt lat="46.72251" lon="6.40778">
        <ele>782.2</ele>
        <time>2022-11-08T10:18:48Z</time>
      </trkpt>
      <trkpt lat="46.72246" lon="6.40778">
        <ele>781.6</ele>
        <time>2022-11-08T10:18:53Z</time>
      </trkpt>
      <trkpt lat="46.72241" lon="6.40779">
        <ele>780.9</ele>
        <time>2022-11-08T10:18:58Z</time>
      </trkpt>
      <trkpt lat="46.72235" lon="6.4078">
        <ele>780.7</ele>
        <time>2022-11-08T10:19:03Z</time>
      </trkpt>
      <trkpt lat="46.7223" lon="6.40781">
        <ele>781</ele>
        <time>2022-11-08T10:19:07Z</time>
      </trkpt>
      <trkpt lat="46.72225" lon="6.40781">
        <ele>780.8</ele>
        <time>2022-11-08T10:19:13Z</time>
      </trkpt>
      <trkpt lat="46.7222" lon="6.40779">
        <ele>780.4</ele>
        <time>2022-11-08T10:19:18Z</time>
      </trkpt>
      <trkpt lat="46.72215" lon="6.4078">
        <ele>779.7</ele>
        <time>2022-11-08T10:19:23Z</time>
      </trkpt>
      <trkpt lat="46.72211" lon="6.40778">
        <ele>779.1</ele>
        <time>2022-11-08T10:19:28Z</time>
      </trkpt>
      <trkpt lat="46.72206" lon="6.40775">
        <ele>778.6</ele>
        <time>2022-11-08T10:19:33Z</time>
      </trkpt>
      <trkpt lat="46.72202" lon="6.40771">
        <ele>777.8</ele>
        <time>2022-11-08T10:19:39Z</time>
      </trkpt>
      <trkpt lat="46.72198" lon="6.40765">
        <ele>777.7</ele>
        <time>2022-11-08T10:19:44Z</time>
      </trkpt>
      <trkpt lat="46.72197" lon="6.40758">
        <ele>777.2</ele>
        <time>2022-11-08T10:19:49Z</time>
      </trkpt>
      <trkpt lat="46.72195" lon="6.40751">
        <ele>776.8</ele>
        <time>2022-11-08T10:19:54Z</time>
      </trkpt>
      <trkpt lat="46.72195" lon="6.40744">
        <ele>776.2</ele>
        <time>2022-11-08T10:20:00Z</time>
      </trkpt>
      <trkpt lat="46.72195" lon="6.40737">
        <ele>775.5</ele>
        <time>2022-11-08T10:20:05Z</time>
      </trkpt>
      <trkpt lat="46.72196" lon="6.4073">
        <ele>774.5</ele>
        <time>2022-11-08T10:20:10Z</time>
      </trkpt>
      <trkpt lat="46.72197" lon="6.40722">
        <ele>773.7</ele>
        <time>2022-11-08T10:20:15Z</time>
      </trkpt>
      <trkpt lat="46.72198" lon="6.40715">
        <ele>773.1</ele>
        <time>2022-11-08T10:20:20Z</time>
      </trkpt>
      <trkpt lat="46.72199" lon="6.40708">
        <ele>772.6</ele>
        <time>2022-11-08T10:20:25Z</time>
      </trkpt>
      <trkpt lat="46.722" lon="6.40702">
        <ele>772</ele>
        <time>2022-11-08T10:20:31Z</time>
      </trkpt>
      <trkpt lat="46.72203" lon="6.40696">
        <ele>770.9</ele>
        <time>2022-11-08T10:20:37Z</time>
      </trkpt>
      <trkpt lat="46.72205" lon="6.4069">
        <ele>770.2</ele>
        <time>2022-11-08T10:20:42Z</time>
      </trkpt>
      <trkpt lat="46.72207" lon="6.40683">
        <ele>769.5</ele>
        <time>2022-11-08T10:20:47Z</time>
      </trkpt>
      <trkpt lat="46.72209" lon="6.40677">
        <ele>768.8</ele>
        <time>2022-11-08T10:20:52Z</time>
      </trkpt>
      <trkpt lat="46.72212" lon="6.4067">
        <ele>768.4</ele>
        <time>2022-11-08T10:20:57Z</time>
      </trkpt>
      <trkpt lat="46.72215" lon="6.40664">
        <ele>768</ele>
        <time>2022-11-08T10:21:02Z</time>
      </trkpt>
      <trkpt lat="46.72218" lon="6.40658">
        <ele>767.6</ele>
        <time>2022-11-08T10:21:07Z</time>
      </trkpt>
      <trkpt lat="46.72222" lon="6.40654">
        <ele>767.6</ele>
        <time>2022-11-08T10:21:12Z</time>
      </trkpt>
      <trkpt lat="46.72227" lon="6.4065">
        <ele>768.1</ele>
        <time>2022-11-08T10:21:19Z</time>
      </trkpt>
      <trkpt lat="46.72232" lon="6.40648">
        <ele>769</ele>
        <time>2022-11-08T10:21:23Z</time>
      </trkpt>
      <trkpt lat="46.72237" lon="6.40648">
        <ele>770.3</ele>
        <time>2022-11-08T10:21:28Z</time>
      </trkpt>
      <trkpt lat="46.72243" lon="6.40646">
        <ele>771</ele>
        <time>2022-11-08T10:21:33Z</time>
      </trkpt>
      <trkpt lat="46.72248" lon="6.40646">
        <ele>771.4</ele>
        <time>2022-11-08T10:21:37Z</time>
      </trkpt>
      <trkpt lat="46.72252" lon="6.40644">
        <ele>771.1</ele>
        <time>2022-11-08T10:21:43Z</time>
      </trkpt>
      <trkpt lat="46.72257" lon="6.40643">
        <ele>770.4</ele>
        <time>2022-11-08T10:21:48Z</time>
      </trkpt>
      <trkpt lat="46.72259" lon="6.40638">
        <ele>770</ele>
        <time>2022-11-08T10:21:57Z</time>
      </trkpt>
      <trkpt lat="46.72264" lon="6.40633">
        <ele>769.5</ele>
        <time>2022-11-08T10:22:04Z</time>
      </trkpt>
      <trkpt lat="46.72268" lon="6.40629">
        <ele>768.8</ele>
        <time>2022-11-08T10:22:09Z</time>
      </trkpt>
      <trkpt lat="46.72272" lon="6.40625">
        <ele>768</ele>
        <time>2022-11-08T10:22:16Z</time>
      </trkpt>
      <trkpt lat="46.72277" lon="6.40621">
        <ele>767</ele>
        <time>2022-11-08T10:22:22Z</time>
      </trkpt>
      <trkpt lat="46.72281" lon="6.40617">
        <ele>765.8</ele>
        <time>2022-11-08T10:22:26Z</time>
      </trkpt>
      <trkpt lat="46.72285" lon="6.40612">
        <ele>764.7</ele>
        <time>2022-11-08T10:22:31Z</time>
      </trkpt>
      <trkpt lat="46.72287" lon="6.40607">
        <ele>764.3</ele>
        <time>2022-11-08T10:22:37Z</time>
      </trkpt>
      <trkpt lat="46.7229" lon="6.40601">
        <ele>765.6</ele>
        <time>2022-11-08T10:22:44Z</time>
      </trkpt>
      <trkpt lat="46.72293" lon="6.40596">
        <ele>766.7</ele>
        <time>2022-11-08T10:22:51Z</time>
      </trkpt>
      <trkpt lat="46.72296" lon="6.40591">
        <ele>766.5</ele>
        <time>2022-11-08T10:22:57Z</time>
      </trkpt>
      <trkpt lat="46.72299" lon="6.40586">
        <ele>766.3</ele>
        <time>2022-11-08T10:23:01Z</time>
      </trkpt>
      <trkpt lat="46.72303" lon="6.40581">
        <ele>766</ele>
        <time>2022-11-08T10:23:05Z</time>
      </trkpt>
      <trkpt lat="46.72306" lon="6.40576">
        <ele>765.6</ele>
        <time>2022-11-08T10:23:11Z</time>
      </trkpt>
      <trkpt lat="46.7231" lon="6.40572">
        <ele>765.6</ele>
        <time>2022-11-08T10:23:16Z</time>
      </trkpt>
      <trkpt lat="46.72313" lon="6.40567">
        <ele>765.8</ele>
        <time>2022-11-08T10:23:21Z</time>
      </trkpt>
      <trkpt lat="46.72316" lon="6.40561">
        <ele>766.1</ele>
        <time>2022-11-08T10:23:27Z</time>
      </trkpt>
      <trkpt lat="46.72318" lon="6.40555">
        <ele>766.3</ele>
        <time>2022-11-08T10:23:33Z</time>
      </trkpt>
      <trkpt lat="46.72321" lon="6.40549">
        <ele>766.5</ele>
        <time>2022-11-08T10:23:38Z</time>
      </trkpt>
      <trkpt lat="46.72323" lon="6.40542">
        <ele>766.9</ele>
        <time>2022-11-08T10:23:44Z</time>
      </trkpt>
      <trkpt lat="46.72324" lon="6.40535">
        <ele>767.2</ele>
        <time>2022-11-08T10:23:50Z</time>
      </trkpt>
      <trkpt lat="46.72323" lon="6.40528">
        <ele>768</ele>
        <time>2022-11-08T10:23:55Z</time>
      </trkpt>
      <trkpt lat="46.72323" lon="6.40521">
        <ele>769</ele>
        <time>2022-11-08T10:23:59Z</time>
      </trkpt>
      <trkpt lat="46.72321" lon="6.40514">
        <ele>770</ele>
        <time>2022-11-08T10:24:03Z</time>
      </trkpt>
      <trkpt lat="46.72318" lon="6.40509">
        <ele>771.1</ele>
        <time>2022-11-08T10:24:08Z</time>
      </trkpt>
      <trkpt lat="46.72315" lon="6.40505">
        <ele>771.7</ele>
        <time>2022-11-08T10:24:14Z</time>
      </trkpt>
      <trkpt lat="46.72314" lon="6.40498">
        <ele>771.7</ele>
        <time>2022-11-08T10:24:20Z</time>
      </trkpt>
      <trkpt lat="46.72313" lon="6.40491">
        <ele>771.7</ele>
        <time>2022-11-08T10:24:25Z</time>
      </trkpt>
      <trkpt lat="46.72314" lon="6.40484">
        <ele>771.4</ele>
        <time>2022-11-08T10:24:29Z</time>
      </trkpt>
      <trkpt lat="46.72313" lon="6.40476">
        <ele>770.3</ele>
        <time>2022-11-08T10:24:33Z</time>
      </trkpt>
      <trkpt lat="46.72312" lon="6.40469">
        <ele>768.7</ele>
        <time>2022-11-08T10:24:37Z</time>
      </trkpt>
      <trkpt lat="46.72311" lon="6.40462">
        <ele>767</ele>
        <time>2022-11-08T10:24:42Z</time>
      </trkpt>
      <trkpt lat="46.7231" lon="6.40455">
        <ele>766.2</ele>
        <time>2022-11-08T10:24:46Z</time>
      </trkpt>
      <trkpt lat="46.72311" lon="6.40448">
        <ele>765.7</ele>
        <time>2022-11-08T10:24:50Z</time>
      </trkpt>
      <trkpt lat="46.72311" lon="6.40441">
        <ele>765.2</ele>
        <time>2022-11-08T10:24:55Z</time>
      </trkpt>
      <trkpt lat="46.7231" lon="6.40433">
        <ele>765.3</ele>
        <time>2022-11-08T10:25:00Z</time>
      </trkpt>
      <trkpt lat="46.7231" lon="6.40426">
        <ele>764.9</ele>
        <time>2022-11-08T10:25:05Z</time>
      </trkpt>
      <trkpt lat="46.7231" lon="6.4042">
        <ele>764.2</ele>
        <time>2022-11-08T10:25:10Z</time>
      </trkpt>
      <trkpt lat="46.72311" lon="6.40413">
        <ele>763.4</ele>
        <time>2022-11-08T10:25:15Z</time>
      </trkpt>
      <trkpt lat="46.72314" lon="6.40407">
        <ele>763</ele>
        <time>2022-11-08T10:25:19Z</time>
      </trkpt>
      <trkpt lat="46.72316" lon="6.404">
        <ele>762.4</ele>
        <time>2022-11-08T10:25:24Z</time>
      </trkpt>
      <trkpt lat="46.72318" lon="6.40393">
        <ele>761.4</ele>
        <time>2022-11-08T10:25:29Z</time>
      </trkpt>
      <trkpt lat="46.72319" lon="6.40387">
        <ele>760.7</ele>
        <time>2022-11-08T10:25:34Z</time>
      </trkpt>
      <trkpt lat="46.7232" lon="6.40378">
        <ele>760.7</ele>
        <time>2022-11-08T10:25:39Z</time>
      </trkpt>
      <trkpt lat="46.72321" lon="6.40371">
        <ele>760.6</ele>
        <time>2022-11-08T10:25:43Z</time>
      </trkpt>
      <trkpt lat="46.72321" lon="6.40365">
        <ele>760.1</ele>
        <time>2022-11-08T10:25:47Z</time>
      </trkpt>
      <trkpt lat="46.72319" lon="6.40358">
        <ele>759</ele>
        <time>2022-11-08T10:25:52Z</time>
      </trkpt>
      <trkpt lat="46.72316" lon="6.40351">
        <ele>758.4</ele>
        <time>2022-11-08T10:25:57Z</time>
      </trkpt>
      <trkpt lat="46.72315" lon="6.40344">
        <ele>758.2</ele>
        <time>2022-11-08T10:26:01Z</time>
      </trkpt>
      <trkpt lat="46.72314" lon="6.40337">
        <ele>758.4</ele>
        <time>2022-11-08T10:26:05Z</time>
      </trkpt>
      <trkpt lat="46.72313" lon="6.40331">
        <ele>758.6</ele>
        <time>2022-11-08T10:26:09Z</time>
      </trkpt>
      <trkpt lat="46.72313" lon="6.40323">
        <ele>758.6</ele>
        <time>2022-11-08T10:26:14Z</time>
      </trkpt>
      <trkpt lat="46.72312" lon="6.40315">
        <ele>758.7</ele>
        <time>2022-11-08T10:26:19Z</time>
      </trkpt>
      <trkpt lat="46.7231" lon="6.40308">
        <ele>758.8</ele>
        <time>2022-11-08T10:26:24Z</time>
      </trkpt>
      <trkpt lat="46.7231" lon="6.40301">
        <ele>758.7</ele>
        <time>2022-11-08T10:26:29Z</time>
      </trkpt>
      <trkpt lat="46.72309" lon="6.40294">
        <ele>758.8</ele>
        <time>2022-11-08T10:26:34Z</time>
      </trkpt>
      <trkpt lat="46.72309" lon="6.40287">
        <ele>758.9</ele>
        <time>2022-11-08T10:26:39Z</time>
      </trkpt>
      <trkpt lat="46.72308" lon="6.4028">
        <ele>759.2</ele>
        <time>2022-11-08T10:26:43Z</time>
      </trkpt>
      <trkpt lat="46.72307" lon="6.40273">
        <ele>759.4</ele>
        <time>2022-11-08T10:26:47Z</time>
      </trkpt>
      <trkpt lat="46.72306" lon="6.40266">
        <ele>759.7</ele>
        <time>2022-11-08T10:26:51Z</time>
      </trkpt>
      <trkpt lat="46.72306" lon="6.4026">
        <ele>760.2</ele>
        <time>2022-11-08T10:26:56Z</time>
      </trkpt>
      <trkpt lat="46.72303" lon="6.40253">
        <ele>761</ele>
        <time>2022-11-08T10:27:02Z</time>
      </trkpt>
      <trkpt lat="46.72302" lon="6.40246">
        <ele>760.6</ele>
        <time>2022-11-08T10:27:10Z</time>
      </trkpt>
      <trkpt lat="46.72301" lon="6.40239">
        <ele>759.7</ele>
        <time>2022-11-08T10:27:15Z</time>
      </trkpt>
      <trkpt lat="46.72298" lon="6.40234">
        <ele>759.2</ele>
        <time>2022-11-08T10:27:20Z</time>
      </trkpt>
      <trkpt lat="46.72295" lon="6.40227">
        <ele>759.2</ele>
        <time>2022-11-08T10:27:24Z</time>
      </trkpt>
      <trkpt lat="46.72293" lon="6.4022">
        <ele>758.8</ele>
        <time>2022-11-08T10:27:29Z</time>
      </trkpt>
      <trkpt lat="46.72291" lon="6.40213">
        <ele>758.5</ele>
        <time>2022-11-08T10:27:34Z</time>
      </trkpt>
      <trkpt lat="46.7229" lon="6.40205">
        <ele>757.7</ele>
        <time>2022-11-08T10:27:39Z</time>
      </trkpt>
      <trkpt lat="46.72289" lon="6.40198">
        <ele>756.7</ele>
        <time>2022-11-08T10:27:44Z</time>
      </trkpt>
      <trkpt lat="46.72288" lon="6.40192">
        <ele>756.3</ele>
        <time>2022-11-08T10:27:48Z</time>
      </trkpt>
      <trkpt lat="46.72292" lon="6.40191">
        <ele>749.7</ele>
        <time>2022-11-08T10:28:02Z</time>
      </trkpt>
      <trkpt lat="46.72287" lon="6.40191">
        <ele>751.3</ele>
        <time>2022-11-08T10:28:12Z</time>
      </trkpt>
      <trkpt lat="46.72282" lon="6.40194">
        <ele>752.8</ele>
        <time>2022-11-08T10:28:18Z</time>
      </trkpt>
      <trkpt lat="46.72277" lon="6.40197">
        <ele>753.9</ele>
        <time>2022-11-08T10:28:23Z</time>
      </trkpt>
      <trkpt lat="46.72273" lon="6.40196">
        <ele>754.5</ele>
        <time>2022-11-08T10:28:33Z</time>
      </trkpt>
      <trkpt lat="46.72275" lon="6.40202">
        <ele>753.7</ele>
        <time>2022-11-08T10:28:46Z</time>
      </trkpt>
      <trkpt lat="46.7227" lon="6.40206">
        <ele>754.4</ele>
        <time>2022-11-08T10:29:05Z</time>
      </trkpt>
      <trkpt lat="46.72266" lon="6.40209">
        <ele>754.1</ele>
        <time>2022-11-08T10:29:24Z</time>
      </trkpt>
      <trkpt lat="46.72262" lon="6.40214">
        <ele>754.3</ele>
        <time>2022-11-08T10:29:35Z</time>
      </trkpt>
      <trkpt lat="46.7226" lon="6.40219">
        <ele>754.7</ele>
        <time>2022-11-08T10:29:40Z</time>
      </trkpt>
      <trkpt lat="46.72256" lon="6.40225">
        <ele>756.8</ele>
        <time>2022-11-08T10:29:50Z</time>
      </trkpt>
      <trkpt lat="46.72253" lon="6.4022">
        <ele>757.5</ele>
        <time>2022-11-08T10:29:56Z</time>
      </trkpt>
      <trkpt lat="46.72252" lon="6.40213">
        <ele>757.5</ele>
        <time>2022-11-08T10:30:01Z</time>
      </trkpt>
      <trkpt lat="46.72248" lon="6.40217">
        <ele>757.5</ele>
        <time>2022-11-08T10:30:05Z</time>
      </trkpt>
      <trkpt lat="46.72243" lon="6.40219">
        <ele>757.5</ele>
        <time>2022-11-08T10:30:10Z</time>
      </trkpt>
      <trkpt lat="46.72238" lon="6.40218">
        <ele>756.8</ele>
        <time>2022-11-08T10:30:21Z</time>
      </trkpt>
      <trkpt lat="46.72234" lon="6.40223">
        <ele>754.3</ele>
        <time>2022-11-08T10:30:28Z</time>
      </trkpt>
      <trkpt lat="46.72229" lon="6.40225">
        <ele>751.6</ele>
        <time>2022-11-08T10:30:39Z</time>
      </trkpt>
      <trkpt lat="46.72225" lon="6.40226">
        <ele>750.6</ele>
        <time>2022-11-08T10:30:44Z</time>
      </trkpt>
      <trkpt lat="46.7222" lon="6.4023">
        <ele>749.7</ele>
        <time>2022-11-08T10:30:51Z</time>
      </trkpt>
      <trkpt lat="46.72216" lon="6.40233">
        <ele>749.9</ele>
        <time>2022-11-08T10:30:57Z</time>
      </trkpt>
      <trkpt lat="46.72211" lon="6.40231">
        <ele>751</ele>
        <time>2022-11-08T10:31:25Z</time>
      </trkpt>
      <trkpt lat="46.72216" lon="6.4023">
        <ele>750.3</ele>
        <time>2022-11-08T10:31:41Z</time>
      </trkpt>
      <trkpt lat="46.72213" lon="6.40224">
        <ele>751.1</ele>
        <time>2022-11-08T10:31:58Z</time>
      </trkpt>
      <trkpt lat="46.7221" lon="6.40219">
        <ele>751.8</ele>
        <time>2022-11-08T10:32:03Z</time>
      </trkpt>
      <trkpt lat="46.72208" lon="6.40212">
        <ele>752.1</ele>
        <time>2022-11-08T10:32:10Z</time>
      </trkpt>
      <trkpt lat="46.72208" lon="6.40205">
        <ele>753.2</ele>
        <time>2022-11-08T10:32:16Z</time>
      </trkpt>
      <trkpt lat="46.72205" lon="6.40199">
        <ele>754</ele>
        <time>2022-11-08T10:32:22Z</time>
      </trkpt>
      <trkpt lat="46.722" lon="6.40196">
        <ele>755.5</ele>
        <time>2022-11-08T10:32:32Z</time>
      </trkpt>
      <trkpt lat="46.72197" lon="6.40191">
        <ele>754.9</ele>
        <time>2022-11-08T10:32:38Z</time>
      </trkpt>
      <trkpt lat="46.72201" lon="6.40197">
        <ele>754.3</ele>
        <time>2022-11-08T10:32:54Z</time>
      </trkpt>
      <trkpt lat="46.72201" lon="6.40204">
        <ele>755.6</ele>
        <time>2022-11-08T10:32:59Z</time>
      </trkpt>
      <trkpt lat="46.72203" lon="6.40212">
        <ele>756.6</ele>
        <time>2022-11-08T10:33:05Z</time>
      </trkpt>
      <trkpt lat="46.72206" lon="6.40217">
        <ele>757.5</ele>
        <time>2022-11-08T10:33:10Z</time>
      </trkpt>
      <trkpt lat="46.72209" lon="6.40222">
        <ele>759.1</ele>
        <time>2022-11-08T10:33:16Z</time>
      </trkpt>
      <trkpt lat="46.72208" lon="6.40229">
        <ele>760.5</ele>
        <time>2022-11-08T10:33:24Z</time>
      </trkpt>
      <trkpt lat="46.72208" lon="6.40237">
        <ele>761.9</ele>
        <time>2022-11-08T10:33:29Z</time>
      </trkpt>
      <trkpt lat="46.72209" lon="6.40244">
        <ele>763.3</ele>
        <time>2022-11-08T10:33:34Z</time>
      </trkpt>
      <trkpt lat="46.72212" lon="6.4025">
        <ele>764.9</ele>
        <time>2022-11-08T10:33:40Z</time>
      </trkpt>
      <trkpt lat="46.72214" lon="6.40256">
        <ele>767.2</ele>
        <time>2022-11-08T10:33:49Z</time>
      </trkpt>
      <trkpt lat="46.72216" lon="6.40263">
        <ele>769.8</ele>
        <time>2022-11-08T10:33:57Z</time>
      </trkpt>
      <trkpt lat="46.72215" lon="6.4027">
        <ele>771.1</ele>
        <time>2022-11-08T10:34:02Z</time>
      </trkpt>
      <trkpt lat="46.72217" lon="6.40277">
        <ele>771.9</ele>
        <time>2022-11-08T10:34:07Z</time>
      </trkpt>
      <trkpt lat="46.72218" lon="6.40284">
        <ele>773</ele>
        <time>2022-11-08T10:34:20Z</time>
      </trkpt>
      <trkpt lat="46.72221" lon="6.4029">
        <ele>773.7</ele>
        <time>2022-11-08T10:34:34Z</time>
      </trkpt>
      <trkpt lat="46.72224" lon="6.40296">
        <ele>775.9</ele>
        <time>2022-11-08T10:34:40Z</time>
      </trkpt>
      <trkpt lat="46.72224" lon="6.40303">
        <ele>779.1</ele>
        <time>2022-11-08T10:34:49Z</time>
      </trkpt>
      <trkpt lat="46.72221" lon="6.40309">
        <ele>780.2</ele>
        <time>2022-11-08T10:34:56Z</time>
      </trkpt>
      <trkpt lat="46.72218" lon="6.40313">
        <ele>780.9</ele>
        <time>2022-11-08T10:35:03Z</time>
      </trkpt>
      <trkpt lat="46.72212" lon="6.40311">
        <ele>779</ele>
        <time>2022-11-08T10:36:29Z</time>
      </trkpt>
      <trkpt lat="46.72209" lon="6.40307">
        <ele>777.5</ele>
        <time>2022-11-08T10:36:34Z</time>
      </trkpt>
      <trkpt lat="46.72204" lon="6.40305">
        <ele>778.9</ele>
        <time>2022-11-08T10:37:05Z</time>
      </trkpt>
      <trkpt lat="46.722" lon="6.403">
        <ele>781.7</ele>
        <time>2022-11-08T10:37:16Z</time>
      </trkpt>
      <trkpt lat="46.72197" lon="6.40296">
        <ele>783</ele>
        <time>2022-11-08T10:37:23Z</time>
      </trkpt>
      <trkpt lat="46.72192" lon="6.40293">
        <ele>787.5</ele>
        <time>2022-11-08T10:38:09Z</time>
      </trkpt>
      <trkpt lat="46.72192" lon="6.40286">
        <ele>788.3</ele>
        <time>2022-11-08T10:38:14Z</time>
      </trkpt>
      <trkpt lat="46.72191" lon="6.4028">
        <ele>788.9</ele>
        <time>2022-11-08T10:38:19Z</time>
      </trkpt>
      <trkpt lat="46.72189" lon="6.40273">
        <ele>789.1</ele>
        <time>2022-11-08T10:38:24Z</time>
      </trkpt>
      <trkpt lat="46.72187" lon="6.40267">
        <ele>789.1</ele>
        <time>2022-11-08T10:38:28Z</time>
      </trkpt>
      <trkpt lat="46.72184" lon="6.40261">
        <ele>789.1</ele>
        <time>2022-11-08T10:38:34Z</time>
      </trkpt>
      <trkpt lat="46.72181" lon="6.40256">
        <ele>789.5</ele>
        <time>2022-11-08T10:38:40Z</time>
      </trkpt>
      <trkpt lat="46.72179" lon="6.40249">
        <ele>790.1</ele>
        <time>2022-11-08T10:38:46Z</time>
      </trkpt>
      <trkpt lat="46.72177" lon="6.40243">
        <ele>790.7</ele>
        <time>2022-11-08T10:38:51Z</time>
      </trkpt>
      <trkpt lat="46.72175" lon="6.40236">
        <ele>791.9</ele>
        <time>2022-11-08T10:38:58Z</time>
      </trkpt>
      <trkpt lat="46.72174" lon="6.40228">
        <ele>792.8</ele>
        <time>2022-11-08T10:39:04Z</time>
      </trkpt>
      <trkpt lat="46.72174" lon="6.40222">
        <ele>793.5</ele>
        <time>2022-11-08T10:39:11Z</time>
      </trkpt>
      <trkpt lat="46.72172" lon="6.40216">
        <ele>792.6</ele>
        <time>2022-11-08T10:39:20Z</time>
      </trkpt>
      <trkpt lat="46.72169" lon="6.40209">
        <ele>792.4</ele>
        <time>2022-11-08T10:39:26Z</time>
      </trkpt>
      <trkpt lat="46.72169" lon="6.40202">
        <ele>791.9</ele>
        <time>2022-11-08T10:39:32Z</time>
      </trkpt>
      <trkpt lat="46.72168" lon="6.40195">
        <ele>790.9</ele>
        <time>2022-11-08T10:39:39Z</time>
      </trkpt>
      <trkpt lat="46.72166" lon="6.40188">
        <ele>790.3</ele>
        <time>2022-11-08T10:39:44Z</time>
      </trkpt>
      <trkpt lat="46.72164" lon="6.40181">
        <ele>790.3</ele>
        <time>2022-11-08T10:39:49Z</time>
      </trkpt>
      <trkpt lat="46.72161" lon="6.40174">
        <ele>790.2</ele>
        <time>2022-11-08T10:39:54Z</time>
      </trkpt>
      <trkpt lat="46.72157" lon="6.40169">
        <ele>790</ele>
        <time>2022-11-08T10:39:59Z</time>
      </trkpt>
      <trkpt lat="46.72153" lon="6.40165">
        <ele>789.5</ele>
        <time>2022-11-08T10:40:05Z</time>
      </trkpt>
      <trkpt lat="46.72148" lon="6.40162">
        <ele>789.2</ele>
        <time>2022-11-08T10:40:10Z</time>
      </trkpt>
      <trkpt lat="46.72143" lon="6.40159">
        <ele>789.3</ele>
        <time>2022-11-08T10:40:15Z</time>
      </trkpt>
      <trkpt lat="46.72138" lon="6.40157">
        <ele>789.4</ele>
        <time>2022-11-08T10:40:19Z</time>
      </trkpt>
      <trkpt lat="46.72134" lon="6.40155">
        <ele>790</ele>
        <time>2022-11-08T10:40:24Z</time>
      </trkpt>
      <trkpt lat="46.72129" lon="6.40155">
        <ele>790.8</ele>
        <time>2022-11-08T10:40:30Z</time>
      </trkpt>
      <trkpt lat="46.72124" lon="6.40155">
        <ele>791.3</ele>
        <time>2022-11-08T10:40:35Z</time>
      </trkpt>
      <trkpt lat="46.72119" lon="6.40157">
        <ele>791.8</ele>
        <time>2022-11-08T10:40:40Z</time>
      </trkpt>
      <trkpt lat="46.72115" lon="6.40159">
        <ele>792.1</ele>
        <time>2022-11-08T10:40:46Z</time>
      </trkpt>
      <trkpt lat="46.7211" lon="6.4016">
        <ele>792.5</ele>
        <time>2022-11-08T10:40:51Z</time>
      </trkpt>
      <trkpt lat="46.72105" lon="6.40159">
        <ele>793.2</ele>
        <time>2022-11-08T10:40:56Z</time>
      </trkpt>
      <trkpt lat="46.721" lon="6.40158">
        <ele>793.3</ele>
        <time>2022-11-08T10:41:00Z</time>
      </trkpt>
      <trkpt lat="46.72096" lon="6.40156">
        <ele>793.1</ele>
        <time>2022-11-08T10:41:04Z</time>
      </trkpt>
      <trkpt lat="46.72091" lon="6.40153">
        <ele>792.7</ele>
        <time>2022-11-08T10:41:09Z</time>
      </trkpt>
      <trkpt lat="46.72087" lon="6.40149">
        <ele>792.9</ele>
        <time>2022-11-08T10:41:16Z</time>
      </trkpt>
      <trkpt lat="46.72084" lon="6.40143">
        <ele>792.8</ele>
        <time>2022-11-08T10:41:22Z</time>
      </trkpt>
      <trkpt lat="46.72079" lon="6.40141">
        <ele>790.6</ele>
        <time>2022-11-08T10:41:43Z</time>
      </trkpt>
      <trkpt lat="46.72077" lon="6.40134">
        <ele>790.6</ele>
        <time>2022-11-08T10:41:48Z</time>
      </trkpt>
      <trkpt lat="46.72074" lon="6.40128">
        <ele>790.5</ele>
        <time>2022-11-08T10:41:53Z</time>
      </trkpt>
      <trkpt lat="46.72072" lon="6.40122">
        <ele>790.4</ele>
        <time>2022-11-08T10:41:58Z</time>
      </trkpt>
      <trkpt lat="46.72068" lon="6.40118">
        <ele>790.5</ele>
        <time>2022-11-08T10:42:03Z</time>
      </trkpt>
      <trkpt lat="46.72065" lon="6.40113">
        <ele>790.9</ele>
        <time>2022-11-08T10:42:07Z</time>
      </trkpt>
      <trkpt lat="46.72062" lon="6.40107">
        <ele>791.5</ele>
        <time>2022-11-08T10:42:12Z</time>
      </trkpt>
      <trkpt lat="46.72058" lon="6.40103">
        <ele>792.2</ele>
        <time>2022-11-08T10:42:16Z</time>
      </trkpt>
      <trkpt lat="46.72054" lon="6.40098">
        <ele>793</ele>
        <time>2022-11-08T10:42:20Z</time>
      </trkpt>
      <trkpt lat="46.72051" lon="6.40093">
        <ele>793.7</ele>
        <time>2022-11-08T10:42:25Z</time>
      </trkpt>
      <trkpt lat="46.72047" lon="6.40088">
        <ele>794.4</ele>
        <time>2022-11-08T10:42:30Z</time>
      </trkpt>
      <trkpt lat="46.72044" lon="6.40082">
        <ele>795.5</ele>
        <time>2022-11-08T10:42:35Z</time>
      </trkpt>
      <trkpt lat="46.72041" lon="6.40077">
        <ele>796.8</ele>
        <time>2022-11-08T10:42:41Z</time>
      </trkpt>
      <trkpt lat="46.72038" lon="6.40072">
        <ele>798</ele>
        <time>2022-11-08T10:42:46Z</time>
      </trkpt>
      <trkpt lat="46.72033" lon="6.40068">
        <ele>798</ele>
        <time>2022-11-08T10:42:52Z</time>
      </trkpt>
      <trkpt lat="46.7203" lon="6.40063">
        <ele>797.6</ele>
        <time>2022-11-08T10:42:57Z</time>
      </trkpt>
      <trkpt lat="46.72026" lon="6.40058">
        <ele>796.6</ele>
        <time>2022-11-08T10:43:03Z</time>
      </trkpt>
      <trkpt lat="46.72022" lon="6.40054">
        <ele>795.9</ele>
        <time>2022-11-08T10:43:09Z</time>
      </trkpt>
      <trkpt lat="46.72019" lon="6.40048">
        <ele>795.9</ele>
        <time>2022-11-08T10:43:14Z</time>
      </trkpt>
      <trkpt lat="46.72015" lon="6.40044">
        <ele>795.7</ele>
        <time>2022-11-08T10:43:19Z</time>
      </trkpt>
      <trkpt lat="46.72011" lon="6.4004">
        <ele>795.4</ele>
        <time>2022-11-08T10:43:24Z</time>
      </trkpt>
      <trkpt lat="46.72007" lon="6.40035">
        <ele>794.7</ele>
        <time>2022-11-08T10:43:28Z</time>
      </trkpt>
      <trkpt lat="46.72004" lon="6.4003">
        <ele>794.4</ele>
        <time>2022-11-08T10:43:32Z</time>
      </trkpt>
      <trkpt lat="46.72" lon="6.40026">
        <ele>794</ele>
        <time>2022-11-08T10:43:37Z</time>
      </trkpt>
      <trkpt lat="46.71996" lon="6.40021">
        <ele>793.2</ele>
        <time>2022-11-08T10:43:42Z</time>
      </trkpt>
      <trkpt lat="46.71993" lon="6.40016">
        <ele>792.1</ele>
        <time>2022-11-08T10:43:47Z</time>
      </trkpt>
      <trkpt lat="46.71989" lon="6.4001">
        <ele>790.7</ele>
        <time>2022-11-08T10:43:52Z</time>
      </trkpt>
      <trkpt lat="46.71986" lon="6.40005">
        <ele>790</ele>
        <time>2022-11-08T10:43:57Z</time>
      </trkpt>
      <trkpt lat="46.71981" lon="6.4">
        <ele>790.7</ele>
        <time>2022-11-08T10:44:03Z</time>
      </trkpt>
      <trkpt lat="46.71978" lon="6.39994">
        <ele>791.7</ele>
        <time>2022-11-08T10:44:08Z</time>
      </trkpt>
      <trkpt lat="46.71975" lon="6.39988">
        <ele>792.6</ele>
        <time>2022-11-08T10:44:12Z</time>
      </trkpt>
      <trkpt lat="46.71972" lon="6.39982">
        <ele>793.1</ele>
        <time>2022-11-08T10:44:17Z</time>
      </trkpt>
      <trkpt lat="46.71967" lon="6.39978">
        <ele>793.7</ele>
        <time>2022-11-08T10:44:24Z</time>
      </trkpt>
      <trkpt lat="46.71964" lon="6.39973">
        <ele>794.3</ele>
        <time>2022-11-08T10:44:31Z</time>
      </trkpt>
      <trkpt lat="46.71961" lon="6.39967">
        <ele>795</ele>
        <time>2022-11-08T10:44:36Z</time>
      </trkpt>
      <trkpt lat="46.71957" lon="6.39964">
        <ele>795.6</ele>
        <time>2022-11-08T10:44:40Z</time>
      </trkpt>
      <trkpt lat="46.71952" lon="6.3996">
        <ele>795.8</ele>
        <time>2022-11-08T10:44:46Z</time>
      </trkpt>
      <trkpt lat="46.71951" lon="6.39953">
        <ele>794.6</ele>
        <time>2022-11-08T10:44:56Z</time>
      </trkpt>
      <trkpt lat="46.71955" lon="6.39949">
        <ele>793.6</ele>
        <time>2022-11-08T10:45:05Z</time>
      </trkpt>
      <trkpt lat="46.71959" lon="6.39946">
        <ele>793.8</ele>
        <time>2022-11-08T10:45:10Z</time>
      </trkpt>
      <trkpt lat="46.71963" lon="6.39941">
        <ele>794.5</ele>
        <time>2022-11-08T10:45:15Z</time>
      </trkpt>
      <trkpt lat="46.71967" lon="6.39938">
        <ele>795.8</ele>
        <time>2022-11-08T10:45:20Z</time>
      </trkpt>
      <trkpt lat="46.71972" lon="6.39938">
        <ele>796.8</ele>
        <time>2022-11-08T10:45:26Z</time>
      </trkpt>
      <trkpt lat="46.71977" lon="6.39936">
        <ele>796.9</ele>
        <time>2022-11-08T10:45:33Z</time>
      </trkpt>
      <trkpt lat="46.71981" lon="6.39934">
        <ele>796.6</ele>
        <time>2022-11-08T10:45:40Z</time>
      </trkpt>
      <trkpt lat="46.71986" lon="6.39931">
        <ele>796.1</ele>
        <time>2022-11-08T10:45:48Z</time>
      </trkpt>
      <trkpt lat="46.71989" lon="6.39925">
        <ele>796</ele>
        <time>2022-11-08T10:45:52Z</time>
      </trkpt>
      <trkpt lat="46.71991" lon="6.39918">
        <ele>796</ele>
        <time>2022-11-08T10:45:56Z</time>
      </trkpt>
      <trkpt lat="46.71986" lon="6.39919">
        <ele>795.6</ele>
        <time>2022-11-08T10:46:00Z</time>
      </trkpt>
      <trkpt lat="46.71982" lon="6.39916">
        <ele>793.8</ele>
        <time>2022-11-08T10:46:10Z</time>
      </trkpt>
      <trkpt lat="46.71988" lon="6.39929">
        <ele>788.1</ele>
        <time>2022-11-08T10:46:28Z</time>
      </trkpt>
      <trkpt lat="46.71992" lon="6.39926">
        <ele>787.4</ele>
        <time>2022-11-08T10:46:32Z</time>
      </trkpt>
      <trkpt lat="46.71996" lon="6.39922">
        <ele>787.4</ele>
        <time>2022-11-08T10:46:38Z</time>
      </trkpt>
      <trkpt lat="46.71999" lon="6.39917">
        <ele>785.9</ele>
        <time>2022-11-08T10:46:42Z</time>
      </trkpt>
      <trkpt lat="46.72004" lon="6.39914">
        <ele>785.3</ele>
        <time>2022-11-08T10:46:47Z</time>
      </trkpt>
      <trkpt lat="46.72009" lon="6.39915">
        <ele>785.9</ele>
        <time>2022-11-08T10:46:51Z</time>
      </trkpt>
      <trkpt lat="46.72013" lon="6.39916">
        <ele>787.5</ele>
        <time>2022-11-08T10:46:56Z</time>
      </trkpt>
      <trkpt lat="46.72018" lon="6.39915">
        <ele>790.9</ele>
        <time>2022-11-08T10:47:06Z</time>
      </trkpt>
      <trkpt lat="46.72022" lon="6.39911">
        <ele>792</ele>
        <time>2022-11-08T10:47:12Z</time>
      </trkpt>
      <trkpt lat="46.72027" lon="6.39909">
        <ele>791.4</ele>
        <time>2022-11-08T10:47:17Z</time>
      </trkpt>
      <trkpt lat="46.72032" lon="6.39906">
        <ele>790.6</ele>
        <time>2022-11-08T10:47:22Z</time>
      </trkpt>
      <trkpt lat="46.72036" lon="6.39903">
        <ele>790.1</ele>
        <time>2022-11-08T10:47:26Z</time>
      </trkpt>
      <trkpt lat="46.7204" lon="6.39899">
        <ele>790.3</ele>
        <time>2022-11-08T10:47:30Z</time>
      </trkpt>
      <trkpt lat="46.72044" lon="6.39896">
        <ele>790.3</ele>
        <time>2022-11-08T10:47:35Z</time>
      </trkpt>
      <trkpt lat="46.72049" lon="6.39892">
        <ele>791</ele>
        <time>2022-11-08T10:47:40Z</time>
      </trkpt>
      <trkpt lat="46.72053" lon="6.3989">
        <ele>791.8</ele>
        <time>2022-11-08T10:47:44Z</time>
      </trkpt>
      <trkpt lat="46.72058" lon="6.39885">
        <ele>792.5</ele>
        <time>2022-11-08T10:47:50Z</time>
      </trkpt>
      <trkpt lat="46.72062" lon="6.39882">
        <ele>792.8</ele>
        <time>2022-11-08T10:47:54Z</time>
      </trkpt>
      <trkpt lat="46.72066" lon="6.39878">
        <ele>792.3</ele>
        <time>2022-11-08T10:47:59Z</time>
      </trkpt>
      <trkpt lat="46.7207" lon="6.39876">
        <ele>791.8</ele>
        <time>2022-11-08T10:48:03Z</time>
      </trkpt>
      <trkpt lat="46.72075" lon="6.39872">
        <ele>790.5</ele>
        <time>2022-11-08T10:48:08Z</time>
      </trkpt>
      <trkpt lat="46.72079" lon="6.39868">
        <ele>787.1</ele>
        <time>2022-11-08T10:48:20Z</time>
      </trkpt>
      <trkpt lat="46.72084" lon="6.39866">
        <ele>786.9</ele>
        <time>2022-11-08T10:48:25Z</time>
      </trkpt>
      <trkpt lat="46.72088" lon="6.3986">
        <ele>786.1</ele>
        <time>2022-11-08T10:48:30Z</time>
      </trkpt>
      <trkpt lat="46.72093" lon="6.39856">
        <ele>785.5</ele>
        <time>2022-11-08T10:48:33Z</time>
      </trkpt>
      <trkpt lat="46.72098" lon="6.39852">
        <ele>785.9</ele>
        <time>2022-11-08T10:48:37Z</time>
      </trkpt>
      <trkpt lat="46.72102" lon="6.39847">
        <ele>787.5</ele>
        <time>2022-11-08T10:48:42Z</time>
      </trkpt>
      <trkpt lat="46.72106" lon="6.39841">
        <ele>789.4</ele>
        <time>2022-11-08T10:48:46Z</time>
      </trkpt>
      <trkpt lat="46.7211" lon="6.39837">
        <ele>791.7</ele>
        <time>2022-11-08T10:48:51Z</time>
      </trkpt>
      <trkpt lat="46.72114" lon="6.39833">
        <ele>793.3</ele>
        <time>2022-11-08T10:48:55Z</time>
      </trkpt>
      <trkpt lat="46.72118" lon="6.39828">
        <ele>794.7</ele>
        <time>2022-11-08T10:49:00Z</time>
      </trkpt>
      <trkpt lat="46.72122" lon="6.39823">
        <ele>795.7</ele>
        <time>2022-11-08T10:49:05Z</time>
      </trkpt>
      <trkpt lat="46.72126" lon="6.39818">
        <ele>796.2</ele>
        <time>2022-11-08T10:49:10Z</time>
      </trkpt>
      <trkpt lat="46.72129" lon="6.39812">
        <ele>795.3</ele>
        <time>2022-11-08T10:49:16Z</time>
      </trkpt>
      <trkpt lat="46.72133" lon="6.39806">
        <ele>794.2</ele>
        <time>2022-11-08T10:49:21Z</time>
      </trkpt>
      <trkpt lat="46.72136" lon="6.39801">
        <ele>793.4</ele>
        <time>2022-11-08T10:49:25Z</time>
      </trkpt>
      <trkpt lat="46.7214" lon="6.39797">
        <ele>792.4</ele>
        <time>2022-11-08T10:49:29Z</time>
      </trkpt>
      <trkpt lat="46.72143" lon="6.39792">
        <ele>791.4</ele>
        <time>2022-11-08T10:49:33Z</time>
      </trkpt>
      <trkpt lat="46.72146" lon="6.39787">
        <ele>790.6</ele>
        <time>2022-11-08T10:49:37Z</time>
      </trkpt>
      <trkpt lat="46.7215" lon="6.39783">
        <ele>790</ele>
        <time>2022-11-08T10:49:41Z</time>
      </trkpt>
      <trkpt lat="46.72153" lon="6.39777">
        <ele>789.2</ele>
        <time>2022-11-08T10:49:46Z</time>
      </trkpt>
      <trkpt lat="46.72157" lon="6.39773">
        <ele>788.3</ele>
        <time>2022-11-08T10:49:50Z</time>
      </trkpt>
      <trkpt lat="46.72161" lon="6.39769">
        <ele>787</ele>
        <time>2022-11-08T10:49:55Z</time>
      </trkpt>
      <trkpt lat="46.72164" lon="6.39764">
        <ele>785.6</ele>
        <time>2022-11-08T10:50:00Z</time>
      </trkpt>
      <trkpt lat="46.72166" lon="6.39758">
        <ele>783.8</ele>
        <time>2022-11-08T10:50:05Z</time>
      </trkpt>
      <trkpt lat="46.7217" lon="6.39751">
        <ele>782.4</ele>
        <time>2022-11-08T10:50:10Z</time>
      </trkpt>
      <trkpt lat="46.72173" lon="6.39746">
        <ele>781.4</ele>
        <time>2022-11-08T10:50:15Z</time>
      </trkpt>
      <trkpt lat="46.72175" lon="6.3974">
        <ele>780.3</ele>
        <time>2022-11-08T10:50:20Z</time>
      </trkpt>
      <trkpt lat="46.72177" lon="6.39733">
        <ele>779.7</ele>
        <time>2022-11-08T10:50:25Z</time>
      </trkpt>
      <trkpt lat="46.72181" lon="6.39728">
        <ele>779</ele>
        <time>2022-11-08T10:50:31Z</time>
      </trkpt>
      <trkpt lat="46.72184" lon="6.39723">
        <ele>777.8</ele>
        <time>2022-11-08T10:50:36Z</time>
      </trkpt>
      <trkpt lat="46.72187" lon="6.39717">
        <ele>776.8</ele>
        <time>2022-11-08T10:50:40Z</time>
      </trkpt>
      <trkpt lat="46.72189" lon="6.39711">
        <ele>776.2</ele>
        <time>2022-11-08T10:50:45Z</time>
      </trkpt>
      <trkpt lat="46.72193" lon="6.39706">
        <ele>776</ele>
        <time>2022-11-08T10:50:50Z</time>
      </trkpt>
      <trkpt lat="46.72197" lon="6.39701">
        <ele>776.1</ele>
        <time>2022-11-08T10:50:56Z</time>
      </trkpt>
      <trkpt lat="46.722" lon="6.39696">
        <ele>776.2</ele>
        <time>2022-11-08T10:51:02Z</time>
      </trkpt>
      <trkpt lat="46.72204" lon="6.3969">
        <ele>775.8</ele>
        <time>2022-11-08T10:51:07Z</time>
      </trkpt>
      <trkpt lat="46.72206" lon="6.39684">
        <ele>775.4</ele>
        <time>2022-11-08T10:51:12Z</time>
      </trkpt>
      <trkpt lat="46.72204" lon="6.39677">
        <ele>774.5</ele>
        <time>2022-11-08T10:51:17Z</time>
      </trkpt>
      <trkpt lat="46.72201" lon="6.39672">
        <ele>773.5</ele>
        <time>2022-11-08T10:51:23Z</time>
      </trkpt>
      <trkpt lat="46.72196" lon="6.39671">
        <ele>772.6</ele>
        <time>2022-11-08T10:51:29Z</time>
      </trkpt>
      <trkpt lat="46.72196" lon="6.39679">
        <ele>773</ele>
        <time>2022-11-08T10:51:47Z</time>
      </trkpt>
      <trkpt lat="46.72198" lon="6.39675">
        <ele>772</ele>
        <time>2022-11-08T10:52:03Z</time>
      </trkpt>
      <trkpt lat="46.722" lon="6.39668">
        <ele>771.4</ele>
        <time>2022-11-08T10:52:08Z</time>
      </trkpt>
      <trkpt lat="46.72204" lon="6.39658">
        <ele>770.6</ele>
        <time>2022-11-08T10:52:11Z</time>
      </trkpt>
      <trkpt lat="46.72208" lon="6.39648">
        <ele>769.5</ele>
        <time>2022-11-08T10:52:14Z</time>
      </trkpt>
      <trkpt lat="46.72214" lon="6.39641">
        <ele>768.3</ele>
        <time>2022-11-08T10:52:17Z</time>
      </trkpt>
      <trkpt lat="46.72213" lon="6.39634">
        <ele>764.2</ele>
        <time>2022-11-08T10:52:25Z</time>
      </trkpt>
      <trkpt lat="46.72216" lon="6.39626">
        <ele>757.6</ele>
        <time>2022-11-08T10:52:36Z</time>
      </trkpt>
      <trkpt lat="46.72224" lon="6.39622">
        <ele>755.9</ele>
        <time>2022-11-08T10:52:39Z</time>
      </trkpt>
      <trkpt lat="46.72233" lon="6.39618">
        <ele>754.4</ele>
        <time>2022-11-08T10:52:42Z</time>
      </trkpt>
      <trkpt lat="46.72223" lon="6.39619">
        <ele>752.9</ele>
        <time>2022-11-08T10:52:45Z</time>
      </trkpt>
      <trkpt lat="46.72211" lon="6.39623">
        <ele>751.5</ele>
        <time>2022-11-08T10:52:48Z</time>
      </trkpt>
      <trkpt lat="46.72205" lon="6.39625">
        <ele>750.1</ele>
        <time>2022-11-08T10:52:51Z</time>
      </trkpt>
      <trkpt lat="46.722" lon="6.39627">
        <ele>746.3</ele>
        <time>2022-11-08T10:52:59Z</time>
      </trkpt>
      <trkpt lat="46.72205" lon="6.39621">
        <ele>742.1</ele>
        <time>2022-11-08T10:53:07Z</time>
      </trkpt>
      <trkpt lat="46.7221" lon="6.39613">
        <ele>740.3</ele>
        <time>2022-11-08T10:53:10Z</time>
      </trkpt>
      <trkpt lat="46.72218" lon="6.39605">
        <ele>738.4</ele>
        <time>2022-11-08T10:53:13Z</time>
      </trkpt>
      <trkpt lat="46.72222" lon="6.396">
        <ele>736.2</ele>
        <time>2022-11-08T10:53:17Z</time>
      </trkpt>
      <trkpt lat="46.72226" lon="6.39594">
        <ele>733.8</ele>
        <time>2022-11-08T10:53:22Z</time>
      </trkpt>
      <trkpt lat="46.72229" lon="6.39588">
        <ele>732.1</ele>
        <time>2022-11-08T10:53:26Z</time>
      </trkpt>
      <trkpt lat="46.72232" lon="6.39582">
        <ele>730.8</ele>
        <time>2022-11-08T10:53:29Z</time>
      </trkpt>
      <trkpt lat="46.72237" lon="6.39575">
        <ele>728.8</ele>
        <time>2022-11-08T10:53:34Z</time>
      </trkpt>
      <trkpt lat="46.72244" lon="6.39568">
        <ele>727.7</ele>
        <time>2022-11-08T10:53:37Z</time>
      </trkpt>
      <trkpt lat="46.7224" lon="6.39564">
        <ele>726</ele>
        <time>2022-11-08T10:53:43Z</time>
      </trkpt>
      <trkpt lat="46.72235" lon="6.39562">
        <ele>723.9</ele>
        <time>2022-11-08T10:53:52Z</time>
      </trkpt>
      <trkpt lat="46.72238" lon="6.39556">
        <ele>723.2</ele>
        <time>2022-11-08T10:53:58Z</time>
      </trkpt>
      <trkpt lat="46.72255" lon="6.3953">
        <ele>724.1</ele>
        <time>2022-11-08T10:54:07Z</time>
      </trkpt>
      <trkpt lat="46.72262" lon="6.39526">
        <ele>724.8</ele>
        <time>2022-11-08T10:54:10Z</time>
      </trkpt>
      <trkpt lat="46.72266" lon="6.39521">
        <ele>725.7</ele>
        <time>2022-11-08T10:54:17Z</time>
      </trkpt>
      <trkpt lat="46.72268" lon="6.39515">
        <ele>726.8</ele>
        <time>2022-11-08T10:54:24Z</time>
      </trkpt>
      <trkpt lat="46.72272" lon="6.39511">
        <ele>728.6</ele>
        <time>2022-11-08T10:54:27Z</time>
      </trkpt>
      <trkpt lat="46.72278" lon="6.39506">
        <ele>729.9</ele>
        <time>2022-11-08T10:54:30Z</time>
      </trkpt>
      <trkpt lat="46.72276" lon="6.39514">
        <ele>734.7</ele>
        <time>2022-11-08T10:54:41Z</time>
      </trkpt>
      <trkpt lat="46.72273" lon="6.39518">
        <ele>736</ele>
        <time>2022-11-08T10:54:44Z</time>
      </trkpt>
      <trkpt lat="46.72267" lon="6.39519">
        <ele>738.6</ele>
        <time>2022-11-08T10:54:49Z</time>
      </trkpt>
      <trkpt lat="46.72263" lon="6.39522">
        <ele>741.2</ele>
        <time>2022-11-08T10:54:54Z</time>
      </trkpt>
      <trkpt lat="46.72259" lon="6.3952">
        <ele>744.2</ele>
        <time>2022-11-08T10:55:10Z</time>
      </trkpt>
      <trkpt lat="46.72254" lon="6.3952">
        <ele>744.9</ele>
        <time>2022-11-08T10:55:17Z</time>
      </trkpt>
      <trkpt lat="46.72258" lon="6.39519">
        <ele>746.9</ele>
        <time>2022-11-08T10:55:29Z</time>
      </trkpt>
      <trkpt lat="46.72262" lon="6.39515">
        <ele>747.8</ele>
        <time>2022-11-08T10:55:33Z</time>
      </trkpt>
      <trkpt lat="46.72266" lon="6.39512">
        <ele>749.2</ele>
        <time>2022-11-08T10:55:38Z</time>
      </trkpt>
      <trkpt lat="46.72265" lon="6.39518">
        <ele>752.8</ele>
        <time>2022-11-08T10:55:59Z</time>
      </trkpt>
      <trkpt lat="46.7226" lon="6.39518">
        <ele>753.2</ele>
        <time>2022-11-08T10:56:04Z</time>
      </trkpt>
      <trkpt lat="46.72263" lon="6.3951">
        <ele>753.4</ele>
        <time>2022-11-08T10:56:08Z</time>
      </trkpt>
      <trkpt lat="46.72267" lon="6.39502">
        <ele>753.9</ele>
        <time>2022-11-08T10:56:11Z</time>
      </trkpt>
      <trkpt lat="46.72267" lon="6.39509">
        <ele>756.4</ele>
        <time>2022-11-08T10:56:32Z</time>
      </trkpt>
      <trkpt lat="46.72267" lon="6.39516">
        <ele>756.8</ele>
        <time>2022-11-08T10:56:38Z</time>
      </trkpt>
      <trkpt lat="46.72262" lon="6.39514">
        <ele>757</ele>
        <time>2022-11-08T10:56:42Z</time>
      </trkpt>
      <trkpt lat="46.72267" lon="6.39517">
        <ele>757.1</ele>
        <time>2022-11-08T10:56:57Z</time>
      </trkpt>
      <trkpt lat="46.72272" lon="6.39517">
        <ele>757.8</ele>
        <time>2022-11-08T10:57:06Z</time>
      </trkpt>
      <trkpt lat="46.72272" lon="6.39524">
        <ele>757.4</ele>
        <time>2022-11-08T10:57:17Z</time>
      </trkpt>
      <trkpt lat="46.72271" lon="6.3953">
        <ele>756.9</ele>
        <time>2022-11-08T10:57:24Z</time>
      </trkpt>
      <trkpt lat="46.72274" lon="6.39535">
        <ele>755.9</ele>
        <time>2022-11-08T10:57:35Z</time>
      </trkpt>
      <trkpt lat="46.72277" lon="6.39541">
        <ele>755.4</ele>
        <time>2022-11-08T10:57:39Z</time>
      </trkpt>
      <trkpt lat="46.72276" lon="6.39548">
        <ele>753.3</ele>
        <time>2022-11-08T10:57:46Z</time>
      </trkpt>
      <trkpt lat="46.72272" lon="6.39554">
        <ele>751.9</ele>
        <time>2022-11-08T10:57:49Z</time>
      </trkpt>
      <trkpt lat="46.72268" lon="6.39559">
        <ele>750.5</ele>
        <time>2022-11-08T10:57:52Z</time>
      </trkpt>
      <trkpt lat="46.72263" lon="6.39566">
        <ele>748.3</ele>
        <time>2022-11-08T10:57:57Z</time>
      </trkpt>
      <trkpt lat="46.72252" lon="6.39572">
        <ele>747.1</ele>
        <time>2022-11-08T10:58:00Z</time>
      </trkpt>
      <trkpt lat="46.72241" lon="6.39577">
        <ele>745.9</ele>
        <time>2022-11-08T10:58:03Z</time>
      </trkpt>
      <trkpt lat="46.72237" lon="6.39581">
        <ele>744.6</ele>
        <time>2022-11-08T10:58:06Z</time>
      </trkpt>
      <trkpt lat="46.72233" lon="6.39588">
        <ele>742.2</ele>
        <time>2022-11-08T10:58:11Z</time>
      </trkpt>
      <trkpt lat="46.7223" lon="6.39593">
        <ele>740.3</ele>
        <time>2022-11-08T10:58:15Z</time>
      </trkpt>
      <trkpt lat="46.72223" lon="6.39599">
        <ele>738.6</ele>
        <time>2022-11-08T10:58:18Z</time>
      </trkpt>
      <trkpt lat="46.7222" lon="6.39605">
        <ele>737</ele>
        <time>2022-11-08T10:58:21Z</time>
      </trkpt>
      <trkpt lat="46.7222" lon="6.39611">
        <ele>734.1</ele>
        <time>2022-11-08T10:58:26Z</time>
      </trkpt>
      <trkpt lat="46.72216" lon="6.39616">
        <ele>731.6</ele>
        <time>2022-11-08T10:58:30Z</time>
      </trkpt>
      <trkpt lat="46.72209" lon="6.39617">
        <ele>730.1</ele>
        <time>2022-11-08T10:58:33Z</time>
      </trkpt>
      <trkpt lat="46.72209" lon="6.39625">
        <ele>727.6</ele>
        <time>2022-11-08T10:58:40Z</time>
      </trkpt>
      <trkpt lat="46.72207" lon="6.39631">
        <ele>726.3</ele>
        <time>2022-11-08T10:58:49Z</time>
      </trkpt>
      <trkpt lat="46.72206" lon="6.39638">
        <ele>726.3</ele>
        <time>2022-11-08T10:58:54Z</time>
      </trkpt>
      <trkpt lat="46.72201" lon="6.39644">
        <ele>726.8</ele>
        <time>2022-11-08T10:59:02Z</time>
      </trkpt>
      <trkpt lat="46.72196" lon="6.39651">
        <ele>727.8</ele>
        <time>2022-11-08T10:59:05Z</time>
      </trkpt>
      <trkpt lat="46.72192" lon="6.39655">
        <ele>731</ele>
        <time>2022-11-08T10:59:10Z</time>
      </trkpt>
      <trkpt lat="46.72188" lon="6.3965">
        <ele>751.3</ele>
        <time>2022-11-08T10:59:31Z</time>
      </trkpt>
      <trkpt lat="46.72185" lon="6.39644">
        <ele>757.7</ele>
        <time>2022-11-08T10:59:39Z</time>
      </trkpt>
      <trkpt lat="46.72183" lon="6.39638">
        <ele>759.3</ele>
        <time>2022-11-08T10:59:44Z</time>
      </trkpt>
      <trkpt lat="46.7218" lon="6.39632">
        <ele>760.9</ele>
        <time>2022-11-08T10:59:50Z</time>
      </trkpt>
      <trkpt lat="46.72177" lon="6.39628">
        <ele>761.9</ele>
        <time>2022-11-08T10:59:54Z</time>
      </trkpt>
      <trkpt lat="46.72173" lon="6.39624">
        <ele>762.9</ele>
        <time>2022-11-08T10:59:59Z</time>
      </trkpt>
      <trkpt lat="46.72168" lon="6.39621">
        <ele>763.9</ele>
        <time>2022-11-08T11:00:06Z</time>
      </trkpt>
      <trkpt lat="46.72164" lon="6.39619">
        <ele>764.2</ele>
        <time>2022-11-08T11:00:12Z</time>
      </trkpt>
      <trkpt lat="46.72159" lon="6.39617">
        <ele>763.9</ele>
        <time>2022-11-08T11:00:18Z</time>
      </trkpt>
      <trkpt lat="46.72154" lon="6.39614">
        <ele>763.3</ele>
        <time>2022-11-08T11:00:24Z</time>
      </trkpt>
      <trkpt lat="46.72153" lon="6.39607">
        <ele>763.3</ele>
        <time>2022-11-08T11:00:30Z</time>
      </trkpt>
      <trkpt lat="46.72154" lon="6.39599">
        <ele>762.6</ele>
        <time>2022-11-08T11:00:35Z</time>
      </trkpt>
      <trkpt lat="46.72155" lon="6.39593">
        <ele>762</ele>
        <time>2022-11-08T11:00:38Z</time>
      </trkpt>
      <trkpt lat="46.72155" lon="6.39586">
        <ele>761.6</ele>
        <time>2022-11-08T11:00:41Z</time>
      </trkpt>
      <trkpt lat="46.72155" lon="6.3958">
        <ele>761.2</ele>
        <time>2022-11-08T11:00:45Z</time>
      </trkpt>
      <trkpt lat="46.72154" lon="6.39573">
        <ele>760.4</ele>
        <time>2022-11-08T11:00:52Z</time>
      </trkpt>
      <trkpt lat="46.72159" lon="6.39569">
        <ele>756.4</ele>
        <time>2022-11-08T11:01:20Z</time>
      </trkpt>
      <trkpt lat="46.7216" lon="6.39562">
        <ele>752.6</ele>
        <time>2022-11-08T11:01:30Z</time>
      </trkpt>
      <trkpt lat="46.72156" lon="6.39557">
        <ele>750.9</ele>
        <time>2022-11-08T11:01:35Z</time>
      </trkpt>
      <trkpt lat="46.72155" lon="6.3955">
        <ele>749.5</ele>
        <time>2022-11-08T11:01:41Z</time>
      </trkpt>
      <trkpt lat="46.72152" lon="6.39545">
        <ele>749.1</ele>
        <time>2022-11-08T11:01:46Z</time>
      </trkpt>
      <trkpt lat="46.72149" lon="6.39538">
        <ele>748.3</ele>
        <time>2022-11-08T11:01:53Z</time>
      </trkpt>
      <trkpt lat="46.72147" lon="6.39532">
        <ele>746.8</ele>
        <time>2022-11-08T11:02:01Z</time>
      </trkpt>
      <trkpt lat="46.72143" lon="6.39527">
        <ele>745.1</ele>
        <time>2022-11-08T11:02:07Z</time>
      </trkpt>
      <trkpt lat="46.72141" lon="6.39522">
        <ele>743.9</ele>
        <time>2022-11-08T11:02:12Z</time>
      </trkpt>
      <trkpt lat="46.72141" lon="6.39515">
        <ele>742.5</ele>
        <time>2022-11-08T11:02:19Z</time>
      </trkpt>
      <trkpt lat="46.72141" lon="6.39522">
        <ele>740.7</ele>
        <time>2022-11-08T11:02:49Z</time>
      </trkpt>
      <trkpt lat="46.72141" lon="6.39529">
        <ele>740.1</ele>
        <time>2022-11-08T11:02:55Z</time>
      </trkpt>
      <trkpt lat="46.72138" lon="6.39523">
        <ele>740.4</ele>
        <time>2022-11-08T11:03:09Z</time>
      </trkpt>
      <trkpt lat="46.72136" lon="6.39516">
        <ele>740.3</ele>
        <time>2022-11-08T11:03:14Z</time>
      </trkpt>
      <trkpt lat="46.72133" lon="6.39511">
        <ele>740.1</ele>
        <time>2022-11-08T11:03:18Z</time>
      </trkpt>
      <trkpt lat="46.7213" lon="6.39505">
        <ele>739.7</ele>
        <time>2022-11-08T11:03:23Z</time>
      </trkpt>
      <trkpt lat="46.72126" lon="6.395">
        <ele>739.4</ele>
        <time>2022-11-08T11:03:28Z</time>
      </trkpt>
      <trkpt lat="46.72121" lon="6.39496">
        <ele>739.2</ele>
        <time>2022-11-08T11:03:34Z</time>
      </trkpt>
      <trkpt lat="46.72117" lon="6.39492">
        <ele>738.5</ele>
        <time>2022-11-08T11:03:41Z</time>
      </trkpt>
      <trkpt lat="46.72113" lon="6.39489">
        <ele>737.7</ele>
        <time>2022-11-08T11:03:47Z</time>
      </trkpt>
      <trkpt lat="46.72108" lon="6.39486">
        <ele>737.4</ele>
        <time>2022-11-08T11:03:53Z</time>
      </trkpt>
      <trkpt lat="46.72103" lon="6.39483">
        <ele>737.3</ele>
        <time>2022-11-08T11:03:58Z</time>
      </trkpt>
      <trkpt lat="46.72098" lon="6.39481">
        <ele>737.3</ele>
        <time>2022-11-08T11:04:04Z</time>
      </trkpt>
      <trkpt lat="46.72093" lon="6.39479">
        <ele>738</ele>
        <time>2022-11-08T11:04:09Z</time>
      </trkpt>
      <trkpt lat="46.72089" lon="6.39477">
        <ele>738.3</ele>
        <time>2022-11-08T11:04:15Z</time>
      </trkpt>
      <trkpt lat="46.72085" lon="6.39473">
        <ele>738.2</ele>
        <time>2022-11-08T11:04:20Z</time>
      </trkpt>
      <trkpt lat="46.7208" lon="6.39471">
        <ele>737.2</ele>
        <time>2022-11-08T11:04:26Z</time>
      </trkpt>
      <trkpt lat="46.72075" lon="6.39472">
        <ele>735.8</ele>
        <time>2022-11-08T11:04:32Z</time>
      </trkpt>
      <trkpt lat="46.7207" lon="6.39472">
        <ele>734.9</ele>
        <time>2022-11-08T11:04:36Z</time>
      </trkpt>
      <trkpt lat="46.72065" lon="6.39473">
        <ele>733.9</ele>
        <time>2022-11-08T11:04:41Z</time>
      </trkpt>
      <trkpt lat="46.72061" lon="6.39474">
        <ele>732.9</ele>
        <time>2022-11-08T11:04:49Z</time>
      </trkpt>
      <trkpt lat="46.72055" lon="6.39473">
        <ele>733</ele>
        <time>2022-11-08T11:05:10Z</time>
      </trkpt>
      <trkpt lat="46.72051" lon="6.39474">
        <ele>733.4</ele>
        <time>2022-11-08T11:05:16Z</time>
      </trkpt>
      <trkpt lat="46.72046" lon="6.39476">
        <ele>733.8</ele>
        <time>2022-11-08T11:05:24Z</time>
      </trkpt>
      <trkpt lat="46.72042" lon="6.39475">
        <ele>733.6</ele>
        <time>2022-11-08T11:05:30Z</time>
      </trkpt>
      <trkpt lat="46.72036" lon="6.39476">
        <ele>733.3</ele>
        <time>2022-11-08T11:05:35Z</time>
      </trkpt>
      <trkpt lat="46.72032" lon="6.39478">
        <ele>733.1</ele>
        <time>2022-11-08T11:05:39Z</time>
      </trkpt>
      <trkpt lat="46.72026" lon="6.39479">
        <ele>732</ele>
        <time>2022-11-08T11:05:44Z</time>
      </trkpt>
      <trkpt lat="46.72021" lon="6.39478">
        <ele>731.1</ele>
        <time>2022-11-08T11:05:49Z</time>
      </trkpt>
      <trkpt lat="46.72016" lon="6.39476">
        <ele>730.6</ele>
        <time>2022-11-08T11:05:53Z</time>
      </trkpt>
      <trkpt lat="46.72012" lon="6.39473">
        <ele>730.5</ele>
        <time>2022-11-08T11:05:58Z</time>
      </trkpt>
      <trkpt lat="46.72008" lon="6.39467">
        <ele>730.4</ele>
        <time>2022-11-08T11:06:04Z</time>
      </trkpt>
      <trkpt lat="46.72004" lon="6.39463">
        <ele>730.1</ele>
        <time>2022-11-08T11:06:09Z</time>
      </trkpt>
      <trkpt lat="46.72001" lon="6.39458">
        <ele>729.8</ele>
        <time>2022-11-08T11:06:13Z</time>
      </trkpt>
      <trkpt lat="46.71998" lon="6.39453">
        <ele>729.4</ele>
        <time>2022-11-08T11:06:18Z</time>
      </trkpt>
      <trkpt lat="46.71994" lon="6.39447">
        <ele>729.5</ele>
        <time>2022-11-08T11:06:23Z</time>
      </trkpt>
      <trkpt lat="46.7199" lon="6.39442">
        <ele>729.6</ele>
        <time>2022-11-08T11:06:28Z</time>
      </trkpt>
      <trkpt lat="46.71986" lon="6.39437">
        <ele>730.2</ele>
        <time>2022-11-08T11:06:33Z</time>
      </trkpt>
      <trkpt lat="46.71981" lon="6.39434">
        <ele>731</ele>
        <time>2022-11-08T11:06:38Z</time>
      </trkpt>
      <trkpt lat="46.71977" lon="6.39428">
        <ele>732.4</ele>
        <time>2022-11-08T11:06:43Z</time>
      </trkpt>
      <trkpt lat="46.71974" lon="6.39422">
        <ele>734.2</ele>
        <time>2022-11-08T11:06:48Z</time>
      </trkpt>
      <trkpt lat="46.71974" lon="6.39414">
        <ele>735.4</ele>
        <time>2022-11-08T11:06:54Z</time>
      </trkpt>
      <trkpt lat="46.71971" lon="6.39409">
        <ele>734.7</ele>
        <time>2022-11-08T11:07:00Z</time>
      </trkpt>
      <trkpt lat="46.71967" lon="6.39404">
        <ele>734</ele>
        <time>2022-11-08T11:07:05Z</time>
      </trkpt>
      <trkpt lat="46.71965" lon="6.39398">
        <ele>733.8</ele>
        <time>2022-11-08T11:07:11Z</time>
      </trkpt>
      <trkpt lat="46.71963" lon="6.39391">
        <ele>734.5</ele>
        <time>2022-11-08T11:07:18Z</time>
      </trkpt>
      <trkpt lat="46.71959" lon="6.39386">
        <ele>734.5</ele>
        <time>2022-11-08T11:07:24Z</time>
      </trkpt>
      <trkpt lat="46.71956" lon="6.39382">
        <ele>734.2</ele>
        <time>2022-11-08T11:07:28Z</time>
      </trkpt>
      <trkpt lat="46.71952" lon="6.39377">
        <ele>734.2</ele>
        <time>2022-11-08T11:07:33Z</time>
      </trkpt>
      <trkpt lat="46.71948" lon="6.39373">
        <ele>734.9</ele>
        <time>2022-11-08T11:07:38Z</time>
      </trkpt>
      <trkpt lat="46.71943" lon="6.3937">
        <ele>736.2</ele>
        <time>2022-11-08T11:07:43Z</time>
      </trkpt>
      <trkpt lat="46.71939" lon="6.39366">
        <ele>737.6</ele>
        <time>2022-11-08T11:07:48Z</time>
      </trkpt>
      <trkpt lat="46.71934" lon="6.39362">
        <ele>738.6</ele>
        <time>2022-11-08T11:07:54Z</time>
      </trkpt>
      <trkpt lat="46.71931" lon="6.39358">
        <ele>738.5</ele>
        <time>2022-11-08T11:08:01Z</time>
      </trkpt>
      <trkpt lat="46.71928" lon="6.39352">
        <ele>737.8</ele>
        <time>2022-11-08T11:08:07Z</time>
      </trkpt>
      <trkpt lat="46.71925" lon="6.39346">
        <ele>737.3</ele>
        <time>2022-11-08T11:08:12Z</time>
      </trkpt>
      <trkpt lat="46.71921" lon="6.39341">
        <ele>736.8</ele>
        <time>2022-11-08T11:08:17Z</time>
      </trkpt>
      <trkpt lat="46.71918" lon="6.39335">
        <ele>736.1</ele>
        <time>2022-11-08T11:08:23Z</time>
      </trkpt>
      <trkpt lat="46.71915" lon="6.39329">
        <ele>735.9</ele>
        <time>2022-11-08T11:08:28Z</time>
      </trkpt>
      <trkpt lat="46.71911" lon="6.39324">
        <ele>736.2</ele>
        <time>2022-11-08T11:08:33Z</time>
      </trkpt>
      <trkpt lat="46.71908" lon="6.39318">
        <ele>736.4</ele>
        <time>2022-11-08T11:08:37Z</time>
      </trkpt>
      <trkpt lat="46.71905" lon="6.39313">
        <ele>736.5</ele>
        <time>2022-11-08T11:08:41Z</time>
      </trkpt>
      <trkpt lat="46.71903" lon="6.39306">
        <ele>738.1</ele>
        <time>2022-11-08T11:08:51Z</time>
      </trkpt>
      <trkpt lat="46.719" lon="6.393">
        <ele>738.4</ele>
        <time>2022-11-08T11:08:56Z</time>
      </trkpt>
      <trkpt lat="46.71896" lon="6.39295">
        <ele>738.7</ele>
        <time>2022-11-08T11:09:01Z</time>
      </trkpt>
      <trkpt lat="46.71892" lon="6.3929">
        <ele>738.7</ele>
        <time>2022-11-08T11:09:06Z</time>
      </trkpt>
      <trkpt lat="46.71889" lon="6.39285">
        <ele>738.6</ele>
        <time>2022-11-08T11:09:11Z</time>
      </trkpt>
      <trkpt lat="46.71886" lon="6.3928">
        <ele>738.2</ele>
        <time>2022-11-08T11:09:16Z</time>
      </trkpt>
      <trkpt lat="46.71882" lon="6.39274">
        <ele>738.2</ele>
        <time>2022-11-08T11:09:21Z</time>
      </trkpt>
      <trkpt lat="46.71878" lon="6.39269">
        <ele>738.2</ele>
        <time>2022-11-08T11:09:26Z</time>
      </trkpt>
      <trkpt lat="46.71874" lon="6.39263">
        <ele>738.4</ele>
        <time>2022-11-08T11:09:31Z</time>
      </trkpt>
      <trkpt lat="46.71871" lon="6.39259">
        <ele>738.5</ele>
        <time>2022-11-08T11:09:35Z</time>
      </trkpt>
      <trkpt lat="46.71868" lon="6.39252">
        <ele>738.4</ele>
        <time>2022-11-08T11:09:40Z</time>
      </trkpt>
      <trkpt lat="46.71865" lon="6.39246">
        <ele>738.4</ele>
        <time>2022-11-08T11:09:45Z</time>
      </trkpt>
      <trkpt lat="46.71861" lon="6.39242">
        <ele>738.4</ele>
        <time>2022-11-08T11:09:51Z</time>
      </trkpt>
      <trkpt lat="46.71857" lon="6.39236">
        <ele>737.9</ele>
        <time>2022-11-08T11:09:56Z</time>
      </trkpt>
      <trkpt lat="46.71854" lon="6.39231">
        <ele>737.6</ele>
        <time>2022-11-08T11:10:00Z</time>
      </trkpt>
      <trkpt lat="46.71851" lon="6.39227">
        <ele>737.6</ele>
        <time>2022-11-08T11:10:05Z</time>
      </trkpt>
      <trkpt lat="46.71847" lon="6.39222">
        <ele>737.6</ele>
        <time>2022-11-08T11:10:10Z</time>
      </trkpt>
      <trkpt lat="46.71843" lon="6.39217">
        <ele>737.3</ele>
        <time>2022-11-08T11:10:15Z</time>
      </trkpt>
      <trkpt lat="46.71839" lon="6.39213">
        <ele>736.9</ele>
        <time>2022-11-08T11:10:20Z</time>
      </trkpt>
      <trkpt lat="46.71835" lon="6.39209">
        <ele>737</ele>
        <time>2022-11-08T11:10:26Z</time>
      </trkpt>
      <trkpt lat="46.71831" lon="6.39205">
        <ele>737</ele>
        <time>2022-11-08T11:10:31Z</time>
      </trkpt>
      <trkpt lat="46.71827" lon="6.39202">
        <ele>737.2</ele>
        <time>2022-11-08T11:10:36Z</time>
      </trkpt>
      <trkpt lat="46.71823" lon="6.39197">
        <ele>737.2</ele>
        <time>2022-11-08T11:10:41Z</time>
      </trkpt>
      <trkpt lat="46.71818" lon="6.39193">
        <ele>737.8</ele>
        <time>2022-11-08T11:10:47Z</time>
      </trkpt>
      <trkpt lat="46.71814" lon="6.39189">
        <ele>738.1</ele>
        <time>2022-11-08T11:10:53Z</time>
      </trkpt>
      <trkpt lat="46.71811" lon="6.39183">
        <ele>737.9</ele>
        <time>2022-11-08T11:10:59Z</time>
      </trkpt>
      <trkpt lat="46.71808" lon="6.39177">
        <ele>737.1</ele>
        <time>2022-11-08T11:11:05Z</time>
      </trkpt>
      <trkpt lat="46.71805" lon="6.39171">
        <ele>736.6</ele>
        <time>2022-11-08T11:11:10Z</time>
      </trkpt>
      <trkpt lat="46.71802" lon="6.39164">
        <ele>736.3</ele>
        <time>2022-11-08T11:11:15Z</time>
      </trkpt>
      <trkpt lat="46.71799" lon="6.39157">
        <ele>735.8</ele>
        <time>2022-11-08T11:11:20Z</time>
      </trkpt>
      <trkpt lat="46.718" lon="6.39151">
        <ele>737</ele>
        <time>2022-11-08T11:11:46Z</time>
      </trkpt>
      <trkpt lat="46.71797" lon="6.39145">
        <ele>737.1</ele>
        <time>2022-11-08T11:11:52Z</time>
      </trkpt>
      <trkpt lat="46.71793" lon="6.39142">
        <ele>736.5</ele>
        <time>2022-11-08T11:11:56Z</time>
      </trkpt>
      <trkpt lat="46.71789" lon="6.39137">
        <ele>735.9</ele>
        <time>2022-11-08T11:12:01Z</time>
      </trkpt>
      <trkpt lat="46.71785" lon="6.39132">
        <ele>735</ele>
        <time>2022-11-08T11:12:06Z</time>
      </trkpt>
      <trkpt lat="46.71782" lon="6.39127">
        <ele>734.3</ele>
        <time>2022-11-08T11:12:11Z</time>
      </trkpt>
      <trkpt lat="46.71779" lon="6.39123">
        <ele>733.8</ele>
        <time>2022-11-08T11:12:15Z</time>
      </trkpt>
      <trkpt lat="46.71775" lon="6.39118">
        <ele>733.3</ele>
        <time>2022-11-08T11:12:20Z</time>
      </trkpt>
      <trkpt lat="46.7177" lon="6.39114">
        <ele>733</ele>
        <time>2022-11-08T11:12:25Z</time>
      </trkpt>
      <trkpt lat="46.71765" lon="6.39113">
        <ele>733.1</ele>
        <time>2022-11-08T11:12:31Z</time>
      </trkpt>
      <trkpt lat="46.7176" lon="6.39115">
        <ele>733.8</ele>
        <time>2022-11-08T11:12:37Z</time>
      </trkpt>
      <trkpt lat="46.71756" lon="6.39117">
        <ele>734.6</ele>
        <time>2022-11-08T11:12:42Z</time>
      </trkpt>
      <trkpt lat="46.71751" lon="6.3912">
        <ele>735.2</ele>
        <time>2022-11-08T11:12:47Z</time>
      </trkpt>
      <trkpt lat="46.71748" lon="6.39125">
        <ele>736.1</ele>
        <time>2022-11-08T11:12:53Z</time>
      </trkpt>
      <trkpt lat="46.71743" lon="6.39128">
        <ele>736.5</ele>
        <time>2022-11-08T11:12:57Z</time>
      </trkpt>
      <trkpt lat="46.71739" lon="6.39131">
        <ele>736.4</ele>
        <time>2022-11-08T11:13:02Z</time>
      </trkpt>
      <trkpt lat="46.71735" lon="6.39134">
        <ele>736.8</ele>
        <time>2022-11-08T11:13:11Z</time>
      </trkpt>
      <trkpt lat="46.71731" lon="6.39139">
        <ele>736.4</ele>
        <time>2022-11-08T11:13:18Z</time>
      </trkpt>
      <trkpt lat="46.7173" lon="6.39145">
        <ele>736.4</ele>
        <time>2022-11-08T11:13:24Z</time>
      </trkpt>
      <trkpt lat="46.71731" lon="6.39151">
        <ele>737.1</ele>
        <time>2022-11-08T11:13:31Z</time>
      </trkpt>
      <trkpt lat="46.7173" lon="6.39158">
        <ele>737.7</ele>
        <time>2022-11-08T11:13:39Z</time>
      </trkpt>
      <trkpt lat="46.71726" lon="6.39162">
        <ele>737.7</ele>
        <time>2022-11-08T11:13:45Z</time>
      </trkpt>
      <trkpt lat="46.71722" lon="6.39166">
        <ele>738.3</ele>
        <time>2022-11-08T11:13:52Z</time>
      </trkpt>
      <trkpt lat="46.71717" lon="6.39169">
        <ele>737.1</ele>
        <time>2022-11-08T11:15:05Z</time>
      </trkpt>
      <trkpt lat="46.71711" lon="6.39169">
        <ele>735.9</ele>
        <time>2022-11-08T11:15:09Z</time>
      </trkpt>
      <trkpt lat="46.71705" lon="6.39168">
        <ele>735.5</ele>
        <time>2022-11-08T11:15:14Z</time>
      </trkpt>
      <trkpt lat="46.71701" lon="6.39169">
        <ele>735.7</ele>
        <time>2022-11-08T11:15:19Z</time>
      </trkpt>
      <trkpt lat="46.71696" lon="6.39168">
        <ele>736.4</ele>
        <time>2022-11-08T11:15:26Z</time>
      </trkpt>
      <trkpt lat="46.71691" lon="6.39167">
        <ele>736.4</ele>
        <time>2022-11-08T11:15:32Z</time>
      </trkpt>
      <trkpt lat="46.71686" lon="6.39165">
        <ele>736.4</ele>
        <time>2022-11-08T11:15:37Z</time>
      </trkpt>
      <trkpt lat="46.71682" lon="6.39164">
        <ele>736.7</ele>
        <time>2022-11-08T11:15:41Z</time>
      </trkpt>
      <trkpt lat="46.71677" lon="6.39161">
        <ele>737.1</ele>
        <time>2022-11-08T11:15:46Z</time>
      </trkpt>
      <trkpt lat="46.71672" lon="6.3916">
        <ele>737.5</ele>
        <time>2022-11-08T11:15:50Z</time>
      </trkpt>
      <trkpt lat="46.71667" lon="6.39157">
        <ele>738.3</ele>
        <time>2022-11-08T11:15:55Z</time>
      </trkpt>
      <trkpt lat="46.71663" lon="6.39153">
        <ele>739.4</ele>
        <time>2022-11-08T11:16:00Z</time>
      </trkpt>
      <trkpt lat="46.71658" lon="6.39149">
        <ele>740.6</ele>
        <time>2022-11-08T11:16:05Z</time>
      </trkpt>
      <trkpt lat="46.71654" lon="6.39146">
        <ele>741.4</ele>
        <time>2022-11-08T11:16:10Z</time>
      </trkpt>
      <trkpt lat="46.71649" lon="6.39145">
        <ele>742</ele>
        <time>2022-11-08T11:16:15Z</time>
      </trkpt>
      <trkpt lat="46.71645" lon="6.39144">
        <ele>742.4</ele>
        <time>2022-11-08T11:16:20Z</time>
      </trkpt>
      <trkpt lat="46.7164" lon="6.39143">
        <ele>743</ele>
        <time>2022-11-08T11:16:25Z</time>
      </trkpt>
      <trkpt lat="46.71635" lon="6.39142">
        <ele>742.8</ele>
        <time>2022-11-08T11:16:30Z</time>
      </trkpt>
      <trkpt lat="46.7163" lon="6.39141">
        <ele>742.7</ele>
        <time>2022-11-08T11:16:34Z</time>
      </trkpt>
      <trkpt lat="46.71626" lon="6.39137">
        <ele>743.1</ele>
        <time>2022-11-08T11:16:39Z</time>
      </trkpt>
      <trkpt lat="46.71622" lon="6.39132">
        <ele>743.5</ele>
        <time>2022-11-08T11:16:44Z</time>
      </trkpt>
      <trkpt lat="46.71618" lon="6.39127">
        <ele>743.3</ele>
        <time>2022-11-08T11:16:49Z</time>
      </trkpt>
      <trkpt lat="46.71614" lon="6.39123">
        <ele>743.3</ele>
        <time>2022-11-08T11:16:54Z</time>
      </trkpt>
      <trkpt lat="46.71609" lon="6.39119">
        <ele>743.3</ele>
        <time>2022-11-08T11:16:59Z</time>
      </trkpt>
      <trkpt lat="46.71606" lon="6.39113">
        <ele>743.6</ele>
        <time>2022-11-08T11:17:04Z</time>
      </trkpt>
      <trkpt lat="46.71603" lon="6.39107">
        <ele>744</ele>
        <time>2022-11-08T11:17:09Z</time>
      </trkpt>
      <trkpt lat="46.716" lon="6.39103">
        <ele>744.1</ele>
        <time>2022-11-08T11:17:13Z</time>
      </trkpt>
      <trkpt lat="46.71597" lon="6.39097">
        <ele>744.3</ele>
        <time>2022-11-08T11:17:18Z</time>
      </trkpt>
      <trkpt lat="46.71593" lon="6.39092">
        <ele>745</ele>
        <time>2022-11-08T11:17:23Z</time>
      </trkpt>
      <trkpt lat="46.7159" lon="6.39087">
        <ele>745.1</ele>
        <time>2022-11-08T11:17:27Z</time>
      </trkpt>
      <trkpt lat="46.71586" lon="6.39082">
        <ele>744.6</ele>
        <time>2022-11-08T11:17:32Z</time>
      </trkpt>
      <trkpt lat="46.71582" lon="6.39079">
        <ele>743.8</ele>
        <time>2022-11-08T11:17:37Z</time>
      </trkpt>
      <trkpt lat="46.71578" lon="6.39075">
        <ele>742.8</ele>
        <time>2022-11-08T11:17:41Z</time>
      </trkpt>
      <trkpt lat="46.71574" lon="6.39073">
        <ele>742</ele>
        <time>2022-11-08T11:17:45Z</time>
      </trkpt>
      <trkpt lat="46.71569" lon="6.39071">
        <ele>741.2</ele>
        <time>2022-11-08T11:17:49Z</time>
      </trkpt>
      <trkpt lat="46.71565" lon="6.39067">
        <ele>740.3</ele>
        <time>2022-11-08T11:17:54Z</time>
      </trkpt>
      <trkpt lat="46.71561" lon="6.39063">
        <ele>740.3</ele>
        <time>2022-11-08T11:17:59Z</time>
      </trkpt>
      <trkpt lat="46.71556" lon="6.39059">
        <ele>740.8</ele>
        <time>2022-11-08T11:18:05Z</time>
      </trkpt>
      <trkpt lat="46.71552" lon="6.39055">
        <ele>742.7</ele>
        <time>2022-11-08T11:18:15Z</time>
      </trkpt>
      <trkpt lat="46.71547" lon="6.39052">
        <ele>743.6</ele>
        <time>2022-11-08T11:18:21Z</time>
      </trkpt>
      <trkpt lat="46.71543" lon="6.39049">
        <ele>744.4</ele>
        <time>2022-11-08T11:18:25Z</time>
      </trkpt>
      <trkpt lat="46.71538" lon="6.39047">
        <ele>744.8</ele>
        <time>2022-11-08T11:18:30Z</time>
      </trkpt>
      <trkpt lat="46.71534" lon="6.39044">
        <ele>744.9</ele>
        <time>2022-11-08T11:18:34Z</time>
      </trkpt>
      <trkpt lat="46.7153" lon="6.39039">
        <ele>745.3</ele>
        <time>2022-11-08T11:18:38Z</time>
      </trkpt>
      <trkpt lat="46.71525" lon="6.39036">
        <ele>745.8</ele>
        <time>2022-11-08T11:18:42Z</time>
      </trkpt>
      <trkpt lat="46.71521" lon="6.39032">
        <ele>746.4</ele>
        <time>2022-11-08T11:18:47Z</time>
      </trkpt>
      <trkpt lat="46.71517" lon="6.39029">
        <ele>746.3</ele>
        <time>2022-11-08T11:18:52Z</time>
      </trkpt>
      <trkpt lat="46.71513" lon="6.39024">
        <ele>745.4</ele>
        <time>2022-11-08T11:18:57Z</time>
      </trkpt>
      <trkpt lat="46.71509" lon="6.3902">
        <ele>744.1</ele>
        <time>2022-11-08T11:19:02Z</time>
      </trkpt>
      <trkpt lat="46.71504" lon="6.39017">
        <ele>743.9</ele>
        <time>2022-11-08T11:19:06Z</time>
      </trkpt>
      <trkpt lat="46.715" lon="6.39015">
        <ele>744.1</ele>
        <time>2022-11-08T11:19:10Z</time>
      </trkpt>
      <trkpt lat="46.71496" lon="6.39012">
        <ele>744.7</ele>
        <time>2022-11-08T11:19:15Z</time>
      </trkpt>
      <trkpt lat="46.71491" lon="6.39008">
        <ele>744.8</ele>
        <time>2022-11-08T11:19:20Z</time>
      </trkpt>
      <trkpt lat="46.71487" lon="6.39005">
        <ele>745</ele>
        <time>2022-11-08T11:19:24Z</time>
      </trkpt>
      <trkpt lat="46.71482" lon="6.39003">
        <ele>745.3</ele>
        <time>2022-11-08T11:19:29Z</time>
      </trkpt>
      <trkpt lat="46.71477" lon="6.39">
        <ele>745.5</ele>
        <time>2022-11-08T11:19:34Z</time>
      </trkpt>
      <trkpt lat="46.71473" lon="6.38997">
        <ele>746</ele>
        <time>2022-11-08T11:19:38Z</time>
      </trkpt>
      <trkpt lat="46.71468" lon="6.38994">
        <ele>746.5</ele>
        <time>2022-11-08T11:19:44Z</time>
      </trkpt>
      <trkpt lat="46.71462" lon="6.38992">
        <ele>747.4</ele>
        <time>2022-11-08T11:19:49Z</time>
      </trkpt>
      <trkpt lat="46.71458" lon="6.38992">
        <ele>748.3</ele>
        <time>2022-11-08T11:19:52Z</time>
      </trkpt>
      <trkpt lat="46.71453" lon="6.38995">
        <ele>750</ele>
        <time>2022-11-08T11:19:56Z</time>
      </trkpt>
      <trkpt lat="46.71449" lon="6.38998">
        <ele>753.2</ele>
        <time>2022-11-08T11:20:04Z</time>
      </trkpt>
      <trkpt lat="46.71444" lon="6.39001">
        <ele>755.1</ele>
        <time>2022-11-08T11:20:12Z</time>
      </trkpt>
      <trkpt lat="46.7144" lon="6.39003">
        <ele>754.5</ele>
        <time>2022-11-08T11:20:16Z</time>
      </trkpt>
      <trkpt lat="46.71434" lon="6.39003">
        <ele>753.6</ele>
        <time>2022-11-08T11:20:20Z</time>
      </trkpt>
      <trkpt lat="46.71429" lon="6.39005">
        <ele>752.6</ele>
        <time>2022-11-08T11:20:23Z</time>
      </trkpt>
      <trkpt lat="46.71424" lon="6.39006">
        <ele>751.6</ele>
        <time>2022-11-08T11:20:27Z</time>
      </trkpt>
      <trkpt lat="46.71419" lon="6.39005">
        <ele>751.2</ele>
        <time>2022-11-08T11:20:32Z</time>
      </trkpt>
      <trkpt lat="46.71414" lon="6.39004">
        <ele>750.6</ele>
        <time>2022-11-08T11:20:38Z</time>
      </trkpt>
      <trkpt lat="46.71409" lon="6.39004">
        <ele>750.4</ele>
        <time>2022-11-08T11:20:43Z</time>
      </trkpt>
      <trkpt lat="46.71405" lon="6.39008">
        <ele>750.6</ele>
        <time>2022-11-08T11:20:48Z</time>
      </trkpt>
      <trkpt lat="46.714" lon="6.39011">
        <ele>751</ele>
        <time>2022-11-08T11:20:52Z</time>
      </trkpt>
      <trkpt lat="46.71395" lon="6.3901">
        <ele>751.2</ele>
        <time>2022-11-08T11:20:56Z</time>
      </trkpt>
      <trkpt lat="46.71391" lon="6.39006">
        <ele>751.5</ele>
        <time>2022-11-08T11:21:00Z</time>
      </trkpt>
      <trkpt lat="46.71387" lon="6.39001">
        <ele>752.1</ele>
        <time>2022-11-08T11:21:04Z</time>
      </trkpt>
      <trkpt lat="46.71384" lon="6.38995">
        <ele>753</ele>
        <time>2022-11-08T11:21:08Z</time>
      </trkpt>
      <trkpt lat="46.71382" lon="6.38989">
        <ele>754.2</ele>
        <time>2022-11-08T11:21:12Z</time>
      </trkpt>
      <trkpt lat="46.71381" lon="6.38982">
        <ele>755.1</ele>
        <time>2022-11-08T11:21:17Z</time>
      </trkpt>
      <trkpt lat="46.71378" lon="6.38976">
        <ele>755.2</ele>
        <time>2022-11-08T11:21:21Z</time>
      </trkpt>
      <trkpt lat="46.71376" lon="6.3897">
        <ele>755.4</ele>
        <time>2022-11-08T11:21:25Z</time>
      </trkpt>
      <trkpt lat="46.71373" lon="6.38964">
        <ele>755.3</ele>
        <time>2022-11-08T11:21:29Z</time>
      </trkpt>
      <trkpt lat="46.71372" lon="6.38958">
        <ele>755.3</ele>
        <time>2022-11-08T11:21:33Z</time>
      </trkpt>
      <trkpt lat="46.7137" lon="6.38951">
        <ele>755.6</ele>
        <time>2022-11-08T11:21:38Z</time>
      </trkpt>
      <trkpt lat="46.71367" lon="6.38944">
        <ele>755.6</ele>
        <time>2022-11-08T11:21:43Z</time>
      </trkpt>
      <trkpt lat="46.71365" lon="6.38937">
        <ele>755.4</ele>
        <time>2022-11-08T11:21:48Z</time>
      </trkpt>
      <trkpt lat="46.71363" lon="6.3893">
        <ele>755.4</ele>
        <time>2022-11-08T11:21:54Z</time>
      </trkpt>
      <trkpt lat="46.71361" lon="6.38923">
        <ele>755.4</ele>
        <time>2022-11-08T11:21:59Z</time>
      </trkpt>
      <trkpt lat="46.71359" lon="6.38917">
        <ele>755</ele>
        <time>2022-11-08T11:22:04Z</time>
      </trkpt>
      <trkpt lat="46.71357" lon="6.3891">
        <ele>754.2</ele>
        <time>2022-11-08T11:22:09Z</time>
      </trkpt>
      <trkpt lat="46.71355" lon="6.38902">
        <ele>752.9</ele>
        <time>2022-11-08T11:22:14Z</time>
      </trkpt>
      <trkpt lat="46.71354" lon="6.38896">
        <ele>751.9</ele>
        <time>2022-11-08T11:22:18Z</time>
      </trkpt>
      <trkpt lat="46.71352" lon="6.38889">
        <ele>751.5</ele>
        <time>2022-11-08T11:22:22Z</time>
      </trkpt>
      <trkpt lat="46.7135" lon="6.38883">
        <ele>751.5</ele>
        <time>2022-11-08T11:22:27Z</time>
      </trkpt>
      <trkpt lat="46.71348" lon="6.38876">
        <ele>751.4</ele>
        <time>2022-11-08T11:22:32Z</time>
      </trkpt>
      <trkpt lat="46.71346" lon="6.38869">
        <ele>751.4</ele>
        <time>2022-11-08T11:22:36Z</time>
      </trkpt>
      <trkpt lat="46.71345" lon="6.38862">
        <ele>751.3</ele>
        <time>2022-11-08T11:22:41Z</time>
      </trkpt>
      <trkpt lat="46.71344" lon="6.38855">
        <ele>751.4</ele>
        <time>2022-11-08T11:22:45Z</time>
      </trkpt>
      <trkpt lat="46.71343" lon="6.38847">
        <ele>751.7</ele>
        <time>2022-11-08T11:22:50Z</time>
      </trkpt>
      <trkpt lat="46.71342" lon="6.38841">
        <ele>751.8</ele>
        <time>2022-11-08T11:22:54Z</time>
      </trkpt>
      <trkpt lat="46.71341" lon="6.38834">
        <ele>752.4</ele>
        <time>2022-11-08T11:22:58Z</time>
      </trkpt>
      <trkpt lat="46.7134" lon="6.38827">
        <ele>753.5</ele>
        <time>2022-11-08T11:23:03Z</time>
      </trkpt>
      <trkpt lat="46.71339" lon="6.3882">
        <ele>755.1</ele>
        <time>2022-11-08T11:23:12Z</time>
      </trkpt>
      <trkpt lat="46.71338" lon="6.38813">
        <ele>755.9</ele>
        <time>2022-11-08T11:23:18Z</time>
      </trkpt>
      <trkpt lat="46.71337" lon="6.38805">
        <ele>756.5</ele>
        <time>2022-11-08T11:23:22Z</time>
      </trkpt>
      <trkpt lat="46.71335" lon="6.38798">
        <ele>756.8</ele>
        <time>2022-11-08T11:23:26Z</time>
      </trkpt>
      <trkpt lat="46.71334" lon="6.38791">
        <ele>757.2</ele>
        <time>2022-11-08T11:23:30Z</time>
      </trkpt>
      <trkpt lat="46.71334" lon="6.38783">
        <ele>758</ele>
        <time>2022-11-08T11:23:35Z</time>
      </trkpt>
      <trkpt lat="46.71332" lon="6.38776">
        <ele>758.7</ele>
        <time>2022-11-08T11:23:40Z</time>
      </trkpt>
      <trkpt lat="46.71329" lon="6.3877">
        <ele>759.6</ele>
        <time>2022-11-08T11:23:45Z</time>
      </trkpt>
      <trkpt lat="46.71326" lon="6.38763">
        <ele>760.6</ele>
        <time>2022-11-08T11:23:50Z</time>
      </trkpt>
      <trkpt lat="46.71326" lon="6.38756">
        <ele>760.8</ele>
        <time>2022-11-08T11:23:54Z</time>
      </trkpt>
      <trkpt lat="46.71323" lon="6.38749">
        <ele>760.9</ele>
        <time>2022-11-08T11:23:59Z</time>
      </trkpt>
      <trkpt lat="46.71322" lon="6.38742">
        <ele>761</ele>
        <time>2022-11-08T11:24:03Z</time>
      </trkpt>
      <trkpt lat="46.71321" lon="6.38736">
        <ele>760.8</ele>
        <time>2022-11-08T11:24:07Z</time>
      </trkpt>
      <trkpt lat="46.71318" lon="6.38728">
        <ele>760.9</ele>
        <time>2022-11-08T11:24:12Z</time>
      </trkpt>
      <trkpt lat="46.71316" lon="6.38722">
        <ele>761.1</ele>
        <time>2022-11-08T11:24:16Z</time>
      </trkpt>
      <trkpt lat="46.71313" lon="6.38717">
        <ele>761</ele>
        <time>2022-11-08T11:24:20Z</time>
      </trkpt>
      <trkpt lat="46.7131" lon="6.38711">
        <ele>761</ele>
        <time>2022-11-08T11:24:25Z</time>
      </trkpt>
      <trkpt lat="46.71308" lon="6.38704">
        <ele>760.4</ele>
        <time>2022-11-08T11:24:31Z</time>
      </trkpt>
      <trkpt lat="46.71306" lon="6.38698">
        <ele>757.9</ele>
        <time>2022-11-08T11:24:37Z</time>
      </trkpt>
      <trkpt lat="46.71303" lon="6.38692">
        <ele>754.1</ele>
        <time>2022-11-08T11:24:42Z</time>
      </trkpt>
      <trkpt lat="46.71299" lon="6.38688">
        <ele>751.4</ele>
        <time>2022-11-08T11:24:46Z</time>
      </trkpt>
      <trkpt lat="46.71296" lon="6.38681">
        <ele>750.8</ele>
        <time>2022-11-08T11:24:51Z</time>
      </trkpt>
      <trkpt lat="46.71292" lon="6.38676">
        <ele>751</ele>
        <time>2022-11-08T11:24:56Z</time>
      </trkpt>
      <trkpt lat="46.71289" lon="6.3867">
        <ele>751.6</ele>
        <time>2022-11-08T11:25:03Z</time>
      </trkpt>
      <trkpt lat="46.71286" lon="6.38664">
        <ele>752.1</ele>
        <time>2022-11-08T11:25:08Z</time>
      </trkpt>
      <trkpt lat="46.71282" lon="6.38659">
        <ele>752.5</ele>
        <time>2022-11-08T11:25:12Z</time>
      </trkpt>
      <trkpt lat="46.71279" lon="6.38653">
        <ele>753.5</ele>
        <time>2022-11-08T11:25:16Z</time>
      </trkpt>
      <trkpt lat="46.71275" lon="6.38649">
        <ele>754.2</ele>
        <time>2022-11-08T11:25:20Z</time>
      </trkpt>
      <trkpt lat="46.71273" lon="6.38642">
        <ele>754</ele>
        <time>2022-11-08T11:25:25Z</time>
      </trkpt>
      <trkpt lat="46.7127" lon="6.38637">
        <ele>753.1</ele>
        <time>2022-11-08T11:25:30Z</time>
      </trkpt>
      <trkpt lat="46.71266" lon="6.38632">
        <ele>753.3</ele>
        <time>2022-11-08T11:25:34Z</time>
      </trkpt>
      <trkpt lat="46.71262" lon="6.38627">
        <ele>753.4</ele>
        <time>2022-11-08T11:25:37Z</time>
      </trkpt>
      <trkpt lat="46.71258" lon="6.38622">
        <ele>753.9</ele>
        <time>2022-11-08T11:25:41Z</time>
      </trkpt>
      <trkpt lat="46.71254" lon="6.38618">
        <ele>754.6</ele>
        <time>2022-11-08T11:25:45Z</time>
      </trkpt>
      <trkpt lat="46.71251" lon="6.38613">
        <ele>754.9</ele>
        <time>2022-11-08T11:25:49Z</time>
      </trkpt>
      <trkpt lat="46.71246" lon="6.38609">
        <ele>755.4</ele>
        <time>2022-11-08T11:25:54Z</time>
      </trkpt>
      <trkpt lat="46.71242" lon="6.38604">
        <ele>755.1</ele>
        <time>2022-11-08T11:26:00Z</time>
      </trkpt>
      <trkpt lat="46.71239" lon="6.38599">
        <ele>754</ele>
        <time>2022-11-08T11:26:05Z</time>
      </trkpt>
      <trkpt lat="46.71234" lon="6.38594">
        <ele>753.2</ele>
        <time>2022-11-08T11:26:10Z</time>
      </trkpt>
      <trkpt lat="46.7123" lon="6.3859">
        <ele>753.6</ele>
        <time>2022-11-08T11:26:14Z</time>
      </trkpt>
      <trkpt lat="46.71226" lon="6.38586">
        <ele>754.2</ele>
        <time>2022-11-08T11:26:19Z</time>
      </trkpt>
      <trkpt lat="46.71222" lon="6.38582">
        <ele>754.5</ele>
        <time>2022-11-08T11:26:23Z</time>
      </trkpt>
      <trkpt lat="46.71219" lon="6.38576">
        <ele>755.1</ele>
        <time>2022-11-08T11:26:27Z</time>
      </trkpt>
      <trkpt lat="46.71216" lon="6.38571">
        <ele>756.2</ele>
        <time>2022-11-08T11:26:31Z</time>
      </trkpt>
      <trkpt lat="46.71213" lon="6.38565">
        <ele>756.7</ele>
        <time>2022-11-08T11:26:36Z</time>
      </trkpt>
      <trkpt lat="46.71208" lon="6.38561">
        <ele>755.9</ele>
        <time>2022-11-08T11:26:40Z</time>
      </trkpt>
      <trkpt lat="46.71205" lon="6.38555">
        <ele>755</ele>
        <time>2022-11-08T11:26:45Z</time>
      </trkpt>
      <trkpt lat="46.71202" lon="6.3855">
        <ele>754.5</ele>
        <time>2022-11-08T11:26:49Z</time>
      </trkpt>
      <trkpt lat="46.71198" lon="6.38544">
        <ele>754.4</ele>
        <time>2022-11-08T11:26:53Z</time>
      </trkpt>
      <trkpt lat="46.71195" lon="6.38539">
        <ele>754.8</ele>
        <time>2022-11-08T11:26:57Z</time>
      </trkpt>
      <trkpt lat="46.7119" lon="6.38535">
        <ele>754.5</ele>
        <time>2022-11-08T11:27:02Z</time>
      </trkpt>
      <trkpt lat="46.71187" lon="6.38529">
        <ele>754.5</ele>
        <time>2022-11-08T11:27:07Z</time>
      </trkpt>
      <trkpt lat="46.71192" lon="6.38527">
        <ele>753.8</ele>
        <time>2022-11-08T11:27:14Z</time>
      </trkpt>
      <trkpt lat="46.71197" lon="6.38528">
        <ele>753.5</ele>
        <time>2022-11-08T11:27:19Z</time>
      </trkpt>
      <trkpt lat="46.71202" lon="6.3853">
        <ele>753</ele>
        <time>2022-11-08T11:27:23Z</time>
      </trkpt>
      <trkpt lat="46.71207" lon="6.38532">
        <ele>752.4</ele>
        <time>2022-11-08T11:27:27Z</time>
      </trkpt>
      <trkpt lat="46.71211" lon="6.38535">
        <ele>751.7</ele>
        <time>2022-11-08T11:27:31Z</time>
      </trkpt>
      <trkpt lat="46.71215" lon="6.38538">
        <ele>751</ele>
        <time>2022-11-08T11:27:36Z</time>
      </trkpt>
      <trkpt lat="46.7122" lon="6.38543">
        <ele>750.6</ele>
        <time>2022-11-08T11:27:41Z</time>
      </trkpt>
      <trkpt lat="46.71224" lon="6.38545">
        <ele>750.3</ele>
        <time>2022-11-08T11:27:46Z</time>
      </trkpt>
      <trkpt lat="46.71229" lon="6.38549">
        <ele>750</ele>
        <time>2022-11-08T11:27:51Z</time>
      </trkpt>
      <trkpt lat="46.71234" lon="6.3855">
        <ele>749.4</ele>
        <time>2022-11-08T11:27:56Z</time>
      </trkpt>
      <trkpt lat="46.71238" lon="6.38554">
        <ele>749.6</ele>
        <time>2022-11-08T11:28:01Z</time>
      </trkpt>
      <trkpt lat="46.71243" lon="6.38556">
        <ele>749.9</ele>
        <time>2022-11-08T11:28:06Z</time>
      </trkpt>
      <trkpt lat="46.71248" lon="6.38557">
        <ele>750.3</ele>
        <time>2022-11-08T11:28:11Z</time>
      </trkpt>
      <trkpt lat="46.71253" lon="6.38557">
        <ele>750.7</ele>
        <time>2022-11-08T11:28:16Z</time>
      </trkpt>
      <trkpt lat="46.71257" lon="6.38554">
        <ele>750.7</ele>
        <time>2022-11-08T11:28:22Z</time>
      </trkpt>
      <trkpt lat="46.71256" lon="6.38546">
        <ele>750.3</ele>
        <time>2022-11-08T11:28:30Z</time>
      </trkpt>
      <trkpt lat="46.71254" lon="6.38541">
        <ele>750.2</ele>
        <time>2022-11-08T11:28:35Z</time>
      </trkpt>
      <trkpt lat="46.71251" lon="6.38536">
        <ele>750.4</ele>
        <time>2022-11-08T11:28:40Z</time>
      </trkpt>
      <trkpt lat="46.71254" lon="6.38532">
        <ele>751</ele>
        <time>2022-11-08T11:28:51Z</time>
      </trkpt>
      <trkpt lat="46.71259" lon="6.38531">
        <ele>750.9</ele>
        <time>2022-11-08T11:28:57Z</time>
      </trkpt>
      <trkpt lat="46.71263" lon="6.38528">
        <ele>750.9</ele>
        <time>2022-11-08T11:29:03Z</time>
      </trkpt>
      <trkpt lat="46.71265" lon="6.38521">
        <ele>751.1</ele>
        <time>2022-11-08T11:29:13Z</time>
      </trkpt>
      <trkpt lat="46.71264" lon="6.38514">
        <ele>751.1</ele>
        <time>2022-11-08T11:29:17Z</time>
      </trkpt>
      <trkpt lat="46.71263" lon="6.38507">
        <ele>751</ele>
        <time>2022-11-08T11:29:21Z</time>
      </trkpt>
      <trkpt lat="46.71261" lon="6.38501">
        <ele>750.3</ele>
        <time>2022-11-08T11:29:26Z</time>
      </trkpt>
      <trkpt lat="46.71262" lon="6.38494">
        <ele>748.1</ele>
        <time>2022-11-08T11:29:35Z</time>
      </trkpt>
      <trkpt lat="46.71266" lon="6.38489">
        <ele>747.4</ele>
        <time>2022-11-08T11:29:42Z</time>
      </trkpt>
      <trkpt lat="46.71263" lon="6.38483">
        <ele>747.2</ele>
        <time>2022-11-08T11:29:50Z</time>
      </trkpt>
      <trkpt lat="46.71258" lon="6.38482">
        <ele>746.8</ele>
        <time>2022-11-08T11:29:55Z</time>
      </trkpt>
      <trkpt lat="46.71254" lon="6.3848">
        <ele>746.3</ele>
        <time>2022-11-08T11:30:00Z</time>
      </trkpt>
      <trkpt lat="46.71251" lon="6.38475">
        <ele>745.9</ele>
        <time>2022-11-08T11:30:06Z</time>
      </trkpt>
      <trkpt lat="46.71251" lon="6.38468">
        <ele>740.5</ele>
        <time>2022-11-08T11:30:47Z</time>
      </trkpt>
      <trkpt lat="46.71246" lon="6.38465">
        <ele>739.8</ele>
        <time>2022-11-08T11:30:52Z</time>
      </trkpt>
      <trkpt lat="46.71241" lon="6.38463">
        <ele>740.1</ele>
        <time>2022-11-08T11:30:56Z</time>
      </trkpt>
      <trkpt lat="46.71237" lon="6.38458">
        <ele>740.6</ele>
        <time>2022-11-08T11:31:01Z</time>
      </trkpt>
      <trkpt lat="46.71234" lon="6.38451">
        <ele>741.6</ele>
        <time>2022-11-08T11:31:06Z</time>
      </trkpt>
      <trkpt lat="46.71232" lon="6.38445">
        <ele>742.4</ele>
        <time>2022-11-08T11:31:11Z</time>
      </trkpt>
      <trkpt lat="46.71229" lon="6.3844">
        <ele>743.5</ele>
        <time>2022-11-08T11:31:15Z</time>
      </trkpt>
      <trkpt lat="46.71226" lon="6.38433">
        <ele>745.4</ele>
        <time>2022-11-08T11:31:20Z</time>
      </trkpt>
      <trkpt lat="46.71224" lon="6.38428">
        <ele>746.8</ele>
        <time>2022-11-08T11:31:24Z</time>
      </trkpt>
      <trkpt lat="46.71221" lon="6.38422">
        <ele>748.5</ele>
        <time>2022-11-08T11:31:30Z</time>
      </trkpt>
      <trkpt lat="46.71217" lon="6.38417">
        <ele>749.2</ele>
        <time>2022-11-08T11:31:36Z</time>
      </trkpt>
      <trkpt lat="46.71213" lon="6.38413">
        <ele>748.9</ele>
        <time>2022-11-08T11:31:41Z</time>
      </trkpt>
      <trkpt lat="46.7121" lon="6.38407">
        <ele>748.4</ele>
        <time>2022-11-08T11:31:46Z</time>
      </trkpt>
      <trkpt lat="46.71207" lon="6.38402">
        <ele>747.9</ele>
        <time>2022-11-08T11:31:51Z</time>
      </trkpt>
      <trkpt lat="46.71204" lon="6.38397">
        <ele>747</ele>
        <time>2022-11-08T11:31:57Z</time>
      </trkpt>
      <trkpt lat="46.712" lon="6.38392">
        <ele>746.4</ele>
        <time>2022-11-08T11:32:04Z</time>
      </trkpt>
      <trkpt lat="46.71196" lon="6.38389">
        <ele>745.3</ele>
        <time>2022-11-08T11:32:11Z</time>
      </trkpt>
      <trkpt lat="46.71192" lon="6.38383">
        <ele>745</ele>
        <time>2022-11-08T11:32:16Z</time>
      </trkpt>
      <trkpt lat="46.71189" lon="6.38378">
        <ele>745.1</ele>
        <time>2022-11-08T11:32:21Z</time>
      </trkpt>
      <trkpt lat="46.71186" lon="6.38371">
        <ele>744.8</ele>
        <time>2022-11-08T11:32:26Z</time>
      </trkpt>
      <trkpt lat="46.71184" lon="6.38364">
        <ele>744.4</ele>
        <time>2022-11-08T11:32:30Z</time>
      </trkpt>
      <trkpt lat="46.7118" lon="6.38359">
        <ele>743.8</ele>
        <time>2022-11-08T11:32:35Z</time>
      </trkpt>
      <trkpt lat="46.71177" lon="6.38354">
        <ele>743.6</ele>
        <time>2022-11-08T11:32:40Z</time>
      </trkpt>
      <trkpt lat="46.71176" lon="6.38347">
        <ele>743.1</ele>
        <time>2022-11-08T11:32:44Z</time>
      </trkpt>
      <trkpt lat="46.71176" lon="6.3834">
        <ele>742.9</ele>
        <time>2022-11-08T11:32:48Z</time>
      </trkpt>
      <trkpt lat="46.71175" lon="6.38333">
        <ele>742.8</ele>
        <time>2022-11-08T11:32:52Z</time>
      </trkpt>
      <trkpt lat="46.71176" lon="6.38326">
        <ele>742.7</ele>
        <time>2022-11-08T11:32:56Z</time>
      </trkpt>
      <trkpt lat="46.71178" lon="6.3832">
        <ele>742.1</ele>
        <time>2022-11-08T11:33:08Z</time>
      </trkpt>
      <trkpt lat="46.71174" lon="6.38325">
        <ele>738.7</ele>
        <time>2022-11-08T11:33:39Z</time>
      </trkpt>
      <trkpt lat="46.71168" lon="6.38322">
        <ele>737.5</ele>
        <time>2022-11-08T11:33:43Z</time>
      </trkpt>
      <trkpt lat="46.71165" lon="6.38316">
        <ele>736.6</ele>
        <time>2022-11-08T11:33:48Z</time>
      </trkpt>
      <trkpt lat="46.71165" lon="6.38309">
        <ele>735.8</ele>
        <time>2022-11-08T11:33:53Z</time>
      </trkpt>
      <trkpt lat="46.71165" lon="6.38301">
        <ele>734.8</ele>
        <time>2022-11-08T11:33:57Z</time>
      </trkpt>
      <trkpt lat="46.71165" lon="6.38295">
        <ele>734</ele>
        <time>2022-11-08T11:34:00Z</time>
      </trkpt>
      <trkpt lat="46.71164" lon="6.38287">
        <ele>733.8</ele>
        <time>2022-11-08T11:34:03Z</time>
      </trkpt>
      <trkpt lat="46.71165" lon="6.3828">
        <ele>734.3</ele>
        <time>2022-11-08T11:34:06Z</time>
      </trkpt>
      <trkpt lat="46.71165" lon="6.38271">
        <ele>735.3</ele>
        <time>2022-11-08T11:34:10Z</time>
      </trkpt>
      <trkpt lat="46.71166" lon="6.38264">
        <ele>736.5</ele>
        <time>2022-11-08T11:34:14Z</time>
      </trkpt>
      <trkpt lat="46.71167" lon="6.38256">
        <ele>737</ele>
        <time>2022-11-08T11:34:18Z</time>
      </trkpt>
      <trkpt lat="46.71169" lon="6.3825">
        <ele>737.2</ele>
        <time>2022-11-08T11:34:23Z</time>
      </trkpt>
      <trkpt lat="46.71168" lon="6.38242">
        <ele>738.3</ele>
        <time>2022-11-08T11:34:31Z</time>
      </trkpt>
      <trkpt lat="46.71169" lon="6.38234">
        <ele>738.6</ele>
        <time>2022-11-08T11:34:36Z</time>
      </trkpt>
      <trkpt lat="46.71171" lon="6.38227">
        <ele>739</ele>
        <time>2022-11-08T11:34:40Z</time>
      </trkpt>
      <trkpt lat="46.71172" lon="6.3822">
        <ele>739.5</ele>
        <time>2022-11-08T11:34:44Z</time>
      </trkpt>
      <trkpt lat="46.71173" lon="6.38212">
        <ele>740.8</ele>
        <time>2022-11-08T11:34:48Z</time>
      </trkpt>
      <trkpt lat="46.71174" lon="6.38203">
        <ele>742.3</ele>
        <time>2022-11-08T11:34:52Z</time>
      </trkpt>
      <trkpt lat="46.71175" lon="6.38197">
        <ele>743.1</ele>
        <time>2022-11-08T11:34:55Z</time>
      </trkpt>
      <trkpt lat="46.71177" lon="6.38189">
        <ele>743.8</ele>
        <time>2022-11-08T11:34:59Z</time>
      </trkpt>
      <trkpt lat="46.71178" lon="6.38181">
        <ele>744.6</ele>
        <time>2022-11-08T11:35:03Z</time>
      </trkpt>
      <trkpt lat="46.71178" lon="6.38173">
        <ele>745.4</ele>
        <time>2022-11-08T11:35:07Z</time>
      </trkpt>
      <trkpt lat="46.7118" lon="6.38166">
        <ele>746</ele>
        <time>2022-11-08T11:35:10Z</time>
      </trkpt>
      <trkpt lat="46.7118" lon="6.38159">
        <ele>747.2</ele>
        <time>2022-11-08T11:35:14Z</time>
      </trkpt>
      <trkpt lat="46.71182" lon="6.38152">
        <ele>748.4</ele>
        <time>2022-11-08T11:35:18Z</time>
      </trkpt>
      <trkpt lat="46.71184" lon="6.38144">
        <ele>750.1</ele>
        <time>2022-11-08T11:35:22Z</time>
      </trkpt>
      <trkpt lat="46.71186" lon="6.38136">
        <ele>751.9</ele>
        <time>2022-11-08T11:35:26Z</time>
      </trkpt>
      <trkpt lat="46.71189" lon="6.38129">
        <ele>752.8</ele>
        <time>2022-11-08T11:35:30Z</time>
      </trkpt>
      <trkpt lat="46.71192" lon="6.38123">
        <ele>752.7</ele>
        <time>2022-11-08T11:35:34Z</time>
      </trkpt>
      <trkpt lat="46.71194" lon="6.38116">
        <ele>752.4</ele>
        <time>2022-11-08T11:35:39Z</time>
      </trkpt>
      <trkpt lat="46.71195" lon="6.38109">
        <ele>752</ele>
        <time>2022-11-08T11:35:44Z</time>
      </trkpt>
      <trkpt lat="46.71197" lon="6.38103">
        <ele>751.4</ele>
        <time>2022-11-08T11:35:49Z</time>
      </trkpt>
      <trkpt lat="46.71198" lon="6.38096">
        <ele>751.2</ele>
        <time>2022-11-08T11:35:54Z</time>
      </trkpt>
      <trkpt lat="46.71195" lon="6.3809">
        <ele>751.2</ele>
        <time>2022-11-08T11:35:59Z</time>
      </trkpt>
      <trkpt lat="46.71191" lon="6.38087">
        <ele>750.6</ele>
        <time>2022-11-08T11:36:02Z</time>
      </trkpt>
      <trkpt lat="46.71186" lon="6.38085">
        <ele>750</ele>
        <time>2022-11-08T11:36:05Z</time>
      </trkpt>
      <trkpt lat="46.71181" lon="6.38084">
        <ele>749.3</ele>
        <time>2022-11-08T11:36:09Z</time>
      </trkpt>
      <trkpt lat="46.71181" lon="6.38077">
        <ele>750.5</ele>
        <time>2022-11-08T11:37:14Z</time>
      </trkpt>
      <trkpt lat="46.71183" lon="6.38079">
        <ele>747.6</ele>
        <time>2022-11-08T12:08:01Z</time>
      </trkpt>
      <trkpt lat="46.71182" lon="6.38086">
        <ele>746.6</ele>
        <time>2022-11-08T12:12:17Z</time>
      </trkpt>
      <trkpt lat="46.71186" lon="6.38082">
        <ele>746.4</ele>
        <time>2022-11-08T12:12:51Z</time>
      </trkpt>
      <trkpt lat="46.71191" lon="6.38081">
        <ele>749.2</ele>
        <time>2022-11-08T12:13:06Z</time>
      </trkpt>
      <trkpt lat="46.71195" lon="6.38078">
        <ele>750.4</ele>
        <time>2022-11-08T12:13:21Z</time>
      </trkpt>
      <trkpt lat="46.712" lon="6.38076">
        <ele>750.5</ele>
        <time>2022-11-08T12:13:26Z</time>
      </trkpt>
      <trkpt lat="46.71201" lon="6.38069">
        <ele>749.8</ele>
        <time>2022-11-08T12:13:36Z</time>
      </trkpt>
      <trkpt lat="46.71203" lon="6.38062">
        <ele>748.5</ele>
        <time>2022-11-08T12:13:43Z</time>
      </trkpt>
      <trkpt lat="46.71207" lon="6.38058">
        <ele>747.6</ele>
        <time>2022-11-08T12:13:50Z</time>
      </trkpt>
      <trkpt lat="46.71207" lon="6.38051">
        <ele>747.3</ele>
        <time>2022-11-08T12:13:58Z</time>
      </trkpt>
      <trkpt lat="46.71211" lon="6.38046">
        <ele>747.2</ele>
        <time>2022-11-08T12:14:10Z</time>
      </trkpt>
      <trkpt lat="46.71213" lon="6.38039">
        <ele>746.7</ele>
        <time>2022-11-08T12:14:15Z</time>
      </trkpt>
      <trkpt lat="46.71217" lon="6.38035">
        <ele>746.6</ele>
        <time>2022-11-08T12:14:20Z</time>
      </trkpt>
      <trkpt lat="46.71222" lon="6.38034">
        <ele>746.8</ele>
        <time>2022-11-08T12:14:23Z</time>
      </trkpt>
      <trkpt lat="46.71227" lon="6.38033">
        <ele>747.3</ele>
        <time>2022-11-08T12:14:26Z</time>
      </trkpt>
      <trkpt lat="46.71228" lon="6.38025">
        <ele>747.8</ele>
        <time>2022-11-08T12:14:32Z</time>
      </trkpt>
      <trkpt lat="46.71228" lon="6.38018">
        <ele>747.6</ele>
        <time>2022-11-08T12:14:37Z</time>
      </trkpt>
      <trkpt lat="46.7123" lon="6.38012">
        <ele>747.1</ele>
        <time>2022-11-08T12:14:44Z</time>
      </trkpt>
      <trkpt lat="46.7123" lon="6.38004">
        <ele>747</ele>
        <time>2022-11-08T12:14:52Z</time>
      </trkpt>
      <trkpt lat="46.71228" lon="6.37998">
        <ele>747</ele>
        <time>2022-11-08T12:14:57Z</time>
      </trkpt>
      <trkpt lat="46.71227" lon="6.37992">
        <ele>747.6</ele>
        <time>2022-11-08T12:15:03Z</time>
      </trkpt>
      <trkpt lat="46.71225" lon="6.37986">
        <ele>748.6</ele>
        <time>2022-11-08T12:15:11Z</time>
      </trkpt>
      <trkpt lat="46.7122" lon="6.37987">
        <ele>748.8</ele>
        <time>2022-11-08T12:15:18Z</time>
      </trkpt>
      <trkpt lat="46.71215" lon="6.37988">
        <ele>749.2</ele>
        <time>2022-11-08T12:15:23Z</time>
      </trkpt>
      <trkpt lat="46.71211" lon="6.37986">
        <ele>750.2</ele>
        <time>2022-11-08T12:15:28Z</time>
      </trkpt>
      <trkpt lat="46.71206" lon="6.37983">
        <ele>752.1</ele>
        <time>2022-11-08T12:15:33Z</time>
      </trkpt>
      <trkpt lat="46.71205" lon="6.37976">
        <ele>753.9</ele>
        <time>2022-11-08T12:15:38Z</time>
      </trkpt>
      <trkpt lat="46.71211" lon="6.37968">
        <ele>754.2</ele>
        <time>2022-11-08T12:15:41Z</time>
      </trkpt>
      <trkpt lat="46.71215" lon="6.37962">
        <ele>754.2</ele>
        <time>2022-11-08T12:15:44Z</time>
      </trkpt>
      <trkpt lat="46.71217" lon="6.37955">
        <ele>753.7</ele>
        <time>2022-11-08T12:15:48Z</time>
      </trkpt>
      <trkpt lat="46.71216" lon="6.37948">
        <ele>752.8</ele>
        <time>2022-11-08T12:15:53Z</time>
      </trkpt>
      <trkpt lat="46.71218" lon="6.37941">
        <ele>752.2</ele>
        <time>2022-11-08T12:16:00Z</time>
      </trkpt>
      <trkpt lat="46.7122" lon="6.37935">
        <ele>752.1</ele>
        <time>2022-11-08T12:16:17Z</time>
      </trkpt>
      <trkpt lat="46.71222" lon="6.37941">
        <ele>755.6</ele>
        <time>2022-11-08T12:16:26Z</time>
      </trkpt>
      <trkpt lat="46.71227" lon="6.37943">
        <ele>758.3</ele>
        <time>2022-11-08T12:16:34Z</time>
      </trkpt>
      <trkpt lat="46.7123" lon="6.37948">
        <ele>760.3</ele>
        <time>2022-11-08T12:16:40Z</time>
      </trkpt>
      <trkpt lat="46.71233" lon="6.37955">
        <ele>761.2</ele>
        <time>2022-11-08T12:16:46Z</time>
      </trkpt>
      <trkpt lat="46.71237" lon="6.37959">
        <ele>761.9</ele>
        <time>2022-11-08T12:16:54Z</time>
      </trkpt>
      <trkpt lat="46.71241" lon="6.37963">
        <ele>762.8</ele>
        <time>2022-11-08T12:17:03Z</time>
      </trkpt>
      <trkpt lat="46.71245" lon="6.37967">
        <ele>763.3</ele>
        <time>2022-11-08T12:17:08Z</time>
      </trkpt>
      <trkpt lat="46.7125" lon="6.37969">
        <ele>763.5</ele>
        <time>2022-11-08T12:17:12Z</time>
      </trkpt>
      <trkpt lat="46.71253" lon="6.37975">
        <ele>763.8</ele>
        <time>2022-11-08T12:17:17Z</time>
      </trkpt>
      <trkpt lat="46.71256" lon="6.37981">
        <ele>764.5</ele>
        <time>2022-11-08T12:17:22Z</time>
      </trkpt>
      <trkpt lat="46.71259" lon="6.37987">
        <ele>765.5</ele>
        <time>2022-11-08T12:17:27Z</time>
      </trkpt>
      <trkpt lat="46.7126" lon="6.37994">
        <ele>766.8</ele>
        <time>2022-11-08T12:17:33Z</time>
      </trkpt>
      <trkpt lat="46.71262" lon="6.38">
        <ele>767.9</ele>
        <time>2022-11-08T12:17:39Z</time>
      </trkpt>
      <trkpt lat="46.71265" lon="6.38006">
        <ele>769.1</ele>
        <time>2022-11-08T12:17:47Z</time>
      </trkpt>
      <trkpt lat="46.71268" lon="6.38013">
        <ele>770</ele>
        <time>2022-11-08T12:17:53Z</time>
      </trkpt>
      <trkpt lat="46.71269" lon="6.3802">
        <ele>770.3</ele>
        <time>2022-11-08T12:17:59Z</time>
      </trkpt>
      <trkpt lat="46.71271" lon="6.38026">
        <ele>770.2</ele>
        <time>2022-11-08T12:18:04Z</time>
      </trkpt>
      <trkpt lat="46.71272" lon="6.38033">
        <ele>769.9</ele>
        <time>2022-11-08T12:18:11Z</time>
      </trkpt>
      <trkpt lat="46.71275" lon="6.38039">
        <ele>770.6</ele>
        <time>2022-11-08T12:18:17Z</time>
      </trkpt>
      <trkpt lat="46.71279" lon="6.38043">
        <ele>771.7</ele>
        <time>2022-11-08T12:18:22Z</time>
      </trkpt>
      <trkpt lat="46.71283" lon="6.38047">
        <ele>772.9</ele>
        <time>2022-11-08T12:18:27Z</time>
      </trkpt>
      <trkpt lat="46.71286" lon="6.38052">
        <ele>773.8</ele>
        <time>2022-11-08T12:18:32Z</time>
      </trkpt>
      <trkpt lat="46.71289" lon="6.38058">
        <ele>774</ele>
        <time>2022-11-08T12:18:37Z</time>
      </trkpt>
      <trkpt lat="46.7129" lon="6.38066">
        <ele>775.6</ele>
        <time>2022-11-08T12:18:43Z</time>
      </trkpt>
      <trkpt lat="46.71295" lon="6.38071">
        <ele>776.3</ele>
        <time>2022-11-08T12:18:47Z</time>
      </trkpt>
      <trkpt lat="46.71299" lon="6.38075">
        <ele>776.9</ele>
        <time>2022-11-08T12:18:51Z</time>
      </trkpt>
      <trkpt lat="46.713" lon="6.38082">
        <ele>777.5</ele>
        <time>2022-11-08T12:18:55Z</time>
      </trkpt>
      <trkpt lat="46.71299" lon="6.38089">
        <ele>777.5</ele>
        <time>2022-11-08T12:18:59Z</time>
      </trkpt>
      <trkpt lat="46.71298" lon="6.38096">
        <ele>777.2</ele>
        <time>2022-11-08T12:19:05Z</time>
      </trkpt>
      <trkpt lat="46.713" lon="6.38103">
        <ele>777.9</ele>
        <time>2022-11-08T12:19:11Z</time>
      </trkpt>
      <trkpt lat="46.71302" lon="6.38109">
        <ele>779</ele>
        <time>2022-11-08T12:19:16Z</time>
      </trkpt>
      <trkpt lat="46.71305" lon="6.38114">
        <ele>778.8</ele>
        <time>2022-11-08T12:19:21Z</time>
      </trkpt>
      <trkpt lat="46.71305" lon="6.38106">
        <ele>771.5</ele>
        <time>2022-11-08T12:19:43Z</time>
      </trkpt>
      <trkpt lat="46.71303" lon="6.38099">
        <ele>770.3</ele>
        <time>2022-11-08T12:19:48Z</time>
      </trkpt>
      <trkpt lat="46.71305" lon="6.38092">
        <ele>769</ele>
        <time>2022-11-08T12:19:54Z</time>
      </trkpt>
      <trkpt lat="46.71308" lon="6.38085">
        <ele>768.2</ele>
        <time>2022-11-08T12:19:59Z</time>
      </trkpt>
      <trkpt lat="46.71311" lon="6.38079">
        <ele>767.7</ele>
        <time>2022-11-08T12:20:04Z</time>
      </trkpt>
      <trkpt lat="46.71315" lon="6.38074">
        <ele>767.8</ele>
        <time>2022-11-08T12:20:10Z</time>
      </trkpt>
      <trkpt lat="46.71319" lon="6.38071">
        <ele>767.6</ele>
        <time>2022-11-08T12:20:16Z</time>
      </trkpt>
      <trkpt lat="46.71323" lon="6.38067">
        <ele>767.2</ele>
        <time>2022-11-08T12:20:22Z</time>
      </trkpt>
      <trkpt lat="46.71326" lon="6.38062">
        <ele>766.7</ele>
        <time>2022-11-08T12:20:28Z</time>
      </trkpt>
      <trkpt lat="46.7133" lon="6.38057">
        <ele>766.3</ele>
        <time>2022-11-08T12:20:34Z</time>
      </trkpt>
      <trkpt lat="46.71335" lon="6.38054">
        <ele>766.2</ele>
        <time>2022-11-08T12:20:41Z</time>
      </trkpt>
      <trkpt lat="46.71336" lon="6.38048">
        <ele>766.4</ele>
        <time>2022-11-08T12:20:46Z</time>
      </trkpt>
      <trkpt lat="46.71339" lon="6.38041">
        <ele>766.5</ele>
        <time>2022-11-08T12:20:52Z</time>
      </trkpt>
      <trkpt lat="46.71343" lon="6.38036">
        <ele>766.2</ele>
        <time>2022-11-08T12:20:57Z</time>
      </trkpt>
      <trkpt lat="46.71348" lon="6.38031">
        <ele>765.9</ele>
        <time>2022-11-08T12:21:01Z</time>
      </trkpt>
      <trkpt lat="46.71352" lon="6.38027">
        <ele>765.5</ele>
        <time>2022-11-08T12:21:05Z</time>
      </trkpt>
      <trkpt lat="46.71356" lon="6.38021">
        <ele>765.7</ele>
        <time>2022-11-08T12:21:09Z</time>
      </trkpt>
      <trkpt lat="46.71358" lon="6.38014">
        <ele>766.6</ele>
        <time>2022-11-08T12:21:13Z</time>
      </trkpt>
      <trkpt lat="46.71361" lon="6.38009">
        <ele>769.2</ele>
        <time>2022-11-08T12:21:19Z</time>
      </trkpt>
      <trkpt lat="46.71365" lon="6.3801">
        <ele>773.3</ele>
        <time>2022-11-08T12:21:24Z</time>
      </trkpt>
      <trkpt lat="46.7137" lon="6.38014">
        <ele>775.3</ele>
        <time>2022-11-08T12:21:27Z</time>
      </trkpt>
      <trkpt lat="46.71374" lon="6.38017">
        <ele>776.9</ele>
        <time>2022-11-08T12:21:31Z</time>
      </trkpt>
      <trkpt lat="46.71379" lon="6.38022">
        <ele>777.9</ele>
        <time>2022-11-08T12:21:35Z</time>
      </trkpt>
      <trkpt lat="46.71383" lon="6.38027">
        <ele>779</ele>
        <time>2022-11-08T12:21:39Z</time>
      </trkpt>
      <trkpt lat="46.71387" lon="6.38032">
        <ele>780.5</ele>
        <time>2022-11-08T12:21:43Z</time>
      </trkpt>
      <trkpt lat="46.71391" lon="6.38035">
        <ele>781.6</ele>
        <time>2022-11-08T12:21:48Z</time>
      </trkpt>
      <trkpt lat="46.71395" lon="6.38041">
        <ele>781.8</ele>
        <time>2022-11-08T12:21:54Z</time>
      </trkpt>
      <trkpt lat="46.71397" lon="6.38047">
        <ele>780.5</ele>
        <time>2022-11-08T12:22:00Z</time>
      </trkpt>
      <trkpt lat="46.714" lon="6.38053">
        <ele>778.5</ele>
        <time>2022-11-08T12:22:06Z</time>
      </trkpt>
      <trkpt lat="46.71403" lon="6.38058">
        <ele>776.8</ele>
        <time>2022-11-08T12:22:13Z</time>
      </trkpt>
      <trkpt lat="46.71408" lon="6.38062">
        <ele>776</ele>
        <time>2022-11-08T12:22:18Z</time>
      </trkpt>
      <trkpt lat="46.71412" lon="6.38065">
        <ele>774.8</ele>
        <time>2022-11-08T12:22:24Z</time>
      </trkpt>
      <trkpt lat="46.71417" lon="6.38068">
        <ele>774.1</ele>
        <time>2022-11-08T12:22:29Z</time>
      </trkpt>
      <trkpt lat="46.71422" lon="6.38071">
        <ele>773.7</ele>
        <time>2022-11-08T12:22:34Z</time>
      </trkpt>
      <trkpt lat="46.71427" lon="6.38073">
        <ele>773.8</ele>
        <time>2022-11-08T12:22:38Z</time>
      </trkpt>
      <trkpt lat="46.71431" lon="6.38075">
        <ele>774.3</ele>
        <time>2022-11-08T12:22:42Z</time>
      </trkpt>
      <trkpt lat="46.71435" lon="6.38078">
        <ele>774.8</ele>
        <time>2022-11-08T12:22:47Z</time>
      </trkpt>
      <trkpt lat="46.7144" lon="6.38082">
        <ele>775.8</ele>
        <time>2022-11-08T12:22:52Z</time>
      </trkpt>
      <trkpt lat="46.71443" lon="6.38087">
        <ele>777</ele>
        <time>2022-11-08T12:22:57Z</time>
      </trkpt>
      <trkpt lat="46.71446" lon="6.38094">
        <ele>777.3</ele>
        <time>2022-11-08T12:23:02Z</time>
      </trkpt>
      <trkpt lat="46.7145" lon="6.38098">
        <ele>777.1</ele>
        <time>2022-11-08T12:23:08Z</time>
      </trkpt>
      <trkpt lat="46.71453" lon="6.38103">
        <ele>777.2</ele>
        <time>2022-11-08T12:23:13Z</time>
      </trkpt>
      <trkpt lat="46.71457" lon="6.38109">
        <ele>777.3</ele>
        <time>2022-11-08T12:23:18Z</time>
      </trkpt>
      <trkpt lat="46.71461" lon="6.38113">
        <ele>777.6</ele>
        <time>2022-11-08T12:23:23Z</time>
      </trkpt>
      <trkpt lat="46.71464" lon="6.38119">
        <ele>777.8</ele>
        <time>2022-11-08T12:23:29Z</time>
      </trkpt>
      <trkpt lat="46.71467" lon="6.38124">
        <ele>778.3</ele>
        <time>2022-11-08T12:23:35Z</time>
      </trkpt>
      <trkpt lat="46.7147" lon="6.38128">
        <ele>778.8</ele>
        <time>2022-11-08T12:23:39Z</time>
      </trkpt>
      <trkpt lat="46.71474" lon="6.38133">
        <ele>779.3</ele>
        <time>2022-11-08T12:23:43Z</time>
      </trkpt>
      <trkpt lat="46.71477" lon="6.38139">
        <ele>779.8</ele>
        <time>2022-11-08T12:23:49Z</time>
      </trkpt>
      <trkpt lat="46.7148" lon="6.38145">
        <ele>779.9</ele>
        <time>2022-11-08T12:23:54Z</time>
      </trkpt>
      <trkpt lat="46.71485" lon="6.3815">
        <ele>780.3</ele>
        <time>2022-11-08T12:23:59Z</time>
      </trkpt>
      <trkpt lat="46.7149" lon="6.38152">
        <ele>780.3</ele>
        <time>2022-11-08T12:24:03Z</time>
      </trkpt>
      <trkpt lat="46.71495" lon="6.38156">
        <ele>780.4</ele>
        <time>2022-11-08T12:24:07Z</time>
      </trkpt>
      <trkpt lat="46.71498" lon="6.38162">
        <ele>781</ele>
        <time>2022-11-08T12:24:11Z</time>
      </trkpt>
      <trkpt lat="46.715" lon="6.38168">
        <ele>781.6</ele>
        <time>2022-11-08T12:24:15Z</time>
      </trkpt>
      <trkpt lat="46.71502" lon="6.38174">
        <ele>782.6</ele>
        <time>2022-11-08T12:24:20Z</time>
      </trkpt>
      <trkpt lat="46.71506" lon="6.3818">
        <ele>783.8</ele>
        <time>2022-11-08T12:24:25Z</time>
      </trkpt>
      <trkpt lat="46.71509" lon="6.38186">
        <ele>785.1</ele>
        <time>2022-11-08T12:24:30Z</time>
      </trkpt>
      <trkpt lat="46.71513" lon="6.3819">
        <ele>785.8</ele>
        <time>2022-11-08T12:24:35Z</time>
      </trkpt>
      <trkpt lat="46.71517" lon="6.38194">
        <ele>786.4</ele>
        <time>2022-11-08T12:24:41Z</time>
      </trkpt>
      <trkpt lat="46.71522" lon="6.38197">
        <ele>786.8</ele>
        <time>2022-11-08T12:24:47Z</time>
      </trkpt>
      <trkpt lat="46.71524" lon="6.38204">
        <ele>787.7</ele>
        <time>2022-11-08T12:24:53Z</time>
      </trkpt>
      <trkpt lat="46.71526" lon="6.38211">
        <ele>789</ele>
        <time>2022-11-08T12:24:58Z</time>
      </trkpt>
      <trkpt lat="46.71529" lon="6.38218">
        <ele>790.3</ele>
        <time>2022-11-08T12:25:03Z</time>
      </trkpt>
      <trkpt lat="46.71533" lon="6.38223">
        <ele>791.8</ele>
        <time>2022-11-08T12:25:08Z</time>
      </trkpt>
      <trkpt lat="46.71536" lon="6.38227">
        <ele>792.3</ele>
        <time>2022-11-08T12:25:13Z</time>
      </trkpt>
      <trkpt lat="46.71539" lon="6.38234">
        <ele>792.5</ele>
        <time>2022-11-08T12:25:19Z</time>
      </trkpt>
      <trkpt lat="46.71541" lon="6.3824">
        <ele>792.4</ele>
        <time>2022-11-08T12:25:24Z</time>
      </trkpt>
      <trkpt lat="46.71543" lon="6.38248">
        <ele>792</ele>
        <time>2022-11-08T12:25:29Z</time>
      </trkpt>
      <trkpt lat="46.71547" lon="6.38253">
        <ele>792</ele>
        <time>2022-11-08T12:25:37Z</time>
      </trkpt>
      <trkpt lat="46.7155" lon="6.38259">
        <ele>792.4</ele>
        <time>2022-11-08T12:25:42Z</time>
      </trkpt>
      <trkpt lat="46.71554" lon="6.38264">
        <ele>792.7</ele>
        <time>2022-11-08T12:25:47Z</time>
      </trkpt>
      <trkpt lat="46.71557" lon="6.3827">
        <ele>792.7</ele>
        <time>2022-11-08T12:25:53Z</time>
      </trkpt>
      <trkpt lat="46.7156" lon="6.38276">
        <ele>793</ele>
        <time>2022-11-08T12:25:57Z</time>
      </trkpt>
      <trkpt lat="46.71563" lon="6.38282">
        <ele>793.5</ele>
        <time>2022-11-08T12:26:01Z</time>
      </trkpt>
      <trkpt lat="46.71565" lon="6.38289">
        <ele>794.3</ele>
        <time>2022-11-08T12:26:05Z</time>
      </trkpt>
      <trkpt lat="46.71568" lon="6.38295">
        <ele>795.5</ele>
        <time>2022-11-08T12:26:10Z</time>
      </trkpt>
      <trkpt lat="46.71568" lon="6.38303">
        <ele>796.1</ele>
        <time>2022-11-08T12:26:15Z</time>
      </trkpt>
      <trkpt lat="46.71569" lon="6.3831">
        <ele>796.6</ele>
        <time>2022-11-08T12:26:19Z</time>
      </trkpt>
      <trkpt lat="46.71571" lon="6.38317">
        <ele>797.6</ele>
        <time>2022-11-08T12:26:24Z</time>
      </trkpt>
      <trkpt lat="46.71573" lon="6.38323">
        <ele>798.8</ele>
        <time>2022-11-08T12:26:29Z</time>
      </trkpt>
      <trkpt lat="46.71575" lon="6.38329">
        <ele>799.5</ele>
        <time>2022-11-08T12:26:34Z</time>
      </trkpt>
      <trkpt lat="46.71576" lon="6.38336">
        <ele>799.6</ele>
        <time>2022-11-08T12:26:39Z</time>
      </trkpt>
      <trkpt lat="46.71576" lon="6.38343">
        <ele>799.6</ele>
        <time>2022-11-08T12:26:43Z</time>
      </trkpt>
      <trkpt lat="46.71575" lon="6.3835">
        <ele>799.5</ele>
        <time>2022-11-08T12:26:47Z</time>
      </trkpt>
      <trkpt lat="46.71574" lon="6.38357">
        <ele>799.3</ele>
        <time>2022-11-08T12:26:52Z</time>
      </trkpt>
      <trkpt lat="46.71576" lon="6.38365">
        <ele>799.7</ele>
        <time>2022-11-08T12:26:58Z</time>
      </trkpt>
      <trkpt lat="46.71579" lon="6.3837">
        <ele>800.2</ele>
        <time>2022-11-08T12:27:01Z</time>
      </trkpt>
      <trkpt lat="46.71581" lon="6.38376">
        <ele>800</ele>
        <time>2022-11-08T12:27:06Z</time>
      </trkpt>
      <trkpt lat="46.71581" lon="6.38383">
        <ele>799.2</ele>
        <time>2022-11-08T12:27:12Z</time>
      </trkpt>
      <trkpt lat="46.71582" lon="6.3839">
        <ele>798.7</ele>
        <time>2022-11-08T12:27:17Z</time>
      </trkpt>
      <trkpt lat="46.71583" lon="6.38398">
        <ele>798.2</ele>
        <time>2022-11-08T12:27:23Z</time>
      </trkpt>
      <trkpt lat="46.71585" lon="6.38404">
        <ele>797.8</ele>
        <time>2022-11-08T12:27:30Z</time>
      </trkpt>
      <trkpt lat="46.71587" lon="6.38412">
        <ele>797.3</ele>
        <time>2022-11-08T12:27:35Z</time>
      </trkpt>
      <trkpt lat="46.71589" lon="6.38419">
        <ele>797</ele>
        <time>2022-11-08T12:27:40Z</time>
      </trkpt>
      <trkpt lat="46.71591" lon="6.38426">
        <ele>797</ele>
        <time>2022-11-08T12:27:45Z</time>
      </trkpt>
      <trkpt lat="46.71594" lon="6.38432">
        <ele>797</ele>
        <time>2022-11-08T12:27:50Z</time>
      </trkpt>
      <trkpt lat="46.71596" lon="6.38438">
        <ele>797.1</ele>
        <time>2022-11-08T12:27:54Z</time>
      </trkpt>
      <trkpt lat="46.716" lon="6.38444">
        <ele>797.1</ele>
        <time>2022-11-08T12:27:59Z</time>
      </trkpt>
      <trkpt lat="46.71601" lon="6.3845">
        <ele>797.1</ele>
        <time>2022-11-08T12:28:04Z</time>
      </trkpt>
      <trkpt lat="46.71604" lon="6.38456">
        <ele>796.8</ele>
        <time>2022-11-08T12:28:09Z</time>
      </trkpt>
      <trkpt lat="46.71606" lon="6.38463">
        <ele>796.5</ele>
        <time>2022-11-08T12:28:13Z</time>
      </trkpt>
      <trkpt lat="46.71609" lon="6.38469">
        <ele>796.5</ele>
        <time>2022-11-08T12:28:18Z</time>
      </trkpt>
      <trkpt lat="46.71612" lon="6.38475">
        <ele>797</ele>
        <time>2022-11-08T12:28:23Z</time>
      </trkpt>
      <trkpt lat="46.71616" lon="6.3848">
        <ele>797.8</ele>
        <time>2022-11-08T12:28:28Z</time>
      </trkpt>
      <trkpt lat="46.71618" lon="6.38487">
        <ele>798.2</ele>
        <time>2022-11-08T12:28:33Z</time>
      </trkpt>
      <trkpt lat="46.7162" lon="6.38494">
        <ele>797.7</ele>
        <time>2022-11-08T12:28:39Z</time>
      </trkpt>
      <trkpt lat="46.71623" lon="6.385">
        <ele>797.7</ele>
        <time>2022-11-08T12:28:44Z</time>
      </trkpt>
      <trkpt lat="46.71626" lon="6.38506">
        <ele>797.7</ele>
        <time>2022-11-08T12:28:49Z</time>
      </trkpt>
      <trkpt lat="46.71629" lon="6.38513">
        <ele>797.7</ele>
        <time>2022-11-08T12:28:54Z</time>
      </trkpt>
      <trkpt lat="46.71632" lon="6.38519">
        <ele>797.4</ele>
        <time>2022-11-08T12:29:00Z</time>
      </trkpt>
      <trkpt lat="46.71635" lon="6.38525">
        <ele>797.7</ele>
        <time>2022-11-08T12:29:06Z</time>
      </trkpt>
      <trkpt lat="46.71638" lon="6.3853">
        <ele>798</ele>
        <time>2022-11-08T12:29:11Z</time>
      </trkpt>
      <trkpt lat="46.7164" lon="6.38537">
        <ele>798</ele>
        <time>2022-11-08T12:29:16Z</time>
      </trkpt>
      <trkpt lat="46.71643" lon="6.38543">
        <ele>798</ele>
        <time>2022-11-08T12:29:21Z</time>
      </trkpt>
      <trkpt lat="46.71647" lon="6.38549">
        <ele>798.4</ele>
        <time>2022-11-08T12:29:26Z</time>
      </trkpt>
      <trkpt lat="46.7165" lon="6.38555">
        <ele>798.6</ele>
        <time>2022-11-08T12:29:31Z</time>
      </trkpt>
      <trkpt lat="46.71653" lon="6.3856">
        <ele>798.8</ele>
        <time>2022-11-08T12:29:35Z</time>
      </trkpt>
      <trkpt lat="46.71656" lon="6.38567">
        <ele>799.4</ele>
        <time>2022-11-08T12:29:41Z</time>
      </trkpt>
      <trkpt lat="46.7166" lon="6.38572">
        <ele>799.8</ele>
        <time>2022-11-08T12:29:46Z</time>
      </trkpt>
      <trkpt lat="46.71662" lon="6.38578">
        <ele>800.7</ele>
        <time>2022-11-08T12:29:51Z</time>
      </trkpt>
      <trkpt lat="46.71665" lon="6.38584">
        <ele>801.4</ele>
        <time>2022-11-08T12:29:56Z</time>
      </trkpt>
      <trkpt lat="46.71668" lon="6.3859">
        <ele>801.9</ele>
        <time>2022-11-08T12:30:01Z</time>
      </trkpt>
      <trkpt lat="46.71671" lon="6.38595">
        <ele>802.3</ele>
        <time>2022-11-08T12:30:07Z</time>
      </trkpt>
      <trkpt lat="46.71675" lon="6.386">
        <ele>802.8</ele>
        <time>2022-11-08T12:30:13Z</time>
      </trkpt>
      <trkpt lat="46.71678" lon="6.38605">
        <ele>803</ele>
        <time>2022-11-08T12:30:18Z</time>
      </trkpt>
      <trkpt lat="46.71681" lon="6.3861">
        <ele>803.1</ele>
        <time>2022-11-08T12:30:22Z</time>
      </trkpt>
      <trkpt lat="46.71685" lon="6.38615">
        <ele>803.2</ele>
        <time>2022-11-08T12:30:27Z</time>
      </trkpt>
      <trkpt lat="46.71689" lon="6.3862">
        <ele>803.4</ele>
        <time>2022-11-08T12:30:32Z</time>
      </trkpt>
      <trkpt lat="46.71692" lon="6.38625">
        <ele>803.9</ele>
        <time>2022-11-08T12:30:36Z</time>
      </trkpt>
      <trkpt lat="46.71696" lon="6.38629">
        <ele>804.4</ele>
        <time>2022-11-08T12:30:40Z</time>
      </trkpt>
      <trkpt lat="46.71699" lon="6.38634">
        <ele>804.9</ele>
        <time>2022-11-08T12:30:44Z</time>
      </trkpt>
      <trkpt lat="46.71704" lon="6.38638">
        <ele>805.5</ele>
        <time>2022-11-08T12:30:49Z</time>
      </trkpt>
      <trkpt lat="46.71708" lon="6.38642">
        <ele>806.5</ele>
        <time>2022-11-08T12:30:53Z</time>
      </trkpt>
      <trkpt lat="46.71713" lon="6.38644">
        <ele>807.3</ele>
        <time>2022-11-08T12:30:57Z</time>
      </trkpt>
      <trkpt lat="46.71718" lon="6.38647">
        <ele>807.7</ele>
        <time>2022-11-08T12:31:02Z</time>
      </trkpt>
      <trkpt lat="46.71723" lon="6.38649">
        <ele>807.8</ele>
        <time>2022-11-08T12:31:07Z</time>
      </trkpt>
      <trkpt lat="46.71728" lon="6.38649">
        <ele>807.7</ele>
        <time>2022-11-08T12:31:13Z</time>
      </trkpt>
      <trkpt lat="46.71732" lon="6.38647">
        <ele>809.4</ele>
        <time>2022-11-08T12:31:22Z</time>
      </trkpt>
      <trkpt lat="46.71737" lon="6.38645">
        <ele>809.5</ele>
        <time>2022-11-08T12:31:28Z</time>
      </trkpt>
      <trkpt lat="46.71742" lon="6.38643">
        <ele>809.4</ele>
        <time>2022-11-08T12:31:31Z</time>
      </trkpt>
      <trkpt lat="46.71746" lon="6.38641">
        <ele>809.1</ele>
        <time>2022-11-08T12:31:35Z</time>
      </trkpt>
      <trkpt lat="46.7175" lon="6.38637">
        <ele>808.7</ele>
        <time>2022-11-08T12:31:39Z</time>
      </trkpt>
      <trkpt lat="46.71753" lon="6.38631">
        <ele>808.6</ele>
        <time>2022-11-08T12:31:43Z</time>
      </trkpt>
      <trkpt lat="46.71758" lon="6.38628">
        <ele>808.7</ele>
        <time>2022-11-08T12:31:53Z</time>
      </trkpt>
      <trkpt lat="46.71761" lon="6.38622">
        <ele>809.1</ele>
        <time>2022-11-08T12:32:00Z</time>
      </trkpt>
      <trkpt lat="46.71764" lon="6.38616">
        <ele>809.6</ele>
        <time>2022-11-08T12:32:06Z</time>
      </trkpt>
      <trkpt lat="46.71768" lon="6.38611">
        <ele>810.5</ele>
        <time>2022-11-08T12:32:11Z</time>
      </trkpt>
      <trkpt lat="46.71773" lon="6.3861">
        <ele>812.2</ele>
        <time>2022-11-08T12:32:20Z</time>
      </trkpt>
      <trkpt lat="46.71777" lon="6.3861">
        <ele>812.8</ele>
        <time>2022-11-08T12:32:29Z</time>
      </trkpt>
      <trkpt lat="46.71782" lon="6.38611">
        <ele>812.3</ele>
        <time>2022-11-08T12:32:35Z</time>
      </trkpt>
      <trkpt lat="46.71787" lon="6.38611">
        <ele>812.1</ele>
        <time>2022-11-08T12:32:40Z</time>
      </trkpt>
      <trkpt lat="46.71792" lon="6.38612">
        <ele>811.8</ele>
        <time>2022-11-08T12:32:44Z</time>
      </trkpt>
      <trkpt lat="46.71797" lon="6.38613">
        <ele>811.5</ele>
        <time>2022-11-08T12:32:49Z</time>
      </trkpt>
      <trkpt lat="46.71802" lon="6.38615">
        <ele>813.9</ele>
        <time>2022-11-08T12:32:55Z</time>
      </trkpt>
      <trkpt lat="46.71807" lon="6.38615">
        <ele>817.7</ele>
        <time>2022-11-08T12:33:00Z</time>
      </trkpt>
      <trkpt lat="46.71812" lon="6.38617">
        <ele>820.8</ele>
        <time>2022-11-08T12:33:06Z</time>
      </trkpt>
      <trkpt lat="46.71817" lon="6.3862">
        <ele>821.8</ele>
        <time>2022-11-08T12:33:11Z</time>
      </trkpt>
      <trkpt lat="46.71821" lon="6.38622">
        <ele>822.3</ele>
        <time>2022-11-08T12:33:16Z</time>
      </trkpt>
      <trkpt lat="46.71826" lon="6.38624">
        <ele>822.5</ele>
        <time>2022-11-08T12:33:20Z</time>
      </trkpt>
      <trkpt lat="46.71831" lon="6.38626">
        <ele>823</ele>
        <time>2022-11-08T12:33:23Z</time>
      </trkpt>
      <trkpt lat="46.71836" lon="6.38626">
        <ele>823.7</ele>
        <time>2022-11-08T12:33:32Z</time>
      </trkpt>
      <trkpt lat="46.7184" lon="6.38625">
        <ele>823.5</ele>
        <time>2022-11-08T12:33:37Z</time>
      </trkpt>
      <trkpt lat="46.71845" lon="6.38621">
        <ele>823.1</ele>
        <time>2022-11-08T12:33:42Z</time>
      </trkpt>
      <trkpt lat="46.71849" lon="6.38616">
        <ele>822.7</ele>
        <time>2022-11-08T12:33:47Z</time>
      </trkpt>
      <trkpt lat="46.71851" lon="6.3861">
        <ele>822.9</ele>
        <time>2022-11-08T12:33:53Z</time>
      </trkpt>
      <trkpt lat="46.71853" lon="6.38604">
        <ele>823.4</ele>
        <time>2022-11-08T12:33:58Z</time>
      </trkpt>
      <trkpt lat="46.71856" lon="6.38599">
        <ele>824.3</ele>
        <time>2022-11-08T12:34:04Z</time>
      </trkpt>
      <trkpt lat="46.7186" lon="6.38595">
        <ele>824.5</ele>
        <time>2022-11-08T12:34:13Z</time>
      </trkpt>
      <trkpt lat="46.71865" lon="6.38596">
        <ele>824.4</ele>
        <time>2022-11-08T12:34:19Z</time>
      </trkpt>
      <trkpt lat="46.7187" lon="6.38597">
        <ele>823.6</ele>
        <time>2022-11-08T12:34:31Z</time>
      </trkpt>
      <trkpt lat="46.71874" lon="6.386">
        <ele>822</ele>
        <time>2022-11-08T12:34:44Z</time>
      </trkpt>
      <trkpt lat="46.71879" lon="6.38601">
        <ele>821.4</ele>
        <time>2022-11-08T12:34:50Z</time>
      </trkpt>
      <trkpt lat="46.71883" lon="6.38604">
        <ele>821.6</ele>
        <time>2022-11-08T12:34:56Z</time>
      </trkpt>
      <trkpt lat="46.71888" lon="6.38606">
        <ele>822</ele>
        <time>2022-11-08T12:35:02Z</time>
      </trkpt>
      <trkpt lat="46.71893" lon="6.38609">
        <ele>821.4</ele>
        <time>2022-11-08T12:35:06Z</time>
      </trkpt>
      <trkpt lat="46.71898" lon="6.3861">
        <ele>821</ele>
        <time>2022-11-08T12:35:09Z</time>
      </trkpt>
      <trkpt lat="46.71902" lon="6.38611">
        <ele>820.3</ele>
        <time>2022-11-08T12:35:12Z</time>
      </trkpt>
      <trkpt lat="46.71908" lon="6.38611">
        <ele>819.1</ele>
        <time>2022-11-08T12:35:17Z</time>
      </trkpt>
      <trkpt lat="46.71913" lon="6.38612">
        <ele>818.6</ele>
        <time>2022-11-08T12:35:22Z</time>
      </trkpt>
      <trkpt lat="46.71917" lon="6.38615">
        <ele>818.6</ele>
        <time>2022-11-08T12:35:28Z</time>
      </trkpt>
      <trkpt lat="46.71922" lon="6.38618">
        <ele>818.6</ele>
        <time>2022-11-08T12:35:32Z</time>
      </trkpt>
      <trkpt lat="46.71926" lon="6.38619">
        <ele>818.6</ele>
        <time>2022-11-08T12:35:36Z</time>
      </trkpt>
      <trkpt lat="46.71932" lon="6.3862">
        <ele>818.1</ele>
        <time>2022-11-08T12:35:42Z</time>
      </trkpt>
      <trkpt lat="46.71937" lon="6.38622">
        <ele>818.1</ele>
        <time>2022-11-08T12:35:46Z</time>
      </trkpt>
      <trkpt lat="46.71942" lon="6.38622">
        <ele>818</ele>
        <time>2022-11-08T12:35:50Z</time>
      </trkpt>
      <trkpt lat="46.71947" lon="6.38623">
        <ele>818.2</ele>
        <time>2022-11-08T12:35:54Z</time>
      </trkpt>
      <trkpt lat="46.71952" lon="6.38626">
        <ele>818.3</ele>
        <time>2022-11-08T12:35:58Z</time>
      </trkpt>
      <trkpt lat="46.71956" lon="6.38628">
        <ele>818</ele>
        <time>2022-11-08T12:36:03Z</time>
      </trkpt>
      <trkpt lat="46.71961" lon="6.38629">
        <ele>817.9</ele>
        <time>2022-11-08T12:36:17Z</time>
      </trkpt>
      <trkpt lat="46.71966" lon="6.3863">
        <ele>817.5</ele>
        <time>2022-11-08T12:36:25Z</time>
      </trkpt>
      <trkpt lat="46.71971" lon="6.3863">
        <ele>817.9</ele>
        <time>2022-11-08T12:36:32Z</time>
      </trkpt>
      <trkpt lat="46.71976" lon="6.38631">
        <ele>818.4</ele>
        <time>2022-11-08T12:36:38Z</time>
      </trkpt>
      <trkpt lat="46.7198" lon="6.38629">
        <ele>819.1</ele>
        <time>2022-11-08T12:36:46Z</time>
      </trkpt>
      <trkpt lat="46.71985" lon="6.38628">
        <ele>820.4</ele>
        <time>2022-11-08T12:36:54Z</time>
      </trkpt>
      <trkpt lat="46.7199" lon="6.38626">
        <ele>821.4</ele>
        <time>2022-11-08T12:37:00Z</time>
      </trkpt>
      <trkpt lat="46.71996" lon="6.38628">
        <ele>823.1</ele>
        <time>2022-11-08T12:37:54Z</time>
      </trkpt>
      <trkpt lat="46.72001" lon="6.38627">
        <ele>823.9</ele>
        <time>2022-11-08T12:37:58Z</time>
      </trkpt>
      <trkpt lat="46.72005" lon="6.38626">
        <ele>824.4</ele>
        <time>2022-11-08T12:38:03Z</time>
      </trkpt>
      <trkpt lat="46.7201" lon="6.38627">
        <ele>824.8</ele>
        <time>2022-11-08T12:38:11Z</time>
      </trkpt>
      <trkpt lat="46.72014" lon="6.38631">
        <ele>825.7</ele>
        <time>2022-11-08T12:38:18Z</time>
      </trkpt>
      <trkpt lat="46.72019" lon="6.38632">
        <ele>826.4</ele>
        <time>2022-11-08T12:38:25Z</time>
      </trkpt>
      <trkpt lat="46.72023" lon="6.38636">
        <ele>826.7</ele>
        <time>2022-11-08T12:38:39Z</time>
      </trkpt>
      <trkpt lat="46.72027" lon="6.3864">
        <ele>827</ele>
        <time>2022-11-08T12:38:50Z</time>
      </trkpt>
      <trkpt lat="46.72032" lon="6.38642">
        <ele>827.4</ele>
        <time>2022-11-08T12:38:55Z</time>
      </trkpt>
      <trkpt lat="46.72037" lon="6.38644">
        <ele>827.6</ele>
        <time>2022-11-08T12:39:01Z</time>
      </trkpt>
      <trkpt lat="46.72041" lon="6.38646">
        <ele>827.3</ele>
        <time>2022-11-08T12:39:07Z</time>
      </trkpt>
      <trkpt lat="46.72046" lon="6.38648">
        <ele>826.7</ele>
        <time>2022-11-08T12:39:12Z</time>
      </trkpt>
      <trkpt lat="46.7205" lon="6.3865">
        <ele>827</ele>
        <time>2022-11-08T12:39:18Z</time>
      </trkpt>
      <trkpt lat="46.72056" lon="6.38653">
        <ele>827.1</ele>
        <time>2022-11-08T12:39:23Z</time>
      </trkpt>
      <trkpt lat="46.72061" lon="6.38655">
        <ele>826.9</ele>
        <time>2022-11-08T12:39:29Z</time>
      </trkpt>
      <trkpt lat="46.72066" lon="6.38658">
        <ele>826.6</ele>
        <time>2022-11-08T12:39:35Z</time>
      </trkpt>
      <trkpt lat="46.72071" lon="6.38661">
        <ele>827</ele>
        <time>2022-11-08T12:39:41Z</time>
      </trkpt>
      <trkpt lat="46.72075" lon="6.38662">
        <ele>827.1</ele>
        <time>2022-11-08T12:39:45Z</time>
      </trkpt>
      <trkpt lat="46.7208" lon="6.38664">
        <ele>826.9</ele>
        <time>2022-11-08T12:39:50Z</time>
      </trkpt>
      <trkpt lat="46.72085" lon="6.38666">
        <ele>826.6</ele>
        <time>2022-11-08T12:39:55Z</time>
      </trkpt>
      <trkpt lat="46.72091" lon="6.38669">
        <ele>826.6</ele>
        <time>2022-11-08T12:40:00Z</time>
      </trkpt>
      <trkpt lat="46.72095" lon="6.38672">
        <ele>826.6</ele>
        <time>2022-11-08T12:40:03Z</time>
      </trkpt>
      <trkpt lat="46.721" lon="6.38676">
        <ele>826.6</ele>
        <time>2022-11-08T12:40:07Z</time>
      </trkpt>
      <trkpt lat="46.72104" lon="6.38677">
        <ele>826.4</ele>
        <time>2022-11-08T12:40:11Z</time>
      </trkpt>
      <trkpt lat="46.72109" lon="6.38679">
        <ele>826.2</ele>
        <time>2022-11-08T12:40:17Z</time>
      </trkpt>
      <trkpt lat="46.72114" lon="6.38681">
        <ele>826.2</ele>
        <time>2022-11-08T12:40:23Z</time>
      </trkpt>
      <trkpt lat="46.72119" lon="6.38682">
        <ele>826</ele>
        <time>2022-11-08T12:40:28Z</time>
      </trkpt>
      <trkpt lat="46.72124" lon="6.38686">
        <ele>825.5</ele>
        <time>2022-11-08T12:40:34Z</time>
      </trkpt>
      <trkpt lat="46.72128" lon="6.38688">
        <ele>825.5</ele>
        <time>2022-11-08T12:40:41Z</time>
      </trkpt>
      <trkpt lat="46.72133" lon="6.38689">
        <ele>825.7</ele>
        <time>2022-11-08T12:40:47Z</time>
      </trkpt>
      <trkpt lat="46.72138" lon="6.38691">
        <ele>826.4</ele>
        <time>2022-11-08T12:40:53Z</time>
      </trkpt>
      <trkpt lat="46.72141" lon="6.38697">
        <ele>827.6</ele>
        <time>2022-11-08T12:41:03Z</time>
      </trkpt>
      <trkpt lat="46.72145" lon="6.38694">
        <ele>829.9</ele>
        <time>2022-11-08T12:41:18Z</time>
      </trkpt>
      <trkpt lat="46.7215" lon="6.38694">
        <ele>829.7</ele>
        <time>2022-11-08T12:41:25Z</time>
      </trkpt>
      <trkpt lat="46.72155" lon="6.38695">
        <ele>829.7</ele>
        <time>2022-11-08T12:41:29Z</time>
      </trkpt>
      <trkpt lat="46.7216" lon="6.38695">
        <ele>829.7</ele>
        <time>2022-11-08T12:41:33Z</time>
      </trkpt>
      <trkpt lat="46.72164" lon="6.38695">
        <ele>829.7</ele>
        <time>2022-11-08T12:41:37Z</time>
      </trkpt>
      <trkpt lat="46.72169" lon="6.38696">
        <ele>829</ele>
        <time>2022-11-08T12:41:44Z</time>
      </trkpt>
      <trkpt lat="46.72175" lon="6.38695">
        <ele>827.9</ele>
        <time>2022-11-08T12:41:51Z</time>
      </trkpt>
      <trkpt lat="46.72179" lon="6.38694">
        <ele>827.3</ele>
        <time>2022-11-08T12:41:54Z</time>
      </trkpt>
      <trkpt lat="46.72184" lon="6.3869">
        <ele>826.5</ele>
        <time>2022-11-08T12:41:59Z</time>
      </trkpt>
      <trkpt lat="46.72189" lon="6.38687">
        <ele>825.7</ele>
        <time>2022-11-08T12:42:04Z</time>
      </trkpt>
      <trkpt lat="46.72192" lon="6.38682">
        <ele>825.6</ele>
        <time>2022-11-08T12:42:10Z</time>
      </trkpt>
      <trkpt lat="46.72197" lon="6.38682">
        <ele>825.8</ele>
        <time>2022-11-08T12:42:17Z</time>
      </trkpt>
      <trkpt lat="46.72203" lon="6.38682">
        <ele>825.5</ele>
        <time>2022-11-08T12:42:22Z</time>
      </trkpt>
      <trkpt lat="46.72207" lon="6.38684">
        <ele>824.9</ele>
        <time>2022-11-08T12:42:26Z</time>
      </trkpt>
      <trkpt lat="46.72211" lon="6.38687">
        <ele>823.9</ele>
        <time>2022-11-08T12:42:31Z</time>
      </trkpt>
      <trkpt lat="46.72216" lon="6.38688">
        <ele>822.4</ele>
        <time>2022-11-08T12:42:38Z</time>
      </trkpt>
      <trkpt lat="46.72221" lon="6.38687">
        <ele>821.7</ele>
        <time>2022-11-08T12:42:43Z</time>
      </trkpt>
      <trkpt lat="46.72225" lon="6.38688">
        <ele>821.4</ele>
        <time>2022-11-08T12:42:47Z</time>
      </trkpt>
      <trkpt lat="46.7223" lon="6.38688">
        <ele>821.2</ele>
        <time>2022-11-08T12:42:52Z</time>
      </trkpt>
      <trkpt lat="46.72234" lon="6.38687">
        <ele>822.1</ele>
        <time>2022-11-08T12:42:58Z</time>
      </trkpt>
      <trkpt lat="46.7224" lon="6.38686">
        <ele>822.3</ele>
        <time>2022-11-08T12:43:03Z</time>
      </trkpt>
      <trkpt lat="46.72245" lon="6.38683">
        <ele>822.2</ele>
        <time>2022-11-08T12:43:07Z</time>
      </trkpt>
      <trkpt lat="46.72249" lon="6.38681">
        <ele>822.8</ele>
        <time>2022-11-08T12:43:12Z</time>
      </trkpt>
      <trkpt lat="46.72254" lon="6.38681">
        <ele>824</ele>
        <time>2022-11-08T12:43:16Z</time>
      </trkpt>
      <trkpt lat="46.72259" lon="6.38682">
        <ele>825.1</ele>
        <time>2022-11-08T12:43:20Z</time>
      </trkpt>
      <trkpt lat="46.72264" lon="6.38681">
        <ele>825.9</ele>
        <time>2022-11-08T12:43:25Z</time>
      </trkpt>
      <trkpt lat="46.7227" lon="6.38679">
        <ele>826.7</ele>
        <time>2022-11-08T12:43:30Z</time>
      </trkpt>
      <trkpt lat="46.72274" lon="6.3868">
        <ele>826.7</ele>
        <time>2022-11-08T12:43:36Z</time>
      </trkpt>
      <trkpt lat="46.72279" lon="6.3868">
        <ele>826.2</ele>
        <time>2022-11-08T12:43:43Z</time>
      </trkpt>
      <trkpt lat="46.72284" lon="6.38681">
        <ele>826.6</ele>
        <time>2022-11-08T12:43:49Z</time>
      </trkpt>
      <trkpt lat="46.72289" lon="6.38681">
        <ele>827.6</ele>
        <time>2022-11-08T12:43:54Z</time>
      </trkpt>
      <trkpt lat="46.72294" lon="6.38682">
        <ele>828</ele>
        <time>2022-11-08T12:43:59Z</time>
      </trkpt>
      <trkpt lat="46.72299" lon="6.38683">
        <ele>828.1</ele>
        <time>2022-11-08T12:44:05Z</time>
      </trkpt>
      <trkpt lat="46.72303" lon="6.38683">
        <ele>828.6</ele>
        <time>2022-11-08T12:44:11Z</time>
      </trkpt>
      <trkpt lat="46.72308" lon="6.38684">
        <ele>829</ele>
        <time>2022-11-08T12:44:16Z</time>
      </trkpt>
      <trkpt lat="46.72313" lon="6.38685">
        <ele>829.5</ele>
        <time>2022-11-08T12:44:21Z</time>
      </trkpt>
      <trkpt lat="46.72318" lon="6.38687">
        <ele>829.9</ele>
        <time>2022-11-08T12:44:27Z</time>
      </trkpt>
      <trkpt lat="46.72323" lon="6.38687">
        <ele>830.4</ele>
        <time>2022-11-08T12:44:33Z</time>
      </trkpt>
      <trkpt lat="46.72328" lon="6.38688">
        <ele>831</ele>
        <time>2022-11-08T12:44:39Z</time>
      </trkpt>
      <trkpt lat="46.72332" lon="6.38688">
        <ele>832.2</ele>
        <time>2022-11-08T12:44:45Z</time>
      </trkpt>
      <trkpt lat="46.72337" lon="6.38689">
        <ele>833.4</ele>
        <time>2022-11-08T12:44:51Z</time>
      </trkpt>
      <trkpt lat="46.72343" lon="6.3869">
        <ele>834.4</ele>
        <time>2022-11-08T12:44:58Z</time>
      </trkpt>
      <trkpt lat="46.72347" lon="6.38692">
        <ele>835</ele>
        <time>2022-11-08T12:45:04Z</time>
      </trkpt>
      <trkpt lat="46.72352" lon="6.38694">
        <ele>835.9</ele>
        <time>2022-11-08T12:45:09Z</time>
      </trkpt>
      <trkpt lat="46.72357" lon="6.38694">
        <ele>836.9</ele>
        <time>2022-11-08T12:45:14Z</time>
      </trkpt>
      <trkpt lat="46.72362" lon="6.38694">
        <ele>837.7</ele>
        <time>2022-11-08T12:45:19Z</time>
      </trkpt>
      <trkpt lat="46.72366" lon="6.38694">
        <ele>838</ele>
        <time>2022-11-08T12:45:25Z</time>
      </trkpt>
      <trkpt lat="46.72371" lon="6.38697">
        <ele>838.4</ele>
        <time>2022-11-08T12:45:31Z</time>
      </trkpt>
      <trkpt lat="46.72376" lon="6.38698">
        <ele>838.8</ele>
        <time>2022-11-08T12:45:38Z</time>
      </trkpt>
      <trkpt lat="46.72381" lon="6.38699">
        <ele>838.3</ele>
        <time>2022-11-08T12:45:43Z</time>
      </trkpt>
      <trkpt lat="46.72386" lon="6.387">
        <ele>837.1</ele>
        <time>2022-11-08T12:45:51Z</time>
      </trkpt>
      <trkpt lat="46.7239" lon="6.38698">
        <ele>836</ele>
        <time>2022-11-08T12:46:02Z</time>
      </trkpt>
      <trkpt lat="46.72395" lon="6.38699">
        <ele>836</ele>
        <time>2022-11-08T12:46:20Z</time>
      </trkpt>
      <trkpt lat="46.72399" lon="6.38703">
        <ele>836.6</ele>
        <time>2022-11-08T12:46:25Z</time>
      </trkpt>
      <trkpt lat="46.72403" lon="6.38706">
        <ele>837.3</ele>
        <time>2022-11-08T12:46:31Z</time>
      </trkpt>
      <trkpt lat="46.72408" lon="6.38709">
        <ele>837.6</ele>
        <time>2022-11-08T12:46:37Z</time>
      </trkpt>
      <trkpt lat="46.72412" lon="6.38712">
        <ele>837.2</ele>
        <time>2022-11-08T12:46:43Z</time>
      </trkpt>
      <trkpt lat="46.72416" lon="6.38716">
        <ele>836.7</ele>
        <time>2022-11-08T12:46:49Z</time>
      </trkpt>
      <trkpt lat="46.7242" lon="6.3872">
        <ele>835.9</ele>
        <time>2022-11-08T12:46:55Z</time>
      </trkpt>
      <trkpt lat="46.72425" lon="6.38724">
        <ele>835.7</ele>
        <time>2022-11-08T12:47:02Z</time>
      </trkpt>
      <trkpt lat="46.72429" lon="6.38727">
        <ele>835.7</ele>
        <time>2022-11-08T12:47:07Z</time>
      </trkpt>
      <trkpt lat="46.72433" lon="6.38731">
        <ele>835.6</ele>
        <time>2022-11-08T12:47:12Z</time>
      </trkpt>
      <trkpt lat="46.72436" lon="6.38736">
        <ele>835.1</ele>
        <time>2022-11-08T12:47:17Z</time>
      </trkpt>
      <trkpt lat="46.72439" lon="6.38743">
        <ele>834.5</ele>
        <time>2022-11-08T12:47:22Z</time>
      </trkpt>
      <trkpt lat="46.72443" lon="6.38749">
        <ele>834</ele>
        <time>2022-11-08T12:47:26Z</time>
      </trkpt>
      <trkpt lat="46.72447" lon="6.38754">
        <ele>833.7</ele>
        <time>2022-11-08T12:47:30Z</time>
      </trkpt>
      <trkpt lat="46.7245" lon="6.38759">
        <ele>833.2</ele>
        <time>2022-11-08T12:47:36Z</time>
      </trkpt>
      <trkpt lat="46.72454" lon="6.38763">
        <ele>832.6</ele>
        <time>2022-11-08T12:47:41Z</time>
      </trkpt>
      <trkpt lat="46.72458" lon="6.38767">
        <ele>832.2</ele>
        <time>2022-11-08T12:47:46Z</time>
      </trkpt>
      <trkpt lat="46.72462" lon="6.38772">
        <ele>831.9</ele>
        <time>2022-11-08T12:47:51Z</time>
      </trkpt>
      <trkpt lat="46.72466" lon="6.38776">
        <ele>831.7</ele>
        <time>2022-11-08T12:47:55Z</time>
      </trkpt>
      <trkpt lat="46.7247" lon="6.3878">
        <ele>831.5</ele>
        <time>2022-11-08T12:48:00Z</time>
      </trkpt>
      <trkpt lat="46.72474" lon="6.38785">
        <ele>831.4</ele>
        <time>2022-11-08T12:48:06Z</time>
      </trkpt>
      <trkpt lat="46.72478" lon="6.38789">
        <ele>831.3</ele>
        <time>2022-11-08T12:48:11Z</time>
      </trkpt>
      <trkpt lat="46.72481" lon="6.38794">
        <ele>831.5</ele>
        <time>2022-11-08T12:48:15Z</time>
      </trkpt>
      <trkpt lat="46.72485" lon="6.38798">
        <ele>832.4</ele>
        <time>2022-11-08T12:48:20Z</time>
      </trkpt>
      <trkpt lat="46.72489" lon="6.38803">
        <ele>833.7</ele>
        <time>2022-11-08T12:48:25Z</time>
      </trkpt>
      <trkpt lat="46.72493" lon="6.38807">
        <ele>834.2</ele>
        <time>2022-11-08T12:48:30Z</time>
      </trkpt>
      <trkpt lat="46.72497" lon="6.38811">
        <ele>834.4</ele>
        <time>2022-11-08T12:48:34Z</time>
      </trkpt>
      <trkpt lat="46.72501" lon="6.38816">
        <ele>834.8</ele>
        <time>2022-11-08T12:48:40Z</time>
      </trkpt>
      <trkpt lat="46.72505" lon="6.38819">
        <ele>834.8</ele>
        <time>2022-11-08T12:48:45Z</time>
      </trkpt>
      <trkpt lat="46.7251" lon="6.38823">
        <ele>834.9</ele>
        <time>2022-11-08T12:48:51Z</time>
      </trkpt>
      <trkpt lat="46.72514" lon="6.38827">
        <ele>834.8</ele>
        <time>2022-11-08T12:48:56Z</time>
      </trkpt>
      <trkpt lat="46.72517" lon="6.38831">
        <ele>834.8</ele>
        <time>2022-11-08T12:49:01Z</time>
      </trkpt>
      <trkpt lat="46.72521" lon="6.38836">
        <ele>834.6</ele>
        <time>2022-11-08T12:49:06Z</time>
      </trkpt>
      <trkpt lat="46.72526" lon="6.3884">
        <ele>834.5</ele>
        <time>2022-11-08T12:49:11Z</time>
      </trkpt>
      <trkpt lat="46.7253" lon="6.38843">
        <ele>834.8</ele>
        <time>2022-11-08T12:49:15Z</time>
      </trkpt>
      <trkpt lat="46.72534" lon="6.38847">
        <ele>835.4</ele>
        <time>2022-11-08T12:49:20Z</time>
      </trkpt>
      <trkpt lat="46.72538" lon="6.38851">
        <ele>836</ele>
        <time>2022-11-08T12:49:25Z</time>
      </trkpt>
      <trkpt lat="46.72542" lon="6.38855">
        <ele>836.3</ele>
        <time>2022-11-08T12:49:30Z</time>
      </trkpt>
      <trkpt lat="46.72546" lon="6.38859">
        <ele>836.9</ele>
        <time>2022-11-08T12:49:36Z</time>
      </trkpt>
      <trkpt lat="46.72551" lon="6.38863">
        <ele>837.1</ele>
        <time>2022-11-08T12:49:42Z</time>
      </trkpt>
      <trkpt lat="46.72557" lon="6.38866">
        <ele>837.2</ele>
        <time>2022-11-08T12:49:46Z</time>
      </trkpt>
      <trkpt lat="46.72561" lon="6.38868">
        <ele>837.3</ele>
        <time>2022-11-08T12:49:50Z</time>
      </trkpt>
      <trkpt lat="46.72567" lon="6.38871">
        <ele>837.5</ele>
        <time>2022-11-08T12:49:55Z</time>
      </trkpt>
      <trkpt lat="46.72571" lon="6.38873">
        <ele>837.3</ele>
        <time>2022-11-08T12:50:00Z</time>
      </trkpt>
      <trkpt lat="46.72576" lon="6.38876">
        <ele>837.2</ele>
        <time>2022-11-08T12:50:05Z</time>
      </trkpt>
      <trkpt lat="46.7258" lon="6.38879">
        <ele>837.3</ele>
        <time>2022-11-08T12:50:11Z</time>
      </trkpt>
      <trkpt lat="46.72584" lon="6.38882">
        <ele>837.6</ele>
        <time>2022-11-08T12:50:16Z</time>
      </trkpt>
      <trkpt lat="46.72589" lon="6.38885">
        <ele>838.1</ele>
        <time>2022-11-08T12:50:21Z</time>
      </trkpt>
      <trkpt lat="46.72593" lon="6.38889">
        <ele>838.3</ele>
        <time>2022-11-08T12:50:26Z</time>
      </trkpt>
      <trkpt lat="46.72596" lon="6.38894">
        <ele>838.4</ele>
        <time>2022-11-08T12:50:44Z</time>
      </trkpt>
      <trkpt lat="46.72601" lon="6.38893">
        <ele>838.2</ele>
        <time>2022-11-08T12:50:57Z</time>
      </trkpt>
      <trkpt lat="46.72606" lon="6.38892">
        <ele>837.6</ele>
        <time>2022-11-08T12:51:03Z</time>
      </trkpt>
      <trkpt lat="46.72611" lon="6.38894">
        <ele>837.1</ele>
        <time>2022-11-08T12:51:09Z</time>
      </trkpt>
      <trkpt lat="46.72616" lon="6.38896">
        <ele>836.8</ele>
        <time>2022-11-08T12:51:13Z</time>
      </trkpt>
      <trkpt lat="46.7262" lon="6.38898">
        <ele>837.3</ele>
        <time>2022-11-08T12:51:18Z</time>
      </trkpt>
      <trkpt lat="46.72625" lon="6.38899">
        <ele>837.3</ele>
        <time>2022-11-08T12:51:24Z</time>
      </trkpt>
      <trkpt lat="46.72629" lon="6.389">
        <ele>837.6</ele>
        <time>2022-11-08T12:51:30Z</time>
      </trkpt>
      <trkpt lat="46.72634" lon="6.38901">
        <ele>837.3</ele>
        <time>2022-11-08T12:51:35Z</time>
      </trkpt>
      <trkpt lat="46.72639" lon="6.38901">
        <ele>837</ele>
        <time>2022-11-08T12:51:40Z</time>
      </trkpt>
      <trkpt lat="46.72645" lon="6.38903">
        <ele>836.8</ele>
        <time>2022-11-08T12:51:46Z</time>
      </trkpt>
      <trkpt lat="46.7265" lon="6.38904">
        <ele>836.8</ele>
        <time>2022-11-08T12:51:51Z</time>
      </trkpt>
      <trkpt lat="46.72655" lon="6.38905">
        <ele>836.6</ele>
        <time>2022-11-08T12:51:56Z</time>
      </trkpt>
      <trkpt lat="46.7266" lon="6.38906">
        <ele>836</ele>
        <time>2022-11-08T12:52:03Z</time>
      </trkpt>
      <trkpt lat="46.72665" lon="6.38909">
        <ele>835.8</ele>
        <time>2022-11-08T12:52:09Z</time>
      </trkpt>
      <trkpt lat="46.72669" lon="6.3891">
        <ele>836.1</ele>
        <time>2022-11-08T12:52:14Z</time>
      </trkpt>
      <trkpt lat="46.72674" lon="6.38911">
        <ele>836.6</ele>
        <time>2022-11-08T12:52:18Z</time>
      </trkpt>
      <trkpt lat="46.72679" lon="6.38913">
        <ele>837.6</ele>
        <time>2022-11-08T12:52:23Z</time>
      </trkpt>
      <trkpt lat="46.72684" lon="6.38912">
        <ele>839.9</ele>
        <time>2022-11-08T12:52:31Z</time>
      </trkpt>
      <trkpt lat="46.72688" lon="6.38912">
        <ele>840.6</ele>
        <time>2022-11-08T12:52:34Z</time>
      </trkpt>
      <trkpt lat="46.72693" lon="6.38911">
        <ele>841.7</ele>
        <time>2022-11-08T12:52:38Z</time>
      </trkpt>
      <trkpt lat="46.72698" lon="6.38911">
        <ele>842.9</ele>
        <time>2022-11-08T12:52:46Z</time>
      </trkpt>
      <trkpt lat="46.72702" lon="6.38912">
        <ele>844.7</ele>
        <time>2022-11-08T12:52:56Z</time>
      </trkpt>
      <trkpt lat="46.72707" lon="6.38914">
        <ele>844.3</ele>
        <time>2022-11-08T12:53:00Z</time>
      </trkpt>
      <trkpt lat="46.72712" lon="6.38913">
        <ele>841.5</ele>
        <time>2022-11-08T12:53:07Z</time>
      </trkpt>
      <trkpt lat="46.72716" lon="6.38911">
        <ele>840</ele>
        <time>2022-11-08T12:53:11Z</time>
      </trkpt>
      <trkpt lat="46.72721" lon="6.3891">
        <ele>838.8</ele>
        <time>2022-11-08T12:53:16Z</time>
      </trkpt>
      <trkpt lat="46.72726" lon="6.38907">
        <ele>837.5</ele>
        <time>2022-11-08T12:53:22Z</time>
      </trkpt>
      <trkpt lat="46.72731" lon="6.38906">
        <ele>835.9</ele>
        <time>2022-11-08T12:53:28Z</time>
      </trkpt>
      <trkpt lat="46.72735" lon="6.38905">
        <ele>835.8</ele>
        <time>2022-11-08T12:53:33Z</time>
      </trkpt>
      <trkpt lat="46.72742" lon="6.38904">
        <ele>835.9</ele>
        <time>2022-11-08T12:53:37Z</time>
      </trkpt>
      <trkpt lat="46.72746" lon="6.38903">
        <ele>836</ele>
        <time>2022-11-08T12:53:40Z</time>
      </trkpt>
      <trkpt lat="46.72751" lon="6.38902">
        <ele>836.2</ele>
        <time>2022-11-08T12:53:44Z</time>
      </trkpt>
      <trkpt lat="46.72756" lon="6.389">
        <ele>836.5</ele>
        <time>2022-11-08T12:53:49Z</time>
      </trkpt>
      <trkpt lat="46.7276" lon="6.38896">
        <ele>836.8</ele>
        <time>2022-11-08T12:53:54Z</time>
      </trkpt>
      <trkpt lat="46.72764" lon="6.38893">
        <ele>837.7</ele>
        <time>2022-11-08T12:54:05Z</time>
      </trkpt>
      <trkpt lat="46.72769" lon="6.3889">
        <ele>837.1</ele>
        <time>2022-11-08T12:54:12Z</time>
      </trkpt>
      <trkpt lat="46.72774" lon="6.38887">
        <ele>837.3</ele>
        <time>2022-11-08T12:54:15Z</time>
      </trkpt>
      <trkpt lat="46.72778" lon="6.38884">
        <ele>837.9</ele>
        <time>2022-11-08T12:54:18Z</time>
      </trkpt>
      <trkpt lat="46.72783" lon="6.38882">
        <ele>838.4</ele>
        <time>2022-11-08T12:54:21Z</time>
      </trkpt>
      <trkpt lat="46.72788" lon="6.38878">
        <ele>839.3</ele>
        <time>2022-11-08T12:54:24Z</time>
      </trkpt>
      <trkpt lat="46.72793" lon="6.38875">
        <ele>841.8</ele>
        <time>2022-11-08T12:54:29Z</time>
      </trkpt>
      <trkpt lat="46.72797" lon="6.3887">
        <ele>843.8</ele>
        <time>2022-11-08T12:54:34Z</time>
      </trkpt>
      <trkpt lat="46.728" lon="6.38865">
        <ele>845.4</ele>
        <time>2022-11-08T12:54:40Z</time>
      </trkpt>
      <trkpt lat="46.72804" lon="6.38861">
        <ele>846.3</ele>
        <time>2022-11-08T12:54:45Z</time>
      </trkpt>
      <trkpt lat="46.72808" lon="6.38858">
        <ele>846.7</ele>
        <time>2022-11-08T12:54:50Z</time>
      </trkpt>
      <trkpt lat="46.72814" lon="6.38854">
        <ele>850.1</ele>
        <time>2022-11-08T12:55:22Z</time>
      </trkpt>
      <trkpt lat="46.72819" lon="6.3885">
        <ele>851</ele>
        <time>2022-11-08T12:55:25Z</time>
      </trkpt>
      <trkpt lat="46.72824" lon="6.38847">
        <ele>852</ele>
        <time>2022-11-08T12:55:29Z</time>
      </trkpt>
      <trkpt lat="46.72828" lon="6.38844">
        <ele>852.4</ele>
        <time>2022-11-08T12:55:33Z</time>
      </trkpt>
      <trkpt lat="46.72831" lon="6.38838">
        <ele>852.3</ele>
        <time>2022-11-08T12:55:39Z</time>
      </trkpt>
      <trkpt lat="46.72834" lon="6.38833">
        <ele>852.1</ele>
        <time>2022-11-08T12:55:45Z</time>
      </trkpt>
      <trkpt lat="46.72839" lon="6.38831">
        <ele>851.9</ele>
        <time>2022-11-08T12:55:52Z</time>
      </trkpt>
      <trkpt lat="46.72844" lon="6.38829">
        <ele>851.6</ele>
        <time>2022-11-08T12:55:55Z</time>
      </trkpt>
      <trkpt lat="46.72848" lon="6.38825">
        <ele>851.4</ele>
        <time>2022-11-08T12:55:58Z</time>
      </trkpt>
      <trkpt lat="46.72851" lon="6.3882">
        <ele>851.1</ele>
        <time>2022-11-08T12:56:03Z</time>
      </trkpt>
      <trkpt lat="46.72854" lon="6.38814">
        <ele>850.7</ele>
        <time>2022-11-08T12:56:08Z</time>
      </trkpt>
      <trkpt lat="46.72858" lon="6.38811">
        <ele>849.9</ele>
        <time>2022-11-08T12:56:14Z</time>
      </trkpt>
      <trkpt lat="46.72862" lon="6.38808">
        <ele>849.3</ele>
        <time>2022-11-08T12:56:18Z</time>
      </trkpt>
      <trkpt lat="46.72865" lon="6.38802">
        <ele>848.8</ele>
        <time>2022-11-08T12:56:22Z</time>
      </trkpt>
      <trkpt lat="46.72868" lon="6.38797">
        <ele>848.2</ele>
        <time>2022-11-08T12:56:27Z</time>
      </trkpt>
      <trkpt lat="46.72873" lon="6.38793">
        <ele>847.6</ele>
        <time>2022-11-08T12:56:32Z</time>
      </trkpt>
      <trkpt lat="46.72876" lon="6.38788">
        <ele>847.8</ele>
        <time>2022-11-08T12:56:36Z</time>
      </trkpt>
      <trkpt lat="46.7288" lon="6.38783">
        <ele>848.4</ele>
        <time>2022-11-08T12:56:40Z</time>
      </trkpt>
      <trkpt lat="46.72883" lon="6.38778">
        <ele>849</ele>
        <time>2022-11-08T12:56:44Z</time>
      </trkpt>
      <trkpt lat="46.72887" lon="6.38775">
        <ele>849.3</ele>
        <time>2022-11-08T12:56:48Z</time>
      </trkpt>
      <trkpt lat="46.72891" lon="6.38772">
        <ele>849.2</ele>
        <time>2022-11-08T12:56:54Z</time>
      </trkpt>
      <trkpt lat="46.72895" lon="6.38768">
        <ele>848.3</ele>
        <time>2022-11-08T12:56:59Z</time>
      </trkpt>
      <trkpt lat="46.72898" lon="6.38762">
        <ele>847.1</ele>
        <time>2022-11-08T12:57:05Z</time>
      </trkpt>
      <trkpt lat="46.72901" lon="6.38756">
        <ele>846.3</ele>
        <time>2022-11-08T12:57:10Z</time>
      </trkpt>
      <trkpt lat="46.72903" lon="6.38749">
        <ele>845.3</ele>
        <time>2022-11-08T12:57:18Z</time>
      </trkpt>
      <trkpt lat="46.72906" lon="6.38744">
        <ele>844.9</ele>
        <time>2022-11-08T12:57:34Z</time>
      </trkpt>
      <trkpt lat="46.72907" lon="6.38737">
        <ele>843.6</ele>
        <time>2022-11-08T12:57:42Z</time>
      </trkpt>
      <trkpt lat="46.72911" lon="6.38732">
        <ele>842.6</ele>
        <time>2022-11-08T12:57:50Z</time>
      </trkpt>
      <trkpt lat="46.72915" lon="6.38728">
        <ele>841.7</ele>
        <time>2022-11-08T12:57:57Z</time>
      </trkpt>
      <trkpt lat="46.72916" lon="6.38721">
        <ele>841.5</ele>
        <time>2022-11-08T12:58:03Z</time>
      </trkpt>
      <trkpt lat="46.72917" lon="6.38715">
        <ele>841.8</ele>
        <time>2022-11-08T12:58:07Z</time>
      </trkpt>
      <trkpt lat="46.72918" lon="6.38708">
        <ele>842.3</ele>
        <time>2022-11-08T12:58:12Z</time>
      </trkpt>
      <trkpt lat="46.72918" lon="6.38701">
        <ele>843.3</ele>
        <time>2022-11-08T12:58:18Z</time>
      </trkpt>
      <trkpt lat="46.72922" lon="6.38695">
        <ele>844.8</ele>
        <time>2022-11-08T12:58:23Z</time>
      </trkpt>
      <trkpt lat="46.72926" lon="6.3869">
        <ele>846.5</ele>
        <time>2022-11-08T12:58:27Z</time>
      </trkpt>
      <trkpt lat="46.72929" lon="6.38685">
        <ele>848.4</ele>
        <time>2022-11-08T12:58:32Z</time>
      </trkpt>
      <trkpt lat="46.72931" lon="6.38679">
        <ele>850</ele>
        <time>2022-11-08T12:58:38Z</time>
      </trkpt>
      <trkpt lat="46.72932" lon="6.3867">
        <ele>850.4</ele>
        <time>2022-11-08T12:58:51Z</time>
      </trkpt>
      <trkpt lat="46.72935" lon="6.38664">
        <ele>849.4</ele>
        <time>2022-11-08T12:58:55Z</time>
      </trkpt>
      <trkpt lat="46.72936" lon="6.38658">
        <ele>848.3</ele>
        <time>2022-11-08T12:59:00Z</time>
      </trkpt>
      <trkpt lat="46.72939" lon="6.38651">
        <ele>847.7</ele>
        <time>2022-11-08T12:59:04Z</time>
      </trkpt>
      <trkpt lat="46.72941" lon="6.38645">
        <ele>847.3</ele>
        <time>2022-11-08T12:59:10Z</time>
      </trkpt>
      <trkpt lat="46.72942" lon="6.38637">
        <ele>847.1</ele>
        <time>2022-11-08T12:59:16Z</time>
      </trkpt>
      <trkpt lat="46.72944" lon="6.3863">
        <ele>846.8</ele>
        <time>2022-11-08T12:59:21Z</time>
      </trkpt>
      <trkpt lat="46.72946" lon="6.38624">
        <ele>847.1</ele>
        <time>2022-11-08T12:59:30Z</time>
      </trkpt>
      <trkpt lat="46.72948" lon="6.38616">
        <ele>847.2</ele>
        <time>2022-11-08T12:59:35Z</time>
      </trkpt>
      <trkpt lat="46.72948" lon="6.3861">
        <ele>846.9</ele>
        <time>2022-11-08T12:59:39Z</time>
      </trkpt>
      <trkpt lat="46.72948" lon="6.38603">
        <ele>846.2</ele>
        <time>2022-11-08T12:59:43Z</time>
      </trkpt>
      <trkpt lat="46.72948" lon="6.38597">
        <ele>845</ele>
        <time>2022-11-08T12:59:48Z</time>
      </trkpt>
      <trkpt lat="46.72948" lon="6.3859">
        <ele>843.4</ele>
        <time>2022-11-08T12:59:57Z</time>
      </trkpt>
      <trkpt lat="46.72949" lon="6.38582">
        <ele>842.6</ele>
        <time>2022-11-08T13:00:05Z</time>
      </trkpt>
      <trkpt lat="46.72949" lon="6.38574">
        <ele>842.4</ele>
        <time>2022-11-08T13:00:08Z</time>
      </trkpt>
      <trkpt lat="46.7295" lon="6.38567">
        <ele>842.1</ele>
        <time>2022-11-08T13:00:12Z</time>
      </trkpt>
      <trkpt lat="46.72951" lon="6.3856">
        <ele>842.2</ele>
        <time>2022-11-08T13:00:17Z</time>
      </trkpt>
      <trkpt lat="46.72951" lon="6.38551">
        <ele>842.7</ele>
        <time>2022-11-08T13:00:22Z</time>
      </trkpt>
      <trkpt lat="46.72952" lon="6.38544">
        <ele>843.1</ele>
        <time>2022-11-08T13:00:27Z</time>
      </trkpt>
      <trkpt lat="46.72953" lon="6.38537">
        <ele>843.4</ele>
        <time>2022-11-08T13:00:33Z</time>
      </trkpt>
      <trkpt lat="46.72955" lon="6.3853">
        <ele>843.7</ele>
        <time>2022-11-08T13:00:41Z</time>
      </trkpt>
      <trkpt lat="46.72956" lon="6.38524">
        <ele>844.2</ele>
        <time>2022-11-08T13:00:46Z</time>
      </trkpt>
      <trkpt lat="46.72957" lon="6.38516">
        <ele>845.1</ele>
        <time>2022-11-08T13:00:50Z</time>
      </trkpt>
      <trkpt lat="46.72958" lon="6.38508">
        <ele>846.2</ele>
        <time>2022-11-08T13:00:55Z</time>
      </trkpt>
      <trkpt lat="46.72959" lon="6.38501">
        <ele>847.4</ele>
        <time>2022-11-08T13:00:59Z</time>
      </trkpt>
      <trkpt lat="46.72958" lon="6.38492">
        <ele>848.8</ele>
        <time>2022-11-08T13:01:03Z</time>
      </trkpt>
      <trkpt lat="46.72958" lon="6.38486">
        <ele>850</ele>
        <time>2022-11-08T13:01:07Z</time>
      </trkpt>
      <trkpt lat="46.7296" lon="6.38479">
        <ele>851.4</ele>
        <time>2022-11-08T13:01:13Z</time>
      </trkpt>
      <trkpt lat="46.72959" lon="6.38473">
        <ele>852.9</ele>
        <time>2022-11-08T13:01:19Z</time>
      </trkpt>
      <trkpt lat="46.72957" lon="6.38466">
        <ele>854</ele>
        <time>2022-11-08T13:01:23Z</time>
      </trkpt>
      <trkpt lat="46.72956" lon="6.38459">
        <ele>855</ele>
        <time>2022-11-08T13:01:27Z</time>
      </trkpt>
      <trkpt lat="46.72956" lon="6.38452">
        <ele>855.4</ele>
        <time>2022-11-08T13:01:32Z</time>
      </trkpt>
      <trkpt lat="46.72957" lon="6.38444">
        <ele>854.9</ele>
        <time>2022-11-08T13:01:37Z</time>
      </trkpt>
      <trkpt lat="46.72957" lon="6.38437">
        <ele>854.1</ele>
        <time>2022-11-08T13:01:42Z</time>
      </trkpt>
      <trkpt lat="46.72957" lon="6.38429">
        <ele>853.1</ele>
        <time>2022-11-08T13:01:48Z</time>
      </trkpt>
      <trkpt lat="46.72957" lon="6.38422">
        <ele>852.2</ele>
        <time>2022-11-08T13:01:54Z</time>
      </trkpt>
      <trkpt lat="46.72958" lon="6.38414">
        <ele>852</ele>
        <time>2022-11-08T13:02:00Z</time>
      </trkpt>
      <trkpt lat="46.72958" lon="6.38407">
        <ele>851.9</ele>
        <time>2022-11-08T13:02:07Z</time>
      </trkpt>
      <trkpt lat="46.72958" lon="6.38401">
        <ele>852.1</ele>
        <time>2022-11-08T13:02:12Z</time>
      </trkpt>
      <trkpt lat="46.72958" lon="6.38393">
        <ele>852.5</ele>
        <time>2022-11-08T13:02:17Z</time>
      </trkpt>
      <trkpt lat="46.72959" lon="6.38386">
        <ele>852.5</ele>
        <time>2022-11-08T13:02:23Z</time>
      </trkpt>
      <trkpt lat="46.72961" lon="6.38379">
        <ele>852.9</ele>
        <time>2022-11-08T13:02:29Z</time>
      </trkpt>
      <trkpt lat="46.72963" lon="6.38372">
        <ele>853.3</ele>
        <time>2022-11-08T13:02:35Z</time>
      </trkpt>
      <trkpt lat="46.72963" lon="6.38365">
        <ele>852.9</ele>
        <time>2022-11-08T13:02:41Z</time>
      </trkpt>
      <trkpt lat="46.72964" lon="6.38359">
        <ele>852.5</ele>
        <time>2022-11-08T13:02:45Z</time>
      </trkpt>
      <trkpt lat="46.72966" lon="6.38351">
        <ele>851.9</ele>
        <time>2022-11-08T13:02:50Z</time>
      </trkpt>
      <trkpt lat="46.72967" lon="6.38344">
        <ele>851.5</ele>
        <time>2022-11-08T13:02:54Z</time>
      </trkpt>
      <trkpt lat="46.7297" lon="6.38337">
        <ele>850.8</ele>
        <time>2022-11-08T13:02:58Z</time>
      </trkpt>
      <trkpt lat="46.72972" lon="6.3833">
        <ele>849.6</ele>
        <time>2022-11-08T13:03:05Z</time>
      </trkpt>
      <trkpt lat="46.72975" lon="6.38324">
        <ele>848.7</ele>
        <time>2022-11-08T13:03:11Z</time>
      </trkpt>
      <trkpt lat="46.72977" lon="6.38318">
        <ele>848.5</ele>
        <time>2022-11-08T13:03:16Z</time>
      </trkpt>
      <trkpt lat="46.72977" lon="6.38311">
        <ele>848.5</ele>
        <time>2022-11-08T13:03:21Z</time>
      </trkpt>
      <trkpt lat="46.72976" lon="6.38304">
        <ele>848.8</ele>
        <time>2022-11-08T13:03:27Z</time>
      </trkpt>
      <trkpt lat="46.72976" lon="6.38297">
        <ele>849.4</ele>
        <time>2022-11-08T13:03:31Z</time>
      </trkpt>
      <trkpt lat="46.72977" lon="6.38289">
        <ele>849.8</ele>
        <time>2022-11-08T13:03:35Z</time>
      </trkpt>
      <trkpt lat="46.7298" lon="6.38282">
        <ele>850.3</ele>
        <time>2022-11-08T13:03:39Z</time>
      </trkpt>
      <trkpt lat="46.72983" lon="6.38276">
        <ele>850.7</ele>
        <time>2022-11-08T13:03:43Z</time>
      </trkpt>
      <trkpt lat="46.72986" lon="6.3827">
        <ele>851.2</ele>
        <time>2022-11-08T13:03:47Z</time>
      </trkpt>
      <trkpt lat="46.72988" lon="6.38263">
        <ele>851.9</ele>
        <time>2022-11-08T13:03:52Z</time>
      </trkpt>
      <trkpt lat="46.7299" lon="6.38257">
        <ele>852.6</ele>
        <time>2022-11-08T13:03:57Z</time>
      </trkpt>
      <trkpt lat="46.7299" lon="6.3825">
        <ele>852.8</ele>
        <time>2022-11-08T13:04:03Z</time>
      </trkpt>
      <trkpt lat="46.72986" lon="6.38246">
        <ele>852.6</ele>
        <time>2022-11-08T13:04:09Z</time>
      </trkpt>
      <trkpt lat="46.72983" lon="6.3824">
        <ele>852.3</ele>
        <time>2022-11-08T13:04:16Z</time>
      </trkpt>
      <trkpt lat="46.72983" lon="6.38232">
        <ele>852.1</ele>
        <time>2022-11-08T13:04:23Z</time>
      </trkpt>
      <trkpt lat="46.72988" lon="6.38229">
        <ele>851.4</ele>
        <time>2022-11-08T13:04:31Z</time>
      </trkpt>
      <trkpt lat="46.72992" lon="6.38233">
        <ele>850.7</ele>
        <time>2022-11-08T13:04:35Z</time>
      </trkpt>
      <trkpt lat="46.72997" lon="6.38236">
        <ele>849.8</ele>
        <time>2022-11-08T13:04:39Z</time>
      </trkpt>
      <trkpt lat="46.73001" lon="6.3824">
        <ele>848.9</ele>
        <time>2022-11-08T13:04:43Z</time>
      </trkpt>
      <trkpt lat="46.73005" lon="6.38243">
        <ele>848.1</ele>
        <time>2022-11-08T13:04:47Z</time>
      </trkpt>
      <trkpt lat="46.73009" lon="6.3824">
        <ele>847.7</ele>
        <time>2022-11-08T13:04:51Z</time>
      </trkpt>
      <trkpt lat="46.73012" lon="6.38233">
        <ele>847.6</ele>
        <time>2022-11-08T13:04:56Z</time>
      </trkpt>
      <trkpt lat="46.73014" lon="6.38226">
        <ele>848.2</ele>
        <time>2022-11-08T13:05:00Z</time>
      </trkpt>
      <trkpt lat="46.73014" lon="6.38219">
        <ele>849.1</ele>
        <time>2022-11-08T13:05:04Z</time>
      </trkpt>
      <trkpt lat="46.73014" lon="6.38212">
        <ele>850.3</ele>
        <time>2022-11-08T13:05:10Z</time>
      </trkpt>
      <trkpt lat="46.73016" lon="6.38206">
        <ele>851.6</ele>
        <time>2022-11-08T13:05:19Z</time>
      </trkpt>
      <trkpt lat="46.73018" lon="6.382">
        <ele>852.8</ele>
        <time>2022-11-08T13:05:27Z</time>
      </trkpt>
      <trkpt lat="46.73021" lon="6.38195">
        <ele>853.5</ele>
        <time>2022-11-08T13:05:33Z</time>
      </trkpt>
      <trkpt lat="46.73024" lon="6.3819">
        <ele>854</ele>
        <time>2022-11-08T13:05:38Z</time>
      </trkpt>
      <trkpt lat="46.73028" lon="6.38185">
        <ele>854.2</ele>
        <time>2022-11-08T13:05:42Z</time>
      </trkpt>
      <trkpt lat="46.73031" lon="6.3818">
        <ele>854.5</ele>
        <time>2022-11-08T13:05:46Z</time>
      </trkpt>
      <trkpt lat="46.73035" lon="6.38174">
        <ele>854.6</ele>
        <time>2022-11-08T13:05:51Z</time>
      </trkpt>
      <trkpt lat="46.73038" lon="6.38168">
        <ele>854.4</ele>
        <time>2022-11-08T13:05:56Z</time>
      </trkpt>
      <trkpt lat="46.73041" lon="6.38162">
        <ele>853.9</ele>
        <time>2022-11-08T13:06:01Z</time>
      </trkpt>
      <trkpt lat="46.73045" lon="6.38155">
        <ele>853.5</ele>
        <time>2022-11-08T13:06:05Z</time>
      </trkpt>
      <trkpt lat="46.73049" lon="6.3815">
        <ele>853.4</ele>
        <time>2022-11-08T13:06:09Z</time>
      </trkpt>
      <trkpt lat="46.73053" lon="6.38145">
        <ele>853.4</ele>
        <time>2022-11-08T13:06:14Z</time>
      </trkpt>
      <trkpt lat="46.73056" lon="6.38141">
        <ele>853.5</ele>
        <time>2022-11-08T13:06:19Z</time>
      </trkpt>
      <trkpt lat="46.7306" lon="6.38137">
        <ele>853.7</ele>
        <time>2022-11-08T13:06:25Z</time>
      </trkpt>
      <trkpt lat="46.73064" lon="6.38132">
        <ele>853.7</ele>
        <time>2022-11-08T13:06:30Z</time>
      </trkpt>
      <trkpt lat="46.73068" lon="6.38128">
        <ele>853.8</ele>
        <time>2022-11-08T13:06:35Z</time>
      </trkpt>
      <trkpt lat="46.73072" lon="6.38124">
        <ele>853.7</ele>
        <time>2022-11-08T13:06:40Z</time>
      </trkpt>
      <trkpt lat="46.73076" lon="6.38121">
        <ele>853.5</ele>
        <time>2022-11-08T13:06:45Z</time>
      </trkpt>
      <trkpt lat="46.73079" lon="6.38115">
        <ele>853.2</ele>
        <time>2022-11-08T13:06:50Z</time>
      </trkpt>
      <trkpt lat="46.73083" lon="6.3811">
        <ele>853.5</ele>
        <time>2022-11-08T13:06:55Z</time>
      </trkpt>
      <trkpt lat="46.73086" lon="6.38105">
        <ele>854.5</ele>
        <time>2022-11-08T13:07:00Z</time>
      </trkpt>
      <trkpt lat="46.73089" lon="6.381">
        <ele>855.6</ele>
        <time>2022-11-08T13:07:04Z</time>
      </trkpt>
      <trkpt lat="46.73093" lon="6.38094">
        <ele>857.2</ele>
        <time>2022-11-08T13:07:10Z</time>
      </trkpt>
      <trkpt lat="46.73097" lon="6.38092">
        <ele>858.3</ele>
        <time>2022-11-08T13:07:15Z</time>
      </trkpt>
      <trkpt lat="46.73101" lon="6.38089">
        <ele>859</ele>
        <time>2022-11-08T13:07:19Z</time>
      </trkpt>
      <trkpt lat="46.73106" lon="6.38086">
        <ele>859.6</ele>
        <time>2022-11-08T13:07:24Z</time>
      </trkpt>
      <trkpt lat="46.73111" lon="6.38082">
        <ele>859.9</ele>
        <time>2022-11-08T13:07:29Z</time>
      </trkpt>
      <trkpt lat="46.73115" lon="6.38079">
        <ele>860.1</ele>
        <time>2022-11-08T13:07:33Z</time>
      </trkpt>
      <trkpt lat="46.73118" lon="6.38075">
        <ele>859.7</ele>
        <time>2022-11-08T13:07:37Z</time>
      </trkpt>
      <trkpt lat="46.73122" lon="6.38069">
        <ele>858.3</ele>
        <time>2022-11-08T13:07:44Z</time>
      </trkpt>
      <trkpt lat="46.73126" lon="6.38065">
        <ele>857.2</ele>
        <time>2022-11-08T13:07:50Z</time>
      </trkpt>
      <trkpt lat="46.7313" lon="6.38061">
        <ele>856.5</ele>
        <time>2022-11-08T13:07:56Z</time>
      </trkpt>
      <trkpt lat="46.73134" lon="6.38058">
        <ele>855.9</ele>
        <time>2022-11-08T13:08:02Z</time>
      </trkpt>
      <trkpt lat="46.73139" lon="6.38055">
        <ele>855.5</ele>
        <time>2022-11-08T13:08:07Z</time>
      </trkpt>
      <trkpt lat="46.73143" lon="6.38051">
        <ele>855.2</ele>
        <time>2022-11-08T13:08:13Z</time>
      </trkpt>
      <trkpt lat="46.73146" lon="6.38046">
        <ele>855.7</ele>
        <time>2022-11-08T13:08:18Z</time>
      </trkpt>
      <trkpt lat="46.73151" lon="6.38042">
        <ele>856.2</ele>
        <time>2022-11-08T13:08:23Z</time>
      </trkpt>
      <trkpt lat="46.73155" lon="6.38039">
        <ele>856.4</ele>
        <time>2022-11-08T13:08:27Z</time>
      </trkpt>
      <trkpt lat="46.73159" lon="6.38035">
        <ele>857.1</ele>
        <time>2022-11-08T13:08:31Z</time>
      </trkpt>
      <trkpt lat="46.73164" lon="6.38031">
        <ele>857.8</ele>
        <time>2022-11-08T13:08:35Z</time>
      </trkpt>
      <trkpt lat="46.73169" lon="6.38027">
        <ele>858.6</ele>
        <time>2022-11-08T13:08:40Z</time>
      </trkpt>
      <trkpt lat="46.73173" lon="6.38024">
        <ele>858.9</ele>
        <time>2022-11-08T13:08:44Z</time>
      </trkpt>
      <trkpt lat="46.73177" lon="6.3802">
        <ele>859.3</ele>
        <time>2022-11-08T13:08:48Z</time>
      </trkpt>
      <trkpt lat="46.73181" lon="6.38016">
        <ele>859.4</ele>
        <time>2022-11-08T13:08:53Z</time>
      </trkpt>
      <trkpt lat="46.73186" lon="6.38012">
        <ele>859.7</ele>
        <time>2022-11-08T13:08:59Z</time>
      </trkpt>
      <trkpt lat="46.73191" lon="6.3801">
        <ele>859.4</ele>
        <time>2022-11-08T13:09:04Z</time>
      </trkpt>
      <trkpt lat="46.73194" lon="6.38005">
        <ele>858.7</ele>
        <time>2022-11-08T13:09:09Z</time>
      </trkpt>
      <trkpt lat="46.73198" lon="6.37999">
        <ele>857.9</ele>
        <time>2022-11-08T13:09:14Z</time>
      </trkpt>
      <trkpt lat="46.73202" lon="6.37995">
        <ele>857.4</ele>
        <time>2022-11-08T13:09:19Z</time>
      </trkpt>
      <trkpt lat="46.73207" lon="6.37991">
        <ele>857.1</ele>
        <time>2022-11-08T13:09:25Z</time>
      </trkpt>
      <trkpt lat="46.73211" lon="6.37987">
        <ele>856.7</ele>
        <time>2022-11-08T13:09:29Z</time>
      </trkpt>
      <trkpt lat="46.73216" lon="6.37984">
        <ele>855.9</ele>
        <time>2022-11-08T13:09:34Z</time>
      </trkpt>
      <trkpt lat="46.7322" lon="6.3798">
        <ele>855.1</ele>
        <time>2022-11-08T13:09:38Z</time>
      </trkpt>
      <trkpt lat="46.73225" lon="6.37976">
        <ele>854.4</ele>
        <time>2022-11-08T13:09:43Z</time>
      </trkpt>
      <trkpt lat="46.73229" lon="6.37972">
        <ele>853.7</ele>
        <time>2022-11-08T13:09:49Z</time>
      </trkpt>
      <trkpt lat="46.73234" lon="6.3797">
        <ele>852.8</ele>
        <time>2022-11-08T13:09:55Z</time>
      </trkpt>
      <trkpt lat="46.73237" lon="6.37966">
        <ele>852.2</ele>
        <time>2022-11-08T13:10:01Z</time>
      </trkpt>
      <trkpt lat="46.73242" lon="6.37961">
        <ele>851.9</ele>
        <time>2022-11-08T13:10:07Z</time>
      </trkpt>
      <trkpt lat="46.73246" lon="6.37957">
        <ele>851.7</ele>
        <time>2022-11-08T13:10:11Z</time>
      </trkpt>
      <trkpt lat="46.7325" lon="6.37954">
        <ele>851.8</ele>
        <time>2022-11-08T13:10:15Z</time>
      </trkpt>
      <trkpt lat="46.73255" lon="6.3795">
        <ele>852</ele>
        <time>2022-11-08T13:10:19Z</time>
      </trkpt>
      <trkpt lat="46.73259" lon="6.37946">
        <ele>852.4</ele>
        <time>2022-11-08T13:10:23Z</time>
      </trkpt>
      <trkpt lat="46.73264" lon="6.37942">
        <ele>852.8</ele>
        <time>2022-11-08T13:10:28Z</time>
      </trkpt>
      <trkpt lat="46.73267" lon="6.37938">
        <ele>852.9</ele>
        <time>2022-11-08T13:10:32Z</time>
      </trkpt>
      <trkpt lat="46.73272" lon="6.37937">
        <ele>853.3</ele>
        <time>2022-11-08T13:10:36Z</time>
      </trkpt>
      <trkpt lat="46.73276" lon="6.37932">
        <ele>854.1</ele>
        <time>2022-11-08T13:10:41Z</time>
      </trkpt>
      <trkpt lat="46.7328" lon="6.37928">
        <ele>854.6</ele>
        <time>2022-11-08T13:10:46Z</time>
      </trkpt>
      <trkpt lat="46.73283" lon="6.37922">
        <ele>854.6</ele>
        <time>2022-11-08T13:10:51Z</time>
      </trkpt>
      <trkpt lat="46.73287" lon="6.37918">
        <ele>854.2</ele>
        <time>2022-11-08T13:10:56Z</time>
      </trkpt>
      <trkpt lat="46.73292" lon="6.37915">
        <ele>853.6</ele>
        <time>2022-11-08T13:11:00Z</time>
      </trkpt>
      <trkpt lat="46.73296" lon="6.37911">
        <ele>853</ele>
        <time>2022-11-08T13:11:04Z</time>
      </trkpt>
      <trkpt lat="46.733" lon="6.37906">
        <ele>852</ele>
        <time>2022-11-08T13:11:09Z</time>
      </trkpt>
      <trkpt lat="46.73304" lon="6.37901">
        <ele>851.4</ele>
        <time>2022-11-08T13:11:13Z</time>
      </trkpt>
      <trkpt lat="46.73308" lon="6.37895">
        <ele>851.3</ele>
        <time>2022-11-08T13:11:18Z</time>
      </trkpt>
      <trkpt lat="46.73312" lon="6.37892">
        <ele>852.9</ele>
        <time>2022-11-08T13:11:26Z</time>
      </trkpt>
      <trkpt lat="46.73317" lon="6.3789">
        <ele>856.7</ele>
        <time>2022-11-08T13:11:43Z</time>
      </trkpt>
      <trkpt lat="46.7332" lon="6.37886">
        <ele>858.4</ele>
        <time>2022-11-08T13:11:53Z</time>
      </trkpt>
      <trkpt lat="46.73325" lon="6.37884">
        <ele>859.5</ele>
        <time>2022-11-08T13:12:01Z</time>
      </trkpt>
      <trkpt lat="46.7333" lon="6.37881">
        <ele>860.1</ele>
        <time>2022-11-08T13:12:07Z</time>
      </trkpt>
      <trkpt lat="46.73334" lon="6.37877">
        <ele>860.4</ele>
        <time>2022-11-08T13:12:11Z</time>
      </trkpt>
      <trkpt lat="46.73339" lon="6.37875">
        <ele>860.5</ele>
        <time>2022-11-08T13:12:16Z</time>
      </trkpt>
      <trkpt lat="46.73343" lon="6.37872">
        <ele>860.6</ele>
        <time>2022-11-08T13:12:21Z</time>
      </trkpt>
      <trkpt lat="46.73346" lon="6.37867">
        <ele>860.8</ele>
        <time>2022-11-08T13:12:49Z</time>
      </trkpt>
      <trkpt lat="46.7335" lon="6.37863">
        <ele>860.6</ele>
        <time>2022-11-08T13:12:55Z</time>
      </trkpt>
      <trkpt lat="46.73355" lon="6.37861">
        <ele>860.2</ele>
        <time>2022-11-08T13:13:02Z</time>
      </trkpt>
      <trkpt lat="46.7336" lon="6.37858">
        <ele>859.4</ele>
        <time>2022-11-08T13:13:08Z</time>
      </trkpt>
      <trkpt lat="46.73364" lon="6.37854">
        <ele>859.1</ele>
        <time>2022-11-08T13:13:14Z</time>
      </trkpt>
      <trkpt lat="46.73367" lon="6.37849">
        <ele>859.7</ele>
        <time>2022-11-08T13:13:20Z</time>
      </trkpt>
      <trkpt lat="46.73371" lon="6.37845">
        <ele>860.3</ele>
        <time>2022-11-08T13:13:25Z</time>
      </trkpt>
      <trkpt lat="46.73376" lon="6.37842">
        <ele>860.7</ele>
        <time>2022-11-08T13:13:31Z</time>
      </trkpt>
      <trkpt lat="46.73379" lon="6.37838">
        <ele>859.8</ele>
        <time>2022-11-08T13:13:39Z</time>
      </trkpt>
      <trkpt lat="46.73384" lon="6.37834">
        <ele>860.2</ele>
        <time>2022-11-08T13:13:44Z</time>
      </trkpt>
      <trkpt lat="46.73389" lon="6.37832">
        <ele>861.7</ele>
        <time>2022-11-08T13:13:51Z</time>
      </trkpt>
      <trkpt lat="46.73393" lon="6.37831">
        <ele>863</ele>
        <time>2022-11-08T13:13:56Z</time>
      </trkpt>
      <trkpt lat="46.73397" lon="6.37836">
        <ele>867.6</ele>
        <time>2022-11-08T13:14:41Z</time>
      </trkpt>
      <trkpt lat="46.73399" lon="6.37829">
        <ele>871.3</ele>
        <time>2022-11-08T13:14:57Z</time>
      </trkpt>
      <trkpt lat="46.73404" lon="6.37825">
        <ele>871.1</ele>
        <time>2022-11-08T13:15:01Z</time>
      </trkpt>
      <trkpt lat="46.73408" lon="6.37821">
        <ele>870.8</ele>
        <time>2022-11-08T13:15:04Z</time>
      </trkpt>
      <trkpt lat="46.73413" lon="6.37817">
        <ele>870.3</ele>
        <time>2022-11-08T13:15:07Z</time>
      </trkpt>
      <trkpt lat="46.73417" lon="6.37814">
        <ele>870.2</ele>
        <time>2022-11-08T13:15:10Z</time>
      </trkpt>
      <trkpt lat="46.73423" lon="6.3781">
        <ele>870.3</ele>
        <time>2022-11-08T13:15:15Z</time>
      </trkpt>
      <trkpt lat="46.73427" lon="6.37807">
        <ele>870.2</ele>
        <time>2022-11-08T13:15:18Z</time>
      </trkpt>
      <trkpt lat="46.73432" lon="6.37804">
        <ele>869.9</ele>
        <time>2022-11-08T13:15:22Z</time>
      </trkpt>
      <trkpt lat="46.73437" lon="6.37801">
        <ele>869.3</ele>
        <time>2022-11-08T13:15:27Z</time>
      </trkpt>
      <trkpt lat="46.73442" lon="6.378">
        <ele>869.2</ele>
        <time>2022-11-08T13:15:31Z</time>
      </trkpt>
      <trkpt lat="46.73446" lon="6.37798">
        <ele>869.7</ele>
        <time>2022-11-08T13:15:37Z</time>
      </trkpt>
      <trkpt lat="46.73451" lon="6.37796">
        <ele>870.4</ele>
        <time>2022-11-08T13:15:41Z</time>
      </trkpt>
      <trkpt lat="46.73456" lon="6.37792">
        <ele>871.1</ele>
        <time>2022-11-08T13:15:45Z</time>
      </trkpt>
      <trkpt lat="46.73461" lon="6.37789">
        <ele>871.6</ele>
        <time>2022-11-08T13:15:48Z</time>
      </trkpt>
      <trkpt lat="46.73466" lon="6.37787">
        <ele>872</ele>
        <time>2022-11-08T13:15:51Z</time>
      </trkpt>
      <trkpt lat="46.73471" lon="6.37785">
        <ele>872.1</ele>
        <time>2022-11-08T13:15:55Z</time>
      </trkpt>
      <trkpt lat="46.73477" lon="6.37784">
        <ele>872.1</ele>
        <time>2022-11-08T13:15:59Z</time>
      </trkpt>
      <trkpt lat="46.73482" lon="6.37783">
        <ele>872</ele>
        <time>2022-11-08T13:16:02Z</time>
      </trkpt>
      <trkpt lat="46.73487" lon="6.37781">
        <ele>871</ele>
        <time>2022-11-08T13:16:05Z</time>
      </trkpt>
      <trkpt lat="46.73492" lon="6.3778">
        <ele>869.9</ele>
        <time>2022-11-08T13:16:09Z</time>
      </trkpt>
      <trkpt lat="46.73497" lon="6.3778">
        <ele>868.9</ele>
        <time>2022-11-08T13:16:14Z</time>
      </trkpt>
      <trkpt lat="46.73502" lon="6.37779">
        <ele>868.9</ele>
        <time>2022-11-08T13:16:19Z</time>
      </trkpt>
      <trkpt lat="46.73507" lon="6.37777">
        <ele>869.4</ele>
        <time>2022-11-08T13:16:24Z</time>
      </trkpt>
      <trkpt lat="46.73512" lon="6.37779">
        <ele>869.9</ele>
        <time>2022-11-08T13:16:28Z</time>
      </trkpt>
      <trkpt lat="46.73517" lon="6.37778">
        <ele>870.1</ele>
        <time>2022-11-08T13:16:32Z</time>
      </trkpt>
      <trkpt lat="46.73521" lon="6.37778">
        <ele>870.3</ele>
        <time>2022-11-08T13:16:35Z</time>
      </trkpt>
      <trkpt lat="46.73527" lon="6.37777">
        <ele>870.2</ele>
        <time>2022-11-08T13:16:39Z</time>
      </trkpt>
      <trkpt lat="46.73532" lon="6.37776">
        <ele>869.9</ele>
        <time>2022-11-08T13:16:43Z</time>
      </trkpt>
      <trkpt lat="46.73538" lon="6.37775">
        <ele>869.4</ele>
        <time>2022-11-08T13:16:47Z</time>
      </trkpt>
      <trkpt lat="46.73543" lon="6.37773">
        <ele>869.1</ele>
        <time>2022-11-08T13:16:52Z</time>
      </trkpt>
      <trkpt lat="46.73548" lon="6.37773">
        <ele>869</ele>
        <time>2022-11-08T13:16:57Z</time>
      </trkpt>
      <trkpt lat="46.73553" lon="6.3777">
        <ele>869</ele>
        <time>2022-11-08T13:17:02Z</time>
      </trkpt>
      <trkpt lat="46.73558" lon="6.37768">
        <ele>868.8</ele>
        <time>2022-11-08T13:17:06Z</time>
      </trkpt>
      <trkpt lat="46.73563" lon="6.37766">
        <ele>868.6</ele>
        <time>2022-11-08T13:17:10Z</time>
      </trkpt>
      <trkpt lat="46.73568" lon="6.37764">
        <ele>868.2</ele>
        <time>2022-11-08T13:17:15Z</time>
      </trkpt>
      <trkpt lat="46.73573" lon="6.37763">
        <ele>868.5</ele>
        <time>2022-11-08T13:17:20Z</time>
      </trkpt>
      <trkpt lat="46.73579" lon="6.37761">
        <ele>868.7</ele>
        <time>2022-11-08T13:17:24Z</time>
      </trkpt>
      <trkpt lat="46.73583" lon="6.37759">
        <ele>869.1</ele>
        <time>2022-11-08T13:17:27Z</time>
      </trkpt>
      <trkpt lat="46.73587" lon="6.37755">
        <ele>869.3</ele>
        <time>2022-11-08T13:17:31Z</time>
      </trkpt>
      <trkpt lat="46.73592" lon="6.37751">
        <ele>869.4</ele>
        <time>2022-11-08T13:17:35Z</time>
      </trkpt>
      <trkpt lat="46.73596" lon="6.37747">
        <ele>869.1</ele>
        <time>2022-11-08T13:17:39Z</time>
      </trkpt>
      <trkpt lat="46.736" lon="6.37743">
        <ele>869.4</ele>
        <time>2022-11-08T13:17:45Z</time>
      </trkpt>
      <trkpt lat="46.73604" lon="6.37739">
        <ele>870.3</ele>
        <time>2022-11-08T13:17:51Z</time>
      </trkpt>
      <trkpt lat="46.73609" lon="6.37734">
        <ele>870.6</ele>
        <time>2022-11-08T13:17:57Z</time>
      </trkpt>
      <trkpt lat="46.73613" lon="6.37731">
        <ele>871.3</ele>
        <time>2022-11-08T13:18:02Z</time>
      </trkpt>
      <trkpt lat="46.73617" lon="6.37727">
        <ele>871.9</ele>
        <time>2022-11-08T13:18:06Z</time>
      </trkpt>
      <trkpt lat="46.73621" lon="6.37723">
        <ele>872.3</ele>
        <time>2022-11-08T13:18:09Z</time>
      </trkpt>
      <trkpt lat="46.73626" lon="6.37718">
        <ele>873</ele>
        <time>2022-11-08T13:18:13Z</time>
      </trkpt>
      <trkpt lat="46.7363" lon="6.37714">
        <ele>873.5</ele>
        <time>2022-11-08T13:18:16Z</time>
      </trkpt>
      <trkpt lat="46.73633" lon="6.37708">
        <ele>874.6</ele>
        <time>2022-11-08T13:18:20Z</time>
      </trkpt>
      <trkpt lat="46.73636" lon="6.37703">
        <ele>876</ele>
        <time>2022-11-08T13:18:24Z</time>
      </trkpt>
      <trkpt lat="46.73639" lon="6.37698">
        <ele>877.8</ele>
        <time>2022-11-08T13:18:29Z</time>
      </trkpt>
      <trkpt lat="46.73643" lon="6.37693">
        <ele>879.4</ele>
        <time>2022-11-08T13:18:35Z</time>
      </trkpt>
      <trkpt lat="46.73647" lon="6.37689">
        <ele>880.3</ele>
        <time>2022-11-08T13:18:39Z</time>
      </trkpt>
      <trkpt lat="46.73651" lon="6.37685">
        <ele>881.4</ele>
        <time>2022-11-08T13:18:44Z</time>
      </trkpt>
      <trkpt lat="46.73655" lon="6.37682">
        <ele>882.4</ele>
        <time>2022-11-08T13:18:49Z</time>
      </trkpt>
      <trkpt lat="46.73661" lon="6.37681">
        <ele>883.7</ele>
        <time>2022-11-08T13:18:55Z</time>
      </trkpt>
      <trkpt lat="46.73666" lon="6.37677">
        <ele>883.8</ele>
        <time>2022-11-08T13:18:59Z</time>
      </trkpt>
      <trkpt lat="46.73669" lon="6.37672">
        <ele>883.4</ele>
        <time>2022-11-08T13:19:03Z</time>
      </trkpt>
      <trkpt lat="46.73673" lon="6.37668">
        <ele>882.7</ele>
        <time>2022-11-08T13:19:08Z</time>
      </trkpt>
      <trkpt lat="46.73676" lon="6.37663">
        <ele>882.7</ele>
        <time>2022-11-08T13:19:14Z</time>
      </trkpt>
      <trkpt lat="46.7368" lon="6.37657">
        <ele>883.7</ele>
        <time>2022-11-08T13:19:20Z</time>
      </trkpt>
      <trkpt lat="46.73684" lon="6.37653">
        <ele>884.5</ele>
        <time>2022-11-08T13:19:25Z</time>
      </trkpt>
      <trkpt lat="46.73688" lon="6.37648">
        <ele>885.4</ele>
        <time>2022-11-08T13:19:30Z</time>
      </trkpt>
      <trkpt lat="46.73694" lon="6.37645">
        <ele>886.1</ele>
        <time>2022-11-08T13:19:34Z</time>
      </trkpt>
      <trkpt lat="46.73698" lon="6.37642">
        <ele>886.7</ele>
        <time>2022-11-08T13:19:38Z</time>
      </trkpt>
      <trkpt lat="46.73701" lon="6.37638">
        <ele>886.8</ele>
        <time>2022-11-08T13:19:43Z</time>
      </trkpt>
      <trkpt lat="46.73703" lon="6.37631">
        <ele>887</ele>
        <time>2022-11-08T13:19:48Z</time>
      </trkpt>
      <trkpt lat="46.73706" lon="6.37625">
        <ele>887.6</ele>
        <time>2022-11-08T13:19:54Z</time>
      </trkpt>
      <trkpt lat="46.7371" lon="6.3762">
        <ele>887.4</ele>
        <time>2022-11-08T13:19:59Z</time>
      </trkpt>
      <trkpt lat="46.73714" lon="6.37615">
        <ele>886.5</ele>
        <time>2022-11-08T13:20:04Z</time>
      </trkpt>
      <trkpt lat="46.73718" lon="6.3761">
        <ele>885.4</ele>
        <time>2022-11-08T13:20:10Z</time>
      </trkpt>
      <trkpt lat="46.73722" lon="6.37606">
        <ele>885</ele>
        <time>2022-11-08T13:20:15Z</time>
      </trkpt>
      <trkpt lat="46.73726" lon="6.37602">
        <ele>885.1</ele>
        <time>2022-11-08T13:20:21Z</time>
      </trkpt>
      <trkpt lat="46.7373" lon="6.37597">
        <ele>885.2</ele>
        <time>2022-11-08T13:20:25Z</time>
      </trkpt>
      <trkpt lat="46.7373" lon="6.3759">
        <ele>885.3</ele>
        <time>2022-11-08T13:20:30Z</time>
      </trkpt>
      <trkpt lat="46.73734" lon="6.37584">
        <ele>884.8</ele>
        <time>2022-11-08T13:20:36Z</time>
      </trkpt>
      <trkpt lat="46.73739" lon="6.3758">
        <ele>884.7</ele>
        <time>2022-11-08T13:20:40Z</time>
      </trkpt>
      <trkpt lat="46.73744" lon="6.37578">
        <ele>884</ele>
        <time>2022-11-08T13:20:45Z</time>
      </trkpt>
      <trkpt lat="46.73749" lon="6.37574">
        <ele>882.7</ele>
        <time>2022-11-08T13:20:50Z</time>
      </trkpt>
      <trkpt lat="46.73753" lon="6.3757">
        <ele>881.4</ele>
        <time>2022-11-08T13:20:54Z</time>
      </trkpt>
      <trkpt lat="46.73757" lon="6.37567">
        <ele>880.2</ele>
        <time>2022-11-08T13:20:58Z</time>
      </trkpt>
      <trkpt lat="46.73761" lon="6.37563">
        <ele>878.7</ele>
        <time>2022-11-08T13:21:02Z</time>
      </trkpt>
      <trkpt lat="46.73765" lon="6.37559">
        <ele>877</ele>
        <time>2022-11-08T13:21:06Z</time>
      </trkpt>
      <trkpt lat="46.73768" lon="6.37556">
        <ele>874.4</ele>
        <time>2022-11-08T13:21:13Z</time>
      </trkpt>
      <trkpt lat="46.73773" lon="6.37552">
        <ele>872.8</ele>
        <time>2022-11-08T13:21:17Z</time>
      </trkpt>
      <trkpt lat="46.73778" lon="6.37549">
        <ele>872</ele>
        <time>2022-11-08T13:21:21Z</time>
      </trkpt>
      <trkpt lat="46.73783" lon="6.37544">
        <ele>871.4</ele>
        <time>2022-11-08T13:21:26Z</time>
      </trkpt>
      <trkpt lat="46.73787" lon="6.3754">
        <ele>870.9</ele>
        <time>2022-11-08T13:21:31Z</time>
      </trkpt>
      <trkpt lat="46.73791" lon="6.37536">
        <ele>870.1</ele>
        <time>2022-11-08T13:21:35Z</time>
      </trkpt>
      <trkpt lat="46.73796" lon="6.37532">
        <ele>869.3</ele>
        <time>2022-11-08T13:21:39Z</time>
      </trkpt>
      <trkpt lat="46.738" lon="6.37529">
        <ele>869.1</ele>
        <time>2022-11-08T13:21:44Z</time>
      </trkpt>
      <trkpt lat="46.73805" lon="6.37526">
        <ele>869.4</ele>
        <time>2022-11-08T13:21:49Z</time>
      </trkpt>
      <trkpt lat="46.7381" lon="6.37524">
        <ele>870.1</ele>
        <time>2022-11-08T13:21:53Z</time>
      </trkpt>
      <trkpt lat="46.73814" lon="6.37521">
        <ele>871</ele>
        <time>2022-11-08T13:21:57Z</time>
      </trkpt>
      <trkpt lat="46.73819" lon="6.37518">
        <ele>872.1</ele>
        <time>2022-11-08T13:22:01Z</time>
      </trkpt>
      <trkpt lat="46.73823" lon="6.37515">
        <ele>872.5</ele>
        <time>2022-11-08T13:22:06Z</time>
      </trkpt>
      <trkpt lat="46.73828" lon="6.37514">
        <ele>872.5</ele>
        <time>2022-11-08T13:22:12Z</time>
      </trkpt>
      <trkpt lat="46.73833" lon="6.37512">
        <ele>872.7</ele>
        <time>2022-11-08T13:22:19Z</time>
      </trkpt>
      <trkpt lat="46.73838" lon="6.37511">
        <ele>873</ele>
        <time>2022-11-08T13:22:25Z</time>
      </trkpt>
      <trkpt lat="46.73842" lon="6.3751">
        <ele>873.1</ele>
        <time>2022-11-08T13:22:29Z</time>
      </trkpt>
      <trkpt lat="46.73847" lon="6.37507">
        <ele>873.2</ele>
        <time>2022-11-08T13:22:33Z</time>
      </trkpt>
      <trkpt lat="46.73851" lon="6.37506">
        <ele>873.6</ele>
        <time>2022-11-08T13:22:37Z</time>
      </trkpt>
      <trkpt lat="46.73856" lon="6.37508">
        <ele>874.6</ele>
        <time>2022-11-08T13:22:41Z</time>
      </trkpt>
      <trkpt lat="46.73861" lon="6.37507">
        <ele>875.8</ele>
        <time>2022-11-08T13:22:45Z</time>
      </trkpt>
      <trkpt lat="46.73866" lon="6.37505">
        <ele>877</ele>
        <time>2022-11-08T13:22:48Z</time>
      </trkpt>
      <trkpt lat="46.7387" lon="6.37504">
        <ele>878.5</ele>
        <time>2022-11-08T13:22:52Z</time>
      </trkpt>
      <trkpt lat="46.73875" lon="6.37499">
        <ele>879.7</ele>
        <time>2022-11-08T13:22:56Z</time>
      </trkpt>
      <trkpt lat="46.73879" lon="6.37495">
        <ele>880.4</ele>
        <time>2022-11-08T13:23:01Z</time>
      </trkpt>
      <trkpt lat="46.73884" lon="6.37496">
        <ele>880.9</ele>
        <time>2022-11-08T13:23:09Z</time>
      </trkpt>
      <trkpt lat="46.73889" lon="6.37494">
        <ele>881.2</ele>
        <time>2022-11-08T13:23:15Z</time>
      </trkpt>
      <trkpt lat="46.73895" lon="6.37494">
        <ele>881.3</ele>
        <time>2022-11-08T13:23:20Z</time>
      </trkpt>
      <trkpt lat="46.73899" lon="6.37493">
        <ele>881.4</ele>
        <time>2022-11-08T13:23:25Z</time>
      </trkpt>
      <trkpt lat="46.73904" lon="6.37491">
        <ele>881.2</ele>
        <time>2022-11-08T13:23:30Z</time>
      </trkpt>
      <trkpt lat="46.73909" lon="6.3749">
        <ele>880.4</ele>
        <time>2022-11-08T13:23:37Z</time>
      </trkpt>
      <trkpt lat="46.73913" lon="6.37486">
        <ele>879.7</ele>
        <time>2022-11-08T13:23:44Z</time>
      </trkpt>
      <trkpt lat="46.73917" lon="6.37482">
        <ele>879.3</ele>
        <time>2022-11-08T13:23:49Z</time>
      </trkpt>
      <trkpt lat="46.73921" lon="6.3748">
        <ele>879.2</ele>
        <time>2022-11-08T13:23:53Z</time>
      </trkpt>
      <trkpt lat="46.73926" lon="6.37476">
        <ele>879.2</ele>
        <time>2022-11-08T13:23:57Z</time>
      </trkpt>
      <trkpt lat="46.7393" lon="6.37471">
        <ele>879.3</ele>
        <time>2022-11-08T13:24:01Z</time>
      </trkpt>
      <trkpt lat="46.73934" lon="6.37467">
        <ele>879.4</ele>
        <time>2022-11-08T13:24:05Z</time>
      </trkpt>
      <trkpt lat="46.73938" lon="6.37463">
        <ele>880.2</ele>
        <time>2022-11-08T13:24:11Z</time>
      </trkpt>
      <trkpt lat="46.73942" lon="6.37459">
        <ele>882.3</ele>
        <time>2022-11-08T13:24:18Z</time>
      </trkpt>
      <trkpt lat="46.73945" lon="6.37454">
        <ele>884.9</ele>
        <time>2022-11-08T13:24:23Z</time>
      </trkpt>
      <trkpt lat="46.73949" lon="6.37449">
        <ele>887.5</ele>
        <time>2022-11-08T13:24:28Z</time>
      </trkpt>
      <trkpt lat="46.73952" lon="6.37444">
        <ele>890.3</ele>
        <time>2022-11-08T13:24:44Z</time>
      </trkpt>
      <trkpt lat="46.73956" lon="6.37442">
        <ele>890.1</ele>
        <time>2022-11-08T13:24:51Z</time>
      </trkpt>
      <trkpt lat="46.7396" lon="6.37438">
        <ele>890.1</ele>
        <time>2022-11-08T13:24:57Z</time>
      </trkpt>
      <trkpt lat="46.73964" lon="6.37435">
        <ele>889.9</ele>
        <time>2022-11-08T13:25:04Z</time>
      </trkpt>
      <trkpt lat="46.73968" lon="6.37431">
        <ele>889.2</ele>
        <time>2022-11-08T13:25:11Z</time>
      </trkpt>
      <trkpt lat="46.73973" lon="6.37427">
        <ele>888.7</ele>
        <time>2022-11-08T13:25:16Z</time>
      </trkpt>
      <trkpt lat="46.73978" lon="6.37424">
        <ele>888.2</ele>
        <time>2022-11-08T13:25:20Z</time>
      </trkpt>
      <trkpt lat="46.73982" lon="6.37418">
        <ele>887.5</ele>
        <time>2022-11-08T13:25:25Z</time>
      </trkpt>
      <trkpt lat="46.73986" lon="6.37413">
        <ele>888.2</ele>
        <time>2022-11-08T13:25:30Z</time>
      </trkpt>
      <trkpt lat="46.7399" lon="6.37408">
        <ele>889.4</ele>
        <time>2022-11-08T13:25:35Z</time>
      </trkpt>
      <trkpt lat="46.73996" lon="6.37405">
        <ele>890.3</ele>
        <time>2022-11-08T13:25:40Z</time>
      </trkpt>
      <trkpt lat="46.73999" lon="6.374">
        <ele>890.5</ele>
        <time>2022-11-08T13:25:44Z</time>
      </trkpt>
      <trkpt lat="46.74002" lon="6.37396">
        <ele>890.3</ele>
        <time>2022-11-08T13:25:48Z</time>
      </trkpt>
      <trkpt lat="46.74007" lon="6.3739">
        <ele>890.3</ele>
        <time>2022-11-08T13:25:52Z</time>
      </trkpt>
      <trkpt lat="46.74011" lon="6.37386">
        <ele>890.4</ele>
        <time>2022-11-08T13:25:56Z</time>
      </trkpt>
      <trkpt lat="46.74015" lon="6.37382">
        <ele>889.9</ele>
        <time>2022-11-08T13:26:00Z</time>
      </trkpt>
      <trkpt lat="46.74018" lon="6.37376">
        <ele>889.6</ele>
        <time>2022-11-08T13:26:04Z</time>
      </trkpt>
      <trkpt lat="46.74021" lon="6.37371">
        <ele>889.8</ele>
        <time>2022-11-08T13:26:08Z</time>
      </trkpt>
      <trkpt lat="46.74024" lon="6.37365">
        <ele>889</ele>
        <time>2022-11-08T13:26:13Z</time>
      </trkpt>
      <trkpt lat="46.74027" lon="6.37358">
        <ele>888.2</ele>
        <time>2022-11-08T13:26:18Z</time>
      </trkpt>
      <trkpt lat="46.74029" lon="6.37352">
        <ele>887.7</ele>
        <time>2022-11-08T13:26:22Z</time>
      </trkpt>
      <trkpt lat="46.74028" lon="6.37345">
        <ele>886</ele>
        <time>2022-11-08T13:26:29Z</time>
      </trkpt>
      <trkpt lat="46.74031" lon="6.37338">
        <ele>884.3</ele>
        <time>2022-11-08T13:26:36Z</time>
      </trkpt>
      <trkpt lat="46.74033" lon="6.37332">
        <ele>882.9</ele>
        <time>2022-11-08T13:26:42Z</time>
      </trkpt>
      <trkpt lat="46.74038" lon="6.37327">
        <ele>882.9</ele>
        <time>2022-11-08T13:26:47Z</time>
      </trkpt>
      <trkpt lat="46.74042" lon="6.37326">
        <ele>883.4</ele>
        <time>2022-11-08T13:26:50Z</time>
      </trkpt>
      <trkpt lat="46.74045" lon="6.3732">
        <ele>884.3</ele>
        <time>2022-11-08T13:26:54Z</time>
      </trkpt>
      <trkpt lat="46.74046" lon="6.37314">
        <ele>885</ele>
        <time>2022-11-08T13:26:59Z</time>
      </trkpt>
      <trkpt lat="46.74049" lon="6.37308">
        <ele>886.7</ele>
        <time>2022-11-08T13:27:11Z</time>
      </trkpt>
      <trkpt lat="46.74054" lon="6.37306">
        <ele>887.6</ele>
        <time>2022-11-08T13:27:21Z</time>
      </trkpt>
      <trkpt lat="46.74059" lon="6.37304">
        <ele>887.6</ele>
        <time>2022-11-08T13:27:26Z</time>
      </trkpt>
      <trkpt lat="46.74065" lon="6.37301">
        <ele>887.2</ele>
        <time>2022-11-08T13:27:30Z</time>
      </trkpt>
      <trkpt lat="46.74069" lon="6.37298">
        <ele>886.8</ele>
        <time>2022-11-08T13:27:33Z</time>
      </trkpt>
      <trkpt lat="46.74072" lon="6.37293">
        <ele>887.2</ele>
        <time>2022-11-08T13:27:39Z</time>
      </trkpt>
      <trkpt lat="46.74076" lon="6.37289">
        <ele>887.5</ele>
        <time>2022-11-08T13:27:44Z</time>
      </trkpt>
      <trkpt lat="46.74081" lon="6.37286">
        <ele>888.1</ele>
        <time>2022-11-08T13:27:49Z</time>
      </trkpt>
      <trkpt lat="46.74085" lon="6.37281">
        <ele>888.7</ele>
        <time>2022-11-08T13:27:54Z</time>
      </trkpt>
      <trkpt lat="46.7409" lon="6.37279">
        <ele>888.7</ele>
        <time>2022-11-08T13:27:59Z</time>
      </trkpt>
      <trkpt lat="46.74095" lon="6.37275">
        <ele>887.9</ele>
        <time>2022-11-08T13:28:07Z</time>
      </trkpt>
      <trkpt lat="46.74099" lon="6.37271">
        <ele>885.5</ele>
        <time>2022-11-08T13:28:15Z</time>
      </trkpt>
      <trkpt lat="46.74103" lon="6.37267">
        <ele>883.3</ele>
        <time>2022-11-08T13:28:19Z</time>
      </trkpt>
      <trkpt lat="46.74107" lon="6.37263">
        <ele>881.3</ele>
        <time>2022-11-08T13:28:25Z</time>
      </trkpt>
      <trkpt lat="46.74111" lon="6.37258">
        <ele>880.9</ele>
        <time>2022-11-08T13:28:29Z</time>
      </trkpt>
      <trkpt lat="46.74114" lon="6.37253">
        <ele>880.6</ele>
        <time>2022-11-08T13:28:33Z</time>
      </trkpt>
      <trkpt lat="46.74119" lon="6.3725">
        <ele>880.4</ele>
        <time>2022-11-08T13:28:39Z</time>
      </trkpt>
      <trkpt lat="46.74123" lon="6.37248">
        <ele>880.4</ele>
        <time>2022-11-08T13:28:44Z</time>
      </trkpt>
      <trkpt lat="46.74128" lon="6.37245">
        <ele>880.9</ele>
        <time>2022-11-08T13:28:49Z</time>
      </trkpt>
      <trkpt lat="46.74132" lon="6.37244">
        <ele>882.2</ele>
        <time>2022-11-08T13:28:54Z</time>
      </trkpt>
      <trkpt lat="46.74137" lon="6.37243">
        <ele>883.4</ele>
        <time>2022-11-08T13:29:00Z</time>
      </trkpt>
      <trkpt lat="46.74142" lon="6.37242">
        <ele>884</ele>
        <time>2022-11-08T13:29:06Z</time>
      </trkpt>
      <trkpt lat="46.74147" lon="6.37239">
        <ele>884.9</ele>
        <time>2022-11-08T13:29:12Z</time>
      </trkpt>
      <trkpt lat="46.74152" lon="6.37238">
        <ele>885.8</ele>
        <time>2022-11-08T13:29:17Z</time>
      </trkpt>
      <trkpt lat="46.74157" lon="6.37236">
        <ele>886.9</ele>
        <time>2022-11-08T13:29:22Z</time>
      </trkpt>
      <trkpt lat="46.74161" lon="6.37235">
        <ele>887.9</ele>
        <time>2022-11-08T13:29:27Z</time>
      </trkpt>
      <trkpt lat="46.74166" lon="6.37235">
        <ele>888</ele>
        <time>2022-11-08T13:29:33Z</time>
      </trkpt>
      <trkpt lat="46.74171" lon="6.37232">
        <ele>888.3</ele>
        <time>2022-11-08T13:29:41Z</time>
      </trkpt>
      <trkpt lat="46.74177" lon="6.3723">
        <ele>888.2</ele>
        <time>2022-11-08T13:29:45Z</time>
      </trkpt>
      <trkpt lat="46.74181" lon="6.37229">
        <ele>888.1</ele>
        <time>2022-11-08T13:29:49Z</time>
      </trkpt>
      <trkpt lat="46.74187" lon="6.37229">
        <ele>887.9</ele>
        <time>2022-11-08T13:29:53Z</time>
      </trkpt>
      <trkpt lat="46.74192" lon="6.3723">
        <ele>887.8</ele>
        <time>2022-11-08T13:29:56Z</time>
      </trkpt>
      <trkpt lat="46.74196" lon="6.37229">
        <ele>887.7</ele>
        <time>2022-11-08T13:29:59Z</time>
      </trkpt>
      <trkpt lat="46.74201" lon="6.37228">
        <ele>887.8</ele>
        <time>2022-11-08T13:30:04Z</time>
      </trkpt>
      <trkpt lat="46.74206" lon="6.37225">
        <ele>887.9</ele>
        <time>2022-11-08T13:30:09Z</time>
      </trkpt>
      <trkpt lat="46.7421" lon="6.37224">
        <ele>887.5</ele>
        <time>2022-11-08T13:30:15Z</time>
      </trkpt>
      <trkpt lat="46.74215" lon="6.37224">
        <ele>888</ele>
        <time>2022-11-08T13:30:20Z</time>
      </trkpt>
      <trkpt lat="46.7422" lon="6.37223">
        <ele>888.2</ele>
        <time>2022-11-08T13:30:24Z</time>
      </trkpt>
      <trkpt lat="46.74225" lon="6.37222">
        <ele>888.2</ele>
        <time>2022-11-08T13:30:28Z</time>
      </trkpt>
      <trkpt lat="46.7423" lon="6.37222">
        <ele>887.7</ele>
        <time>2022-11-08T13:30:33Z</time>
      </trkpt>
      <trkpt lat="46.74236" lon="6.37222">
        <ele>887.5</ele>
        <time>2022-11-08T13:30:38Z</time>
      </trkpt>
      <trkpt lat="46.74241" lon="6.3722">
        <ele>887.4</ele>
        <time>2022-11-08T13:30:43Z</time>
      </trkpt>
      <trkpt lat="46.74246" lon="6.37221">
        <ele>887.8</ele>
        <time>2022-11-08T13:30:50Z</time>
      </trkpt>
      <trkpt lat="46.7425" lon="6.37219">
        <ele>888.2</ele>
        <time>2022-11-08T13:30:56Z</time>
      </trkpt>
      <trkpt lat="46.74255" lon="6.37221">
        <ele>889.2</ele>
        <time>2022-11-08T13:31:02Z</time>
      </trkpt>
      <trkpt lat="46.74261" lon="6.3722">
        <ele>890.2</ele>
        <time>2022-11-08T13:31:07Z</time>
      </trkpt>
      <trkpt lat="46.74266" lon="6.37219">
        <ele>890.4</ele>
        <time>2022-11-08T13:31:11Z</time>
      </trkpt>
      <trkpt lat="46.7427" lon="6.37218">
        <ele>890.3</ele>
        <time>2022-11-08T13:31:15Z</time>
      </trkpt>
      <trkpt lat="46.74276" lon="6.37218">
        <ele>891.9</ele>
        <time>2022-11-08T13:31:21Z</time>
      </trkpt>
      <trkpt lat="46.74279" lon="6.37213">
        <ele>890.4</ele>
        <time>2022-11-08T13:31:39Z</time>
      </trkpt>
      <trkpt lat="46.74284" lon="6.3721">
        <ele>889.9</ele>
        <time>2022-11-08T13:31:44Z</time>
      </trkpt>
      <trkpt lat="46.74287" lon="6.37206">
        <ele>889.2</ele>
        <time>2022-11-08T13:31:51Z</time>
      </trkpt>
      <trkpt lat="46.74292" lon="6.37204">
        <ele>889.9</ele>
        <time>2022-11-08T13:31:58Z</time>
      </trkpt>
      <trkpt lat="46.74297" lon="6.37203">
        <ele>892.2</ele>
        <time>2022-11-08T13:32:04Z</time>
      </trkpt>
      <trkpt lat="46.74302" lon="6.37201">
        <ele>894.7</ele>
        <time>2022-11-08T13:32:11Z</time>
      </trkpt>
      <trkpt lat="46.74306" lon="6.37199">
        <ele>896</ele>
        <time>2022-11-08T13:32:16Z</time>
      </trkpt>
      <trkpt lat="46.74311" lon="6.37198">
        <ele>897</ele>
        <time>2022-11-08T13:32:21Z</time>
      </trkpt>
      <trkpt lat="46.74315" lon="6.37199">
        <ele>898.1</ele>
        <time>2022-11-08T13:32:26Z</time>
      </trkpt>
      <trkpt lat="46.7432" lon="6.37199">
        <ele>899.1</ele>
        <time>2022-11-08T13:32:31Z</time>
      </trkpt>
      <trkpt lat="46.74325" lon="6.372">
        <ele>899.7</ele>
        <time>2022-11-08T13:32:36Z</time>
      </trkpt>
      <trkpt lat="46.7433" lon="6.372">
        <ele>900</ele>
        <time>2022-11-08T13:32:41Z</time>
      </trkpt>
      <trkpt lat="46.74335" lon="6.37197">
        <ele>901.1</ele>
        <time>2022-11-08T13:32:47Z</time>
      </trkpt>
      <trkpt lat="46.74339" lon="6.37193">
        <ele>903.1</ele>
        <time>2022-11-08T13:32:53Z</time>
      </trkpt>
      <trkpt lat="46.74343" lon="6.3719">
        <ele>904.1</ele>
        <time>2022-11-08T13:32:57Z</time>
      </trkpt>
      <trkpt lat="46.74347" lon="6.37187">
        <ele>904.5</ele>
        <time>2022-11-08T13:33:01Z</time>
      </trkpt>
      <trkpt lat="46.74351" lon="6.37184">
        <ele>904.6</ele>
        <time>2022-11-08T13:33:06Z</time>
      </trkpt>
      <trkpt lat="46.74355" lon="6.37182">
        <ele>904.7</ele>
        <time>2022-11-08T13:33:12Z</time>
      </trkpt>
      <trkpt lat="46.74361" lon="6.37182">
        <ele>904.8</ele>
        <time>2022-11-08T13:33:19Z</time>
      </trkpt>
      <trkpt lat="46.74365" lon="6.37181">
        <ele>904.4</ele>
        <time>2022-11-08T13:33:23Z</time>
      </trkpt>
      <trkpt lat="46.74371" lon="6.3718">
        <ele>903.1</ele>
        <time>2022-11-08T13:33:28Z</time>
      </trkpt>
      <trkpt lat="46.74375" lon="6.37177">
        <ele>902.1</ele>
        <time>2022-11-08T13:33:32Z</time>
      </trkpt>
      <trkpt lat="46.7438" lon="6.37172">
        <ele>901</ele>
        <time>2022-11-08T13:33:37Z</time>
      </trkpt>
      <trkpt lat="46.74385" lon="6.37173">
        <ele>900.3</ele>
        <time>2022-11-08T13:33:43Z</time>
      </trkpt>
      <trkpt lat="46.74389" lon="6.37171">
        <ele>900.6</ele>
        <time>2022-11-08T13:33:48Z</time>
      </trkpt>
      <trkpt lat="46.74394" lon="6.37168">
        <ele>901.2</ele>
        <time>2022-11-08T13:33:53Z</time>
      </trkpt>
      <trkpt lat="46.74399" lon="6.37168">
        <ele>902</ele>
        <time>2022-11-08T13:33:57Z</time>
      </trkpt>
      <trkpt lat="46.74404" lon="6.37166">
        <ele>902.8</ele>
        <time>2022-11-08T13:34:01Z</time>
      </trkpt>
      <trkpt lat="46.74409" lon="6.37166">
        <ele>903.2</ele>
        <time>2022-11-08T13:34:06Z</time>
      </trkpt>
      <trkpt lat="46.74414" lon="6.37166">
        <ele>903.2</ele>
        <time>2022-11-08T13:34:10Z</time>
      </trkpt>
      <trkpt lat="46.74419" lon="6.37167">
        <ele>903.1</ele>
        <time>2022-11-08T13:34:15Z</time>
      </trkpt>
      <trkpt lat="46.74424" lon="6.37169">
        <ele>902.7</ele>
        <time>2022-11-08T13:34:20Z</time>
      </trkpt>
      <trkpt lat="46.74429" lon="6.3717">
        <ele>903</ele>
        <time>2022-11-08T13:34:25Z</time>
      </trkpt>
      <trkpt lat="46.74434" lon="6.37171">
        <ele>903.2</ele>
        <time>2022-11-08T13:34:29Z</time>
      </trkpt>
      <trkpt lat="46.74438" lon="6.37172">
        <ele>902.9</ele>
        <time>2022-11-08T13:34:33Z</time>
      </trkpt>
      <trkpt lat="46.74443" lon="6.37173">
        <ele>902.1</ele>
        <time>2022-11-08T13:34:37Z</time>
      </trkpt>
      <trkpt lat="46.74447" lon="6.37177">
        <ele>901.1</ele>
        <time>2022-11-08T13:34:43Z</time>
      </trkpt>
      <trkpt lat="46.74452" lon="6.37179">
        <ele>900.1</ele>
        <time>2022-11-08T13:34:48Z</time>
      </trkpt>
      <trkpt lat="46.74456" lon="6.37181">
        <ele>899.5</ele>
        <time>2022-11-08T13:34:53Z</time>
      </trkpt>
      <trkpt lat="46.74461" lon="6.37185">
        <ele>898.7</ele>
        <time>2022-11-08T13:34:58Z</time>
      </trkpt>
      <trkpt lat="46.74464" lon="6.37191">
        <ele>897.6</ele>
        <time>2022-11-08T13:35:03Z</time>
      </trkpt>
      <trkpt lat="46.74467" lon="6.37196">
        <ele>896.8</ele>
        <time>2022-11-08T13:35:08Z</time>
      </trkpt>
      <trkpt lat="46.74472" lon="6.37201">
        <ele>896.2</ele>
        <time>2022-11-08T13:35:13Z</time>
      </trkpt>
      <trkpt lat="46.74476" lon="6.37204">
        <ele>895.2</ele>
        <time>2022-11-08T13:35:18Z</time>
      </trkpt>
      <trkpt lat="46.74481" lon="6.37207">
        <ele>894</ele>
        <time>2022-11-08T13:35:24Z</time>
      </trkpt>
      <trkpt lat="46.74485" lon="6.3721">
        <ele>893.5</ele>
        <time>2022-11-08T13:35:28Z</time>
      </trkpt>
      <trkpt lat="46.7449" lon="6.37214">
        <ele>893.4</ele>
        <time>2022-11-08T13:35:32Z</time>
      </trkpt>
      <trkpt lat="46.74494" lon="6.37218">
        <ele>893.6</ele>
        <time>2022-11-08T13:35:36Z</time>
      </trkpt>
      <trkpt lat="46.74498" lon="6.37223">
        <ele>894.2</ele>
        <time>2022-11-08T13:35:41Z</time>
      </trkpt>
      <trkpt lat="46.74501" lon="6.37228">
        <ele>894.9</ele>
        <time>2022-11-08T13:35:46Z</time>
      </trkpt>
      <trkpt lat="46.74502" lon="6.37234">
        <ele>895.6</ele>
        <time>2022-11-08T13:35:50Z</time>
      </trkpt>
      <trkpt lat="46.74505" lon="6.3724">
        <ele>896.2</ele>
        <time>2022-11-08T13:35:55Z</time>
      </trkpt>
      <trkpt lat="46.74508" lon="6.37246">
        <ele>896.2</ele>
        <time>2022-11-08T13:36:00Z</time>
      </trkpt>
      <trkpt lat="46.74511" lon="6.37252">
        <ele>896.1</ele>
        <time>2022-11-08T13:36:05Z</time>
      </trkpt>
      <trkpt lat="46.74513" lon="6.37258">
        <ele>895.8</ele>
        <time>2022-11-08T13:36:10Z</time>
      </trkpt>
      <trkpt lat="46.74515" lon="6.37265">
        <ele>895.4</ele>
        <time>2022-11-08T13:36:15Z</time>
      </trkpt>
      <trkpt lat="46.74515" lon="6.37273">
        <ele>895.4</ele>
        <time>2022-11-08T13:36:20Z</time>
      </trkpt>
      <trkpt lat="46.74514" lon="6.3728">
        <ele>895.3</ele>
        <time>2022-11-08T13:36:50Z</time>
      </trkpt>
      <trkpt lat="46.74515" lon="6.37288">
        <ele>894.2</ele>
        <time>2022-11-08T13:36:55Z</time>
      </trkpt>
      <trkpt lat="46.74517" lon="6.37295">
        <ele>893.9</ele>
        <time>2022-11-08T13:37:00Z</time>
      </trkpt>
      <trkpt lat="46.74518" lon="6.37302">
        <ele>894</ele>
        <time>2022-11-08T13:37:04Z</time>
      </trkpt>
      <trkpt lat="46.7452" lon="6.37309">
        <ele>894.3</ele>
        <time>2022-11-08T13:37:09Z</time>
      </trkpt>
      <trkpt lat="46.74523" lon="6.37315">
        <ele>894.6</ele>
        <time>2022-11-08T13:37:13Z</time>
      </trkpt>
      <trkpt lat="46.74526" lon="6.37321">
        <ele>895</ele>
        <time>2022-11-08T13:37:17Z</time>
      </trkpt>
      <trkpt lat="46.74528" lon="6.37328">
        <ele>895.1</ele>
        <time>2022-11-08T13:37:21Z</time>
      </trkpt>
      <trkpt lat="46.74528" lon="6.37335">
        <ele>895.3</ele>
        <time>2022-11-08T13:37:25Z</time>
      </trkpt>
      <trkpt lat="46.74529" lon="6.37342">
        <ele>895.8</ele>
        <time>2022-11-08T13:37:29Z</time>
      </trkpt>
      <trkpt lat="46.74529" lon="6.3735">
        <ele>896.1</ele>
        <time>2022-11-08T13:37:34Z</time>
      </trkpt>
      <trkpt lat="46.7453" lon="6.37357">
        <ele>896</ele>
        <time>2022-11-08T13:37:40Z</time>
      </trkpt>
      <trkpt lat="46.74533" lon="6.37363">
        <ele>895.5</ele>
        <time>2022-11-08T13:37:47Z</time>
      </trkpt>
      <trkpt lat="46.74536" lon="6.37368">
        <ele>895.3</ele>
        <time>2022-11-08T13:37:53Z</time>
      </trkpt>
      <trkpt lat="46.7454" lon="6.37372">
        <ele>895.4</ele>
        <time>2022-11-08T13:37:59Z</time>
      </trkpt>
      <trkpt lat="46.74544" lon="6.37375">
        <ele>895.3</ele>
        <time>2022-11-08T13:38:05Z</time>
      </trkpt>
      <trkpt lat="46.74549" lon="6.37378">
        <ele>895.2</ele>
        <time>2022-11-08T13:38:10Z</time>
      </trkpt>
      <trkpt lat="46.74552" lon="6.37383">
        <ele>895</ele>
        <time>2022-11-08T13:38:14Z</time>
      </trkpt>
      <trkpt lat="46.74556" lon="6.37387">
        <ele>895.2</ele>
        <time>2022-11-08T13:38:18Z</time>
      </trkpt>
      <trkpt lat="46.7456" lon="6.37391">
        <ele>895.8</ele>
        <time>2022-11-08T13:38:22Z</time>
      </trkpt>
      <trkpt lat="46.74563" lon="6.37396">
        <ele>896.7</ele>
        <time>2022-11-08T13:38:27Z</time>
      </trkpt>
      <trkpt lat="46.74567" lon="6.37401">
        <ele>897.7</ele>
        <time>2022-11-08T13:38:32Z</time>
      </trkpt>
      <trkpt lat="46.74571" lon="6.37405">
        <ele>898.4</ele>
        <time>2022-11-08T13:38:36Z</time>
      </trkpt>
      <trkpt lat="46.74575" lon="6.3741">
        <ele>899.2</ele>
        <time>2022-11-08T13:38:40Z</time>
      </trkpt>
      <trkpt lat="46.7458" lon="6.37414">
        <ele>900.2</ele>
        <time>2022-11-08T13:38:44Z</time>
      </trkpt>
      <trkpt lat="46.74585" lon="6.37418">
        <ele>901.4</ele>
        <time>2022-11-08T13:38:49Z</time>
      </trkpt>
      <trkpt lat="46.74589" lon="6.37423">
        <ele>902.7</ele>
        <time>2022-11-08T13:38:54Z</time>
      </trkpt>
      <trkpt lat="46.74593" lon="6.37426">
        <ele>904.2</ele>
        <time>2022-11-08T13:38:59Z</time>
      </trkpt>
      <trkpt lat="46.74598" lon="6.37429">
        <ele>905.7</ele>
        <time>2022-11-08T13:39:04Z</time>
      </trkpt>
      <trkpt lat="46.74602" lon="6.37432">
        <ele>906.5</ele>
        <time>2022-11-08T13:39:08Z</time>
      </trkpt>
      <trkpt lat="46.74607" lon="6.37436">
        <ele>907.5</ele>
        <time>2022-11-08T13:39:13Z</time>
      </trkpt>
      <trkpt lat="46.74612" lon="6.37438">
        <ele>908.3</ele>
        <time>2022-11-08T13:39:17Z</time>
      </trkpt>
      <trkpt lat="46.74616" lon="6.37441">
        <ele>908.8</ele>
        <time>2022-11-08T13:39:22Z</time>
      </trkpt>
      <trkpt lat="46.7462" lon="6.37446">
        <ele>908.8</ele>
        <time>2022-11-08T13:39:28Z</time>
      </trkpt>
      <trkpt lat="46.74625" lon="6.37448">
        <ele>909.5</ele>
        <time>2022-11-08T13:39:34Z</time>
      </trkpt>
      <trkpt lat="46.74629" lon="6.37452">
        <ele>909.7</ele>
        <time>2022-11-08T13:39:41Z</time>
      </trkpt>
      <trkpt lat="46.74633" lon="6.37456">
        <ele>909.9</ele>
        <time>2022-11-08T13:39:48Z</time>
      </trkpt>
      <trkpt lat="46.74637" lon="6.3746">
        <ele>910.4</ele>
        <time>2022-11-08T13:39:53Z</time>
      </trkpt>
      <trkpt lat="46.74642" lon="6.37464">
        <ele>911.2</ele>
        <time>2022-11-08T13:39:58Z</time>
      </trkpt>
      <trkpt lat="46.74646" lon="6.3747">
        <ele>911.9</ele>
        <time>2022-11-08T13:40:03Z</time>
      </trkpt>
      <trkpt lat="46.7465" lon="6.37473">
        <ele>912.4</ele>
        <time>2022-11-08T13:40:08Z</time>
      </trkpt>
      <trkpt lat="46.74654" lon="6.37475">
        <ele>912.5</ele>
        <time>2022-11-08T13:40:13Z</time>
      </trkpt>
      <trkpt lat="46.74659" lon="6.37479">
        <ele>912.3</ele>
        <time>2022-11-08T13:40:18Z</time>
      </trkpt>
      <trkpt lat="46.74662" lon="6.37485">
        <ele>911.8</ele>
        <time>2022-11-08T13:40:23Z</time>
      </trkpt>
      <trkpt lat="46.74665" lon="6.37492">
        <ele>911.7</ele>
        <time>2022-11-08T13:40:28Z</time>
      </trkpt>
      <trkpt lat="46.74668" lon="6.37498">
        <ele>911.7</ele>
        <time>2022-11-08T13:40:33Z</time>
      </trkpt>
      <trkpt lat="46.74672" lon="6.37503">
        <ele>911.3</ele>
        <time>2022-11-08T13:40:38Z</time>
      </trkpt>
      <trkpt lat="46.74677" lon="6.37505">
        <ele>911.2</ele>
        <time>2022-11-08T13:40:43Z</time>
      </trkpt>
      <trkpt lat="46.74682" lon="6.37508">
        <ele>912</ele>
        <time>2022-11-08T13:40:48Z</time>
      </trkpt>
      <trkpt lat="46.74686" lon="6.37511">
        <ele>912.6</ele>
        <time>2022-11-08T13:40:53Z</time>
      </trkpt>
      <trkpt lat="46.74691" lon="6.37514">
        <ele>912.9</ele>
        <time>2022-11-08T13:40:59Z</time>
      </trkpt>
      <trkpt lat="46.74695" lon="6.37518">
        <ele>912.9</ele>
        <time>2022-11-08T13:41:04Z</time>
      </trkpt>
      <trkpt lat="46.74697" lon="6.37524">
        <ele>912.6</ele>
        <time>2022-11-08T13:41:09Z</time>
      </trkpt>
      <trkpt lat="46.747" lon="6.37531">
        <ele>912.2</ele>
        <time>2022-11-08T13:41:14Z</time>
      </trkpt>
      <trkpt lat="46.74704" lon="6.37535">
        <ele>911.9</ele>
        <time>2022-11-08T13:41:19Z</time>
      </trkpt>
      <trkpt lat="46.74708" lon="6.37538">
        <ele>912</ele>
        <time>2022-11-08T13:41:23Z</time>
      </trkpt>
      <trkpt lat="46.74712" lon="6.37542">
        <ele>912.4</ele>
        <time>2022-11-08T13:41:27Z</time>
      </trkpt>
      <trkpt lat="46.74717" lon="6.37546">
        <ele>912.6</ele>
        <time>2022-11-08T13:41:32Z</time>
      </trkpt>
      <trkpt lat="46.74722" lon="6.37548">
        <ele>912.7</ele>
        <time>2022-11-08T13:41:37Z</time>
      </trkpt>
      <trkpt lat="46.74726" lon="6.37553">
        <ele>912.7</ele>
        <time>2022-11-08T13:41:42Z</time>
      </trkpt>
      <trkpt lat="46.74729" lon="6.37558">
        <ele>913.1</ele>
        <time>2022-11-08T13:41:47Z</time>
      </trkpt>
      <trkpt lat="46.74733" lon="6.37562">
        <ele>913.3</ele>
        <time>2022-11-08T13:41:52Z</time>
      </trkpt>
      <trkpt lat="46.74738" lon="6.37565">
        <ele>913.5</ele>
        <time>2022-11-08T13:41:57Z</time>
      </trkpt>
      <trkpt lat="46.74742" lon="6.37566">
        <ele>913.4</ele>
        <time>2022-11-08T13:42:03Z</time>
      </trkpt>
      <trkpt lat="46.74747" lon="6.37572">
        <ele>913.5</ele>
        <time>2022-11-08T13:42:08Z</time>
      </trkpt>
      <trkpt lat="46.7475" lon="6.37577">
        <ele>913.8</ele>
        <time>2022-11-08T13:42:12Z</time>
      </trkpt>
      <trkpt lat="46.74753" lon="6.37583">
        <ele>914.4</ele>
        <time>2022-11-08T13:42:16Z</time>
      </trkpt>
      <trkpt lat="46.74755" lon="6.37588">
        <ele>915.3</ele>
        <time>2022-11-08T13:42:21Z</time>
      </trkpt>
      <trkpt lat="46.7476" lon="6.37592">
        <ele>916</ele>
        <time>2022-11-08T13:42:27Z</time>
      </trkpt>
      <trkpt lat="46.74764" lon="6.37594">
        <ele>916.2</ele>
        <time>2022-11-08T13:42:32Z</time>
      </trkpt>
      <trkpt lat="46.74768" lon="6.37598">
        <ele>916.4</ele>
        <time>2022-11-08T13:42:37Z</time>
      </trkpt>
      <trkpt lat="46.74773" lon="6.376">
        <ele>916.6</ele>
        <time>2022-11-08T13:42:42Z</time>
      </trkpt>
      <trkpt lat="46.74776" lon="6.37606">
        <ele>917</ele>
        <time>2022-11-08T13:42:48Z</time>
      </trkpt>
      <trkpt lat="46.7478" lon="6.37612">
        <ele>917.1</ele>
        <time>2022-11-08T13:42:54Z</time>
      </trkpt>
      <trkpt lat="46.74783" lon="6.37617">
        <ele>916.5</ele>
        <time>2022-11-08T13:42:59Z</time>
      </trkpt>
      <trkpt lat="46.74787" lon="6.37621">
        <ele>915.8</ele>
        <time>2022-11-08T13:43:03Z</time>
      </trkpt>
      <trkpt lat="46.74791" lon="6.37624">
        <ele>915</ele>
        <time>2022-11-08T13:43:08Z</time>
      </trkpt>
      <trkpt lat="46.74796" lon="6.37629">
        <ele>914.7</ele>
        <time>2022-11-08T13:43:13Z</time>
      </trkpt>
      <trkpt lat="46.748" lon="6.37634">
        <ele>914.4</ele>
        <time>2022-11-08T13:43:17Z</time>
      </trkpt>
      <trkpt lat="46.74805" lon="6.37638">
        <ele>914.4</ele>
        <time>2022-11-08T13:43:22Z</time>
      </trkpt>
      <trkpt lat="46.74809" lon="6.37642">
        <ele>914.2</ele>
        <time>2022-11-08T13:43:26Z</time>
      </trkpt>
      <trkpt lat="46.74813" lon="6.37646">
        <ele>914.2</ele>
        <time>2022-11-08T13:43:30Z</time>
      </trkpt>
      <trkpt lat="46.74817" lon="6.3765">
        <ele>914.1</ele>
        <time>2022-11-08T13:43:34Z</time>
      </trkpt>
      <trkpt lat="46.74821" lon="6.37654">
        <ele>913.6</ele>
        <time>2022-11-08T13:43:39Z</time>
      </trkpt>
      <trkpt lat="46.74826" lon="6.37656">
        <ele>912.6</ele>
        <time>2022-11-08T13:43:45Z</time>
      </trkpt>
      <trkpt lat="46.7483" lon="6.37661">
        <ele>911.9</ele>
        <time>2022-11-08T13:43:51Z</time>
      </trkpt>
      <trkpt lat="46.74834" lon="6.37666">
        <ele>911.7</ele>
        <time>2022-11-08T13:43:56Z</time>
      </trkpt>
      <trkpt lat="46.74838" lon="6.37671">
        <ele>912.1</ele>
        <time>2022-11-08T13:44:01Z</time>
      </trkpt>
      <trkpt lat="46.74843" lon="6.37676">
        <ele>912.6</ele>
        <time>2022-11-08T13:44:06Z</time>
      </trkpt>
      <trkpt lat="46.74847" lon="6.3768">
        <ele>912.7</ele>
        <time>2022-11-08T13:44:10Z</time>
      </trkpt>
      <trkpt lat="46.7485" lon="6.37684">
        <ele>912.8</ele>
        <time>2022-11-08T13:44:14Z</time>
      </trkpt>
      <trkpt lat="46.74855" lon="6.37687">
        <ele>912.8</ele>
        <time>2022-11-08T13:44:19Z</time>
      </trkpt>
      <trkpt lat="46.74859" lon="6.37691">
        <ele>913.1</ele>
        <time>2022-11-08T13:44:24Z</time>
      </trkpt>
      <trkpt lat="46.74862" lon="6.37696">
        <ele>912.9</ele>
        <time>2022-11-08T13:44:29Z</time>
      </trkpt>
      <trkpt lat="46.74866" lon="6.377">
        <ele>912.8</ele>
        <time>2022-11-08T13:44:34Z</time>
      </trkpt>
      <trkpt lat="46.7487" lon="6.37707">
        <ele>913.1</ele>
        <time>2022-11-08T13:44:39Z</time>
      </trkpt>
      <trkpt lat="46.74874" lon="6.37711">
        <ele>913.3</ele>
        <time>2022-11-08T13:44:44Z</time>
      </trkpt>
      <trkpt lat="46.74878" lon="6.37715">
        <ele>913.2</ele>
        <time>2022-11-08T13:44:49Z</time>
      </trkpt>
      <trkpt lat="46.74882" lon="6.3772">
        <ele>913.1</ele>
        <time>2022-11-08T13:44:53Z</time>
      </trkpt>
      <trkpt lat="46.74886" lon="6.37724">
        <ele>913.4</ele>
        <time>2022-11-08T13:44:57Z</time>
      </trkpt>
      <trkpt lat="46.74891" lon="6.37726">
        <ele>914.2</ele>
        <time>2022-11-08T13:45:02Z</time>
      </trkpt>
      <trkpt lat="46.74896" lon="6.37728">
        <ele>915.1</ele>
        <time>2022-11-08T13:45:07Z</time>
      </trkpt>
      <trkpt lat="46.74901" lon="6.37732">
        <ele>915.5</ele>
        <time>2022-11-08T13:45:11Z</time>
      </trkpt>
      <trkpt lat="46.74905" lon="6.37735">
        <ele>915.7</ele>
        <time>2022-11-08T13:45:15Z</time>
      </trkpt>
      <trkpt lat="46.7491" lon="6.37737">
        <ele>916</ele>
        <time>2022-11-08T13:45:20Z</time>
      </trkpt>
      <trkpt lat="46.74915" lon="6.3774">
        <ele>916.2</ele>
        <time>2022-11-08T13:45:25Z</time>
      </trkpt>
      <trkpt lat="46.74919" lon="6.37742">
        <ele>916.4</ele>
        <time>2022-11-08T13:45:29Z</time>
      </trkpt>
      <trkpt lat="46.74923" lon="6.37746">
        <ele>917.2</ele>
        <time>2022-11-08T13:45:34Z</time>
      </trkpt>
      <trkpt lat="46.74926" lon="6.37751">
        <ele>918.2</ele>
        <time>2022-11-08T13:45:40Z</time>
      </trkpt>
      <trkpt lat="46.7493" lon="6.37755">
        <ele>918.7</ele>
        <time>2022-11-08T13:45:45Z</time>
      </trkpt>
      <trkpt lat="46.74935" lon="6.37758">
        <ele>919.1</ele>
        <time>2022-11-08T13:45:49Z</time>
      </trkpt>
      <trkpt lat="46.7494" lon="6.37759">
        <ele>919.7</ele>
        <time>2022-11-08T13:45:53Z</time>
      </trkpt>
      <trkpt lat="46.74945" lon="6.37761">
        <ele>920</ele>
        <time>2022-11-08T13:45:57Z</time>
      </trkpt>
      <trkpt lat="46.7495" lon="6.37762">
        <ele>920.1</ele>
        <time>2022-11-08T13:46:01Z</time>
      </trkpt>
      <trkpt lat="46.74955" lon="6.37764">
        <ele>920.2</ele>
        <time>2022-11-08T13:46:06Z</time>
      </trkpt>
      <trkpt lat="46.74959" lon="6.37766">
        <ele>920</ele>
        <time>2022-11-08T13:46:10Z</time>
      </trkpt>
      <trkpt lat="46.74964" lon="6.37768">
        <ele>919.6</ele>
        <time>2022-11-08T13:46:14Z</time>
      </trkpt>
      <trkpt lat="46.74969" lon="6.3777">
        <ele>918.9</ele>
        <time>2022-11-08T13:46:18Z</time>
      </trkpt>
      <trkpt lat="46.74973" lon="6.37772">
        <ele>918.4</ele>
        <time>2022-11-08T13:46:22Z</time>
      </trkpt>
      <trkpt lat="46.74979" lon="6.37773">
        <ele>917.4</ele>
        <time>2022-11-08T13:46:27Z</time>
      </trkpt>
      <trkpt lat="46.74984" lon="6.37774">
        <ele>916.2</ele>
        <time>2022-11-08T13:46:32Z</time>
      </trkpt>
      <trkpt lat="46.74989" lon="6.37776">
        <ele>914.9</ele>
        <time>2022-11-08T13:46:37Z</time>
      </trkpt>
      <trkpt lat="46.74993" lon="6.37778">
        <ele>914</ele>
        <time>2022-11-08T13:46:42Z</time>
      </trkpt>
      <trkpt lat="46.74998" lon="6.37782">
        <ele>913.9</ele>
        <time>2022-11-08T13:46:47Z</time>
      </trkpt>
      <trkpt lat="46.75003" lon="6.37785">
        <ele>913.8</ele>
        <time>2022-11-08T13:46:52Z</time>
      </trkpt>
      <trkpt lat="46.75008" lon="6.37788">
        <ele>913.6</ele>
        <time>2022-11-08T13:46:57Z</time>
      </trkpt>
      <trkpt lat="46.75013" lon="6.3779">
        <ele>913.8</ele>
        <time>2022-11-08T13:47:01Z</time>
      </trkpt>
      <trkpt lat="46.75017" lon="6.37793">
        <ele>914.2</ele>
        <time>2022-11-08T13:47:05Z</time>
      </trkpt>
      <trkpt lat="46.75021" lon="6.37796">
        <ele>914.9</ele>
        <time>2022-11-08T13:47:09Z</time>
      </trkpt>
      <trkpt lat="46.75025" lon="6.37798">
        <ele>915.6</ele>
        <time>2022-11-08T13:47:14Z</time>
      </trkpt>
      <trkpt lat="46.75029" lon="6.37803">
        <ele>915.7</ele>
        <time>2022-11-08T13:47:49Z</time>
      </trkpt>
      <trkpt lat="46.75034" lon="6.37806">
        <ele>916.1</ele>
        <time>2022-11-08T13:47:56Z</time>
      </trkpt>
      <trkpt lat="46.75039" lon="6.37807">
        <ele>916.3</ele>
        <time>2022-11-08T13:48:01Z</time>
      </trkpt>
      <trkpt lat="46.75044" lon="6.3781">
        <ele>917.3</ele>
        <time>2022-11-08T13:48:06Z</time>
      </trkpt>
      <trkpt lat="46.75048" lon="6.37814">
        <ele>919</ele>
        <time>2022-11-08T13:48:12Z</time>
      </trkpt>
      <trkpt lat="46.75053" lon="6.37818">
        <ele>920.8</ele>
        <time>2022-11-08T13:48:18Z</time>
      </trkpt>
      <trkpt lat="46.75058" lon="6.3782">
        <ele>921.7</ele>
        <time>2022-11-08T13:48:23Z</time>
      </trkpt>
      <trkpt lat="46.75062" lon="6.37824">
        <ele>922.4</ele>
        <time>2022-11-08T13:48:27Z</time>
      </trkpt>
      <trkpt lat="46.75065" lon="6.37829">
        <ele>923.2</ele>
        <time>2022-11-08T13:48:32Z</time>
      </trkpt>
      <trkpt lat="46.75069" lon="6.37835">
        <ele>924.1</ele>
        <time>2022-11-08T13:48:37Z</time>
      </trkpt>
      <trkpt lat="46.75073" lon="6.37838">
        <ele>925.1</ele>
        <time>2022-11-08T13:48:42Z</time>
      </trkpt>
      <trkpt lat="46.75079" lon="6.3784">
        <ele>926.6</ele>
        <time>2022-11-08T13:48:48Z</time>
      </trkpt>
      <trkpt lat="46.75083" lon="6.37843">
        <ele>927.3</ele>
        <time>2022-11-08T13:48:52Z</time>
      </trkpt>
      <trkpt lat="46.75088" lon="6.37846">
        <ele>928</ele>
        <time>2022-11-08T13:48:57Z</time>
      </trkpt>
      <trkpt lat="46.75092" lon="6.37849">
        <ele>928.6</ele>
        <time>2022-11-08T13:49:01Z</time>
      </trkpt>
      <trkpt lat="46.75097" lon="6.37853">
        <ele>929.5</ele>
        <time>2022-11-08T13:49:05Z</time>
      </trkpt>
      <trkpt lat="46.75101" lon="6.37857">
        <ele>930.7</ele>
        <time>2022-11-08T13:49:09Z</time>
      </trkpt>
      <trkpt lat="46.75105" lon="6.37863">
        <ele>931.8</ele>
        <time>2022-11-08T13:49:15Z</time>
      </trkpt>
      <trkpt lat="46.75109" lon="6.37868">
        <ele>931.9</ele>
        <time>2022-11-08T13:49:20Z</time>
      </trkpt>
      <trkpt lat="46.75113" lon="6.37872">
        <ele>932</ele>
        <time>2022-11-08T13:49:25Z</time>
      </trkpt>
      <trkpt lat="46.75116" lon="6.37878">
        <ele>932.8</ele>
        <time>2022-11-08T13:49:30Z</time>
      </trkpt>
      <trkpt lat="46.7512" lon="6.37884">
        <ele>933.5</ele>
        <time>2022-11-08T13:49:35Z</time>
      </trkpt>
      <trkpt lat="46.75123" lon="6.37887">
        <ele>934</ele>
        <time>2022-11-08T13:49:40Z</time>
      </trkpt>
      <trkpt lat="46.75128" lon="6.37892">
        <ele>934.7</ele>
        <time>2022-11-08T13:49:46Z</time>
      </trkpt>
      <trkpt lat="46.75131" lon="6.37896">
        <ele>935</ele>
        <time>2022-11-08T13:49:50Z</time>
      </trkpt>
      <trkpt lat="46.75136" lon="6.37899">
        <ele>935.1</ele>
        <time>2022-11-08T13:49:54Z</time>
      </trkpt>
      <trkpt lat="46.75141" lon="6.37902">
        <ele>935.5</ele>
        <time>2022-11-08T13:49:58Z</time>
      </trkpt>
      <trkpt lat="46.75145" lon="6.37906">
        <ele>935.8</ele>
        <time>2022-11-08T13:50:02Z</time>
      </trkpt>
      <trkpt lat="46.75149" lon="6.3791">
        <ele>936</ele>
        <time>2022-11-08T13:50:06Z</time>
      </trkpt>
      <trkpt lat="46.75154" lon="6.37914">
        <ele>935.2</ele>
        <time>2022-11-08T13:50:11Z</time>
      </trkpt>
      <trkpt lat="46.75158" lon="6.37918">
        <ele>934</ele>
        <time>2022-11-08T13:50:16Z</time>
      </trkpt>
      <trkpt lat="46.75162" lon="6.37923">
        <ele>933</ele>
        <time>2022-11-08T13:50:20Z</time>
      </trkpt>
      <trkpt lat="46.75166" lon="6.37929">
        <ele>932.1</ele>
        <time>2022-11-08T13:50:24Z</time>
      </trkpt>
      <trkpt lat="46.75169" lon="6.37935">
        <ele>931.6</ele>
        <time>2022-11-08T13:50:29Z</time>
      </trkpt>
      <trkpt lat="46.75173" lon="6.37939">
        <ele>931.9</ele>
        <time>2022-11-08T13:50:35Z</time>
      </trkpt>
      <trkpt lat="46.75178" lon="6.37942">
        <ele>932</ele>
        <time>2022-11-08T13:50:40Z</time>
      </trkpt>
      <trkpt lat="46.75181" lon="6.37947">
        <ele>931.8</ele>
        <time>2022-11-08T13:50:46Z</time>
      </trkpt>
      <trkpt lat="46.75185" lon="6.37952">
        <ele>931.2</ele>
        <time>2022-11-08T13:50:51Z</time>
      </trkpt>
      <trkpt lat="46.75189" lon="6.37956">
        <ele>930.4</ele>
        <time>2022-11-08T13:50:56Z</time>
      </trkpt>
      <trkpt lat="46.75194" lon="6.37959">
        <ele>929.6</ele>
        <time>2022-11-08T13:51:00Z</time>
      </trkpt>
      <trkpt lat="46.75198" lon="6.37963">
        <ele>928.5</ele>
        <time>2022-11-08T13:51:04Z</time>
      </trkpt>
      <trkpt lat="46.75202" lon="6.37966">
        <ele>928</ele>
        <time>2022-11-08T13:51:10Z</time>
      </trkpt>
      <trkpt lat="46.75206" lon="6.37969">
        <ele>928</ele>
        <time>2022-11-08T13:51:15Z</time>
      </trkpt>
      <trkpt lat="46.75211" lon="6.37971">
        <ele>927.8</ele>
        <time>2022-11-08T13:51:21Z</time>
      </trkpt>
      <trkpt lat="46.75216" lon="6.37972">
        <ele>927.2</ele>
        <time>2022-11-08T13:51:25Z</time>
      </trkpt>
      <trkpt lat="46.75221" lon="6.37972">
        <ele>926.1</ele>
        <time>2022-11-08T13:51:30Z</time>
      </trkpt>
      <trkpt lat="46.75227" lon="6.37974">
        <ele>925</ele>
        <time>2022-11-08T13:51:36Z</time>
      </trkpt>
      <trkpt lat="46.75232" lon="6.37975">
        <ele>923.9</ele>
        <time>2022-11-08T13:51:41Z</time>
      </trkpt>
      <trkpt lat="46.75237" lon="6.37975">
        <ele>922.8</ele>
        <time>2022-11-08T13:51:47Z</time>
      </trkpt>
      <trkpt lat="46.75239" lon="6.37981">
        <ele>922.5</ele>
        <time>2022-11-08T13:51:54Z</time>
      </trkpt>
      <trkpt lat="46.75244" lon="6.37985">
        <ele>922.4</ele>
        <time>2022-11-08T13:52:00Z</time>
      </trkpt>
      <trkpt lat="46.75249" lon="6.37987">
        <ele>922.6</ele>
        <time>2022-11-08T13:52:05Z</time>
      </trkpt>
      <trkpt lat="46.75254" lon="6.37989">
        <ele>923.1</ele>
        <time>2022-11-08T13:52:09Z</time>
      </trkpt>
      <trkpt lat="46.75259" lon="6.37992">
        <ele>923.5</ele>
        <time>2022-11-08T13:52:13Z</time>
      </trkpt>
      <trkpt lat="46.75263" lon="6.37994">
        <ele>924</ele>
        <time>2022-11-08T13:52:17Z</time>
      </trkpt>
      <trkpt lat="46.75268" lon="6.37996">
        <ele>924.3</ele>
        <time>2022-11-08T13:52:21Z</time>
      </trkpt>
      <trkpt lat="46.75273" lon="6.37998">
        <ele>924.4</ele>
        <time>2022-11-08T13:52:26Z</time>
      </trkpt>
      <trkpt lat="46.75279" lon="6.37998">
        <ele>924.3</ele>
        <time>2022-11-08T13:52:32Z</time>
      </trkpt>
      <trkpt lat="46.75284" lon="6.38001">
        <ele>924.3</ele>
        <time>2022-11-08T13:52:37Z</time>
      </trkpt>
      <trkpt lat="46.75289" lon="6.38003">
        <ele>924.5</ele>
        <time>2022-11-08T13:52:42Z</time>
      </trkpt>
      <trkpt lat="46.75294" lon="6.38005">
        <ele>924.4</ele>
        <time>2022-11-08T13:52:47Z</time>
      </trkpt>
      <trkpt lat="46.75298" lon="6.38009">
        <ele>924.6</ele>
        <time>2022-11-08T13:52:51Z</time>
      </trkpt>
      <trkpt lat="46.75302" lon="6.38014">
        <ele>925.2</ele>
        <time>2022-11-08T13:52:56Z</time>
      </trkpt>
      <trkpt lat="46.75307" lon="6.38017">
        <ele>925.8</ele>
        <time>2022-11-08T13:53:02Z</time>
      </trkpt>
      <trkpt lat="46.75312" lon="6.38019">
        <ele>926.3</ele>
        <time>2022-11-08T13:53:07Z</time>
      </trkpt>
      <trkpt lat="46.75317" lon="6.3802">
        <ele>926.6</ele>
        <time>2022-11-08T13:53:12Z</time>
      </trkpt>
      <trkpt lat="46.75322" lon="6.3802">
        <ele>927</ele>
        <time>2022-11-08T13:53:17Z</time>
      </trkpt>
      <trkpt lat="46.75327" lon="6.38024">
        <ele>927.3</ele>
        <time>2022-11-08T13:53:22Z</time>
      </trkpt>
      <trkpt lat="46.75332" lon="6.38028">
        <ele>928</ele>
        <time>2022-11-08T13:53:27Z</time>
      </trkpt>
      <trkpt lat="46.75336" lon="6.38031">
        <ele>927.6</ele>
        <time>2022-11-08T13:53:32Z</time>
      </trkpt>
      <trkpt lat="46.7534" lon="6.38034">
        <ele>927.6</ele>
        <time>2022-11-08T13:53:36Z</time>
      </trkpt>
      <trkpt lat="46.75346" lon="6.38035">
        <ele>927.8</ele>
        <time>2022-11-08T13:53:41Z</time>
      </trkpt>
      <trkpt lat="46.75351" lon="6.38037">
        <ele>928.1</ele>
        <time>2022-11-08T13:53:47Z</time>
      </trkpt>
      <trkpt lat="46.75355" lon="6.38041">
        <ele>927.9</ele>
        <time>2022-11-08T13:53:52Z</time>
      </trkpt>
      <trkpt lat="46.7536" lon="6.38044">
        <ele>927.7</ele>
        <time>2022-11-08T13:53:57Z</time>
      </trkpt>
      <trkpt lat="46.75365" lon="6.38046">
        <ele>927.4</ele>
        <time>2022-11-08T13:54:02Z</time>
      </trkpt>
      <trkpt lat="46.7537" lon="6.38048">
        <ele>926.7</ele>
        <time>2022-11-08T13:54:07Z</time>
      </trkpt>
      <trkpt lat="46.75374" lon="6.38052">
        <ele>926.7</ele>
        <time>2022-11-08T13:54:11Z</time>
      </trkpt>
      <trkpt lat="46.75377" lon="6.38057">
        <ele>927.2</ele>
        <time>2022-11-08T13:54:14Z</time>
      </trkpt>
      <trkpt lat="46.75381" lon="6.3806">
        <ele>927.9</ele>
        <time>2022-11-08T13:54:17Z</time>
      </trkpt>
      <trkpt lat="46.75386" lon="6.38064">
        <ele>928.6</ele>
        <time>2022-11-08T13:54:21Z</time>
      </trkpt>
      <trkpt lat="46.75389" lon="6.38069">
        <ele>929.6</ele>
        <time>2022-11-08T13:54:25Z</time>
      </trkpt>
      <trkpt lat="46.75394" lon="6.38074">
        <ele>930.6</ele>
        <time>2022-11-08T13:54:30Z</time>
      </trkpt>
      <trkpt lat="46.75397" lon="6.38078">
        <ele>931.2</ele>
        <time>2022-11-08T13:54:35Z</time>
      </trkpt>
      <trkpt lat="46.75401" lon="6.38084">
        <ele>931.1</ele>
        <time>2022-11-08T13:54:41Z</time>
      </trkpt>
      <trkpt lat="46.75404" lon="6.3809">
        <ele>930.8</ele>
        <time>2022-11-08T13:54:46Z</time>
      </trkpt>
      <trkpt lat="46.75408" lon="6.38094">
        <ele>930.6</ele>
        <time>2022-11-08T13:54:51Z</time>
      </trkpt>
      <trkpt lat="46.75413" lon="6.38099">
        <ele>930.6</ele>
        <time>2022-11-08T13:54:56Z</time>
      </trkpt>
      <trkpt lat="46.75417" lon="6.38103">
        <ele>930.8</ele>
        <time>2022-11-08T13:55:01Z</time>
      </trkpt>
      <trkpt lat="46.75421" lon="6.38108">
        <ele>931.1</ele>
        <time>2022-11-08T13:55:06Z</time>
      </trkpt>
      <trkpt lat="46.75425" lon="6.38112">
        <ele>931.1</ele>
        <time>2022-11-08T13:55:11Z</time>
      </trkpt>
      <trkpt lat="46.75428" lon="6.38117">
        <ele>931.2</ele>
        <time>2022-11-08T13:55:15Z</time>
      </trkpt>
      <trkpt lat="46.75429" lon="6.38124">
        <ele>931.2</ele>
        <time>2022-11-08T13:55:19Z</time>
      </trkpt>
      <trkpt lat="46.75433" lon="6.38128">
        <ele>931.2</ele>
        <time>2022-11-08T13:55:23Z</time>
      </trkpt>
      <trkpt lat="46.75436" lon="6.38133">
        <ele>931.4</ele>
        <time>2022-11-08T13:55:27Z</time>
      </trkpt>
      <trkpt lat="46.75439" lon="6.38139">
        <ele>931.5</ele>
        <time>2022-11-08T13:55:32Z</time>
      </trkpt>
      <trkpt lat="46.75443" lon="6.38144">
        <ele>932</ele>
        <time>2022-11-08T13:55:37Z</time>
      </trkpt>
      <trkpt lat="46.75446" lon="6.38149">
        <ele>932.6</ele>
        <time>2022-11-08T13:55:41Z</time>
      </trkpt>
      <trkpt lat="46.75449" lon="6.38154">
        <ele>933.3</ele>
        <time>2022-11-08T13:55:45Z</time>
      </trkpt>
      <trkpt lat="46.75452" lon="6.3816">
        <ele>934.2</ele>
        <time>2022-11-08T13:55:50Z</time>
      </trkpt>
      <trkpt lat="46.75456" lon="6.38166">
        <ele>935</ele>
        <time>2022-11-08T13:55:55Z</time>
      </trkpt>
      <trkpt lat="46.7546" lon="6.3817">
        <ele>935.4</ele>
        <time>2022-11-08T13:55:59Z</time>
      </trkpt>
      <trkpt lat="46.75463" lon="6.38175">
        <ele>935.9</ele>
        <time>2022-11-08T13:56:03Z</time>
      </trkpt>
      <trkpt lat="46.75465" lon="6.38181">
        <ele>936.4</ele>
        <time>2022-11-08T13:56:07Z</time>
      </trkpt>
      <trkpt lat="46.75468" lon="6.38188">
        <ele>937.4</ele>
        <time>2022-11-08T13:56:12Z</time>
      </trkpt>
      <trkpt lat="46.75472" lon="6.38194">
        <ele>938.3</ele>
        <time>2022-11-08T13:56:17Z</time>
      </trkpt>
      <trkpt lat="46.75476" lon="6.382">
        <ele>938.8</ele>
        <time>2022-11-08T13:56:22Z</time>
      </trkpt>
      <trkpt lat="46.75478" lon="6.38206">
        <ele>938.9</ele>
        <time>2022-11-08T13:56:26Z</time>
      </trkpt>
      <trkpt lat="46.75479" lon="6.38214">
        <ele>938.4</ele>
        <time>2022-11-08T13:56:30Z</time>
      </trkpt>
      <trkpt lat="46.75482" lon="6.38219">
        <ele>938.3</ele>
        <time>2022-11-08T13:56:34Z</time>
      </trkpt>
      <trkpt lat="46.75486" lon="6.38224">
        <ele>937.7</ele>
        <time>2022-11-08T13:56:40Z</time>
      </trkpt>
      <trkpt lat="46.75488" lon="6.38232">
        <ele>937.4</ele>
        <time>2022-11-08T13:56:45Z</time>
      </trkpt>
      <trkpt lat="46.75491" lon="6.38238">
        <ele>937.6</ele>
        <time>2022-11-08T13:56:50Z</time>
      </trkpt>
      <trkpt lat="46.75493" lon="6.38244">
        <ele>937.8</ele>
        <time>2022-11-08T13:56:54Z</time>
      </trkpt>
      <trkpt lat="46.75497" lon="6.38249">
        <ele>937.8</ele>
        <time>2022-11-08T13:56:59Z</time>
      </trkpt>
      <trkpt lat="46.75498" lon="6.38256">
        <ele>937.7</ele>
        <time>2022-11-08T13:57:03Z</time>
      </trkpt>
      <trkpt lat="46.75501" lon="6.38262">
        <ele>937.5</ele>
        <time>2022-11-08T13:57:08Z</time>
      </trkpt>
      <trkpt lat="46.75503" lon="6.38269">
        <ele>937.3</ele>
        <time>2022-11-08T13:57:13Z</time>
      </trkpt>
      <trkpt lat="46.75505" lon="6.38276">
        <ele>937.5</ele>
        <time>2022-11-08T13:57:17Z</time>
      </trkpt>
      <trkpt lat="46.75507" lon="6.38283">
        <ele>937.3</ele>
        <time>2022-11-08T13:57:22Z</time>
      </trkpt>
      <trkpt lat="46.75511" lon="6.38289">
        <ele>937</ele>
        <time>2022-11-08T13:57:28Z</time>
      </trkpt>
      <trkpt lat="46.75514" lon="6.38294">
        <ele>936.8</ele>
        <time>2022-11-08T13:57:33Z</time>
      </trkpt>
      <trkpt lat="46.75517" lon="6.383">
        <ele>936.7</ele>
        <time>2022-11-08T13:57:37Z</time>
      </trkpt>
      <trkpt lat="46.7552" lon="6.38306">
        <ele>936.3</ele>
        <time>2022-11-08T13:57:41Z</time>
      </trkpt>
      <trkpt lat="46.75522" lon="6.38312">
        <ele>936</ele>
        <time>2022-11-08T13:57:46Z</time>
      </trkpt>
      <trkpt lat="46.75525" lon="6.38319">
        <ele>936</ele>
        <time>2022-11-08T13:57:51Z</time>
      </trkpt>
      <trkpt lat="46.75527" lon="6.38325">
        <ele>936.1</ele>
        <time>2022-11-08T13:57:55Z</time>
      </trkpt>
      <trkpt lat="46.7553" lon="6.3833">
        <ele>936.3</ele>
        <time>2022-11-08T13:57:59Z</time>
      </trkpt>
      <trkpt lat="46.75533" lon="6.38335">
        <ele>936.6</ele>
        <time>2022-11-08T13:58:04Z</time>
      </trkpt>
      <trkpt lat="46.75536" lon="6.38341">
        <ele>936.5</ele>
        <time>2022-11-08T13:58:09Z</time>
      </trkpt>
      <trkpt lat="46.75537" lon="6.38348">
        <ele>936.2</ele>
        <time>2022-11-08T13:58:13Z</time>
      </trkpt>
      <trkpt lat="46.75538" lon="6.38354">
        <ele>936.1</ele>
        <time>2022-11-08T13:58:17Z</time>
      </trkpt>
      <trkpt lat="46.7554" lon="6.38361">
        <ele>936</ele>
        <time>2022-11-08T13:58:22Z</time>
      </trkpt>
      <trkpt lat="46.75543" lon="6.38367">
        <ele>935.9</ele>
        <time>2022-11-08T13:58:27Z</time>
      </trkpt>
      <trkpt lat="46.75545" lon="6.38373">
        <ele>935.7</ele>
        <time>2022-11-08T13:58:32Z</time>
      </trkpt>
      <trkpt lat="46.75547" lon="6.38379">
        <ele>935.5</ele>
        <time>2022-11-08T13:58:37Z</time>
      </trkpt>
      <trkpt lat="46.75549" lon="6.38385">
        <ele>935.1</ele>
        <time>2022-11-08T13:58:42Z</time>
      </trkpt>
      <trkpt lat="46.75551" lon="6.38393">
        <ele>934.7</ele>
        <time>2022-11-08T13:58:47Z</time>
      </trkpt>
      <trkpt lat="46.75553" lon="6.384">
        <ele>934.2</ele>
        <time>2022-11-08T13:58:52Z</time>
      </trkpt>
      <trkpt lat="46.75554" lon="6.38406">
        <ele>934.2</ele>
        <time>2022-11-08T13:58:56Z</time>
      </trkpt>
      <trkpt lat="46.75556" lon="6.38413">
        <ele>934.4</ele>
        <time>2022-11-08T13:59:01Z</time>
      </trkpt>
      <trkpt lat="46.75558" lon="6.3842">
        <ele>935</ele>
        <time>2022-11-08T13:59:06Z</time>
      </trkpt>
      <trkpt lat="46.7556" lon="6.38427">
        <ele>935.5</ele>
        <time>2022-11-08T13:59:11Z</time>
      </trkpt>
      <trkpt lat="46.7556" lon="6.38434">
        <ele>935.2</ele>
        <time>2022-11-08T13:59:34Z</time>
      </trkpt>
      <trkpt lat="46.75563" lon="6.38438">
        <ele>935</ele>
        <time>2022-11-08T13:59:40Z</time>
      </trkpt>
      <trkpt lat="46.75565" lon="6.38445">
        <ele>935.4</ele>
        <time>2022-11-08T13:59:46Z</time>
      </trkpt>
      <trkpt lat="46.75567" lon="6.38452">
        <ele>936</ele>
        <time>2022-11-08T13:59:52Z</time>
      </trkpt>
      <trkpt lat="46.75569" lon="6.38458">
        <ele>936.5</ele>
        <time>2022-11-08T13:59:58Z</time>
      </trkpt>
      <trkpt lat="46.75572" lon="6.38464">
        <ele>936.8</ele>
        <time>2022-11-08T14:00:04Z</time>
      </trkpt>
      <trkpt lat="46.75574" lon="6.38471">
        <ele>937.6</ele>
        <time>2022-11-08T14:00:09Z</time>
      </trkpt>
      <trkpt lat="46.75576" lon="6.38477">
        <ele>937.9</ele>
        <time>2022-11-08T14:00:13Z</time>
      </trkpt>
      <trkpt lat="46.75578" lon="6.38485">
        <ele>938</ele>
        <time>2022-11-08T14:00:18Z</time>
      </trkpt>
      <trkpt lat="46.75579" lon="6.38491">
        <ele>937.9</ele>
        <time>2022-11-08T14:00:23Z</time>
      </trkpt>
      <trkpt lat="46.75581" lon="6.38497">
        <ele>937.9</ele>
        <time>2022-11-08T14:00:28Z</time>
      </trkpt>
      <trkpt lat="46.75584" lon="6.38504">
        <ele>938.2</ele>
        <time>2022-11-08T14:00:33Z</time>
      </trkpt>
      <trkpt lat="46.75586" lon="6.3851">
        <ele>938.2</ele>
        <time>2022-11-08T14:00:38Z</time>
      </trkpt>
      <trkpt lat="46.75588" lon="6.38517">
        <ele>937.7</ele>
        <time>2022-11-08T14:00:44Z</time>
      </trkpt>
      <trkpt lat="46.7559" lon="6.38524">
        <ele>937.1</ele>
        <time>2022-11-08T14:00:49Z</time>
      </trkpt>
      <trkpt lat="46.75592" lon="6.38531">
        <ele>936.8</ele>
        <time>2022-11-08T14:00:54Z</time>
      </trkpt>
      <trkpt lat="46.75594" lon="6.38537">
        <ele>936.8</ele>
        <time>2022-11-08T14:00:58Z</time>
      </trkpt>
      <trkpt lat="46.75596" lon="6.38543">
        <ele>937.2</ele>
        <time>2022-11-08T14:01:02Z</time>
      </trkpt>
      <trkpt lat="46.75599" lon="6.38549">
        <ele>937.5</ele>
        <time>2022-11-08T14:01:07Z</time>
      </trkpt>
      <trkpt lat="46.75601" lon="6.38555">
        <ele>937.7</ele>
        <time>2022-11-08T14:01:11Z</time>
      </trkpt>
      <trkpt lat="46.75603" lon="6.38561">
        <ele>937.7</ele>
        <time>2022-11-08T14:01:15Z</time>
      </trkpt>
      <trkpt lat="46.75606" lon="6.38568">
        <ele>938</ele>
        <time>2022-11-08T14:01:19Z</time>
      </trkpt>
      <trkpt lat="46.7561" lon="6.38573">
        <ele>938.8</ele>
        <time>2022-11-08T14:01:24Z</time>
      </trkpt>
      <trkpt lat="46.75614" lon="6.38577">
        <ele>940.1</ele>
        <time>2022-11-08T14:01:30Z</time>
      </trkpt>
      <trkpt lat="46.75618" lon="6.38583">
        <ele>941.3</ele>
        <time>2022-11-08T14:01:36Z</time>
      </trkpt>
      <trkpt lat="46.75621" lon="6.38589">
        <ele>942</ele>
        <time>2022-11-08T14:01:40Z</time>
      </trkpt>
      <trkpt lat="46.75624" lon="6.38595">
        <ele>942.9</ele>
        <time>2022-11-08T14:01:44Z</time>
      </trkpt>
      <trkpt lat="46.75628" lon="6.38601">
        <ele>944</ele>
        <time>2022-11-08T14:01:49Z</time>
      </trkpt>
      <trkpt lat="46.75632" lon="6.38606">
        <ele>944.4</ele>
        <time>2022-11-08T14:01:53Z</time>
      </trkpt>
      <trkpt lat="46.75635" lon="6.38612">
        <ele>944.1</ele>
        <time>2022-11-08T14:01:58Z</time>
      </trkpt>
      <trkpt lat="46.75639" lon="6.38618">
        <ele>944</ele>
        <time>2022-11-08T14:02:03Z</time>
      </trkpt>
      <trkpt lat="46.75643" lon="6.38623">
        <ele>944.2</ele>
        <time>2022-11-08T14:02:08Z</time>
      </trkpt>
      <trkpt lat="46.75648" lon="6.38627">
        <ele>945</ele>
        <time>2022-11-08T14:02:14Z</time>
      </trkpt>
      <trkpt lat="46.75652" lon="6.38631">
        <ele>945.6</ele>
        <time>2022-11-08T14:02:19Z</time>
      </trkpt>
      <trkpt lat="46.75655" lon="6.38637">
        <ele>945.8</ele>
        <time>2022-11-08T14:02:24Z</time>
      </trkpt>
      <trkpt lat="46.7566" lon="6.3864">
        <ele>945.8</ele>
        <time>2022-11-08T14:02:29Z</time>
      </trkpt>
      <trkpt lat="46.75664" lon="6.38642">
        <ele>945.7</ele>
        <time>2022-11-08T14:02:33Z</time>
      </trkpt>
      <trkpt lat="46.75668" lon="6.38645">
        <ele>945.3</ele>
        <time>2022-11-08T14:02:38Z</time>
      </trkpt>
      <trkpt lat="46.75671" lon="6.38653">
        <ele>944.9</ele>
        <time>2022-11-08T14:02:43Z</time>
      </trkpt>
      <trkpt lat="46.75674" lon="6.3866">
        <ele>944.7</ele>
        <time>2022-11-08T14:02:47Z</time>
      </trkpt>
      <trkpt lat="46.75676" lon="6.38665">
        <ele>944.4</ele>
        <time>2022-11-08T14:02:51Z</time>
      </trkpt>
      <trkpt lat="46.75679" lon="6.38671">
        <ele>944.2</ele>
        <time>2022-11-08T14:02:55Z</time>
      </trkpt>
      <trkpt lat="46.75683" lon="6.38675">
        <ele>943.8</ele>
        <time>2022-11-08T14:03:00Z</time>
      </trkpt>
      <trkpt lat="46.75689" lon="6.38678">
        <ele>943.4</ele>
        <time>2022-11-08T14:03:05Z</time>
      </trkpt>
      <trkpt lat="46.75693" lon="6.3868">
        <ele>943.7</ele>
        <time>2022-11-08T14:03:09Z</time>
      </trkpt>
      <trkpt lat="46.75698" lon="6.38682">
        <ele>944.3</ele>
        <time>2022-11-08T14:03:13Z</time>
      </trkpt>
      <trkpt lat="46.75702" lon="6.38682">
        <ele>945.9</ele>
        <time>2022-11-08T14:03:19Z</time>
      </trkpt>
      <trkpt lat="46.75708" lon="6.38683">
        <ele>945.9</ele>
        <time>2022-11-08T14:03:24Z</time>
      </trkpt>
      <trkpt lat="46.75712" lon="6.38686">
        <ele>946.1</ele>
        <time>2022-11-08T14:03:29Z</time>
      </trkpt>
      <trkpt lat="46.75717" lon="6.38689">
        <ele>947.8</ele>
        <time>2022-11-08T14:03:34Z</time>
      </trkpt>
      <trkpt lat="46.75721" lon="6.38693">
        <ele>949.4</ele>
        <time>2022-11-08T14:03:38Z</time>
      </trkpt>
      <trkpt lat="46.75726" lon="6.38696">
        <ele>951.2</ele>
        <time>2022-11-08T14:03:43Z</time>
      </trkpt>
      <trkpt lat="46.75731" lon="6.38699">
        <ele>953.2</ele>
        <time>2022-11-08T14:03:48Z</time>
      </trkpt>
      <trkpt lat="46.75736" lon="6.38702">
        <ele>954.9</ele>
        <time>2022-11-08T14:03:53Z</time>
      </trkpt>
      <trkpt lat="46.7574" lon="6.38706">
        <ele>955.6</ele>
        <time>2022-11-08T14:03:57Z</time>
      </trkpt>
      <trkpt lat="46.75745" lon="6.38709">
        <ele>956.2</ele>
        <time>2022-11-08T14:04:01Z</time>
      </trkpt>
      <trkpt lat="46.75749" lon="6.38713">
        <ele>956.6</ele>
        <time>2022-11-08T14:04:05Z</time>
      </trkpt>
      <trkpt lat="46.75754" lon="6.38716">
        <ele>956.9</ele>
        <time>2022-11-08T14:04:10Z</time>
      </trkpt>
      <trkpt lat="46.75759" lon="6.38717">
        <ele>956.8</ele>
        <time>2022-11-08T14:04:15Z</time>
      </trkpt>
      <trkpt lat="46.75764" lon="6.3872">
        <ele>956</ele>
        <time>2022-11-08T14:04:21Z</time>
      </trkpt>
      <trkpt lat="46.75768" lon="6.38722">
        <ele>953.7</ele>
        <time>2022-11-08T14:04:30Z</time>
      </trkpt>
      <trkpt lat="46.75773" lon="6.38724">
        <ele>952.4</ele>
        <time>2022-11-08T14:04:35Z</time>
      </trkpt>
      <trkpt lat="46.75778" lon="6.38725">
        <ele>950.8</ele>
        <time>2022-11-08T14:04:41Z</time>
      </trkpt>
      <trkpt lat="46.75784" lon="6.38727">
        <ele>949.2</ele>
        <time>2022-11-08T14:04:47Z</time>
      </trkpt>
      <trkpt lat="46.75788" lon="6.38728">
        <ele>947.9</ele>
        <time>2022-11-08T14:04:52Z</time>
      </trkpt>
      <trkpt lat="46.75793" lon="6.38726">
        <ele>947.2</ele>
        <time>2022-11-08T14:04:55Z</time>
      </trkpt>
      <trkpt lat="46.75798" lon="6.38727">
        <ele>946.9</ele>
        <time>2022-11-08T14:04:59Z</time>
      </trkpt>
      <trkpt lat="46.75803" lon="6.38728">
        <ele>946.8</ele>
        <time>2022-11-08T14:05:02Z</time>
      </trkpt>
      <trkpt lat="46.75808" lon="6.38729">
        <ele>947.3</ele>
        <time>2022-11-08T14:05:06Z</time>
      </trkpt>
      <trkpt lat="46.75814" lon="6.38728">
        <ele>948.1</ele>
        <time>2022-11-08T14:05:10Z</time>
      </trkpt>
      <trkpt lat="46.75819" lon="6.38729">
        <ele>949.3</ele>
        <time>2022-11-08T14:05:15Z</time>
      </trkpt>
      <trkpt lat="46.75823" lon="6.38732">
        <ele>950.2</ele>
        <time>2022-11-08T14:05:19Z</time>
      </trkpt>
      <trkpt lat="46.75828" lon="6.38734">
        <ele>951.1</ele>
        <time>2022-11-08T14:05:24Z</time>
      </trkpt>
      <trkpt lat="46.75832" lon="6.38739">
        <ele>951.9</ele>
        <time>2022-11-08T14:05:29Z</time>
      </trkpt>
      <trkpt lat="46.75836" lon="6.38739">
        <ele>952.5</ele>
        <time>2022-11-08T14:05:35Z</time>
      </trkpt>
      <trkpt lat="46.7584" lon="6.38744">
        <ele>952.4</ele>
        <time>2022-11-08T14:05:40Z</time>
      </trkpt>
      <trkpt lat="46.75844" lon="6.38747">
        <ele>952</ele>
        <time>2022-11-08T14:05:45Z</time>
      </trkpt>
      <trkpt lat="46.75849" lon="6.38747">
        <ele>951.2</ele>
        <time>2022-11-08T14:05:50Z</time>
      </trkpt>
      <trkpt lat="46.75855" lon="6.38747">
        <ele>950.1</ele>
        <time>2022-11-08T14:05:55Z</time>
      </trkpt>
      <trkpt lat="46.75859" lon="6.38748">
        <ele>948.6</ele>
        <time>2022-11-08T14:06:01Z</time>
      </trkpt>
      <trkpt lat="46.75864" lon="6.38752">
        <ele>947.8</ele>
        <time>2022-11-08T14:06:08Z</time>
      </trkpt>
      <trkpt lat="46.75869" lon="6.38754">
        <ele>947.7</ele>
        <time>2022-11-08T14:06:13Z</time>
      </trkpt>
      <trkpt lat="46.75873" lon="6.38756">
        <ele>947.6</ele>
        <time>2022-11-08T14:06:18Z</time>
      </trkpt>
      <trkpt lat="46.75878" lon="6.38756">
        <ele>947.7</ele>
        <time>2022-11-08T14:06:23Z</time>
      </trkpt>
      <trkpt lat="46.75882" lon="6.3876">
        <ele>948.1</ele>
        <time>2022-11-08T14:06:29Z</time>
      </trkpt>
      <trkpt lat="46.75887" lon="6.38762">
        <ele>948.6</ele>
        <time>2022-11-08T14:06:36Z</time>
      </trkpt>
      <trkpt lat="46.75892" lon="6.38763">
        <ele>949.4</ele>
        <time>2022-11-08T14:06:41Z</time>
      </trkpt>
      <trkpt lat="46.75896" lon="6.38768">
        <ele>950.3</ele>
        <time>2022-11-08T14:06:46Z</time>
      </trkpt>
      <trkpt lat="46.75899" lon="6.38774">
        <ele>951.2</ele>
        <time>2022-11-08T14:06:50Z</time>
      </trkpt>
      <trkpt lat="46.759" lon="6.3878">
        <ele>952.2</ele>
        <time>2022-11-08T14:06:54Z</time>
      </trkpt>
      <trkpt lat="46.75902" lon="6.38787">
        <ele>953.3</ele>
        <time>2022-11-08T14:06:59Z</time>
      </trkpt>
      <trkpt lat="46.75905" lon="6.38793">
        <ele>954.5</ele>
        <time>2022-11-08T14:07:05Z</time>
      </trkpt>
      <trkpt lat="46.75908" lon="6.38799">
        <ele>955</ele>
        <time>2022-11-08T14:07:11Z</time>
      </trkpt>
      <trkpt lat="46.7591" lon="6.38805">
        <ele>955.2</ele>
        <time>2022-11-08T14:07:16Z</time>
      </trkpt>
      <trkpt lat="46.75913" lon="6.3881">
        <ele>955.3</ele>
        <time>2022-11-08T14:07:20Z</time>
      </trkpt>
      <trkpt lat="46.75916" lon="6.38815">
        <ele>955.7</ele>
        <time>2022-11-08T14:07:24Z</time>
      </trkpt>
      <trkpt lat="46.75919" lon="6.38821">
        <ele>956.4</ele>
        <time>2022-11-08T14:07:29Z</time>
      </trkpt>
      <trkpt lat="46.7592" lon="6.38827">
        <ele>957.2</ele>
        <time>2022-11-08T14:07:34Z</time>
      </trkpt>
      <trkpt lat="46.75922" lon="6.38834">
        <ele>958</ele>
        <time>2022-11-08T14:07:39Z</time>
      </trkpt>
      <trkpt lat="46.75922" lon="6.38841">
        <ele>958.4</ele>
        <time>2022-11-08T14:07:43Z</time>
      </trkpt>
      <trkpt lat="46.75923" lon="6.38848">
        <ele>958.7</ele>
        <time>2022-11-08T14:07:47Z</time>
      </trkpt>
      <trkpt lat="46.75924" lon="6.38855">
        <ele>959.4</ele>
        <time>2022-11-08T14:07:52Z</time>
      </trkpt>
      <trkpt lat="46.75925" lon="6.38862">
        <ele>959.7</ele>
        <time>2022-11-08T14:07:56Z</time>
      </trkpt>
      <trkpt lat="46.75927" lon="6.38869">
        <ele>959.9</ele>
        <time>2022-11-08T14:08:00Z</time>
      </trkpt>
      <trkpt lat="46.75928" lon="6.38876">
        <ele>960.2</ele>
        <time>2022-11-08T14:08:05Z</time>
      </trkpt>
      <trkpt lat="46.7593" lon="6.38883">
        <ele>960.7</ele>
        <time>2022-11-08T14:08:10Z</time>
      </trkpt>
      <trkpt lat="46.75931" lon="6.38889">
        <ele>960.7</ele>
        <time>2022-11-08T14:08:16Z</time>
      </trkpt>
      <trkpt lat="46.75934" lon="6.38896">
        <ele>960</ele>
        <time>2022-11-08T14:08:22Z</time>
      </trkpt>
      <trkpt lat="46.75937" lon="6.38903">
        <ele>959.3</ele>
        <time>2022-11-08T14:08:27Z</time>
      </trkpt>
      <trkpt lat="46.75939" lon="6.38909">
        <ele>958.8</ele>
        <time>2022-11-08T14:08:31Z</time>
      </trkpt>
      <trkpt lat="46.75941" lon="6.38915">
        <ele>958.3</ele>
        <time>2022-11-08T14:08:36Z</time>
      </trkpt>
      <trkpt lat="46.75943" lon="6.38921">
        <ele>958</ele>
        <time>2022-11-08T14:08:41Z</time>
      </trkpt>
      <trkpt lat="46.75947" lon="6.38926">
        <ele>957.7</ele>
        <time>2022-11-08T14:08:46Z</time>
      </trkpt>
      <trkpt lat="46.7595" lon="6.38932">
        <ele>957.5</ele>
        <time>2022-11-08T14:08:51Z</time>
      </trkpt>
      <trkpt lat="46.75952" lon="6.38939">
        <ele>957</ele>
        <time>2022-11-08T14:08:56Z</time>
      </trkpt>
      <trkpt lat="46.75956" lon="6.38944">
        <ele>956.4</ele>
        <time>2022-11-08T14:09:01Z</time>
      </trkpt>
      <trkpt lat="46.75959" lon="6.38949">
        <ele>956.5</ele>
        <time>2022-11-08T14:09:06Z</time>
      </trkpt>
      <trkpt lat="46.75961" lon="6.38956">
        <ele>957</ele>
        <time>2022-11-08T14:09:11Z</time>
      </trkpt>
      <trkpt lat="46.75964" lon="6.38962">
        <ele>957</ele>
        <time>2022-11-08T14:09:15Z</time>
      </trkpt>
      <trkpt lat="46.75968" lon="6.38966">
        <ele>957</ele>
        <time>2022-11-08T14:09:19Z</time>
      </trkpt>
      <trkpt lat="46.75972" lon="6.38971">
        <ele>957.2</ele>
        <time>2022-11-08T14:09:24Z</time>
      </trkpt>
      <trkpt lat="46.75974" lon="6.38977">
        <ele>957.5</ele>
        <time>2022-11-08T14:09:28Z</time>
      </trkpt>
      <trkpt lat="46.75977" lon="6.38983">
        <ele>958</ele>
        <time>2022-11-08T14:09:33Z</time>
      </trkpt>
      <trkpt lat="46.75979" lon="6.38989">
        <ele>958.9</ele>
        <time>2022-11-08T14:09:37Z</time>
      </trkpt>
      <trkpt lat="46.7598" lon="6.38996">
        <ele>960.1</ele>
        <time>2022-11-08T14:09:42Z</time>
      </trkpt>
      <trkpt lat="46.7598" lon="6.39003">
        <ele>962</ele>
        <time>2022-11-08T14:09:50Z</time>
      </trkpt>
      <trkpt lat="46.7598" lon="6.3901">
        <ele>962.9</ele>
        <time>2022-11-08T14:09:55Z</time>
      </trkpt>
      <trkpt lat="46.7598" lon="6.39016">
        <ele>963.1</ele>
        <time>2022-11-08T14:10:00Z</time>
      </trkpt>
      <trkpt lat="46.75981" lon="6.39023">
        <ele>963.2</ele>
        <time>2022-11-08T14:10:05Z</time>
      </trkpt>
      <trkpt lat="46.75983" lon="6.39029">
        <ele>963.5</ele>
        <time>2022-11-08T14:10:13Z</time>
      </trkpt>
      <trkpt lat="46.75985" lon="6.39035">
        <ele>963.3</ele>
        <time>2022-11-08T14:10:18Z</time>
      </trkpt>
      <trkpt lat="46.75988" lon="6.39041">
        <ele>962.9</ele>
        <time>2022-11-08T14:10:23Z</time>
      </trkpt>
      <trkpt lat="46.75991" lon="6.39046">
        <ele>962.9</ele>
        <time>2022-11-08T14:10:28Z</time>
      </trkpt>
      <trkpt lat="46.75995" lon="6.39047">
        <ele>962</ele>
        <time>2022-11-08T14:11:50Z</time>
      </trkpt>
      <trkpt lat="46.76" lon="6.39049">
        <ele>964</ele>
        <time>2022-11-08T14:12:26Z</time>
      </trkpt>
      <trkpt lat="46.76006" lon="6.39049">
        <ele>963.9</ele>
        <time>2022-11-08T14:12:31Z</time>
      </trkpt>
      <trkpt lat="46.76012" lon="6.39048">
        <ele>963.8</ele>
        <time>2022-11-08T14:12:35Z</time>
      </trkpt>
      <trkpt lat="46.76008" lon="6.39055">
        <ele>965.2</ele>
        <time>2022-11-08T14:13:13Z</time>
      </trkpt>
      <trkpt lat="46.76005" lon="6.3906">
        <ele>965.1</ele>
        <time>2022-11-08T14:13:17Z</time>
      </trkpt>
      <trkpt lat="46.76004" lon="6.39067">
        <ele>963.8</ele>
        <time>2022-11-08T14:13:28Z</time>
      </trkpt>
      <trkpt lat="46.76004" lon="6.39073">
        <ele>962.5</ele>
        <time>2022-11-08T14:13:37Z</time>
      </trkpt>
      <trkpt lat="46.76003" lon="6.3908">
        <ele>961.4</ele>
        <time>2022-11-08T14:13:45Z</time>
      </trkpt>
      <trkpt lat="46.76002" lon="6.39087">
        <ele>960.6</ele>
        <time>2022-11-08T14:13:52Z</time>
      </trkpt>
      <trkpt lat="46.76002" lon="6.39095">
        <ele>959.6</ele>
        <time>2022-11-08T14:13:58Z</time>
      </trkpt>
      <trkpt lat="46.76002" lon="6.39101">
        <ele>958.4</ele>
        <time>2022-11-08T14:14:06Z</time>
      </trkpt>
      <trkpt lat="46.75999" lon="6.39107">
        <ele>957.4</ele>
        <time>2022-11-08T14:14:16Z</time>
      </trkpt>
      <trkpt lat="46.76" lon="6.39114">
        <ele>956.7</ele>
        <time>2022-11-08T14:14:22Z</time>
      </trkpt>
      <trkpt lat="46.76001" lon="6.3912">
        <ele>955.9</ele>
        <time>2022-11-08T14:14:27Z</time>
      </trkpt>
      <trkpt lat="46.76002" lon="6.39128">
        <ele>954.9</ele>
        <time>2022-11-08T14:14:33Z</time>
      </trkpt>
      <trkpt lat="46.76001" lon="6.39135">
        <ele>953.7</ele>
        <time>2022-11-08T14:14:41Z</time>
      </trkpt>
      <trkpt lat="46.76001" lon="6.39142">
        <ele>952.7</ele>
        <time>2022-11-08T14:14:47Z</time>
      </trkpt>
      <trkpt lat="46.76001" lon="6.3915">
        <ele>951.6</ele>
        <time>2022-11-08T14:14:53Z</time>
      </trkpt>
      <trkpt lat="46.76001" lon="6.39157">
        <ele>950.6</ele>
        <time>2022-11-08T14:14:59Z</time>
      </trkpt>
      <trkpt lat="46.76003" lon="6.39164">
        <ele>949.5</ele>
        <time>2022-11-08T14:15:06Z</time>
      </trkpt>
      <trkpt lat="46.76005" lon="6.39171">
        <ele>948.4</ele>
        <time>2022-11-08T14:15:13Z</time>
      </trkpt>
      <trkpt lat="46.76002" lon="6.39176">
        <ele>946.8</ele>
        <time>2022-11-08T14:15:21Z</time>
      </trkpt>
      <trkpt lat="46.75997" lon="6.39179">
        <ele>945.5</ele>
        <time>2022-11-08T14:15:26Z</time>
      </trkpt>
      <trkpt lat="46.75993" lon="6.39175">
        <ele>941.8</ele>
        <time>2022-11-08T14:15:42Z</time>
      </trkpt>
      <trkpt lat="46.75989" lon="6.39175">
        <ele>939.5</ele>
        <time>2022-11-08T14:16:20Z</time>
      </trkpt>
      <trkpt lat="46.75986" lon="6.3918">
        <ele>941.1</ele>
        <time>2022-11-08T14:17:05Z</time>
      </trkpt>
      <trkpt lat="46.75981" lon="6.3918">
        <ele>941.1</ele>
        <time>2022-11-08T14:17:13Z</time>
      </trkpt>
      <trkpt lat="46.75976" lon="6.39177">
        <ele>940.3</ele>
        <time>2022-11-08T14:17:21Z</time>
      </trkpt>
      <trkpt lat="46.75972" lon="6.39176">
        <ele>939.4</ele>
        <time>2022-11-08T14:17:27Z</time>
      </trkpt>
      <trkpt lat="46.75968" lon="6.39171">
        <ele>938.6</ele>
        <time>2022-11-08T14:17:35Z</time>
      </trkpt>
      <trkpt lat="46.75964" lon="6.39168">
        <ele>938.2</ele>
        <time>2022-11-08T14:17:42Z</time>
      </trkpt>
      <trkpt lat="46.7596" lon="6.39162">
        <ele>937.3</ele>
        <time>2022-11-08T14:17:48Z</time>
      </trkpt>
      <trkpt lat="46.75957" lon="6.39158">
        <ele>935.7</ele>
        <time>2022-11-08T14:17:56Z</time>
      </trkpt>
      <trkpt lat="46.75952" lon="6.39155">
        <ele>935.1</ele>
        <time>2022-11-08T14:18:03Z</time>
      </trkpt>
      <trkpt lat="46.75947" lon="6.39152">
        <ele>935.3</ele>
        <time>2022-11-08T14:18:09Z</time>
      </trkpt>
      <trkpt lat="46.75944" lon="6.39147">
        <ele>935.6</ele>
        <time>2022-11-08T14:18:15Z</time>
      </trkpt>
      <trkpt lat="46.7594" lon="6.39142">
        <ele>935.6</ele>
        <time>2022-11-08T14:18:20Z</time>
      </trkpt>
      <trkpt lat="46.75936" lon="6.39137">
        <ele>934.8</ele>
        <time>2022-11-08T14:18:27Z</time>
      </trkpt>
      <trkpt lat="46.75932" lon="6.39132">
        <ele>933.8</ele>
        <time>2022-11-08T14:18:32Z</time>
      </trkpt>
      <trkpt lat="46.75929" lon="6.39126">
        <ele>932.2</ele>
        <time>2022-11-08T14:18:38Z</time>
      </trkpt>
      <trkpt lat="46.75925" lon="6.39122">
        <ele>931.3</ele>
        <time>2022-11-08T14:18:43Z</time>
      </trkpt>
      <trkpt lat="46.7592" lon="6.3912">
        <ele>929.9</ele>
        <time>2022-11-08T14:18:49Z</time>
      </trkpt>
      <trkpt lat="46.75915" lon="6.39118">
        <ele>928.2</ele>
        <time>2022-11-08T14:18:55Z</time>
      </trkpt>
      <trkpt lat="46.75911" lon="6.39116">
        <ele>926.7</ele>
        <time>2022-11-08T14:19:00Z</time>
      </trkpt>
      <trkpt lat="46.75906" lon="6.39115">
        <ele>925.1</ele>
        <time>2022-11-08T14:19:06Z</time>
      </trkpt>
      <trkpt lat="46.75901" lon="6.39116">
        <ele>923.5</ele>
        <time>2022-11-08T14:19:12Z</time>
      </trkpt>
      <trkpt lat="46.75897" lon="6.39113">
        <ele>922</ele>
        <time>2022-11-08T14:19:19Z</time>
      </trkpt>
      <trkpt lat="46.75892" lon="6.39109">
        <ele>920.6</ele>
        <time>2022-11-08T14:19:25Z</time>
      </trkpt>
      <trkpt lat="46.75887" lon="6.39108">
        <ele>918.3</ele>
        <time>2022-11-08T14:19:33Z</time>
      </trkpt>
      <trkpt lat="46.75883" lon="6.39105">
        <ele>916.4</ele>
        <time>2022-11-08T14:19:40Z</time>
      </trkpt>
      <trkpt lat="46.75879" lon="6.39101">
        <ele>915.9</ele>
        <time>2022-11-08T14:19:44Z</time>
      </trkpt>
      <trkpt lat="46.75874" lon="6.39098">
        <ele>915.1</ele>
        <time>2022-11-08T14:19:50Z</time>
      </trkpt>
      <trkpt lat="46.7587" lon="6.39096">
        <ele>913.8</ele>
        <time>2022-11-08T14:19:56Z</time>
      </trkpt>
      <trkpt lat="46.75866" lon="6.39091">
        <ele>913.1</ele>
        <time>2022-11-08T14:20:01Z</time>
      </trkpt>
      <trkpt lat="46.75861" lon="6.39089">
        <ele>912</ele>
        <time>2022-11-08T14:20:08Z</time>
      </trkpt>
      <trkpt lat="46.75857" lon="6.39089">
        <ele>910.7</ele>
        <time>2022-11-08T14:20:13Z</time>
      </trkpt>
      <trkpt lat="46.75852" lon="6.39087">
        <ele>909.2</ele>
        <time>2022-11-08T14:20:20Z</time>
      </trkpt>
      <trkpt lat="46.75847" lon="6.39085">
        <ele>908.3</ele>
        <time>2022-11-08T14:20:26Z</time>
      </trkpt>
      <trkpt lat="46.75842" lon="6.39082">
        <ele>907.4</ele>
        <time>2022-11-08T14:20:33Z</time>
      </trkpt>
      <trkpt lat="46.75838" lon="6.39079">
        <ele>906.5</ele>
        <time>2022-11-08T14:20:39Z</time>
      </trkpt>
      <trkpt lat="46.75833" lon="6.39078">
        <ele>905.6</ele>
        <time>2022-11-08T14:20:45Z</time>
      </trkpt>
      <trkpt lat="46.75828" lon="6.39078">
        <ele>904.3</ele>
        <time>2022-11-08T14:20:50Z</time>
      </trkpt>
      <trkpt lat="46.75823" lon="6.39079">
        <ele>902.5</ele>
        <time>2022-11-08T14:20:56Z</time>
      </trkpt>
      <trkpt lat="46.75818" lon="6.3908">
        <ele>901.1</ele>
        <time>2022-11-08T14:21:01Z</time>
      </trkpt>
      <trkpt lat="46.75813" lon="6.3908">
        <ele>900.1</ele>
        <time>2022-11-08T14:21:06Z</time>
      </trkpt>
      <trkpt lat="46.75809" lon="6.39077">
        <ele>898.8</ele>
        <time>2022-11-08T14:21:12Z</time>
      </trkpt>
      <trkpt lat="46.75804" lon="6.39076">
        <ele>897.8</ele>
        <time>2022-11-08T14:21:19Z</time>
      </trkpt>
      <trkpt lat="46.75799" lon="6.39075">
        <ele>897.7</ele>
        <time>2022-11-08T14:21:25Z</time>
      </trkpt>
      <trkpt lat="46.75795" lon="6.39076">
        <ele>897.5</ele>
        <time>2022-11-08T14:21:29Z</time>
      </trkpt>
      <trkpt lat="46.7579" lon="6.39078">
        <ele>897.4</ele>
        <time>2022-11-08T14:21:33Z</time>
      </trkpt>
      <trkpt lat="46.75785" lon="6.39079">
        <ele>897</ele>
        <time>2022-11-08T14:21:38Z</time>
      </trkpt>
      <trkpt lat="46.75779" lon="6.39078">
        <ele>896.4</ele>
        <time>2022-11-08T14:21:42Z</time>
      </trkpt>
      <trkpt lat="46.75775" lon="6.39077">
        <ele>895.9</ele>
        <time>2022-11-08T14:21:48Z</time>
      </trkpt>
      <trkpt lat="46.7577" lon="6.39079">
        <ele>895.3</ele>
        <time>2022-11-08T14:21:53Z</time>
      </trkpt>
      <trkpt lat="46.75765" lon="6.39078">
        <ele>890.3</ele>
        <time>2022-11-08T14:22:24Z</time>
      </trkpt>
      <trkpt lat="46.75761" lon="6.39073">
        <ele>888.7</ele>
        <time>2022-11-08T14:22:29Z</time>
      </trkpt>
      <trkpt lat="46.75757" lon="6.39071">
        <ele>887</ele>
        <time>2022-11-08T14:22:34Z</time>
      </trkpt>
      <trkpt lat="46.75752" lon="6.39069">
        <ele>884.1</ele>
        <time>2022-11-08T14:22:41Z</time>
      </trkpt>
      <trkpt lat="46.75747" lon="6.3907">
        <ele>882.3</ele>
        <time>2022-11-08T14:22:46Z</time>
      </trkpt>
      <trkpt lat="46.75743" lon="6.3907">
        <ele>880.5</ele>
        <time>2022-11-08T14:22:52Z</time>
      </trkpt>
      <trkpt lat="46.75738" lon="6.39071">
        <ele>879</ele>
        <time>2022-11-08T14:22:58Z</time>
      </trkpt>
      <trkpt lat="46.75733" lon="6.39073">
        <ele>877.2</ele>
        <time>2022-11-08T14:23:03Z</time>
      </trkpt>
      <trkpt lat="46.75728" lon="6.39075">
        <ele>875.6</ele>
        <time>2022-11-08T14:23:08Z</time>
      </trkpt>
      <trkpt lat="46.75723" lon="6.39076">
        <ele>875</ele>
        <time>2022-11-08T14:23:12Z</time>
      </trkpt>
      <trkpt lat="46.75718" lon="6.39076">
        <ele>875.2</ele>
        <time>2022-11-08T14:23:16Z</time>
      </trkpt>
      <trkpt lat="46.75713" lon="6.39078">
        <ele>876.3</ele>
        <time>2022-11-08T14:23:21Z</time>
      </trkpt>
      <trkpt lat="46.75709" lon="6.3908">
        <ele>877</ele>
        <time>2022-11-08T14:23:25Z</time>
      </trkpt>
      <trkpt lat="46.75705" lon="6.39086">
        <ele>877.5</ele>
        <time>2022-11-08T14:23:29Z</time>
      </trkpt>
      <trkpt lat="46.75702" lon="6.39092">
        <ele>877.8</ele>
        <time>2022-11-08T14:23:33Z</time>
      </trkpt>
      <trkpt lat="46.75704" lon="6.39099">
        <ele>877.9</ele>
        <time>2022-11-08T14:23:37Z</time>
      </trkpt>
      <trkpt lat="46.75708" lon="6.39103">
        <ele>877.3</ele>
        <time>2022-11-08T14:23:41Z</time>
      </trkpt>
      <trkpt lat="46.75713" lon="6.39106">
        <ele>876.2</ele>
        <time>2022-11-08T14:23:46Z</time>
      </trkpt>
      <trkpt lat="46.75717" lon="6.39112">
        <ele>875.4</ele>
        <time>2022-11-08T14:23:51Z</time>
      </trkpt>
      <trkpt lat="46.75721" lon="6.39115">
        <ele>874.8</ele>
        <time>2022-11-08T14:23:56Z</time>
      </trkpt>
      <trkpt lat="46.7572" lon="6.39122">
        <ele>875.5</ele>
        <time>2022-11-08T14:24:02Z</time>
      </trkpt>
    </trkseg>
  </trk>
</gpx>